<?xml version="1.0" encoding="UTF-8" standalone="no" ?>
<gpx xmlns="http://www.topografix.com/GPX/1/1" xmlns:xsi="http://www.w3.org/2001/XMLSchema-instance" xsi:schemaLocation="http://www.topografix.com/GPX/1/1 http://www.topografix.com/GPX/1/1/gpx.xsd" version="1.1" creator="VisuGPX - https://www.visugpx.com">
  <metadata>
    <name>Lachens J3</name>
  </metadata>
  <trk>
    <name><![CDATA[J3 Lachens Callian sur TraceDeTrail.fr]]></name>
    <trkseg>
      <trkpt lat="43.76551" lon="6.63358">
        <ele>1027</ele>
        <time>2017-11-19T09:40:03.000Z</time>
      </trkpt>
      <trkpt lat="43.76559" lon="6.63355">
        <ele>1027</ele>
      </trkpt>
      <trkpt lat="43.76561" lon="6.63363">
        <ele>1027</ele>
      </trkpt>
      <trkpt lat="43.76559" lon="6.63365">
        <ele>1027</ele>
      </trkpt>
      <trkpt lat="43.76559" lon="6.63369">
        <ele>1027</ele>
        <time>2017-11-19T09:47:08.000Z</time>
      </trkpt>
      <trkpt lat="43.76562" lon="6.63368">
        <ele>1027</ele>
      </trkpt>
      <trkpt lat="43.76563" lon="6.63372">
        <ele>1027</ele>
      </trkpt>
      <trkpt lat="43.76561" lon="6.63388">
        <ele>1027</ele>
      </trkpt>
      <trkpt lat="43.76559" lon="6.63395">
        <ele>1026</ele>
        <time>2017-11-19T09:47:59.000Z</time>
      </trkpt>
      <trkpt lat="43.76558" lon="6.63401">
        <ele>1027</ele>
      </trkpt>
      <trkpt lat="43.76556" lon="6.63405">
        <ele>1027</ele>
      </trkpt>
      <trkpt lat="43.76555" lon="6.63417">
        <ele>1026.9</ele>
      </trkpt>
      <trkpt lat="43.76556" lon="6.63421">
        <ele>1027</ele>
      </trkpt>
      <trkpt lat="43.76556" lon="6.63428">
        <ele>1027</ele>
        <time>2017-11-19T09:48:08.000Z</time>
      </trkpt>
      <trkpt lat="43.76555" lon="6.63442">
        <ele>1027</ele>
      </trkpt>
      <trkpt lat="43.76555" lon="6.63446">
        <ele>1027</ele>
      </trkpt>
      <trkpt lat="43.76554" lon="6.6345">
        <ele>1026.9</ele>
      </trkpt>
      <trkpt lat="43.76555" lon="6.63453">
        <ele>1027</ele>
      </trkpt>
      <trkpt lat="43.76557" lon="6.63458">
        <ele>1029</ele>
        <time>2017-11-19T09:48:57.000Z</time>
      </trkpt>
      <trkpt lat="43.76557" lon="6.63463">
        <ele>1026.9</ele>
      </trkpt>
      <trkpt lat="43.76556" lon="6.63469">
        <ele>1027</ele>
      </trkpt>
      <trkpt lat="43.76557" lon="6.63484">
        <ele>1026.9</ele>
      </trkpt>
      <trkpt lat="43.76555" lon="6.63501">
        <ele>1030</ele>
        <time>2017-11-19T09:49:10.000Z</time>
      </trkpt>
      <trkpt lat="43.76555" lon="6.63505">
        <ele>1027</ele>
      </trkpt>
      <trkpt lat="43.76555" lon="6.63514">
        <ele>1027</ele>
      </trkpt>
      <trkpt lat="43.76554" lon="6.63519">
        <ele>1026.9</ele>
      </trkpt>
      <trkpt lat="43.76553" lon="6.63528">
        <ele>1033</ele>
        <time>2017-11-19T09:49:16.000Z</time>
      </trkpt>
      <trkpt lat="43.76553" lon="6.63533">
        <ele>1026.8</ele>
      </trkpt>
      <trkpt lat="43.7655" lon="6.63555">
        <ele>1026.6</ele>
      </trkpt>
      <trkpt lat="43.76549" lon="6.63566">
        <ele>1032</ele>
        <time>2017-11-19T09:49:26.000Z</time>
      </trkpt>
      <trkpt lat="43.76547" lon="6.63578">
        <ele>1027.2</ele>
      </trkpt>
      <trkpt lat="43.76549" lon="6.63589">
        <ele>1027.4</ele>
      </trkpt>
      <trkpt lat="43.76546" lon="6.63603">
        <ele>1030</ele>
        <time>2017-11-19T09:49:41.000Z</time>
      </trkpt>
      <trkpt lat="43.76543" lon="6.63604">
        <ele>1026.7</ele>
      </trkpt>
      <trkpt lat="43.76544" lon="6.6361">
        <ele>1026.6</ele>
      </trkpt>
      <trkpt lat="43.76545" lon="6.63615">
        <ele>1026.8</ele>
      </trkpt>
      <trkpt lat="43.76543" lon="6.63623">
        <ele>1027</ele>
      </trkpt>
      <trkpt lat="43.76543" lon="6.6363">
        <ele>1029</ele>
        <time>2017-11-19T09:50:46.000Z</time>
      </trkpt>
      <trkpt lat="43.76543" lon="6.63636">
        <ele>1027.4</ele>
      </trkpt>
      <trkpt lat="43.76543" lon="6.63641">
        <ele>1027.5</ele>
      </trkpt>
      <trkpt lat="43.76539" lon="6.63644">
        <ele>1027.4</ele>
      </trkpt>
      <trkpt lat="43.7654" lon="6.63655">
        <ele>1029</ele>
        <time>2017-11-19T09:50:52.000Z</time>
      </trkpt>
      <trkpt lat="43.76541" lon="6.6366">
        <ele>1027.5</ele>
      </trkpt>
      <trkpt lat="43.76541" lon="6.63669">
        <ele>1027.4</ele>
      </trkpt>
      <trkpt lat="43.76542" lon="6.63674">
        <ele>1027.4</ele>
      </trkpt>
      <trkpt lat="43.76543" lon="6.63684">
        <ele>1028</ele>
        <time>2017-11-19T09:50:59.000Z</time>
      </trkpt>
      <trkpt lat="43.76542" lon="6.63691">
        <ele>1027.1</ele>
      </trkpt>
      <trkpt lat="43.76542" lon="6.63696">
        <ele>1027</ele>
      </trkpt>
      <trkpt lat="43.76541" lon="6.63705">
        <ele>1027.2</ele>
      </trkpt>
      <trkpt lat="43.76542" lon="6.6371">
        <ele>1027.3</ele>
      </trkpt>
      <trkpt lat="43.7654" lon="6.63729">
        <ele>1027</ele>
        <time>2017-11-19T09:51:09.000Z</time>
      </trkpt>
      <trkpt lat="43.76541" lon="6.63738">
        <ele>1027.2</ele>
      </trkpt>
      <trkpt lat="43.76539" lon="6.63743">
        <ele>1027.2</ele>
      </trkpt>
      <trkpt lat="43.76539" lon="6.63748">
        <ele>1027</ele>
      </trkpt>
      <trkpt lat="43.76539" lon="6.63758">
        <ele>1028</ele>
        <time>2017-11-19T09:51:15.000Z</time>
      </trkpt>
      <trkpt lat="43.76537" lon="6.63774">
        <ele>1026.7</ele>
      </trkpt>
      <trkpt lat="43.76537" lon="6.63778">
        <ele>1026.7</ele>
      </trkpt>
      <trkpt lat="43.76533" lon="6.63811">
        <ele>1031</ele>
        <time>2017-11-19T09:51:25.000Z</time>
      </trkpt>
      <trkpt lat="43.76531" lon="6.63817">
        <ele>1026.4</ele>
      </trkpt>
      <trkpt lat="43.76526" lon="6.63842">
        <ele>1033</ele>
        <time>2017-11-19T09:51:31.000Z</time>
      </trkpt>
      <trkpt lat="43.76524" lon="6.6385">
        <ele>1026</ele>
      </trkpt>
      <trkpt lat="43.76521" lon="6.63855">
        <ele>1026</ele>
      </trkpt>
      <trkpt lat="43.76519" lon="6.63863">
        <ele>1026</ele>
      </trkpt>
      <trkpt lat="43.76517" lon="6.63872">
        <ele>1029</ele>
        <time>2017-11-19T09:51:39.000Z</time>
      </trkpt>
      <trkpt lat="43.76516" lon="6.63878">
        <ele>1025.6</ele>
      </trkpt>
      <trkpt lat="43.76515" lon="6.63884">
        <ele>1025.6</ele>
      </trkpt>
      <trkpt lat="43.76515" lon="6.63888">
        <ele>1025.5</ele>
      </trkpt>
      <trkpt lat="43.7651" lon="6.63898">
        <ele>1027</ele>
        <time>2017-11-19T09:51:44.000Z</time>
      </trkpt>
      <trkpt lat="43.76506" lon="6.63913">
        <ele>1024.9</ele>
      </trkpt>
      <trkpt lat="43.76504" lon="6.63918">
        <ele>1024.9</ele>
      </trkpt>
      <trkpt lat="43.76503" lon="6.63923">
        <ele>1024.9</ele>
      </trkpt>
      <trkpt lat="43.76501" lon="6.63927">
        <ele>1022</ele>
        <time>2017-11-19T09:51:50.000Z</time>
      </trkpt>
      <trkpt lat="43.76499" lon="6.63938">
        <ele>1025</ele>
      </trkpt>
      <trkpt lat="43.76499" lon="6.63943">
        <ele>1025</ele>
      </trkpt>
      <trkpt lat="43.76496" lon="6.63948">
        <ele>1025</ele>
      </trkpt>
      <trkpt lat="43.76493" lon="6.63958">
        <ele>1020</ele>
        <time>2017-11-19T09:51:56.000Z</time>
      </trkpt>
      <trkpt lat="43.76491" lon="6.63968">
        <ele>1025</ele>
      </trkpt>
      <trkpt lat="43.7649" lon="6.63978">
        <ele>1025</ele>
      </trkpt>
      <trkpt lat="43.76485" lon="6.63992">
        <ele>1032</ele>
        <time>2017-11-19T09:52:03.000Z</time>
      </trkpt>
      <trkpt lat="43.76484" lon="6.64">
        <ele>1025</ele>
      </trkpt>
      <trkpt lat="43.76479" lon="6.64024">
        <ele>1033</ele>
        <time>2017-11-19T09:52:10.000Z</time>
      </trkpt>
      <trkpt lat="43.76477" lon="6.64033">
        <ele>1024</ele>
      </trkpt>
      <trkpt lat="43.76473" lon="6.64038">
        <ele>1023.7</ele>
      </trkpt>
      <trkpt lat="43.7647" lon="6.64041">
        <ele>1023.5</ele>
      </trkpt>
      <trkpt lat="43.76464" lon="6.64041">
        <ele>1033</ele>
        <time>2017-11-19T09:52:18.000Z</time>
      </trkpt>
      <trkpt lat="43.76448" lon="6.64034">
        <ele>1023.3</ele>
      </trkpt>
      <trkpt lat="43.76435" lon="6.64026">
        <ele>1025</ele>
        <time>2017-11-19T09:52:28.000Z</time>
      </trkpt>
      <trkpt lat="43.76432" lon="6.64023">
        <ele>1023.1</ele>
      </trkpt>
      <trkpt lat="43.76426" lon="6.64018">
        <ele>1023.1</ele>
      </trkpt>
      <trkpt lat="43.76423" lon="6.64016">
        <ele>1023.1</ele>
      </trkpt>
      <trkpt lat="43.76419" lon="6.64015">
        <ele>1023</ele>
      </trkpt>
      <trkpt lat="43.76413" lon="6.6401">
        <ele>1022</ele>
        <time>2017-11-19T09:52:35.000Z</time>
      </trkpt>
      <trkpt lat="43.764" lon="6.64002">
        <ele>1022.4</ele>
      </trkpt>
      <trkpt lat="43.76397" lon="6.63999">
        <ele>1022.2</ele>
      </trkpt>
      <trkpt lat="43.76393" lon="6.63998">
        <ele>1018</ele>
        <time>2017-11-19T09:52:41.000Z</time>
      </trkpt>
      <trkpt lat="43.76387" lon="6.63992">
        <ele>1021.4</ele>
      </trkpt>
      <trkpt lat="43.76376" lon="6.63987">
        <ele>1021</ele>
      </trkpt>
      <trkpt lat="43.7637" lon="6.63982">
        <ele>1018</ele>
        <time>2017-11-19T09:52:48.000Z</time>
      </trkpt>
      <trkpt lat="43.7636" lon="6.63977">
        <ele>1021</ele>
      </trkpt>
      <trkpt lat="43.76357" lon="6.63974">
        <ele>1021</ele>
      </trkpt>
      <trkpt lat="43.76346" lon="6.63967">
        <ele>1019</ele>
        <time>2017-11-19T09:52:55.000Z</time>
      </trkpt>
      <trkpt lat="43.76343" lon="6.63964">
        <ele>1020.7</ele>
      </trkpt>
      <trkpt lat="43.76326" lon="6.63954">
        <ele>1021</ele>
        <time>2017-11-19T09:53:01.000Z</time>
      </trkpt>
      <trkpt lat="43.76309" lon="6.63942">
        <ele>1022</ele>
        <time>2017-11-19T09:53:06.000Z</time>
      </trkpt>
      <trkpt lat="43.76291" lon="6.63931">
        <ele>1025</ele>
        <time>2017-11-19T09:53:11.000Z</time>
      </trkpt>
      <trkpt lat="43.76284" lon="6.63925">
        <ele>1020.1</ele>
      </trkpt>
      <trkpt lat="43.76266" lon="6.63914">
        <ele>1026</ele>
        <time>2017-11-19T09:53:18.000Z</time>
      </trkpt>
      <trkpt lat="43.76256" lon="6.63907">
        <ele>1019.9</ele>
      </trkpt>
      <trkpt lat="43.76249" lon="6.639">
        <ele>1026</ele>
        <time>2017-11-19T09:53:23.000Z</time>
      </trkpt>
      <trkpt lat="43.76228" lon="6.63886">
        <ele>1029</ele>
        <time>2017-11-19T09:53:29.000Z</time>
      </trkpt>
      <trkpt lat="43.76221" lon="6.63881">
        <ele>1020.7</ele>
      </trkpt>
      <trkpt lat="43.762" lon="6.63869">
        <ele>1025</ele>
        <time>2017-11-19T09:53:36.000Z</time>
      </trkpt>
      <trkpt lat="43.76189" lon="6.63859">
        <ele>1019.9</ele>
      </trkpt>
      <trkpt lat="43.76185" lon="6.63856">
        <ele>1019.9</ele>
      </trkpt>
      <trkpt lat="43.7618" lon="6.63852">
        <ele>1021</ele>
        <time>2017-11-19T09:53:41.000Z</time>
      </trkpt>
      <trkpt lat="43.76176" lon="6.63849">
        <ele>1019.9</ele>
      </trkpt>
      <trkpt lat="43.76159" lon="6.63836">
        <ele>1024</ele>
        <time>2017-11-19T09:53:46.000Z</time>
      </trkpt>
      <trkpt lat="43.7615" lon="6.63831">
        <ele>1019.9</ele>
      </trkpt>
      <trkpt lat="43.76141" lon="6.63826">
        <ele>1024</ele>
        <time>2017-11-19T09:53:50.000Z</time>
      </trkpt>
      <trkpt lat="43.76136" lon="6.63822">
        <ele>1019.5</ele>
      </trkpt>
      <trkpt lat="43.76124" lon="6.63815">
        <ele>1019.2</ele>
      </trkpt>
      <trkpt lat="43.76121" lon="6.63812">
        <ele>1023</ele>
        <time>2017-11-19T09:53:55.000Z</time>
      </trkpt>
      <trkpt lat="43.76102" lon="6.63798">
        <ele>1021</ele>
        <time>2017-11-19T09:54:00.000Z</time>
      </trkpt>
      <trkpt lat="43.76086" lon="6.63789">
        <ele>1018</ele>
      </trkpt>
      <trkpt lat="43.76074" lon="6.6378">
        <ele>1021</ele>
        <time>2017-11-19T09:54:07.000Z</time>
      </trkpt>
      <trkpt lat="43.76069" lon="6.63777">
        <ele>1019</ele>
      </trkpt>
      <trkpt lat="43.76065" lon="6.63774">
        <ele>1019.1</ele>
      </trkpt>
      <trkpt lat="43.76061" lon="6.63771">
        <ele>1019.2</ele>
      </trkpt>
      <trkpt lat="43.76039" lon="6.63756">
        <ele>1025</ele>
        <time>2017-11-19T09:54:15.000Z</time>
      </trkpt>
      <trkpt lat="43.7603" lon="6.63751">
        <ele>1019.8</ele>
      </trkpt>
      <trkpt lat="43.76018" lon="6.63741">
        <ele>1027</ele>
        <time>2017-11-19T09:54:20.000Z</time>
      </trkpt>
      <trkpt lat="43.7601" lon="6.63736">
        <ele>1019.8</ele>
      </trkpt>
      <trkpt lat="43.76006" lon="6.63733">
        <ele>1019.9</ele>
      </trkpt>
      <trkpt lat="43.75999" lon="6.63727">
        <ele>1033</ele>
        <time>2017-11-19T09:54:25.000Z</time>
      </trkpt>
      <trkpt lat="43.75982" lon="6.63716">
        <ele>1020.5</ele>
      </trkpt>
      <trkpt lat="43.75974" lon="6.63709">
        <ele>1035</ele>
        <time>2017-11-19T09:54:31.000Z</time>
      </trkpt>
      <trkpt lat="43.75962" lon="6.63701">
        <ele>1020.5</ele>
      </trkpt>
      <trkpt lat="43.75958" lon="6.63697">
        <ele>1020.6</ele>
      </trkpt>
      <trkpt lat="43.75945" lon="6.6369">
        <ele>1028</ele>
        <time>2017-11-19T09:54:38.000Z</time>
      </trkpt>
      <trkpt lat="43.7593" lon="6.63678">
        <ele>1021.5</ele>
      </trkpt>
      <trkpt lat="43.75914" lon="6.63668">
        <ele>1029</ele>
        <time>2017-11-19T09:54:46.000Z</time>
      </trkpt>
      <trkpt lat="43.75902" lon="6.63661">
        <ele>1022.4</ele>
      </trkpt>
      <trkpt lat="43.75891" lon="6.63653">
        <ele>1025</ele>
        <time>2017-11-19T09:54:52.000Z</time>
      </trkpt>
      <trkpt lat="43.75878" lon="6.63645">
        <ele>1022.5</ele>
      </trkpt>
      <trkpt lat="43.75874" lon="6.63642">
        <ele>1022.6</ele>
      </trkpt>
      <trkpt lat="43.75871" lon="6.63638">
        <ele>1029</ele>
        <time>2017-11-19T09:54:58.000Z</time>
      </trkpt>
      <trkpt lat="43.75859" lon="6.6363">
        <ele>1023</ele>
      </trkpt>
      <trkpt lat="43.75834" lon="6.63616">
        <ele>1027</ele>
        <time>2017-11-19T09:55:08.000Z</time>
      </trkpt>
      <trkpt lat="43.75823" lon="6.63608">
        <ele>1024.3</ele>
      </trkpt>
      <trkpt lat="43.75809" lon="6.63599">
        <ele>1029</ele>
        <time>2017-11-19T09:55:15.000Z</time>
      </trkpt>
      <trkpt lat="43.75798" lon="6.63591">
        <ele>1024.8</ele>
      </trkpt>
      <trkpt lat="43.75785" lon="6.63583">
        <ele>1034</ele>
        <time>2017-11-19T09:55:22.000Z</time>
      </trkpt>
      <trkpt lat="43.75772" lon="6.63574">
        <ele>1025.5</ele>
      </trkpt>
      <trkpt lat="43.75748" lon="6.63558">
        <ele>1035</ele>
        <time>2017-11-19T09:55:33.000Z</time>
      </trkpt>
      <trkpt lat="43.75737" lon="6.63551">
        <ele>1026.2</ele>
      </trkpt>
      <trkpt lat="43.75725" lon="6.63539">
        <ele>1037</ele>
        <time>2017-11-19T09:55:40.000Z</time>
      </trkpt>
      <trkpt lat="43.75716" lon="6.6353">
        <ele>1027.2</ele>
      </trkpt>
      <trkpt lat="43.75705" lon="6.63517">
        <ele>1043</ele>
        <time>2017-11-19T09:55:47.000Z</time>
      </trkpt>
      <trkpt lat="43.75696" lon="6.63505">
        <ele>1028.4</ele>
      </trkpt>
      <trkpt lat="43.75681" lon="6.63482">
        <ele>1041</ele>
        <time>2017-11-19T09:55:56.000Z</time>
      </trkpt>
      <trkpt lat="43.75664" lon="6.63443">
        <ele>1041</ele>
        <time>2017-11-19T09:56:05.000Z</time>
      </trkpt>
      <trkpt lat="43.75659" lon="6.63429">
        <ele>1033.5</ele>
      </trkpt>
      <trkpt lat="43.75657" lon="6.63424">
        <ele>1034.2</ele>
      </trkpt>
      <trkpt lat="43.75654" lon="6.63416">
        <ele>1034</ele>
        <time>2017-11-19T09:56:11.000Z</time>
      </trkpt>
      <trkpt lat="43.75652" lon="6.63411">
        <ele>1034.6</ele>
      </trkpt>
      <trkpt lat="43.7564" lon="6.6338">
        <ele>1034</ele>
        <time>2017-11-19T09:56:19.000Z</time>
      </trkpt>
      <trkpt lat="43.7564" lon="6.63376">
        <ele>1031.5</ele>
      </trkpt>
      <trkpt lat="43.75638" lon="6.63372">
        <ele>1031.2</ele>
      </trkpt>
      <trkpt lat="43.75634" lon="6.63363">
        <ele>1031.5</ele>
      </trkpt>
      <trkpt lat="43.7563" lon="6.63354">
        <ele>1036</ele>
        <time>2017-11-19T09:56:25.000Z</time>
      </trkpt>
      <trkpt lat="43.75627" lon="6.63344">
        <ele>1032.7</ele>
      </trkpt>
      <trkpt lat="43.75616" lon="6.63321">
        <ele>1034</ele>
        <time>2017-11-19T09:56:32.000Z</time>
      </trkpt>
      <trkpt lat="43.75611" lon="6.63314">
        <ele>1032.7</ele>
      </trkpt>
      <trkpt lat="43.7561" lon="6.63309">
        <ele>1032.8</ele>
      </trkpt>
      <trkpt lat="43.75596" lon="6.63285">
        <ele>1041</ele>
        <time>2017-11-19T09:56:41.000Z</time>
      </trkpt>
      <trkpt lat="43.75586" lon="6.63272">
        <ele>1033.4</ele>
      </trkpt>
      <trkpt lat="43.75582" lon="6.63264">
        <ele>1043</ele>
        <time>2017-11-19T09:56:47.000Z</time>
      </trkpt>
      <trkpt lat="43.75574" lon="6.63254">
        <ele>1033.5</ele>
      </trkpt>
      <trkpt lat="43.75572" lon="6.6325">
        <ele>1033.6</ele>
      </trkpt>
      <trkpt lat="43.75567" lon="6.63243">
        <ele>1042</ele>
        <time>2017-11-19T09:56:53.000Z</time>
      </trkpt>
      <trkpt lat="43.75559" lon="6.63234">
        <ele>1033.8</ele>
      </trkpt>
      <trkpt lat="43.75543" lon="6.6321">
        <ele>1046</ele>
        <time>2017-11-19T09:57:03.000Z</time>
      </trkpt>
      <trkpt lat="43.75537" lon="6.63205">
        <ele>1034.8</ele>
      </trkpt>
      <trkpt lat="43.75525" lon="6.63188">
        <ele>1050</ele>
        <time>2017-11-19T09:57:10.000Z</time>
      </trkpt>
      <trkpt lat="43.75518" lon="6.63177">
        <ele>1035.6</ele>
      </trkpt>
      <trkpt lat="43.75514" lon="6.63171">
        <ele>1035.8</ele>
      </trkpt>
      <trkpt lat="43.75505" lon="6.63157">
        <ele>1051</ele>
        <time>2017-11-19T09:57:19.000Z</time>
      </trkpt>
      <trkpt lat="43.75498" lon="6.63148">
        <ele>1037.6</ele>
      </trkpt>
      <trkpt lat="43.75487" lon="6.63131">
        <ele>1049</ele>
        <time>2017-11-19T09:57:27.000Z</time>
      </trkpt>
      <trkpt lat="43.75484" lon="6.63128">
        <ele>1037.4</ele>
      </trkpt>
      <trkpt lat="43.7548" lon="6.63121">
        <ele>1037.8</ele>
      </trkpt>
      <trkpt lat="43.75477" lon="6.63119">
        <ele>1038</ele>
      </trkpt>
      <trkpt lat="43.75471" lon="6.63108">
        <ele>1048</ele>
        <time>2017-11-19T09:57:34.000Z</time>
      </trkpt>
      <trkpt lat="43.75465" lon="6.63102">
        <ele>1038.8</ele>
      </trkpt>
      <trkpt lat="43.75462" lon="6.63099">
        <ele>1038.8</ele>
      </trkpt>
      <trkpt lat="43.75447" lon="6.63079">
        <ele>1050</ele>
        <time>2017-11-19T09:57:43.000Z</time>
      </trkpt>
      <trkpt lat="43.75441" lon="6.63073">
        <ele>1040.5</ele>
      </trkpt>
      <trkpt lat="43.7543" lon="6.63057">
        <ele>1045</ele>
        <time>2017-11-19T09:57:50.000Z</time>
      </trkpt>
      <trkpt lat="43.75419" lon="6.63039">
        <ele>1042</ele>
      </trkpt>
      <trkpt lat="43.7541" lon="6.63028">
        <ele>1043</ele>
        <time>2017-11-19T09:58:00.000Z</time>
      </trkpt>
      <trkpt lat="43.75404" lon="6.63019">
        <ele>1043</ele>
      </trkpt>
      <trkpt lat="43.75403" lon="6.63016">
        <ele>1043.1</ele>
      </trkpt>
      <trkpt lat="43.75401" lon="6.63013">
        <ele>1043.3</ele>
      </trkpt>
      <trkpt lat="43.75391" lon="6.63005">
        <ele>1044</ele>
        <time>2017-11-19T09:58:09.000Z</time>
      </trkpt>
      <trkpt lat="43.75387" lon="6.63001">
        <ele>1044</ele>
      </trkpt>
      <trkpt lat="43.75382" lon="6.62997">
        <ele>1044.9</ele>
      </trkpt>
      <trkpt lat="43.75379" lon="6.62996">
        <ele>1045.2</ele>
      </trkpt>
      <trkpt lat="43.75358" lon="6.62989">
        <ele>1050</ele>
        <time>2017-11-19T09:58:21.000Z</time>
      </trkpt>
      <trkpt lat="43.75338" lon="6.6298">
        <ele>1046</ele>
        <time>2017-11-19T09:58:29.000Z</time>
      </trkpt>
      <trkpt lat="43.75328" lon="6.62977">
        <ele>1046.7</ele>
      </trkpt>
      <trkpt lat="43.75319" lon="6.62975">
        <ele>1046.9</ele>
      </trkpt>
      <trkpt lat="43.75317" lon="6.62972">
        <ele>1046</ele>
        <time>2017-11-19T09:58:36.000Z</time>
      </trkpt>
      <trkpt lat="43.75307" lon="6.62969">
        <ele>1047.2</ele>
      </trkpt>
      <trkpt lat="43.75304" lon="6.62969">
        <ele>1047.3</ele>
      </trkpt>
      <trkpt lat="43.75293" lon="6.62964">
        <ele>1046</ele>
        <time>2017-11-19T09:58:44.000Z</time>
      </trkpt>
      <trkpt lat="43.75289" lon="6.62964">
        <ele>1048</ele>
      </trkpt>
      <trkpt lat="43.75283" lon="6.62961">
        <ele>1048.3</ele>
      </trkpt>
      <trkpt lat="43.75277" lon="6.6296">
        <ele>1048.4</ele>
      </trkpt>
      <trkpt lat="43.75265" lon="6.62956">
        <ele>1049</ele>
        <time>2017-11-19T09:58:53.000Z</time>
      </trkpt>
      <trkpt lat="43.75242" lon="6.62955">
        <ele>1049</ele>
        <time>2017-11-19T09:59:00.000Z</time>
      </trkpt>
      <trkpt lat="43.75234" lon="6.62952">
        <ele>1049.7</ele>
      </trkpt>
      <trkpt lat="43.75224" lon="6.6295">
        <ele>1050.5</ele>
      </trkpt>
      <trkpt lat="43.75219" lon="6.6295">
        <ele>1052</ele>
        <time>2017-11-19T09:59:09.000Z</time>
      </trkpt>
      <trkpt lat="43.75215" lon="6.62948">
        <ele>1051.2</ele>
      </trkpt>
      <trkpt lat="43.75208" lon="6.62948">
        <ele>1051.7</ele>
      </trkpt>
      <trkpt lat="43.75205" lon="6.62948">
        <ele>1051.9</ele>
      </trkpt>
      <trkpt lat="43.75201" lon="6.62946">
        <ele>1052.4</ele>
      </trkpt>
      <trkpt lat="43.75196" lon="6.62945">
        <ele>1056</ele>
        <time>2017-11-19T09:59:19.000Z</time>
      </trkpt>
      <trkpt lat="43.75185" lon="6.62947">
        <ele>1053.4</ele>
      </trkpt>
      <trkpt lat="43.75174" lon="6.62946">
        <ele>1059</ele>
        <time>2017-11-19T09:59:28.000Z</time>
      </trkpt>
      <trkpt lat="43.75171" lon="6.62947">
        <ele>1054.4</ele>
      </trkpt>
      <trkpt lat="43.75167" lon="6.62947">
        <ele>1054.7</ele>
      </trkpt>
      <trkpt lat="43.75152" lon="6.62946">
        <ele>1059</ele>
        <time>2017-11-19T09:59:37.000Z</time>
      </trkpt>
      <trkpt lat="43.75147" lon="6.62947">
        <ele>1056.1</ele>
      </trkpt>
      <trkpt lat="43.75143" lon="6.62945">
        <ele>1056.6</ele>
      </trkpt>
      <trkpt lat="43.75135" lon="6.62945">
        <ele>1057.1</ele>
      </trkpt>
      <trkpt lat="43.75119" lon="6.62945">
        <ele>1067</ele>
        <time>2017-11-19T09:59:50.000Z</time>
      </trkpt>
      <trkpt lat="43.75096" lon="6.62949">
        <ele>1067</ele>
        <time>2017-11-19T10:00:00.000Z</time>
      </trkpt>
      <trkpt lat="43.75091" lon="6.6295">
        <ele>1060.4</ele>
      </trkpt>
      <trkpt lat="43.75074" lon="6.62955">
        <ele>1067</ele>
        <time>2017-11-19T10:00:09.000Z</time>
      </trkpt>
      <trkpt lat="43.75068" lon="6.62957">
        <ele>1062.9</ele>
      </trkpt>
      <trkpt lat="43.75053" lon="6.62962">
        <ele>1062</ele>
        <time>2017-11-19T10:00:18.000Z</time>
      </trkpt>
      <trkpt lat="43.75041" lon="6.62965">
        <ele>1065</ele>
      </trkpt>
      <trkpt lat="43.75007" lon="6.62976">
        <ele>1060</ele>
        <time>2017-11-19T10:00:41.000Z</time>
      </trkpt>
      <trkpt lat="43.75003" lon="6.6298">
        <ele>1066.8</ele>
      </trkpt>
      <trkpt lat="43.74998" lon="6.62991">
        <ele>1067.1</ele>
      </trkpt>
      <trkpt lat="43.74991" lon="6.63">
        <ele>1065</ele>
        <time>2017-11-19T10:00:51.000Z</time>
      </trkpt>
      <trkpt lat="43.74989" lon="6.63005">
        <ele>1067.6</ele>
      </trkpt>
      <trkpt lat="43.7499" lon="6.63019">
        <ele>1069.4</ele>
      </trkpt>
      <trkpt lat="43.74993" lon="6.63022">
        <ele>1069.4</ele>
      </trkpt>
      <trkpt lat="43.74999" lon="6.63026">
        <ele>1072</ele>
        <time>2017-11-19T10:01:30.000Z</time>
      </trkpt>
      <trkpt lat="43.74999" lon="6.63031">
        <ele>1069.7</ele>
      </trkpt>
      <trkpt lat="43.75005" lon="6.63037">
        <ele>1070.1</ele>
      </trkpt>
      <trkpt lat="43.75009" lon="6.63043">
        <ele>1070.8</ele>
      </trkpt>
      <trkpt lat="43.75015" lon="6.63047">
        <ele>1072</ele>
        <time>2017-11-19T10:04:41.000Z</time>
      </trkpt>
      <trkpt lat="43.75022" lon="6.63052">
        <ele>1071</ele>
      </trkpt>
      <trkpt lat="43.75024" lon="6.63055">
        <ele>1071.3</ele>
      </trkpt>
      <trkpt lat="43.75026" lon="6.63056">
        <ele>1071.2</ele>
      </trkpt>
      <trkpt lat="43.75028" lon="6.63058">
        <ele>1071.2</ele>
      </trkpt>
      <trkpt lat="43.7503" lon="6.63062">
        <ele>1071.4</ele>
      </trkpt>
      <trkpt lat="43.75035" lon="6.63068">
        <ele>1074</ele>
        <time>2017-11-19T10:04:56.000Z</time>
      </trkpt>
      <trkpt lat="43.75036" lon="6.63072">
        <ele>1071.8</ele>
      </trkpt>
      <trkpt lat="43.75035" lon="6.63077">
        <ele>1072.5</ele>
      </trkpt>
      <trkpt lat="43.75031" lon="6.6308">
        <ele>1073.3</ele>
      </trkpt>
      <trkpt lat="43.75029" lon="6.6308">
        <ele>1073.5</ele>
      </trkpt>
      <trkpt lat="43.75025" lon="6.63078">
        <ele>1074</ele>
      </trkpt>
      <trkpt lat="43.75016" lon="6.6306">
        <ele>1078</ele>
        <time>2017-11-19T10:05:18.000Z</time>
      </trkpt>
      <trkpt lat="43.75013" lon="6.63056">
        <ele>1072.7</ele>
      </trkpt>
      <trkpt lat="43.75007" lon="6.63051">
        <ele>1072.4</ele>
      </trkpt>
      <trkpt lat="43.74999" lon="6.63047">
        <ele>1072</ele>
        <time>2017-11-19T10:05:30.000Z</time>
      </trkpt>
      <trkpt lat="43.74991" lon="6.63045">
        <ele>1073.2</ele>
      </trkpt>
      <trkpt lat="43.74988" lon="6.6304">
        <ele>1072.7</ele>
      </trkpt>
      <trkpt lat="43.74982" lon="6.63039">
        <ele>1073.4</ele>
      </trkpt>
      <trkpt lat="43.74975" lon="6.63035">
        <ele>1071</ele>
        <time>2017-11-19T10:05:39.000Z</time>
      </trkpt>
      <trkpt lat="43.7497" lon="6.63036">
        <ele>1074.3</ele>
      </trkpt>
      <trkpt lat="43.74959" lon="6.63034">
        <ele>1074.6</ele>
      </trkpt>
      <trkpt lat="43.74955" lon="6.63032">
        <ele>1066</ele>
        <time>2017-11-19T10:05:47.000Z</time>
      </trkpt>
      <trkpt lat="43.74948" lon="6.6303">
        <ele>1074.9</ele>
      </trkpt>
      <trkpt lat="43.74937" lon="6.6303">
        <ele>1074.5</ele>
      </trkpt>
      <trkpt lat="43.74935" lon="6.63032">
        <ele>1064</ele>
        <time>2017-11-19T10:05:55.000Z</time>
      </trkpt>
      <trkpt lat="43.74933" lon="6.63039">
        <ele>1075.4</ele>
      </trkpt>
      <trkpt lat="43.74936" lon="6.63048">
        <ele>1076.7</ele>
      </trkpt>
      <trkpt lat="43.7494" lon="6.63052">
        <ele>1077</ele>
      </trkpt>
      <trkpt lat="43.74948" lon="6.63056">
        <ele>1074</ele>
        <time>2017-11-19T10:06:06.000Z</time>
      </trkpt>
      <trkpt lat="43.74956" lon="6.63058">
        <ele>1077.6</ele>
      </trkpt>
      <trkpt lat="43.74959" lon="6.63058">
        <ele>1077.6</ele>
      </trkpt>
      <trkpt lat="43.74966" lon="6.6306">
        <ele>1077.9</ele>
      </trkpt>
      <trkpt lat="43.74969" lon="6.63062">
        <ele>1078</ele>
        <time>2017-11-19T10:06:17.000Z</time>
      </trkpt>
      <trkpt lat="43.74972" lon="6.63063">
        <ele>1078.3</ele>
      </trkpt>
      <trkpt lat="43.74977" lon="6.63066">
        <ele>1078.4</ele>
      </trkpt>
      <trkpt lat="43.74983" lon="6.6307">
        <ele>1078.6</ele>
      </trkpt>
      <trkpt lat="43.74996" lon="6.63084">
        <ele>1084</ele>
        <time>2017-11-19T10:06:30.000Z</time>
      </trkpt>
      <trkpt lat="43.74999" lon="6.63087">
        <ele>1080.9</ele>
      </trkpt>
      <trkpt lat="43.75002" lon="6.6309">
        <ele>1081</ele>
      </trkpt>
      <trkpt lat="43.75014" lon="6.63111">
        <ele>1091</ele>
        <time>2017-11-19T10:06:44.000Z</time>
      </trkpt>
      <trkpt lat="43.75017" lon="6.63115">
        <ele>1083.3</ele>
      </trkpt>
      <trkpt lat="43.75019" lon="6.6312">
        <ele>1084.1</ele>
      </trkpt>
      <trkpt lat="43.75024" lon="6.63127">
        <ele>1084.8</ele>
      </trkpt>
      <trkpt lat="43.75025" lon="6.63131">
        <ele>1085.6</ele>
      </trkpt>
      <trkpt lat="43.75026" lon="6.63135">
        <ele>1097</ele>
        <time>2017-11-19T10:06:56.000Z</time>
      </trkpt>
      <trkpt lat="43.75029" lon="6.63139">
        <ele>1086.8</ele>
      </trkpt>
      <trkpt lat="43.75035" lon="6.63142">
        <ele>1087.1</ele>
      </trkpt>
      <trkpt lat="43.7504" lon="6.63148">
        <ele>1088.9</ele>
      </trkpt>
      <trkpt lat="43.75055" lon="6.63153">
        <ele>1095</ele>
        <time>2017-11-19T10:07:14.000Z</time>
      </trkpt>
      <trkpt lat="43.7506" lon="6.63155">
        <ele>1089.3</ele>
      </trkpt>
      <trkpt lat="43.75065" lon="6.63157">
        <ele>1090</ele>
      </trkpt>
      <trkpt lat="43.75072" lon="6.63156">
        <ele>1089.2</ele>
      </trkpt>
      <trkpt lat="43.75087" lon="6.63161">
        <ele>1100</ele>
        <time>2017-11-19T10:07:30.000Z</time>
      </trkpt>
      <trkpt lat="43.7509" lon="6.63163">
        <ele>1091.3</ele>
      </trkpt>
      <trkpt lat="43.75097" lon="6.63164">
        <ele>1090.8</ele>
      </trkpt>
      <trkpt lat="43.75105" lon="6.63167">
        <ele>1091</ele>
      </trkpt>
      <trkpt lat="43.75108" lon="6.63169">
        <ele>1094</ele>
        <time>2017-11-19T10:07:42.000Z</time>
      </trkpt>
      <trkpt lat="43.75118" lon="6.63176">
        <ele>1091.8</ele>
      </trkpt>
      <trkpt lat="43.75124" lon="6.63179">
        <ele>1091.7</ele>
      </trkpt>
      <trkpt lat="43.75127" lon="6.63182">
        <ele>1094</ele>
        <time>2017-11-19T10:07:55.000Z</time>
      </trkpt>
      <trkpt lat="43.7513" lon="6.63187">
        <ele>1093.2</ele>
      </trkpt>
      <trkpt lat="43.75142" lon="6.63199">
        <ele>1095.6</ele>
      </trkpt>
      <trkpt lat="43.75144" lon="6.632">
        <ele>1106</ele>
        <time>2017-11-19T10:08:10.000Z</time>
      </trkpt>
      <trkpt lat="43.75148" lon="6.63203">
        <ele>1096.4</ele>
      </trkpt>
      <trkpt lat="43.75159" lon="6.63209">
        <ele>1097</ele>
      </trkpt>
      <trkpt lat="43.75168" lon="6.63212">
        <ele>1119</ele>
        <time>2017-11-19T10:08:26.000Z</time>
      </trkpt>
      <trkpt lat="43.75172" lon="6.63214">
        <ele>1097.3</ele>
      </trkpt>
      <trkpt lat="43.75179" lon="6.63214">
        <ele>1097.2</ele>
      </trkpt>
      <trkpt lat="43.75183" lon="6.63215">
        <ele>1097.5</ele>
      </trkpt>
      <trkpt lat="43.7519" lon="6.6322">
        <ele>1111</ele>
        <time>2017-11-19T10:08:38.000Z</time>
      </trkpt>
      <trkpt lat="43.75194" lon="6.63221">
        <ele>1099.6</ele>
      </trkpt>
      <trkpt lat="43.75196" lon="6.63223">
        <ele>1100.4</ele>
      </trkpt>
      <trkpt lat="43.75212" lon="6.63228">
        <ele>1102</ele>
        <time>2017-11-19T10:08:51.000Z</time>
      </trkpt>
      <trkpt lat="43.75229" lon="6.63235">
        <ele>1102.9</ele>
      </trkpt>
      <trkpt lat="43.75242" lon="6.63238">
        <ele>1101</ele>
        <time>2017-11-19T10:09:09.000Z</time>
      </trkpt>
      <trkpt lat="43.75252" lon="6.63235">
        <ele>1101.2</ele>
      </trkpt>
      <trkpt lat="43.75259" lon="6.63235">
        <ele>1102.1</ele>
      </trkpt>
      <trkpt lat="43.75266" lon="6.63233">
        <ele>1101</ele>
        <time>2017-11-19T10:09:23.000Z</time>
      </trkpt>
      <trkpt lat="43.75277" lon="6.63236">
        <ele>1104.9</ele>
      </trkpt>
      <trkpt lat="43.7528" lon="6.63235">
        <ele>1104.8</ele>
      </trkpt>
      <trkpt lat="43.75294" lon="6.63235">
        <ele>1097</ele>
        <time>2017-11-19T10:09:39.000Z</time>
      </trkpt>
      <trkpt lat="43.75298" lon="6.63237">
        <ele>1107.9</ele>
      </trkpt>
      <trkpt lat="43.75309" lon="6.63237">
        <ele>1108.3</ele>
      </trkpt>
      <trkpt lat="43.75319" lon="6.63241">
        <ele>1109</ele>
        <time>2017-11-19T10:09:53.000Z</time>
      </trkpt>
      <trkpt lat="43.75327" lon="6.63249">
        <ele>1108.3</ele>
      </trkpt>
      <trkpt lat="43.75329" lon="6.63253">
        <ele>1108.6</ele>
      </trkpt>
      <trkpt lat="43.75332" lon="6.6327">
        <ele>1105</ele>
        <time>2017-11-19T10:10:09.000Z</time>
      </trkpt>
      <trkpt lat="43.75334" lon="6.63286">
        <ele>1111.5</ele>
      </trkpt>
      <trkpt lat="43.75333" lon="6.63291">
        <ele>1112.6</ele>
      </trkpt>
      <trkpt lat="43.75334" lon="6.63295">
        <ele>1112.5</ele>
      </trkpt>
      <trkpt lat="43.75333" lon="6.63305">
        <ele>1116</ele>
        <time>2017-11-19T10:10:23.000Z</time>
      </trkpt>
      <trkpt lat="43.75331" lon="6.63315">
        <ele>1115</ele>
      </trkpt>
      <trkpt lat="43.7533" lon="6.63325">
        <ele>1115.5</ele>
      </trkpt>
      <trkpt lat="43.75331" lon="6.63329">
        <ele>1115.1</ele>
      </trkpt>
      <trkpt lat="43.7533" lon="6.63335">
        <ele>1119</ele>
        <time>2017-11-19T10:10:35.000Z</time>
      </trkpt>
      <trkpt lat="43.7533" lon="6.6334">
        <ele>1115.8</ele>
      </trkpt>
      <trkpt lat="43.75329" lon="6.63351">
        <ele>1116.6</ele>
      </trkpt>
      <trkpt lat="43.75329" lon="6.63361">
        <ele>1116.9</ele>
      </trkpt>
      <trkpt lat="43.75322" lon="6.63395">
        <ele>1119</ele>
        <time>2017-11-19T10:10:59.000Z</time>
      </trkpt>
      <trkpt lat="43.75322" lon="6.63404">
        <ele>1119.9</ele>
      </trkpt>
      <trkpt lat="43.75319" lon="6.63413">
        <ele>1121.2</ele>
      </trkpt>
      <trkpt lat="43.75318" lon="6.63427">
        <ele>1130</ele>
        <time>2017-11-19T10:11:13.000Z</time>
      </trkpt>
      <trkpt lat="43.7532" lon="6.63442">
        <ele>1122.1</ele>
      </trkpt>
      <trkpt lat="43.75319" lon="6.63447">
        <ele>1122.8</ele>
      </trkpt>
      <trkpt lat="43.7532" lon="6.6345">
        <ele>1122.6</ele>
      </trkpt>
      <trkpt lat="43.75319" lon="6.63459">
        <ele>1131</ele>
        <time>2017-11-19T10:11:28.000Z</time>
      </trkpt>
      <trkpt lat="43.75314" lon="6.6348">
        <ele>1125.4</ele>
      </trkpt>
      <trkpt lat="43.75309" lon="6.63492">
        <ele>1131</ele>
        <time>2017-11-19T10:11:44.000Z</time>
      </trkpt>
      <trkpt lat="43.75302" lon="6.63504">
        <ele>1127.5</ele>
      </trkpt>
      <trkpt lat="43.753" lon="6.63508">
        <ele>1128.4</ele>
      </trkpt>
      <trkpt lat="43.75296" lon="6.63537">
        <ele>1143</ele>
        <time>2017-11-19T10:12:06.000Z</time>
      </trkpt>
      <trkpt lat="43.75295" lon="6.63541">
        <ele>1130.6</ele>
      </trkpt>
      <trkpt lat="43.75293" lon="6.63565">
        <ele>1142</ele>
        <time>2017-11-19T10:12:18.000Z</time>
      </trkpt>
      <trkpt lat="43.75291" lon="6.63573">
        <ele>1132</ele>
      </trkpt>
      <trkpt lat="43.7529" lon="6.63578">
        <ele>1132.3</ele>
      </trkpt>
      <trkpt lat="43.75288" lon="6.63592">
        <ele>1141</ele>
        <time>2017-11-19T10:12:30.000Z</time>
      </trkpt>
      <trkpt lat="43.75286" lon="6.63596">
        <ele>1133.7</ele>
      </trkpt>
      <trkpt lat="43.75286" lon="6.63601">
        <ele>1133.7</ele>
      </trkpt>
      <trkpt lat="43.75286" lon="6.63606">
        <ele>1133.7</ele>
      </trkpt>
      <trkpt lat="43.75284" lon="6.6361">
        <ele>1134.5</ele>
      </trkpt>
      <trkpt lat="43.75285" lon="6.63614">
        <ele>1134.2</ele>
      </trkpt>
      <trkpt lat="43.75283" lon="6.63626">
        <ele>1135</ele>
        <time>2017-11-19T10:12:46.000Z</time>
      </trkpt>
      <trkpt lat="43.75281" lon="6.63634">
        <ele>1135.9</ele>
      </trkpt>
      <trkpt lat="43.75279" lon="6.63642">
        <ele>1136.6</ele>
      </trkpt>
      <trkpt lat="43.75276" lon="6.63649">
        <ele>1137.8</ele>
      </trkpt>
      <trkpt lat="43.75274" lon="6.63654">
        <ele>1136</ele>
        <time>2017-11-19T10:13:00.000Z</time>
      </trkpt>
      <trkpt lat="43.75272" lon="6.63662">
        <ele>1139.5</ele>
      </trkpt>
      <trkpt lat="43.75269" lon="6.63671">
        <ele>1140.9</ele>
      </trkpt>
      <trkpt lat="43.75269" lon="6.63682">
        <ele>1155</ele>
        <time>2017-11-19T10:13:15.000Z</time>
      </trkpt>
      <trkpt lat="43.75265" lon="6.63703">
        <ele>1143.1</ele>
      </trkpt>
      <trkpt lat="43.75265" lon="6.63707">
        <ele>1143.1</ele>
      </trkpt>
      <trkpt lat="43.75265" lon="6.63711">
        <ele>1154</ele>
        <time>2017-11-19T10:13:30.000Z</time>
      </trkpt>
      <trkpt lat="43.75263" lon="6.63716">
        <ele>1143.9</ele>
      </trkpt>
      <trkpt lat="43.75264" lon="6.63721">
        <ele>1143.5</ele>
      </trkpt>
      <trkpt lat="43.75263" lon="6.63724">
        <ele>1143.9</ele>
      </trkpt>
      <trkpt lat="43.75264" lon="6.63729">
        <ele>1143.7</ele>
      </trkpt>
      <trkpt lat="43.75262" lon="6.63734">
        <ele>1144.7</ele>
      </trkpt>
      <trkpt lat="43.75261" lon="6.63743">
        <ele>1158</ele>
        <time>2017-11-19T10:13:45.000Z</time>
      </trkpt>
      <trkpt lat="43.75262" lon="6.63752">
        <ele>1145.3</ele>
      </trkpt>
      <trkpt lat="43.75262" lon="6.63756">
        <ele>1145.3</ele>
      </trkpt>
      <trkpt lat="43.75261" lon="6.6376">
        <ele>1145.8</ele>
      </trkpt>
      <trkpt lat="43.75261" lon="6.63764">
        <ele>1145.8</ele>
      </trkpt>
      <trkpt lat="43.75258" lon="6.63776">
        <ele>1163</ele>
        <time>2017-11-19T10:14:02.000Z</time>
      </trkpt>
      <trkpt lat="43.75258" lon="6.6378">
        <ele>1147.3</ele>
      </trkpt>
      <trkpt lat="43.75257" lon="6.63793">
        <ele>1148.4</ele>
      </trkpt>
      <trkpt lat="43.75257" lon="6.6381">
        <ele>1162</ele>
        <time>2017-11-19T10:14:19.000Z</time>
      </trkpt>
      <trkpt lat="43.75257" lon="6.63814">
        <ele>1149.5</ele>
      </trkpt>
      <trkpt lat="43.75256" lon="6.63819">
        <ele>1150.1</ele>
      </trkpt>
      <trkpt lat="43.75257" lon="6.63827">
        <ele>1150</ele>
      </trkpt>
      <trkpt lat="43.75256" lon="6.63832">
        <ele>1150.6</ele>
      </trkpt>
      <trkpt lat="43.75256" lon="6.63835">
        <ele>1150.7</ele>
      </trkpt>
      <trkpt lat="43.75256" lon="6.63849">
        <ele>1170</ele>
        <time>2017-11-19T10:14:39.000Z</time>
      </trkpt>
      <trkpt lat="43.75254" lon="6.63855">
        <ele>1152.9</ele>
      </trkpt>
      <trkpt lat="43.75253" lon="6.6386">
        <ele>1153.6</ele>
      </trkpt>
      <trkpt lat="43.75252" lon="6.63863">
        <ele>1154.2</ele>
      </trkpt>
      <trkpt lat="43.75252" lon="6.63867">
        <ele>1154.3</ele>
      </trkpt>
      <trkpt lat="43.75252" lon="6.63871">
        <ele>1154.5</ele>
      </trkpt>
      <trkpt lat="43.75253" lon="6.63885">
        <ele>1174</ele>
        <time>2017-11-19T10:14:59.000Z</time>
      </trkpt>
      <trkpt lat="43.75254" lon="6.63889">
        <ele>1154.1</ele>
      </trkpt>
      <trkpt lat="43.75255" lon="6.63898">
        <ele>1153.6</ele>
      </trkpt>
      <trkpt lat="43.75253" lon="6.63901">
        <ele>1154.5</ele>
      </trkpt>
      <trkpt lat="43.75253" lon="6.63907">
        <ele>1154.5</ele>
      </trkpt>
      <trkpt lat="43.7525" lon="6.63915">
        <ele>1171</ele>
        <time>2017-11-19T10:15:15.000Z</time>
      </trkpt>
      <trkpt lat="43.7525" lon="6.63919">
        <ele>1156</ele>
      </trkpt>
      <trkpt lat="43.75248" lon="6.63923">
        <ele>1157</ele>
      </trkpt>
      <trkpt lat="43.75246" lon="6.63931">
        <ele>1158</ele>
      </trkpt>
      <trkpt lat="43.75243" lon="6.63939">
        <ele>1159.5</ele>
      </trkpt>
      <trkpt lat="43.75243" lon="6.63943">
        <ele>1171</ele>
        <time>2017-11-19T10:15:32.000Z</time>
      </trkpt>
      <trkpt lat="43.75242" lon="6.63947">
        <ele>1160.1</ele>
      </trkpt>
      <trkpt lat="43.75241" lon="6.63952">
        <ele>1160.7</ele>
      </trkpt>
      <trkpt lat="43.75243" lon="6.63971">
        <ele>1173</ele>
        <time>2017-11-19T10:15:47.000Z</time>
      </trkpt>
      <trkpt lat="43.75241" lon="6.63982">
        <ele>1161.4</ele>
      </trkpt>
      <trkpt lat="43.75239" lon="6.63986">
        <ele>1162.4</ele>
      </trkpt>
      <trkpt lat="43.75238" lon="6.63989">
        <ele>1163</ele>
      </trkpt>
      <trkpt lat="43.75238" lon="6.63993">
        <ele>1163</ele>
      </trkpt>
      <trkpt lat="43.75239" lon="6.64002">
        <ele>1186</ele>
        <time>2017-11-19T10:16:04.000Z</time>
      </trkpt>
      <trkpt lat="43.75238" lon="6.64012">
        <ele>1163.6</ele>
      </trkpt>
      <trkpt lat="43.75239" lon="6.64016">
        <ele>1163.3</ele>
      </trkpt>
      <trkpt lat="43.75239" lon="6.64021">
        <ele>1163.5</ele>
      </trkpt>
      <trkpt lat="43.7524" lon="6.64025">
        <ele>1163.2</ele>
      </trkpt>
      <trkpt lat="43.7524" lon="6.64029">
        <ele>1182</ele>
        <time>2017-11-19T10:16:19.000Z</time>
      </trkpt>
      <trkpt lat="43.75241" lon="6.64039">
        <ele>1163.6</ele>
      </trkpt>
      <trkpt lat="43.75239" lon="6.64047">
        <ele>1164.9</ele>
      </trkpt>
      <trkpt lat="43.7524" lon="6.6405">
        <ele>1164.6</ele>
      </trkpt>
      <trkpt lat="43.75239" lon="6.64056">
        <ele>1184</ele>
        <time>2017-11-19T10:16:33.000Z</time>
      </trkpt>
      <trkpt lat="43.75239" lon="6.64061">
        <ele>1165.7</ele>
      </trkpt>
      <trkpt lat="43.75239" lon="6.64065">
        <ele>1166</ele>
      </trkpt>
      <trkpt lat="43.75239" lon="6.64075">
        <ele>1166.8</ele>
      </trkpt>
      <trkpt lat="43.75241" lon="6.64083">
        <ele>1176</ele>
        <time>2017-11-19T10:16:47.000Z</time>
      </trkpt>
      <trkpt lat="43.75244" lon="6.64096">
        <ele>1166.5</ele>
      </trkpt>
      <trkpt lat="43.75243" lon="6.641">
        <ele>1167.3</ele>
      </trkpt>
      <trkpt lat="43.75243" lon="6.64104">
        <ele>1167.6</ele>
      </trkpt>
      <trkpt lat="43.75245" lon="6.64107">
        <ele>1167</ele>
      </trkpt>
      <trkpt lat="43.75246" lon="6.64112">
        <ele>1176</ele>
        <time>2017-11-19T10:17:02.000Z</time>
      </trkpt>
      <trkpt lat="43.75244" lon="6.64119">
        <ele>1168.4</ele>
      </trkpt>
      <trkpt lat="43.75244" lon="6.64129">
        <ele>1169.2</ele>
      </trkpt>
      <trkpt lat="43.75244" lon="6.64134">
        <ele>1169.6</ele>
      </trkpt>
      <trkpt lat="43.75246" lon="6.64137">
        <ele>1168.9</ele>
      </trkpt>
      <trkpt lat="43.75248" lon="6.64141">
        <ele>1177</ele>
        <time>2017-11-19T10:17:18.000Z</time>
      </trkpt>
      <trkpt lat="43.75247" lon="6.64145">
        <ele>1169.1</ele>
      </trkpt>
      <trkpt lat="43.75248" lon="6.64148">
        <ele>1168.9</ele>
      </trkpt>
      <trkpt lat="43.75245" lon="6.64153">
        <ele>1170.9</ele>
      </trkpt>
      <trkpt lat="43.75249" lon="6.64167">
        <ele>1179</ele>
        <time>2017-11-19T10:18:52.000Z</time>
      </trkpt>
      <trkpt lat="43.75248" lon="6.64171">
        <ele>1171.3</ele>
      </trkpt>
      <trkpt lat="43.75251" lon="6.64184">
        <ele>1171.4</ele>
      </trkpt>
      <trkpt lat="43.75253" lon="6.64202">
        <ele>1180</ele>
        <time>2017-11-19T10:19:11.000Z</time>
      </trkpt>
      <trkpt lat="43.75254" lon="6.64206">
        <ele>1172</ele>
      </trkpt>
      <trkpt lat="43.75253" lon="6.64211">
        <ele>1172.9</ele>
      </trkpt>
      <trkpt lat="43.75254" lon="6.64215">
        <ele>1172.7</ele>
      </trkpt>
      <trkpt lat="43.75254" lon="6.64229">
        <ele>1185</ele>
        <time>2017-11-19T10:19:27.000Z</time>
      </trkpt>
      <trkpt lat="43.75255" lon="6.64233">
        <ele>1174</ele>
      </trkpt>
      <trkpt lat="43.75256" lon="6.64242">
        <ele>1174.5</ele>
      </trkpt>
      <trkpt lat="43.75258" lon="6.64256">
        <ele>1194</ele>
        <time>2017-11-19T10:19:42.000Z</time>
      </trkpt>
      <trkpt lat="43.75257" lon="6.6426">
        <ele>1175.8</ele>
      </trkpt>
      <trkpt lat="43.75257" lon="6.64264">
        <ele>1176.1</ele>
      </trkpt>
      <trkpt lat="43.75258" lon="6.64268">
        <ele>1176</ele>
      </trkpt>
      <trkpt lat="43.75257" lon="6.64277">
        <ele>1177.2</ele>
      </trkpt>
      <trkpt lat="43.75259" lon="6.64286">
        <ele>1198</ele>
        <time>2017-11-19T10:19:59.000Z</time>
      </trkpt>
      <trkpt lat="43.75259" lon="6.6429">
        <ele>1177.8</ele>
      </trkpt>
      <trkpt lat="43.75259" lon="6.64296">
        <ele>1178.4</ele>
      </trkpt>
      <trkpt lat="43.7526" lon="6.643">
        <ele>1178.4</ele>
      </trkpt>
      <trkpt lat="43.7526" lon="6.64304">
        <ele>1178.9</ele>
      </trkpt>
      <trkpt lat="43.75264" lon="6.64312">
        <ele>1200</ele>
        <time>2017-11-19T10:20:11.000Z</time>
      </trkpt>
      <trkpt lat="43.75265" lon="6.64316">
        <ele>1178</ele>
      </trkpt>
      <trkpt lat="43.75265" lon="6.64326">
        <ele>1178.9</ele>
      </trkpt>
      <trkpt lat="43.75266" lon="6.6434">
        <ele>1198</ele>
        <time>2017-11-19T10:20:25.000Z</time>
      </trkpt>
      <trkpt lat="43.75266" lon="6.64344">
        <ele>1180.3</ele>
      </trkpt>
      <trkpt lat="43.75266" lon="6.64358">
        <ele>1181.9</ele>
      </trkpt>
      <trkpt lat="43.75267" lon="6.64362">
        <ele>1182</ele>
      </trkpt>
      <trkpt lat="43.75269" lon="6.64367">
        <ele>1202</ele>
        <time>2017-11-19T10:20:38.000Z</time>
      </trkpt>
      <trkpt lat="43.75269" lon="6.64372">
        <ele>1183</ele>
      </trkpt>
      <trkpt lat="43.7527" lon="6.64376">
        <ele>1183.3</ele>
      </trkpt>
      <trkpt lat="43.75274" lon="6.64384">
        <ele>1183.4</ele>
      </trkpt>
      <trkpt lat="43.75277" lon="6.64393">
        <ele>1199</ele>
        <time>2017-11-19T10:20:51.000Z</time>
      </trkpt>
      <trkpt lat="43.75279" lon="6.64403">
        <ele>1185.1</ele>
      </trkpt>
      <trkpt lat="43.75279" lon="6.64407">
        <ele>1185.8</ele>
      </trkpt>
      <trkpt lat="43.75281" lon="6.64409">
        <ele>1185.4</ele>
      </trkpt>
      <trkpt lat="43.75283" lon="6.64413">
        <ele>1185.3</ele>
      </trkpt>
      <trkpt lat="43.75284" lon="6.64421">
        <ele>1202</ele>
        <time>2017-11-19T10:21:06.000Z</time>
      </trkpt>
      <trkpt lat="43.75287" lon="6.64429">
        <ele>1184.9</ele>
      </trkpt>
      <trkpt lat="43.75288" lon="6.64438">
        <ele>1185</ele>
      </trkpt>
      <trkpt lat="43.75288" lon="6.64448">
        <ele>1206</ele>
        <time>2017-11-19T10:21:19.000Z</time>
      </trkpt>
      <trkpt lat="43.75287" lon="6.64456">
        <ele>1186.8</ele>
      </trkpt>
      <trkpt lat="43.75285" lon="6.64458">
        <ele>1187.6</ele>
      </trkpt>
      <trkpt lat="43.75281" lon="6.6446">
        <ele>1189.1</ele>
      </trkpt>
      <trkpt lat="43.75278" lon="6.64459">
        <ele>1190</ele>
      </trkpt>
      <trkpt lat="43.75276" lon="6.64457">
        <ele>1190.9</ele>
      </trkpt>
      <trkpt lat="43.75274" lon="6.64452">
        <ele>1206</ele>
        <time>2017-11-19T10:21:35.000Z</time>
      </trkpt>
      <trkpt lat="43.75272" lon="6.64447">
        <ele>1192.2</ele>
      </trkpt>
      <trkpt lat="43.75271" lon="6.64444">
        <ele>1192.4</ele>
      </trkpt>
      <trkpt lat="43.7527" lon="6.64435">
        <ele>1192</ele>
      </trkpt>
      <trkpt lat="43.75267" lon="6.64421">
        <ele>1206</ele>
        <time>2017-11-19T10:21:51.000Z</time>
      </trkpt>
      <trkpt lat="43.75257" lon="6.64409">
        <ele>1192.8</ele>
      </trkpt>
      <trkpt lat="43.75244" lon="6.64395">
        <ele>1204</ele>
        <time>2017-11-19T10:22:09.000Z</time>
      </trkpt>
      <trkpt lat="43.75243" lon="6.64392">
        <ele>1195.7</ele>
      </trkpt>
      <trkpt lat="43.75236" lon="6.64377">
        <ele>1197.3</ele>
      </trkpt>
      <trkpt lat="43.75231" lon="6.64359">
        <ele>1207</ele>
        <time>2017-11-19T10:22:28.000Z</time>
      </trkpt>
      <trkpt lat="43.75228" lon="6.64353">
        <ele>1198.8</ele>
      </trkpt>
      <trkpt lat="43.75227" lon="6.64348">
        <ele>1198.7</ele>
      </trkpt>
      <trkpt lat="43.75221" lon="6.64332">
        <ele>1205</ele>
        <time>2017-11-19T10:22:42.000Z</time>
      </trkpt>
      <trkpt lat="43.75219" lon="6.64329">
        <ele>1200.1</ele>
      </trkpt>
      <trkpt lat="43.75215" lon="6.64316">
        <ele>1200.6</ele>
      </trkpt>
      <trkpt lat="43.75213" lon="6.64311">
        <ele>1201</ele>
      </trkpt>
      <trkpt lat="43.75209" lon="6.64305">
        <ele>1212</ele>
        <time>2017-11-19T10:22:57.000Z</time>
      </trkpt>
      <trkpt lat="43.75207" lon="6.643">
        <ele>1202.4</ele>
      </trkpt>
      <trkpt lat="43.75206" lon="6.64294">
        <ele>1202.1</ele>
      </trkpt>
      <trkpt lat="43.75204" lon="6.64289">
        <ele>1202.3</ele>
      </trkpt>
      <trkpt lat="43.75202" lon="6.64286">
        <ele>1202.8</ele>
      </trkpt>
      <trkpt lat="43.75199" lon="6.64283">
        <ele>1203.8</ele>
      </trkpt>
      <trkpt lat="43.75198" lon="6.64275">
        <ele>1212</ele>
        <time>2017-11-19T10:23:15.000Z</time>
      </trkpt>
      <trkpt lat="43.75195" lon="6.64271">
        <ele>1204</ele>
      </trkpt>
      <trkpt lat="43.75189" lon="6.64258">
        <ele>1205.5</ele>
      </trkpt>
      <trkpt lat="43.75188" lon="6.64247">
        <ele>1226</ele>
        <time>2017-11-19T10:23:29.000Z</time>
      </trkpt>
      <trkpt lat="43.75182" lon="6.64238">
        <ele>1206.1</ele>
      </trkpt>
      <trkpt lat="43.75175" lon="6.64226">
        <ele>1222</ele>
        <time>2017-11-19T10:23:41.000Z</time>
      </trkpt>
      <trkpt lat="43.75172" lon="6.64216">
        <ele>1207.6</ele>
      </trkpt>
      <trkpt lat="43.7517" lon="6.64212">
        <ele>1208.2</ele>
      </trkpt>
      <trkpt lat="43.75168" lon="6.64202">
        <ele>1208.7</ele>
      </trkpt>
      <trkpt lat="43.75165" lon="6.64193">
        <ele>1221</ele>
        <time>2017-11-19T10:23:58.000Z</time>
      </trkpt>
      <trkpt lat="43.75163" lon="6.64184">
        <ele>1210.2</ele>
      </trkpt>
      <trkpt lat="43.75159" lon="6.64174">
        <ele>1211.5</ele>
      </trkpt>
      <trkpt lat="43.75155" lon="6.64162">
        <ele>1235</ele>
        <time>2017-11-19T10:24:14.000Z</time>
      </trkpt>
      <trkpt lat="43.75155" lon="6.64156">
        <ele>1212.1</ele>
      </trkpt>
      <trkpt lat="43.75149" lon="6.64137">
        <ele>1213.7</ele>
      </trkpt>
      <trkpt lat="43.75143" lon="6.64118">
        <ele>1226</ele>
        <time>2017-11-19T10:24:36.000Z</time>
      </trkpt>
      <trkpt lat="43.75141" lon="6.6411">
        <ele>1214</ele>
      </trkpt>
      <trkpt lat="43.7514" lon="6.64106">
        <ele>1214.1</ele>
      </trkpt>
      <trkpt lat="43.75135" lon="6.64094">
        <ele>1215.8</ele>
      </trkpt>
      <trkpt lat="43.75133" lon="6.64083">
        <ele>1226</ele>
        <time>2017-11-19T10:24:53.000Z</time>
      </trkpt>
      <trkpt lat="43.75125" lon="6.64063">
        <ele>1217.8</ele>
      </trkpt>
      <trkpt lat="43.75123" lon="6.64054">
        <ele>1238</ele>
        <time>2017-11-19T10:25:06.000Z</time>
      </trkpt>
      <trkpt lat="43.75122" lon="6.64045">
        <ele>1218.6</ele>
      </trkpt>
      <trkpt lat="43.75121" lon="6.64035">
        <ele>1219.2</ele>
      </trkpt>
      <trkpt lat="43.7512" lon="6.64025">
        <ele>1233</ele>
        <time>2017-11-19T10:25:19.000Z</time>
      </trkpt>
      <trkpt lat="43.75118" lon="6.64018">
        <ele>1220.8</ele>
      </trkpt>
      <trkpt lat="43.75119" lon="6.64014">
        <ele>1220.1</ele>
      </trkpt>
      <trkpt lat="43.75117" lon="6.64005">
        <ele>1221</ele>
      </trkpt>
      <trkpt lat="43.75116" lon="6.63996">
        <ele>1227</ele>
        <time>2017-11-19T10:25:33.000Z</time>
      </trkpt>
      <trkpt lat="43.75115" lon="6.63991">
        <ele>1221.9</ele>
      </trkpt>
      <trkpt lat="43.75114" lon="6.63973">
        <ele>1222.4</ele>
      </trkpt>
      <trkpt lat="43.75112" lon="6.63965">
        <ele>1227</ele>
        <time>2017-11-19T10:25:49.000Z</time>
      </trkpt>
      <trkpt lat="43.7511" lon="6.63961">
        <ele>1224.2</ele>
      </trkpt>
      <trkpt lat="43.7511" lon="6.63956">
        <ele>1224</ele>
      </trkpt>
      <trkpt lat="43.75107" lon="6.63945">
        <ele>1225.2</ele>
      </trkpt>
      <trkpt lat="43.75105" lon="6.63942">
        <ele>1226.2</ele>
      </trkpt>
      <trkpt lat="43.75105" lon="6.63933">
        <ele>1227</ele>
        <time>2017-11-19T10:26:06.000Z</time>
      </trkpt>
      <trkpt lat="43.75104" lon="6.63927">
        <ele>1226.2</ele>
      </trkpt>
      <trkpt lat="43.75104" lon="6.63923">
        <ele>1226.1</ele>
      </trkpt>
      <trkpt lat="43.751" lon="6.63914">
        <ele>1227.9</ele>
      </trkpt>
      <trkpt lat="43.75099" lon="6.6391">
        <ele>1228.3</ele>
      </trkpt>
      <trkpt lat="43.75094" lon="6.63889">
        <ele>1240</ele>
        <time>2017-11-19T10:26:28.000Z</time>
      </trkpt>
      <trkpt lat="43.75087" lon="6.63866">
        <ele>1230.9</ele>
      </trkpt>
      <trkpt lat="43.75087" lon="6.63863">
        <ele>1240</ele>
        <time>2017-11-19T10:26:40.000Z</time>
      </trkpt>
      <trkpt lat="43.75083" lon="6.6385">
        <ele>1231.8</ele>
      </trkpt>
      <trkpt lat="43.75083" lon="6.6384">
        <ele>1231.4</ele>
      </trkpt>
      <trkpt lat="43.75082" lon="6.63834">
        <ele>1240</ele>
        <time>2017-11-19T10:26:54.000Z</time>
      </trkpt>
      <trkpt lat="43.75081" lon="6.63831">
        <ele>1232</ele>
      </trkpt>
      <trkpt lat="43.7508" lon="6.63823">
        <ele>1232.1</ele>
      </trkpt>
      <trkpt lat="43.75078" lon="6.63813">
        <ele>1232.5</ele>
      </trkpt>
      <trkpt lat="43.75074" lon="6.63804">
        <ele>1239</ele>
        <time>2017-11-19T10:27:06.000Z</time>
      </trkpt>
      <trkpt lat="43.75072" lon="6.638">
        <ele>1234</ele>
      </trkpt>
      <trkpt lat="43.75067" lon="6.6379">
        <ele>1235</ele>
      </trkpt>
      <trkpt lat="43.75066" lon="6.63785">
        <ele>1234.9</ele>
      </trkpt>
      <trkpt lat="43.75064" lon="6.63781">
        <ele>1235.3</ele>
      </trkpt>
      <trkpt lat="43.75047" lon="6.63755">
        <ele>1256</ele>
        <time>2017-11-19T10:27:35.000Z</time>
      </trkpt>
      <trkpt lat="43.75039" lon="6.63739">
        <ele>1239.4</ele>
      </trkpt>
      <trkpt lat="43.75036" lon="6.63733">
        <ele>1252</ele>
        <time>2017-11-19T10:27:49.000Z</time>
      </trkpt>
      <trkpt lat="43.75026" lon="6.63704">
        <ele>1253</ele>
        <time>2017-11-19T10:28:05.000Z</time>
      </trkpt>
      <trkpt lat="43.75026" lon="6.63698">
        <ele>1242.7</ele>
      </trkpt>
      <trkpt lat="43.75023" lon="6.63685">
        <ele>1243.6</ele>
      </trkpt>
      <trkpt lat="43.75021" lon="6.63681">
        <ele>1244.2</ele>
      </trkpt>
      <trkpt lat="43.75021" lon="6.63676">
        <ele>1247</ele>
        <time>2017-11-19T10:28:19.000Z</time>
      </trkpt>
      <trkpt lat="43.7502" lon="6.63672">
        <ele>1244.1</ele>
      </trkpt>
      <trkpt lat="43.75015" lon="6.63659">
        <ele>1245.5</ele>
      </trkpt>
      <trkpt lat="43.75015" lon="6.63653">
        <ele>1245.3</ele>
      </trkpt>
      <trkpt lat="43.75013" lon="6.63641">
        <ele>1259</ele>
        <time>2017-11-19T10:28:36.000Z</time>
      </trkpt>
      <trkpt lat="43.75011" lon="6.63636">
        <ele>1246.5</ele>
      </trkpt>
      <trkpt lat="43.75011" lon="6.63632">
        <ele>1246.3</ele>
      </trkpt>
      <trkpt lat="43.75011" lon="6.63627">
        <ele>1246.1</ele>
      </trkpt>
      <trkpt lat="43.75009" lon="6.63623">
        <ele>1246.7</ele>
      </trkpt>
      <trkpt lat="43.75005" lon="6.63614">
        <ele>1261</ele>
        <time>2017-11-19T10:28:48.000Z</time>
      </trkpt>
      <trkpt lat="43.75003" lon="6.63611">
        <ele>1248</ele>
      </trkpt>
      <trkpt lat="43.74997" lon="6.63601">
        <ele>1248.6</ele>
      </trkpt>
      <trkpt lat="43.74992" lon="6.63596">
        <ele>1249.1</ele>
      </trkpt>
      <trkpt lat="43.74987" lon="6.63589">
        <ele>1269</ele>
      </trkpt>
      <trkpt lat="43.74984" lon="6.63587">
        <ele>1249.9</ele>
      </trkpt>
      <trkpt lat="43.74982" lon="6.63583">
        <ele>1249.8</ele>
      </trkpt>
      <trkpt lat="43.74976" lon="6.63578">
        <ele>1250.6</ele>
      </trkpt>
      <trkpt lat="43.74966" lon="6.63564">
        <ele>1264</ele>
      </trkpt>
      <trkpt lat="43.74961" lon="6.63555">
        <ele>1252.6</ele>
      </trkpt>
      <trkpt lat="43.74958" lon="6.63551">
        <ele>1253.3</ele>
      </trkpt>
      <trkpt lat="43.74955" lon="6.63542">
        <ele>1253.5</ele>
      </trkpt>
      <trkpt lat="43.7495" lon="6.63535">
        <ele>1262</ele>
      </trkpt>
      <trkpt lat="43.74946" lon="6.63532">
        <ele>1255</ele>
      </trkpt>
      <trkpt lat="43.74944" lon="6.6353">
        <ele>1255.3</ele>
      </trkpt>
      <trkpt lat="43.74941" lon="6.63527">
        <ele>1255.6</ele>
      </trkpt>
      <trkpt lat="43.74938" lon="6.63527">
        <ele>1256.3</ele>
      </trkpt>
      <trkpt lat="43.74932" lon="6.63523">
        <ele>1266</ele>
      </trkpt>
      <trkpt lat="43.74929" lon="6.6352">
        <ele>1256.9</ele>
      </trkpt>
      <trkpt lat="43.74926" lon="6.63518">
        <ele>1257.1</ele>
      </trkpt>
      <trkpt lat="43.7492" lon="6.63514">
        <ele>1257.4</ele>
      </trkpt>
      <trkpt lat="43.74913" lon="6.63511">
        <ele>1263</ele>
      </trkpt>
      <trkpt lat="43.74907" lon="6.63505">
        <ele>1257.6</ele>
      </trkpt>
      <trkpt lat="43.74898" lon="6.63502">
        <ele>1258.6</ele>
      </trkpt>
      <trkpt lat="43.74895" lon="6.63501">
        <ele>1259</ele>
      </trkpt>
      <trkpt lat="43.74892" lon="6.63502">
        <ele>1266</ele>
      </trkpt>
      <trkpt lat="43.74888" lon="6.6351">
        <ele>1261.4</ele>
      </trkpt>
      <trkpt lat="43.74887" lon="6.63515">
        <ele>1262.4</ele>
      </trkpt>
      <trkpt lat="43.74888" lon="6.63519">
        <ele>1262.4</ele>
      </trkpt>
      <trkpt lat="43.74891" lon="6.63522">
        <ele>1262.2</ele>
      </trkpt>
      <trkpt lat="43.749" lon="6.63528">
        <ele>1267</ele>
        <time>2017-11-19T10:30:32.000Z</time>
      </trkpt>
      <trkpt lat="43.74904" lon="6.63529">
        <ele>1262.2</ele>
      </trkpt>
      <trkpt lat="43.74911" lon="6.63533">
        <ele>1262.4</ele>
      </trkpt>
      <trkpt lat="43.74914" lon="6.63537">
        <ele>1262.7</ele>
      </trkpt>
      <trkpt lat="43.74917" lon="6.6354">
        <ele>1262.7</ele>
      </trkpt>
      <trkpt lat="43.74921" lon="6.63547">
        <ele>1266</ele>
        <time>2017-11-19T10:30:46.000Z</time>
      </trkpt>
      <trkpt lat="43.74923" lon="6.63552">
        <ele>1262.9</ele>
      </trkpt>
      <trkpt lat="43.74924" lon="6.63562">
        <ele>1263.6</ele>
      </trkpt>
      <trkpt lat="43.74924" lon="6.63572">
        <ele>1264.2</ele>
      </trkpt>
      <trkpt lat="43.74925" lon="6.63582">
        <ele>1273</ele>
        <time>2017-11-19T10:31:00.000Z</time>
      </trkpt>
      <trkpt lat="43.74926" lon="6.63592">
        <ele>1265.6</ele>
      </trkpt>
      <trkpt lat="43.74928" lon="6.63606">
        <ele>1267</ele>
      </trkpt>
      <trkpt lat="43.74931" lon="6.63615">
        <ele>1276</ele>
        <time>2017-11-19T10:31:14.000Z</time>
      </trkpt>
      <trkpt lat="43.74936" lon="6.63634">
        <ele>1268.2</ele>
      </trkpt>
      <trkpt lat="43.74938" lon="6.63637">
        <ele>1267.9</ele>
      </trkpt>
      <trkpt lat="43.74947" lon="6.63665">
        <ele>1280</ele>
        <time>2017-11-19T10:31:37.000Z</time>
      </trkpt>
      <trkpt lat="43.74947" lon="6.6367">
        <ele>1271</ele>
      </trkpt>
      <trkpt lat="43.74948" lon="6.63675">
        <ele>1271.7</ele>
      </trkpt>
      <trkpt lat="43.7495" lon="6.63679">
        <ele>1271.8</ele>
      </trkpt>
      <trkpt lat="43.74956" lon="6.63702">
        <ele>1278</ele>
        <time>2017-11-19T10:31:53.000Z</time>
      </trkpt>
      <trkpt lat="43.74957" lon="6.63707">
        <ele>1273.4</ele>
      </trkpt>
      <trkpt lat="43.74958" lon="6.63721">
        <ele>1274.5</ele>
      </trkpt>
      <trkpt lat="43.74958" lon="6.63726">
        <ele>1274.8</ele>
      </trkpt>
      <trkpt lat="43.74955" lon="6.63744">
        <ele>1287</ele>
        <time>2017-11-19T10:32:11.000Z</time>
      </trkpt>
      <trkpt lat="43.74955" lon="6.63749">
        <ele>1277</ele>
      </trkpt>
      <trkpt lat="43.74956" lon="6.63754">
        <ele>1276.7</ele>
      </trkpt>
      <trkpt lat="43.74955" lon="6.63767">
        <ele>1277.5</ele>
      </trkpt>
      <trkpt lat="43.74957" lon="6.63779">
        <ele>1297</ele>
        <time>2017-11-19T10:32:27.000Z</time>
      </trkpt>
      <trkpt lat="43.74956" lon="6.63783">
        <ele>1278.4</ele>
      </trkpt>
      <trkpt lat="43.74958" lon="6.63792">
        <ele>1279.2</ele>
      </trkpt>
      <trkpt lat="43.74958" lon="6.63796">
        <ele>1279.9</ele>
      </trkpt>
      <trkpt lat="43.74959" lon="6.638">
        <ele>1280.2</ele>
      </trkpt>
      <trkpt lat="43.74959" lon="6.63805">
        <ele>1281.1</ele>
      </trkpt>
      <trkpt lat="43.74963" lon="6.63817">
        <ele>1283</ele>
        <time>2017-11-19T10:32:45.000Z</time>
      </trkpt>
      <trkpt lat="43.74962" lon="6.63821">
        <ele>1281.7</ele>
      </trkpt>
      <trkpt lat="43.74962" lon="6.63825">
        <ele>1282.1</ele>
      </trkpt>
      <trkpt lat="43.74963" lon="6.63831">
        <ele>1282.4</ele>
      </trkpt>
      <trkpt lat="43.74963" lon="6.63836">
        <ele>1283</ele>
      </trkpt>
      <trkpt lat="43.74965" lon="6.63845">
        <ele>1290</ele>
        <time>2017-11-19T10:32:58.000Z</time>
      </trkpt>
      <trkpt lat="43.74967" lon="6.63858">
        <ele>1284.2</ele>
      </trkpt>
      <trkpt lat="43.74968" lon="6.63862">
        <ele>1284.3</ele>
      </trkpt>
      <trkpt lat="43.74968" lon="6.63871">
        <ele>1285.5</ele>
      </trkpt>
      <trkpt lat="43.74972" lon="6.6388">
        <ele>1304</ele>
        <time>2017-11-19T10:33:15.000Z</time>
      </trkpt>
      <trkpt lat="43.74974" lon="6.63886">
        <ele>1284.9</ele>
      </trkpt>
      <trkpt lat="43.74981" lon="6.63902">
        <ele>1285</ele>
      </trkpt>
      <trkpt lat="43.74983" lon="6.63907">
        <ele>1304</ele>
        <time>2017-11-19T10:33:28.000Z</time>
      </trkpt>
      <trkpt lat="43.74986" lon="6.63913">
        <ele>1285.3</ele>
      </trkpt>
      <trkpt lat="43.74987" lon="6.63917">
        <ele>1285.8</ele>
      </trkpt>
      <trkpt lat="43.74992" lon="6.63931">
        <ele>1293</ele>
        <time>2017-11-19T10:33:40.000Z</time>
      </trkpt>
      <trkpt lat="43.74994" lon="6.63936">
        <ele>1287.5</ele>
      </trkpt>
      <trkpt lat="43.74994" lon="6.63944">
        <ele>1289.3</ele>
      </trkpt>
      <trkpt lat="43.74997" lon="6.63952">
        <ele>1288.8</ele>
      </trkpt>
      <trkpt lat="43.75002" lon="6.6397">
        <ele>1301</ele>
        <time>2017-11-19T10:33:59.000Z</time>
      </trkpt>
      <trkpt lat="43.75002" lon="6.63974">
        <ele>1288</ele>
      </trkpt>
      <trkpt lat="43.75003" lon="6.63979">
        <ele>1287.8</ele>
      </trkpt>
      <trkpt lat="43.75004" lon="6.63985">
        <ele>1287.6</ele>
      </trkpt>
      <trkpt lat="43.75003" lon="6.63989">
        <ele>1288.5</ele>
      </trkpt>
      <trkpt lat="43.75001" lon="6.63993">
        <ele>1289.9</ele>
      </trkpt>
      <trkpt lat="43.74998" lon="6.63996">
        <ele>1303</ele>
        <time>2017-11-19T10:34:11.000Z</time>
      </trkpt>
      <trkpt lat="43.74995" lon="6.63995">
        <ele>1293.5</ele>
      </trkpt>
      <trkpt lat="43.74992" lon="6.63992">
        <ele>1294.9</ele>
      </trkpt>
      <trkpt lat="43.74991" lon="6.63969">
        <ele>1301</ele>
        <time>2017-11-19T10:34:23.000Z</time>
      </trkpt>
      <trkpt lat="43.74989" lon="6.63959">
        <ele>1293.2</ele>
      </trkpt>
      <trkpt lat="43.74988" lon="6.63954">
        <ele>1293</ele>
      </trkpt>
      <trkpt lat="43.74984" lon="6.6394">
        <ele>1309</ele>
        <time>2017-11-19T10:34:35.000Z</time>
      </trkpt>
      <trkpt lat="43.74979" lon="6.63933">
        <ele>1292.5</ele>
      </trkpt>
      <trkpt lat="43.74972" lon="6.63929">
        <ele>1294.2</ele>
      </trkpt>
      <trkpt lat="43.74962" lon="6.63914">
        <ele>1307</ele>
        <time>2017-11-19T10:34:51.000Z</time>
      </trkpt>
      <trkpt lat="43.7496" lon="6.63911">
        <ele>1295.7</ele>
      </trkpt>
      <trkpt lat="43.74948" lon="6.63889">
        <ele>1319</ele>
        <time>2017-11-19T10:35:05.000Z</time>
      </trkpt>
      <trkpt lat="43.74946" lon="6.63879">
        <ele>1297.2</ele>
      </trkpt>
      <trkpt lat="43.74943" lon="6.63871">
        <ele>1297.8</ele>
      </trkpt>
      <trkpt lat="43.74939" lon="6.63862">
        <ele>1329</ele>
        <time>2017-11-19T10:35:20.000Z</time>
      </trkpt>
      <trkpt lat="43.74934" lon="6.63848">
        <ele>1299</ele>
      </trkpt>
      <trkpt lat="43.74928" lon="6.63836">
        <ele>1324</ele>
        <time>2017-11-19T10:35:33.000Z</time>
      </trkpt>
      <trkpt lat="43.74927" lon="6.63832">
        <ele>1300</ele>
      </trkpt>
      <trkpt lat="43.74921" lon="6.63824">
        <ele>1301.6</ele>
      </trkpt>
      <trkpt lat="43.74918" lon="6.63816">
        <ele>1301.9</ele>
      </trkpt>
      <trkpt lat="43.74908" lon="6.63797">
        <ele>1325</ele>
        <time>2017-11-19T10:35:53.000Z</time>
      </trkpt>
      <trkpt lat="43.74904" lon="6.63789">
        <ele>1304.4</ele>
      </trkpt>
      <trkpt lat="43.74904" lon="6.63785">
        <ele>1303.8</ele>
      </trkpt>
      <trkpt lat="43.74901" lon="6.63775">
        <ele>1304.2</ele>
      </trkpt>
      <trkpt lat="43.74899" lon="6.63767">
        <ele>1317</ele>
        <time>2017-11-19T10:36:09.000Z</time>
      </trkpt>
      <trkpt lat="43.74893" lon="6.63749">
        <ele>1306</ele>
      </trkpt>
      <trkpt lat="43.74891" lon="6.63744">
        <ele>1306</ele>
      </trkpt>
      <trkpt lat="43.74889" lon="6.63741">
        <ele>1317</ele>
        <time>2017-11-19T10:36:30.000Z</time>
      </trkpt>
      <trkpt lat="43.74887" lon="6.63739">
        <ele>1306.6</ele>
      </trkpt>
      <trkpt lat="43.74885" lon="6.63736">
        <ele>1306.7</ele>
      </trkpt>
      <trkpt lat="43.74876" lon="6.63727">
        <ele>1307.3</ele>
      </trkpt>
      <trkpt lat="43.74867" lon="6.63723">
        <ele>1325</ele>
        <time>2017-11-19T10:36:59.000Z</time>
      </trkpt>
      <trkpt lat="43.74864" lon="6.63723">
        <ele>1309.5</ele>
      </trkpt>
      <trkpt lat="43.7485" lon="6.63719">
        <ele>1311.9</ele>
      </trkpt>
      <trkpt lat="43.74834" lon="6.63713">
        <ele>1331</ele>
        <time>2017-11-19T10:37:19.000Z</time>
      </trkpt>
      <trkpt lat="43.74828" lon="6.6371">
        <ele>1314.7</ele>
      </trkpt>
      <trkpt lat="43.74826" lon="6.6371">
        <ele>1315.2</ele>
      </trkpt>
      <trkpt lat="43.74813" lon="6.63703">
        <ele>1327</ele>
        <time>2017-11-19T10:37:34.000Z</time>
      </trkpt>
      <trkpt lat="43.74811" lon="6.637">
        <ele>1316.1</ele>
      </trkpt>
      <trkpt lat="43.7481" lon="6.63696">
        <ele>1315.3</ele>
      </trkpt>
      <trkpt lat="43.74805" lon="6.63687">
        <ele>1315.7</ele>
      </trkpt>
      <trkpt lat="43.74805" lon="6.63683">
        <ele>1315.4</ele>
      </trkpt>
      <trkpt lat="43.748" lon="6.63671">
        <ele>1331</ele>
        <time>2017-11-19T10:37:49.000Z</time>
      </trkpt>
      <trkpt lat="43.74792" lon="6.63648">
        <ele>1317.5</ele>
      </trkpt>
      <trkpt lat="43.74789" lon="6.63616">
        <ele>1329</ele>
        <time>2017-11-19T10:38:17.000Z</time>
      </trkpt>
      <trkpt lat="43.74787" lon="6.63611">
        <ele>1317.7</ele>
      </trkpt>
      <trkpt lat="43.74786" lon="6.63607">
        <ele>1317.8</ele>
      </trkpt>
      <trkpt lat="43.74784" lon="6.63604">
        <ele>1318.4</ele>
      </trkpt>
      <trkpt lat="43.7478" lon="6.63602">
        <ele>1319.8</ele>
      </trkpt>
      <trkpt lat="43.74776" lon="6.63601">
        <ele>1321.3</ele>
      </trkpt>
      <trkpt lat="43.74772" lon="6.63602">
        <ele>1329</ele>
        <time>2017-11-19T10:38:29.000Z</time>
      </trkpt>
      <trkpt lat="43.7477" lon="6.63605">
        <ele>1323.6</ele>
      </trkpt>
      <trkpt lat="43.74769" lon="6.6361">
        <ele>1324.1</ele>
      </trkpt>
      <trkpt lat="43.74768" lon="6.63616">
        <ele>1324.8</ele>
      </trkpt>
      <trkpt lat="43.74769" lon="6.63621">
        <ele>1324.6</ele>
      </trkpt>
      <trkpt lat="43.74772" lon="6.6363">
        <ele>1329</ele>
        <time>2017-11-19T10:38:41.000Z</time>
      </trkpt>
      <trkpt lat="43.74775" lon="6.63635">
        <ele>1322.9</ele>
      </trkpt>
      <trkpt lat="43.74777" lon="6.63645">
        <ele>1322.7</ele>
      </trkpt>
      <trkpt lat="43.74777" lon="6.6365">
        <ele>1323.1</ele>
      </trkpt>
      <trkpt lat="43.74778" lon="6.63655">
        <ele>1323.1</ele>
      </trkpt>
      <trkpt lat="43.74779" lon="6.63659">
        <ele>1329</ele>
        <time>2017-11-19T10:38:53.000Z</time>
      </trkpt>
      <trkpt lat="43.7478" lon="6.63664">
        <ele>1323</ele>
      </trkpt>
      <trkpt lat="43.7478" lon="6.63677">
        <ele>1324.3</ele>
      </trkpt>
      <trkpt lat="43.74779" lon="6.63692">
        <ele>1334</ele>
        <time>2017-11-19T10:39:08.000Z</time>
      </trkpt>
      <trkpt lat="43.74782" lon="6.63702">
        <ele>1326.1</ele>
      </trkpt>
      <trkpt lat="43.74783" lon="6.63712">
        <ele>1326.8</ele>
      </trkpt>
      <trkpt lat="43.74788" lon="6.6372">
        <ele>1338</ele>
        <time>2017-11-19T10:39:20.000Z</time>
      </trkpt>
      <trkpt lat="43.74794" lon="6.63729">
        <ele>1327.2</ele>
      </trkpt>
      <trkpt lat="43.74798" lon="6.63731">
        <ele>1327</ele>
      </trkpt>
      <trkpt lat="43.74804" lon="6.63738">
        <ele>1328</ele>
        <time>2017-11-19T10:39:30.000Z</time>
      </trkpt>
      <trkpt lat="43.74807" lon="6.63739">
        <ele>1327.5</ele>
      </trkpt>
      <trkpt lat="43.7481" lon="6.63743">
        <ele>1328</ele>
      </trkpt>
      <trkpt lat="43.7483" lon="6.63763">
        <ele>1338</ele>
        <time>2017-11-19T10:39:48.000Z</time>
      </trkpt>
      <trkpt lat="43.74839" lon="6.63777">
        <ele>1330.8</ele>
      </trkpt>
      <trkpt lat="43.74843" lon="6.63786">
        <ele>1340</ele>
        <time>2017-11-19T10:40:00.000Z</time>
      </trkpt>
      <trkpt lat="43.74845" lon="6.63792">
        <ele>1331.2</ele>
      </trkpt>
      <trkpt lat="43.74848" lon="6.63801">
        <ele>1331.4</ele>
      </trkpt>
      <trkpt lat="43.7485" lon="6.63816">
        <ele>1336</ele>
        <time>2017-11-19T10:40:13.000Z</time>
      </trkpt>
      <trkpt lat="43.74854" lon="6.63833">
        <ele>1334.2</ele>
      </trkpt>
      <trkpt lat="43.7486" lon="6.63846">
        <ele>1336</ele>
        <time>2017-11-19T10:40:27.000Z</time>
      </trkpt>
      <trkpt lat="43.74862" lon="6.63855">
        <ele>1335.5</ele>
      </trkpt>
      <trkpt lat="43.74864" lon="6.63859">
        <ele>1335.3</ele>
      </trkpt>
      <trkpt lat="43.74868" lon="6.63869">
        <ele>1334.8</ele>
      </trkpt>
      <trkpt lat="43.74869" lon="6.63873">
        <ele>1339</ele>
        <time>2017-11-19T10:40:39.000Z</time>
      </trkpt>
      <trkpt lat="43.74868" lon="6.63878">
        <ele>1336.1</ele>
      </trkpt>
      <trkpt lat="43.7487" lon="6.63882">
        <ele>1335.6</ele>
      </trkpt>
      <trkpt lat="43.74873" lon="6.63897">
        <ele>1336.2</ele>
      </trkpt>
      <trkpt lat="43.74875" lon="6.63917">
        <ele>1348</ele>
        <time>2017-11-19T10:40:57.000Z</time>
      </trkpt>
      <trkpt lat="43.74878" lon="6.63931">
        <ele>1339.3</ele>
      </trkpt>
      <trkpt lat="43.74879" lon="6.63936">
        <ele>1339.7</ele>
      </trkpt>
      <trkpt lat="43.74879" lon="6.6394">
        <ele>1340.5</ele>
      </trkpt>
      <trkpt lat="43.74882" lon="6.63954">
        <ele>1345</ele>
        <time>2017-11-19T10:41:14.000Z</time>
      </trkpt>
      <trkpt lat="43.74884" lon="6.63958">
        <ele>1341.1</ele>
      </trkpt>
      <trkpt lat="43.74886" lon="6.63967">
        <ele>1341.6</ele>
      </trkpt>
      <trkpt lat="43.74888" lon="6.63972">
        <ele>1341.4</ele>
      </trkpt>
      <trkpt lat="43.74889" lon="6.63986">
        <ele>1345</ele>
        <time>2017-11-19T10:41:28.000Z</time>
      </trkpt>
      <trkpt lat="43.74891" lon="6.64">
        <ele>1343.1</ele>
      </trkpt>
      <trkpt lat="43.74894" lon="6.6401">
        <ele>1343.5</ele>
      </trkpt>
      <trkpt lat="43.74895" lon="6.64024">
        <ele>1355</ele>
        <time>2017-11-19T10:41:44.000Z</time>
      </trkpt>
      <trkpt lat="43.74897" lon="6.64034">
        <ele>1346.3</ele>
      </trkpt>
      <trkpt lat="43.74898" lon="6.6405">
        <ele>1348.5</ele>
      </trkpt>
      <trkpt lat="43.74903" lon="6.6407">
        <ele>1358</ele>
        <time>2017-11-19T10:42:02.000Z</time>
      </trkpt>
      <trkpt lat="43.74904" lon="6.64076">
        <ele>1349.7</ele>
      </trkpt>
      <trkpt lat="43.74906" lon="6.64081">
        <ele>1349.4</ele>
      </trkpt>
      <trkpt lat="43.74908" lon="6.64094">
        <ele>1350.3</ele>
      </trkpt>
      <trkpt lat="43.74911" lon="6.64109">
        <ele>1353</ele>
        <time>2017-11-19T10:42:19.000Z</time>
      </trkpt>
      <trkpt lat="43.74909" lon="6.64112">
        <ele>1352.5</ele>
      </trkpt>
      <trkpt lat="43.74909" lon="6.64117">
        <ele>1352.8</ele>
      </trkpt>
      <trkpt lat="43.74911" lon="6.64121">
        <ele>1352</ele>
      </trkpt>
      <trkpt lat="43.7491" lon="6.64134">
        <ele>1353.5</ele>
      </trkpt>
      <trkpt lat="43.74913" lon="6.64147">
        <ele>1356</ele>
        <time>2017-11-19T10:42:37.000Z</time>
      </trkpt>
      <trkpt lat="43.74913" lon="6.64152">
        <ele>1353.9</ele>
      </trkpt>
      <trkpt lat="43.74914" lon="6.6416">
        <ele>1354.4</ele>
      </trkpt>
      <trkpt lat="43.74915" lon="6.64164">
        <ele>1354.5</ele>
      </trkpt>
      <trkpt lat="43.74917" lon="6.64168">
        <ele>1354.1</ele>
      </trkpt>
      <trkpt lat="43.74917" lon="6.64172">
        <ele>1355</ele>
      </trkpt>
      <trkpt lat="43.74922" lon="6.64191">
        <ele>1369</ele>
        <time>2017-11-19T10:42:59.000Z</time>
      </trkpt>
      <trkpt lat="43.74924" lon="6.64194">
        <ele>1356.2</ele>
      </trkpt>
      <trkpt lat="43.74926" lon="6.64202">
        <ele>1356.9</ele>
      </trkpt>
      <trkpt lat="43.74928" lon="6.64206">
        <ele>1356.8</ele>
      </trkpt>
      <trkpt lat="43.74929" lon="6.6421">
        <ele>1357.1</ele>
      </trkpt>
      <trkpt lat="43.7493" lon="6.64214">
        <ele>1357.5</ele>
      </trkpt>
      <trkpt lat="43.74932" lon="6.64222">
        <ele>1375</ele>
        <time>2017-11-19T10:43:15.000Z</time>
      </trkpt>
      <trkpt lat="43.74935" lon="6.64232">
        <ele>1358.4</ele>
      </trkpt>
      <trkpt lat="43.74937" lon="6.64237">
        <ele>1358.2</ele>
      </trkpt>
      <trkpt lat="43.74939" lon="6.6425">
        <ele>1380</ele>
        <time>2017-11-19T10:43:30.000Z</time>
      </trkpt>
      <trkpt lat="43.74938" lon="6.64254">
        <ele>1360.4</ele>
      </trkpt>
      <trkpt lat="43.74937" lon="6.64258">
        <ele>1361.6</ele>
      </trkpt>
      <trkpt lat="43.74941" lon="6.64266">
        <ele>1360.7</ele>
      </trkpt>
      <trkpt lat="43.74941" lon="6.64271">
        <ele>1361.6</ele>
      </trkpt>
      <trkpt lat="43.74941" lon="6.64275">
        <ele>1362.3</ele>
      </trkpt>
      <trkpt lat="43.74942" lon="6.6428">
        <ele>1370</ele>
        <time>2017-11-19T10:43:45.000Z</time>
      </trkpt>
      <trkpt lat="43.74941" lon="6.64284">
        <ele>1363.4</ele>
      </trkpt>
      <trkpt lat="43.74942" lon="6.64288">
        <ele>1363.4</ele>
      </trkpt>
      <trkpt lat="43.74942" lon="6.64303">
        <ele>1365</ele>
      </trkpt>
      <trkpt lat="43.74943" lon="6.64307">
        <ele>1376</ele>
        <time>2017-11-19T10:43:58.000Z</time>
      </trkpt>
      <trkpt lat="43.74944" lon="6.64316">
        <ele>1365</ele>
      </trkpt>
      <trkpt lat="43.74944" lon="6.6432">
        <ele>1365.3</ele>
      </trkpt>
      <trkpt lat="43.74943" lon="6.64324">
        <ele>1366.1</ele>
      </trkpt>
      <trkpt lat="43.74946" lon="6.64332">
        <ele>1365</ele>
      </trkpt>
      <trkpt lat="43.74946" lon="6.64347">
        <ele>1382</ele>
      </trkpt>
      <trkpt lat="43.74949" lon="6.64355">
        <ele>1367.8</ele>
      </trkpt>
      <trkpt lat="43.7495" lon="6.64374">
        <ele>1384</ele>
        <time>2017-11-19T10:44:32.000Z</time>
      </trkpt>
      <trkpt lat="43.74951" lon="6.64378">
        <ele>1371.4</ele>
      </trkpt>
      <trkpt lat="43.74952" lon="6.64383">
        <ele>1371.8</ele>
      </trkpt>
      <trkpt lat="43.74955" lon="6.64391">
        <ele>1371.4</ele>
      </trkpt>
      <trkpt lat="43.74954" lon="6.64399">
        <ele>1372.9</ele>
      </trkpt>
      <trkpt lat="43.74957" lon="6.64415">
        <ele>1387</ele>
        <time>2017-11-19T10:44:52.000Z</time>
      </trkpt>
      <trkpt lat="43.74957" lon="6.64419">
        <ele>1373.3</ele>
      </trkpt>
      <trkpt lat="43.74958" lon="6.64427">
        <ele>1374.1</ele>
      </trkpt>
      <trkpt lat="43.7496" lon="6.64436">
        <ele>1374.5</ele>
      </trkpt>
      <trkpt lat="43.74962" lon="6.64441">
        <ele>1374</ele>
        <time>2017-11-19T10:45:04.000Z</time>
      </trkpt>
      <trkpt lat="43.74964" lon="6.64451">
        <ele>1374.8</ele>
      </trkpt>
      <trkpt lat="43.74964" lon="6.64455">
        <ele>1375.5</ele>
      </trkpt>
      <trkpt lat="43.74969" lon="6.64477">
        <ele>1375</ele>
        <time>2017-11-19T10:45:21.000Z</time>
      </trkpt>
      <trkpt lat="43.7497" lon="6.64487">
        <ele>1377.3</ele>
      </trkpt>
      <trkpt lat="43.74973" lon="6.64497">
        <ele>1377</ele>
      </trkpt>
      <trkpt lat="43.74973" lon="6.64507">
        <ele>1384</ele>
        <time>2017-11-19T10:45:33.000Z</time>
      </trkpt>
      <trkpt lat="43.74971" lon="6.64511">
        <ele>1379.1</ele>
      </trkpt>
      <trkpt lat="43.74971" lon="6.64521">
        <ele>1379.4</ele>
      </trkpt>
      <trkpt lat="43.74972" lon="6.64525">
        <ele>1379</ele>
      </trkpt>
      <trkpt lat="43.74971" lon="6.64535">
        <ele>1384</ele>
        <time>2017-11-19T10:45:45.000Z</time>
      </trkpt>
      <trkpt lat="43.74974" lon="6.64564">
        <ele>1387</ele>
        <time>2017-11-19T10:45:57.000Z</time>
      </trkpt>
      <trkpt lat="43.74975" lon="6.64568">
        <ele>1379</ele>
      </trkpt>
      <trkpt lat="43.74976" lon="6.64573">
        <ele>1378.7</ele>
      </trkpt>
      <trkpt lat="43.74975" lon="6.64577">
        <ele>1379.3</ele>
      </trkpt>
      <trkpt lat="43.74973" lon="6.64581">
        <ele>1380.5</ele>
      </trkpt>
      <trkpt lat="43.7497" lon="6.64585">
        <ele>1382.5</ele>
      </trkpt>
      <trkpt lat="43.74967" lon="6.64583">
        <ele>1389</ele>
        <time>2017-11-19T10:46:10.000Z</time>
      </trkpt>
      <trkpt lat="43.74965" lon="6.64579">
        <ele>1384.8</ele>
      </trkpt>
      <trkpt lat="43.74964" lon="6.64574">
        <ele>1385</ele>
      </trkpt>
      <trkpt lat="43.74963" lon="6.64564">
        <ele>1384.7</ele>
      </trkpt>
      <trkpt lat="43.74963" lon="6.64549">
        <ele>1384</ele>
        <time>2017-11-19T10:46:24.000Z</time>
      </trkpt>
      <trkpt lat="43.74961" lon="6.64538">
        <ele>1385</ele>
      </trkpt>
      <trkpt lat="43.7496" lon="6.64528">
        <ele>1385.6</ele>
      </trkpt>
      <trkpt lat="43.7496" lon="6.64499">
        <ele>1403</ele>
        <time>2017-11-19T10:46:44.000Z</time>
      </trkpt>
      <trkpt lat="43.74951" lon="6.64475">
        <ele>1385.9</ele>
      </trkpt>
      <trkpt lat="43.74947" lon="6.64465">
        <ele>1393</ele>
        <time>2017-11-19T10:46:58.000Z</time>
      </trkpt>
      <trkpt lat="43.74941" lon="6.64451">
        <ele>1387.7</ele>
      </trkpt>
      <trkpt lat="43.74937" lon="6.64443">
        <ele>1388.6</ele>
      </trkpt>
      <trkpt lat="43.74935" lon="6.64434">
        <ele>1406</ele>
        <time>2017-11-19T10:47:13.000Z</time>
      </trkpt>
      <trkpt lat="43.74932" lon="6.64426">
        <ele>1389.2</ele>
      </trkpt>
      <trkpt lat="43.74929" lon="6.64417">
        <ele>1389.9</ele>
      </trkpt>
      <trkpt lat="43.74929" lon="6.64411">
        <ele>1389.3</ele>
      </trkpt>
      <trkpt lat="43.7493" lon="6.64407">
        <ele>1404</ele>
        <time>2017-11-19T10:47:25.000Z</time>
      </trkpt>
      <trkpt lat="43.74929" lon="6.64402">
        <ele>1388.3</ele>
      </trkpt>
      <trkpt lat="43.74925" lon="6.64393">
        <ele>1389.6</ele>
      </trkpt>
      <trkpt lat="43.74921" lon="6.64385">
        <ele>1390.5</ele>
      </trkpt>
      <trkpt lat="43.74905" lon="6.64363">
        <ele>1415</ele>
        <time>2017-11-19T10:47:48.000Z</time>
      </trkpt>
      <trkpt lat="43.74904" lon="6.64358">
        <ele>1392.4</ele>
      </trkpt>
      <trkpt lat="43.74902" lon="6.64354">
        <ele>1392.6</ele>
      </trkpt>
      <trkpt lat="43.74895" lon="6.64343">
        <ele>1393.9</ele>
      </trkpt>
      <trkpt lat="43.74893" lon="6.64339">
        <ele>1412</ele>
        <time>2017-11-19T10:48:00.000Z</time>
      </trkpt>
      <trkpt lat="43.74885" lon="6.64312">
        <ele>1409</ele>
        <time>2017-11-19T10:48:12.000Z</time>
      </trkpt>
      <trkpt lat="43.74879" lon="6.64301">
        <ele>1397</ele>
      </trkpt>
      <trkpt lat="43.74876" lon="6.64293">
        <ele>1397.2</ele>
      </trkpt>
      <trkpt lat="43.74873" lon="6.64288">
        <ele>1421</ele>
        <time>2017-11-19T10:48:24.000Z</time>
      </trkpt>
      <trkpt lat="43.74867" lon="6.64269">
        <ele>1398</ele>
      </trkpt>
      <trkpt lat="43.74865" lon="6.64265">
        <ele>1398.3</ele>
      </trkpt>
      <trkpt lat="43.74861" lon="6.64259">
        <ele>1416</ele>
        <time>2017-11-19T10:48:38.000Z</time>
      </trkpt>
      <trkpt lat="43.74856" lon="6.6425">
        <ele>1399.7</ele>
      </trkpt>
      <trkpt lat="43.74854" lon="6.64248">
        <ele>1399.9</ele>
      </trkpt>
      <trkpt lat="43.74853" lon="6.64244">
        <ele>1399.4</ele>
      </trkpt>
      <trkpt lat="43.74849" lon="6.64241">
        <ele>1400.1</ele>
      </trkpt>
      <trkpt lat="43.74844" lon="6.64233">
        <ele>1419</ele>
        <time>2017-11-19T10:48:50.000Z</time>
      </trkpt>
      <trkpt lat="43.74841" lon="6.64231">
        <ele>1400.9</ele>
      </trkpt>
      <trkpt lat="43.74835" lon="6.6422">
        <ele>1401.3</ele>
      </trkpt>
      <trkpt lat="43.74833" lon="6.64216">
        <ele>1401.9</ele>
      </trkpt>
      <trkpt lat="43.74832" lon="6.64207">
        <ele>1417</ele>
        <time>2017-11-19T10:49:04.000Z</time>
      </trkpt>
      <trkpt lat="43.74828" lon="6.64199">
        <ele>1403.3</ele>
      </trkpt>
      <trkpt lat="43.74825" lon="6.64189">
        <ele>1403.8</ele>
      </trkpt>
      <trkpt lat="43.74824" lon="6.64184">
        <ele>1403.7</ele>
      </trkpt>
      <trkpt lat="43.74823" lon="6.64175">
        <ele>1416</ele>
        <time>2017-11-19T10:49:19.000Z</time>
      </trkpt>
      <trkpt lat="43.74818" lon="6.64157">
        <ele>1404.5</ele>
      </trkpt>
      <trkpt lat="43.74818" lon="6.6415">
        <ele>1404.4</ele>
      </trkpt>
      <trkpt lat="43.7481" lon="6.64127">
        <ele>1419</ele>
        <time>2017-11-19T10:49:38.000Z</time>
      </trkpt>
      <trkpt lat="43.74804" lon="6.6412">
        <ele>1407.7</ele>
      </trkpt>
      <trkpt lat="43.74802" lon="6.64116">
        <ele>1407.6</ele>
      </trkpt>
      <trkpt lat="43.74794" lon="6.64103">
        <ele>1421</ele>
        <time>2017-11-19T10:49:50.000Z</time>
      </trkpt>
      <trkpt lat="43.74789" lon="6.64097">
        <ele>1407.6</ele>
      </trkpt>
      <trkpt lat="43.74783" lon="6.6409">
        <ele>1407.9</ele>
      </trkpt>
      <trkpt lat="43.74777" lon="6.64087">
        <ele>1418</ele>
        <time>2017-11-19T10:50:02.000Z</time>
      </trkpt>
      <trkpt lat="43.74774" lon="6.64086">
        <ele>1408.9</ele>
      </trkpt>
      <trkpt lat="43.74768" lon="6.64087">
        <ele>1409.8</ele>
      </trkpt>
      <trkpt lat="43.74764" lon="6.64087">
        <ele>1410.3</ele>
      </trkpt>
      <trkpt lat="43.74757" lon="6.64084">
        <ele>1416</ele>
        <time>2017-11-19T10:50:21.000Z</time>
      </trkpt>
      <trkpt lat="43.7475" lon="6.64083">
        <ele>1410.9</ele>
      </trkpt>
      <trkpt lat="43.74743" lon="6.64083">
        <ele>1411.7</ele>
      </trkpt>
      <trkpt lat="43.74735" lon="6.64079">
        <ele>1412</ele>
        <time>2017-11-19T10:50:33.000Z</time>
      </trkpt>
      <trkpt lat="43.74728" lon="6.6408">
        <ele>1412.7</ele>
      </trkpt>
      <trkpt lat="43.74721" lon="6.64082">
        <ele>1413.6</ele>
      </trkpt>
      <trkpt lat="43.74716" lon="6.64084">
        <ele>1412</ele>
        <time>2017-11-19T10:50:43.000Z</time>
      </trkpt>
      <trkpt lat="43.74713" lon="6.64088">
        <ele>1413.9</ele>
      </trkpt>
      <trkpt lat="43.74709" lon="6.6409">
        <ele>1413.8</ele>
      </trkpt>
      <trkpt lat="43.74702" lon="6.64093">
        <ele>1413.4</ele>
      </trkpt>
      <trkpt lat="43.74698" lon="6.64096">
        <ele>1411</ele>
        <time>2017-11-19T10:50:53.000Z</time>
      </trkpt>
      <trkpt lat="43.7469" lon="6.64099">
        <ele>1413.5</ele>
      </trkpt>
      <trkpt lat="43.74678" lon="6.64105">
        <ele>1420</ele>
        <time>2017-11-19T10:51:03.000Z</time>
      </trkpt>
      <trkpt lat="43.74674" lon="6.64107">
        <ele>1415.8</ele>
      </trkpt>
      <trkpt lat="43.7466" lon="6.64108">
        <ele>1417</ele>
      </trkpt>
      <trkpt lat="43.74647" lon="6.64105">
        <ele>1428</ele>
        <time>2017-11-19T10:51:17.000Z</time>
      </trkpt>
      <trkpt lat="43.74636" lon="6.64099">
        <ele>1418.3</ele>
      </trkpt>
      <trkpt lat="43.74629" lon="6.64094">
        <ele>1431</ele>
        <time>2017-11-19T10:51:27.000Z</time>
      </trkpt>
      <trkpt lat="43.74622" lon="6.64087">
        <ele>1419.5</ele>
      </trkpt>
      <trkpt lat="43.7462" lon="6.64083">
        <ele>1419.4</ele>
      </trkpt>
      <trkpt lat="43.74613" lon="6.6408">
        <ele>1420.2</ele>
      </trkpt>
      <trkpt lat="43.74611" lon="6.64076">
        <ele>1431</ele>
        <time>2017-11-19T10:51:40.000Z</time>
      </trkpt>
      <trkpt lat="43.74605" lon="6.6407">
        <ele>1420.5</ele>
      </trkpt>
      <trkpt lat="43.74598" lon="6.64065">
        <ele>1421.4</ele>
      </trkpt>
      <trkpt lat="43.74592" lon="6.64058">
        <ele>1430</ele>
        <time>2017-11-19T10:51:53.000Z</time>
      </trkpt>
      <trkpt lat="43.74587" lon="6.64055">
        <ele>1422.1</ele>
      </trkpt>
      <trkpt lat="43.74583" lon="6.64052">
        <ele>1422.7</ele>
      </trkpt>
      <trkpt lat="43.74581" lon="6.64049">
        <ele>1422.5</ele>
      </trkpt>
      <trkpt lat="43.74574" lon="6.64047">
        <ele>1427</ele>
        <time>2017-11-19T10:52:06.000Z</time>
      </trkpt>
      <trkpt lat="43.74571" lon="6.64045">
        <ele>1423.2</ele>
      </trkpt>
      <trkpt lat="43.74566" lon="6.64044">
        <ele>1423.6</ele>
      </trkpt>
      <trkpt lat="43.74558" lon="6.64045">
        <ele>1424.6</ele>
      </trkpt>
      <trkpt lat="43.74554" lon="6.64047">
        <ele>1432</ele>
        <time>2017-11-19T10:52:16.000Z</time>
      </trkpt>
      <trkpt lat="43.7455" lon="6.64047">
        <ele>1426.2</ele>
      </trkpt>
      <trkpt lat="43.74544" lon="6.64045">
        <ele>1427.2</ele>
      </trkpt>
      <trkpt lat="43.7454" lon="6.64043">
        <ele>1427.8</ele>
      </trkpt>
      <trkpt lat="43.74537" lon="6.6404">
        <ele>1428</ele>
      </trkpt>
      <trkpt lat="43.74532" lon="6.6403">
        <ele>1439</ele>
        <time>2017-11-19T10:52:30.000Z</time>
      </trkpt>
      <trkpt lat="43.74519" lon="6.64012">
        <ele>1428</ele>
      </trkpt>
      <trkpt lat="43.74515" lon="6.64009">
        <ele>1431</ele>
        <time>2017-11-19T10:52:40.000Z</time>
      </trkpt>
      <trkpt lat="43.74507" lon="6.64005">
        <ele>1429.6</ele>
      </trkpt>
      <trkpt lat="43.74497" lon="6.64005">
        <ele>1431.2</ele>
      </trkpt>
      <trkpt lat="43.74492" lon="6.64006">
        <ele>1431</ele>
        <time>2017-11-19T10:52:51.000Z</time>
      </trkpt>
      <trkpt lat="43.74489" lon="6.64008">
        <ele>1431.8</ele>
      </trkpt>
      <trkpt lat="43.74482" lon="6.6401">
        <ele>1432.1</ele>
      </trkpt>
      <trkpt lat="43.74475" lon="6.64011">
        <ele>1432.1</ele>
      </trkpt>
      <trkpt lat="43.7447" lon="6.64011">
        <ele>1428</ele>
        <time>2017-11-19T10:53:02.000Z</time>
      </trkpt>
      <trkpt lat="43.74466" lon="6.64011">
        <ele>1432.7</ele>
      </trkpt>
      <trkpt lat="43.74454" lon="6.64006">
        <ele>1433</ele>
      </trkpt>
      <trkpt lat="43.7445" lon="6.64003">
        <ele>1434</ele>
        <time>2017-11-19T10:53:12.000Z</time>
      </trkpt>
      <trkpt lat="43.74443" lon="6.64">
        <ele>1433.2</ele>
      </trkpt>
      <trkpt lat="43.74439" lon="6.64">
        <ele>1433.8</ele>
      </trkpt>
      <trkpt lat="43.74436" lon="6.63996">
        <ele>1433.8</ele>
      </trkpt>
      <trkpt lat="43.74429" lon="6.63992">
        <ele>1443</ele>
        <time>2017-11-19T10:53:24.000Z</time>
      </trkpt>
      <trkpt lat="43.74418" lon="6.63984">
        <ele>1435.1</ele>
      </trkpt>
      <trkpt lat="43.74414" lon="6.63981">
        <ele>1435.4</ele>
      </trkpt>
      <trkpt lat="43.74407" lon="6.63973">
        <ele>1441</ele>
        <time>2017-11-19T10:53:36.000Z</time>
      </trkpt>
      <trkpt lat="43.74403" lon="6.6397">
        <ele>1436.3</ele>
      </trkpt>
      <trkpt lat="43.74395" lon="6.63965">
        <ele>1437.4</ele>
      </trkpt>
      <trkpt lat="43.74391" lon="6.63965">
        <ele>1438.1</ele>
      </trkpt>
      <trkpt lat="43.74386" lon="6.63966">
        <ele>1441</ele>
        <time>2017-11-19T10:53:46.000Z</time>
      </trkpt>
      <trkpt lat="43.74378" lon="6.63969">
        <ele>1437.9</ele>
      </trkpt>
      <trkpt lat="43.74367" lon="6.63976">
        <ele>1443</ele>
        <time>2017-11-19T10:53:53.000Z</time>
      </trkpt>
      <trkpt lat="43.74357" lon="6.63978">
        <ele>1437.9</ele>
      </trkpt>
      <trkpt lat="43.74354" lon="6.63976">
        <ele>1438.1</ele>
      </trkpt>
      <trkpt lat="43.74338" lon="6.63966">
        <ele>1443</ele>
        <time>2017-11-19T10:54:03.000Z</time>
      </trkpt>
      <trkpt lat="43.7433" lon="6.63964">
        <ele>1438.9</ele>
      </trkpt>
      <trkpt lat="43.74325" lon="6.63964">
        <ele>1438.6</ele>
      </trkpt>
      <trkpt lat="43.7432" lon="6.63966">
        <ele>1438.6</ele>
      </trkpt>
      <trkpt lat="43.74314" lon="6.63969">
        <ele>1439</ele>
        <time>2017-11-19T10:54:12.000Z</time>
      </trkpt>
      <trkpt lat="43.74312" lon="6.6397">
        <ele>1438.9</ele>
      </trkpt>
      <trkpt lat="43.74307" lon="6.63973">
        <ele>1439.2</ele>
      </trkpt>
      <trkpt lat="43.74302" lon="6.63975">
        <ele>1439.3</ele>
      </trkpt>
      <trkpt lat="43.74285" lon="6.63984">
        <ele>1431</ele>
        <time>2017-11-19T10:54:27.000Z</time>
      </trkpt>
      <trkpt lat="43.74268" lon="6.63998">
        <ele>1440.4</ele>
      </trkpt>
      <trkpt lat="43.74255" lon="6.6401">
        <ele>1434</ele>
        <time>2017-11-19T10:54:42.000Z</time>
      </trkpt>
      <trkpt lat="43.74253" lon="6.64016">
        <ele>1441.3</ele>
      </trkpt>
      <trkpt lat="43.74241" lon="6.6403">
        <ele>1441</ele>
        <time>2017-11-19T10:54:50.000Z</time>
      </trkpt>
      <trkpt lat="43.74235" lon="6.64034">
        <ele>1441.9</ele>
      </trkpt>
      <trkpt lat="43.74228" lon="6.6404">
        <ele>1442.5</ele>
      </trkpt>
      <trkpt lat="43.74193" lon="6.64059">
        <ele>1439</ele>
        <time>2017-11-19T10:55:08.000Z</time>
      </trkpt>
      <trkpt lat="43.74182" lon="6.64063">
        <ele>1444.5</ele>
      </trkpt>
      <trkpt lat="43.74176" lon="6.64064">
        <ele>1444.4</ele>
      </trkpt>
      <trkpt lat="43.74166" lon="6.64061">
        <ele>1443</ele>
        <time>2017-11-19T10:55:18.000Z</time>
      </trkpt>
      <trkpt lat="43.74163" lon="6.64059">
        <ele>1444</ele>
      </trkpt>
      <trkpt lat="43.74159" lon="6.64057">
        <ele>1444.6</ele>
      </trkpt>
      <trkpt lat="43.74151" lon="6.64051">
        <ele>1445.3</ele>
      </trkpt>
      <trkpt lat="43.74147" lon="6.64051">
        <ele>1447</ele>
        <time>2017-11-19T10:55:28.000Z</time>
      </trkpt>
      <trkpt lat="43.74136" lon="6.64043">
        <ele>1447</ele>
      </trkpt>
      <trkpt lat="43.74132" lon="6.64041">
        <ele>1447.3</ele>
      </trkpt>
      <trkpt lat="43.74119" lon="6.64039">
        <ele>1442</ele>
        <time>2017-11-19T10:55:42.000Z</time>
      </trkpt>
      <trkpt lat="43.74115" lon="6.64037">
        <ele>1448.6</ele>
      </trkpt>
      <trkpt lat="43.7411" lon="6.64037">
        <ele>1449.1</ele>
      </trkpt>
      <trkpt lat="43.74101" lon="6.64035">
        <ele>1449.3</ele>
      </trkpt>
      <trkpt lat="43.74096" lon="6.64034">
        <ele>1441</ele>
        <time>2017-11-19T10:55:52.000Z</time>
      </trkpt>
      <trkpt lat="43.74092" lon="6.64035">
        <ele>1449.9</ele>
      </trkpt>
      <trkpt lat="43.74078" lon="6.64034">
        <ele>1450.5</ele>
      </trkpt>
      <trkpt lat="43.74062" lon="6.64035">
        <ele>1448</ele>
        <time>2017-11-19T10:56:08.000Z</time>
      </trkpt>
      <trkpt lat="43.74036" lon="6.64043">
        <ele>1447</ele>
        <time>2017-11-19T10:56:18.000Z</time>
      </trkpt>
      <trkpt lat="43.74031" lon="6.64045">
        <ele>1452.8</ele>
      </trkpt>
      <trkpt lat="43.74026" lon="6.64047">
        <ele>1453.1</ele>
      </trkpt>
      <trkpt lat="43.74012" lon="6.64049">
        <ele>1446</ele>
        <time>2017-11-19T10:56:28.000Z</time>
      </trkpt>
      <trkpt lat="43.74006" lon="6.64049">
        <ele>1452.6</ele>
      </trkpt>
      <trkpt lat="43.73998" lon="6.64056">
        <ele>1453.9</ele>
      </trkpt>
      <trkpt lat="43.73996" lon="6.64062">
        <ele>1455</ele>
        <time>2017-11-19T10:56:36.000Z</time>
      </trkpt>
      <trkpt lat="43.73997" lon="6.64066">
        <ele>1455.6</ele>
      </trkpt>
      <trkpt lat="43.73999" lon="6.64068">
        <ele>1456.2</ele>
      </trkpt>
      <trkpt lat="43.74002" lon="6.64069">
        <ele>1456.5</ele>
      </trkpt>
      <trkpt lat="43.74005" lon="6.6407">
        <ele>1456.9</ele>
      </trkpt>
      <trkpt lat="43.74008" lon="6.64069">
        <ele>1456.8</ele>
      </trkpt>
      <trkpt lat="43.74016" lon="6.64064">
        <ele>1455</ele>
        <time>2017-11-19T10:56:44.000Z</time>
      </trkpt>
      <trkpt lat="43.74022" lon="6.64061">
        <ele>1455.9</ele>
      </trkpt>
      <trkpt lat="43.74039" lon="6.64058">
        <ele>1454</ele>
        <time>2017-11-19T10:56:52.000Z</time>
      </trkpt>
      <trkpt lat="43.74049" lon="6.64058">
        <ele>1456.2</ele>
      </trkpt>
      <trkpt lat="43.74059" lon="6.64059">
        <ele>1456</ele>
        <time>2017-11-19T10:57:00.000Z</time>
      </trkpt>
      <trkpt lat="43.74063" lon="6.64061">
        <ele>1456.7</ele>
      </trkpt>
      <trkpt lat="43.74066" lon="6.64063">
        <ele>1457</ele>
      </trkpt>
      <trkpt lat="43.74074" lon="6.64065">
        <ele>1457</ele>
      </trkpt>
      <trkpt lat="43.74086" lon="6.64074">
        <ele>1457</ele>
        <time>2017-11-19T10:57:12.000Z</time>
      </trkpt>
      <trkpt lat="43.74089" lon="6.64075">
        <ele>1458.1</ele>
      </trkpt>
      <trkpt lat="43.74096" lon="6.64081">
        <ele>1458.7</ele>
      </trkpt>
      <trkpt lat="43.74103" lon="6.64088">
        <ele>1459.1</ele>
      </trkpt>
      <trkpt lat="43.74105" lon="6.64092">
        <ele>1456</ele>
        <time>2017-11-19T10:57:21.000Z</time>
      </trkpt>
      <trkpt lat="43.74107" lon="6.641">
        <ele>1459.8</ele>
      </trkpt>
      <trkpt lat="43.74108" lon="6.64106">
        <ele>1460.1</ele>
      </trkpt>
      <trkpt lat="43.74108" lon="6.64111">
        <ele>1460.6</ele>
      </trkpt>
      <trkpt lat="43.74107" lon="6.64116">
        <ele>1460.9</ele>
      </trkpt>
      <trkpt lat="43.74107" lon="6.64122">
        <ele>1461</ele>
        <time>2017-11-19T10:57:31.000Z</time>
      </trkpt>
      <trkpt lat="43.74107" lon="6.64129">
        <ele>1461.5</ele>
      </trkpt>
      <trkpt lat="43.74108" lon="6.64136">
        <ele>1461.6</ele>
      </trkpt>
      <trkpt lat="43.74112" lon="6.64147">
        <ele>1462</ele>
      </trkpt>
      <trkpt lat="43.74115" lon="6.64152">
        <ele>1465</ele>
        <time>2017-11-19T10:57:41.000Z</time>
      </trkpt>
      <trkpt lat="43.74119" lon="6.64156">
        <ele>1462.6</ele>
      </trkpt>
      <trkpt lat="43.74127" lon="6.64162">
        <ele>1462.9</ele>
      </trkpt>
      <trkpt lat="43.74144" lon="6.64177">
        <ele>1466</ele>
        <time>2017-11-19T10:57:57.000Z</time>
      </trkpt>
      <trkpt lat="43.7416" lon="6.64188">
        <ele>1466.5</ele>
      </trkpt>
      <trkpt lat="43.74167" lon="6.64188">
        <ele>1464</ele>
        <time>2017-11-19T10:58:11.000Z</time>
      </trkpt>
      <trkpt lat="43.74173" lon="6.64185">
        <ele>1466.9</ele>
      </trkpt>
      <trkpt lat="43.74176" lon="6.64183">
        <ele>1467.1</ele>
      </trkpt>
      <trkpt lat="43.74183" lon="6.6418">
        <ele>1467.9</ele>
      </trkpt>
      <trkpt lat="43.74194" lon="6.64172">
        <ele>1468</ele>
        <time>2017-11-19T10:58:29.000Z</time>
      </trkpt>
      <trkpt lat="43.74207" lon="6.64168">
        <ele>1469.6</ele>
      </trkpt>
      <trkpt lat="43.74223" lon="6.64168">
        <ele>1468</ele>
        <time>2017-11-19T10:58:48.000Z</time>
      </trkpt>
      <trkpt lat="43.74229" lon="6.6417">
        <ele>1472</ele>
      </trkpt>
      <trkpt lat="43.74235" lon="6.6417">
        <ele>1472.3</ele>
      </trkpt>
      <trkpt lat="43.74238" lon="6.64169">
        <ele>1472.2</ele>
      </trkpt>
      <trkpt lat="43.74242" lon="6.64169">
        <ele>1472.3</ele>
      </trkpt>
      <trkpt lat="43.74245" lon="6.6417">
        <ele>1475</ele>
        <time>2017-11-19T10:59:02.000Z</time>
      </trkpt>
      <trkpt lat="43.74251" lon="6.64168">
        <ele>1472.4</ele>
      </trkpt>
      <trkpt lat="43.74254" lon="6.64167">
        <ele>1472.1</ele>
      </trkpt>
      <trkpt lat="43.74257" lon="6.64168">
        <ele>1472.4</ele>
      </trkpt>
      <trkpt lat="43.74262" lon="6.64168">
        <ele>1472.4</ele>
      </trkpt>
      <trkpt lat="43.74275" lon="6.64174">
        <ele>1482</ele>
        <time>2017-11-19T10:59:22.000Z</time>
      </trkpt>
      <trkpt lat="43.7428" lon="6.64174">
        <ele>1475</ele>
      </trkpt>
      <trkpt lat="43.74291" lon="6.64173">
        <ele>1476.4</ele>
      </trkpt>
      <trkpt lat="43.74299" lon="6.64169">
        <ele>1482</ele>
        <time>2017-11-19T10:59:38.000Z</time>
      </trkpt>
      <trkpt lat="43.74305" lon="6.64167">
        <ele>1477</ele>
      </trkpt>
      <trkpt lat="43.74321" lon="6.64167">
        <ele>1485</ele>
        <time>2017-11-19T10:59:52.000Z</time>
      </trkpt>
      <trkpt lat="43.74327" lon="6.64168">
        <ele>1478.9</ele>
      </trkpt>
      <trkpt lat="43.7433" lon="6.64169">
        <ele>1479.4</ele>
      </trkpt>
      <trkpt lat="43.74334" lon="6.6417">
        <ele>1479.9</ele>
      </trkpt>
      <trkpt lat="43.74338" lon="6.64174">
        <ele>1480.9</ele>
      </trkpt>
      <trkpt lat="43.74342" lon="6.64176">
        <ele>1485</ele>
        <time>2017-11-19T11:00:04.000Z</time>
      </trkpt>
      <trkpt lat="43.74349" lon="6.64177">
        <ele>1481</ele>
      </trkpt>
      <trkpt lat="43.74353" lon="6.64179">
        <ele>1481.2</ele>
      </trkpt>
      <trkpt lat="43.74356" lon="6.64182">
        <ele>1481.7</ele>
      </trkpt>
      <trkpt lat="43.74364" lon="6.64193">
        <ele>1486</ele>
        <time>2017-11-19T11:00:21.000Z</time>
      </trkpt>
      <trkpt lat="43.74367" lon="6.64196">
        <ele>1483.4</ele>
      </trkpt>
      <trkpt lat="43.74369" lon="6.64201">
        <ele>1484</ele>
      </trkpt>
      <trkpt lat="43.74375" lon="6.64209">
        <ele>1484.6</ele>
      </trkpt>
      <trkpt lat="43.74377" lon="6.64212">
        <ele>1484.9</ele>
      </trkpt>
      <trkpt lat="43.74379" lon="6.64217">
        <ele>1491</ele>
      </trkpt>
      <trkpt lat="43.74381" lon="6.6422">
        <ele>1485.7</ele>
      </trkpt>
      <trkpt lat="43.74382" lon="6.64225">
        <ele>1486.5</ele>
      </trkpt>
      <trkpt lat="43.74384" lon="6.64229">
        <ele>1486.9</ele>
      </trkpt>
      <trkpt lat="43.74389" lon="6.64235">
        <ele>1487.3</ele>
      </trkpt>
      <trkpt lat="43.7439" lon="6.64239">
        <ele>1484</ele>
      </trkpt>
      <trkpt lat="43.74394" lon="6.64247">
        <ele>1488.2</ele>
      </trkpt>
      <trkpt lat="43.74396" lon="6.64255">
        <ele>1488.6</ele>
      </trkpt>
      <trkpt lat="43.74395" lon="6.6426">
        <ele>1489.2</ele>
      </trkpt>
      <trkpt lat="43.74396" lon="6.64268">
        <ele>1486</ele>
      </trkpt>
      <trkpt lat="43.74397" lon="6.64273">
        <ele>1489.6</ele>
      </trkpt>
      <trkpt lat="43.74398" lon="6.64278">
        <ele>1489.7</ele>
      </trkpt>
      <trkpt lat="43.74397" lon="6.64283">
        <ele>1490.2</ele>
      </trkpt>
      <trkpt lat="43.74396" lon="6.64287">
        <ele>1490.6</ele>
      </trkpt>
      <trkpt lat="43.74398" lon="6.64292">
        <ele>1490.4</ele>
      </trkpt>
      <trkpt lat="43.74396" lon="6.64307">
        <ele>1495</ele>
      </trkpt>
      <trkpt lat="43.74396" lon="6.64313">
        <ele>1492</ele>
      </trkpt>
      <trkpt lat="43.74397" lon="6.64327">
        <ele>1492.8</ele>
      </trkpt>
      <trkpt lat="43.74398" lon="6.64336">
        <ele>1500</ele>
      </trkpt>
      <trkpt lat="43.74399" lon="6.6434">
        <ele>1493.7</ele>
      </trkpt>
      <trkpt lat="43.744" lon="6.6435">
        <ele>1494.8</ele>
      </trkpt>
      <trkpt lat="43.74403" lon="6.64359">
        <ele>1495.2</ele>
      </trkpt>
      <trkpt lat="43.74405" lon="6.64363">
        <ele>1508</ele>
      </trkpt>
      <trkpt lat="43.74411" lon="6.64381">
        <ele>1496.7</ele>
      </trkpt>
      <trkpt lat="43.74423" lon="6.64406">
        <ele>1509</ele>
        <time>2017-11-19T11:02:05.000Z</time>
      </trkpt>
      <trkpt lat="43.74425" lon="6.64409">
        <ele>1499.9</ele>
      </trkpt>
      <trkpt lat="43.7443" lon="6.64411">
        <ele>1499.8</ele>
      </trkpt>
      <trkpt lat="43.74438" lon="6.64418">
        <ele>1500.8</ele>
      </trkpt>
      <trkpt lat="43.74441" lon="6.64419">
        <ele>1508</ele>
        <time>2017-11-19T11:02:17.000Z</time>
      </trkpt>
      <trkpt lat="43.74445" lon="6.64422">
        <ele>1501.3</ele>
      </trkpt>
      <trkpt lat="43.74455" lon="6.64429">
        <ele>1502.6</ele>
      </trkpt>
      <trkpt lat="43.74459" lon="6.64429">
        <ele>1502.4</ele>
      </trkpt>
      <trkpt lat="43.7447" lon="6.64436">
        <ele>1502</ele>
        <time>2017-11-19T11:02:37.000Z</time>
      </trkpt>
      <trkpt lat="43.74475" lon="6.64441">
        <ele>1503.9</ele>
      </trkpt>
      <trkpt lat="43.74483" lon="6.64451">
        <ele>1504.8</ele>
      </trkpt>
      <trkpt lat="43.74487" lon="6.64464">
        <ele>1514</ele>
        <time>2017-11-19T11:02:53.000Z</time>
      </trkpt>
      <trkpt lat="43.74501" lon="6.64485">
        <ele>1513</ele>
        <time>2017-11-19T11:03:05.000Z</time>
      </trkpt>
      <trkpt lat="43.74504" lon="6.64493">
        <ele>1508.4</ele>
      </trkpt>
      <trkpt lat="43.74509" lon="6.64501">
        <ele>1508.9</ele>
      </trkpt>
      <trkpt lat="43.7452" lon="6.64516">
        <ele>1514</ele>
        <time>2017-11-19T11:03:21.000Z</time>
      </trkpt>
      <trkpt lat="43.74521" lon="6.64519">
        <ele>1510.7</ele>
      </trkpt>
      <trkpt lat="43.74528" lon="6.64527">
        <ele>1510.8</ele>
      </trkpt>
      <trkpt lat="43.7453" lon="6.6453">
        <ele>1511.2</ele>
      </trkpt>
      <trkpt lat="43.74539" lon="6.64542">
        <ele>1520</ele>
        <time>2017-11-19T11:03:39.000Z</time>
      </trkpt>
      <trkpt lat="43.74541" lon="6.64546">
        <ele>1512.7</ele>
      </trkpt>
      <trkpt lat="43.74544" lon="6.64548">
        <ele>1512.6</ele>
      </trkpt>
      <trkpt lat="43.74547" lon="6.64551">
        <ele>1512.7</ele>
      </trkpt>
      <trkpt lat="43.7455" lon="6.64559">
        <ele>1513.8</ele>
      </trkpt>
      <trkpt lat="43.74552" lon="6.64563">
        <ele>1522</ele>
        <time>2017-11-19T11:03:51.000Z</time>
      </trkpt>
      <trkpt lat="43.74559" lon="6.64573">
        <ele>1514.9</ele>
      </trkpt>
      <trkpt lat="43.74561" lon="6.64578">
        <ele>1515.5</ele>
      </trkpt>
      <trkpt lat="43.74565" lon="6.64584">
        <ele>1531</ele>
        <time>2017-11-19T11:04:04.000Z</time>
      </trkpt>
      <trkpt lat="43.74567" lon="6.6459">
        <ele>1516.8</ele>
      </trkpt>
      <trkpt lat="43.74572" lon="6.64597">
        <ele>1517.4</ele>
      </trkpt>
      <trkpt lat="43.74576" lon="6.646">
        <ele>1517.3</ele>
      </trkpt>
      <trkpt lat="43.74578" lon="6.64604">
        <ele>1518</ele>
      </trkpt>
      <trkpt lat="43.74585" lon="6.64613">
        <ele>1536</ele>
        <time>2017-11-19T11:04:22.000Z</time>
      </trkpt>
      <trkpt lat="43.74588" lon="6.64615">
        <ele>1519.4</ele>
      </trkpt>
      <trkpt lat="43.74592" lon="6.64621">
        <ele>1520.5</ele>
      </trkpt>
      <trkpt lat="43.74604" lon="6.64632">
        <ele>1533</ele>
        <time>2017-11-19T11:04:38.000Z</time>
      </trkpt>
      <trkpt lat="43.74609" lon="6.64638">
        <ele>1522.2</ele>
      </trkpt>
      <trkpt lat="43.74611" lon="6.64641">
        <ele>1522.4</ele>
      </trkpt>
      <trkpt lat="43.74613" lon="6.64646">
        <ele>1522.7</ele>
      </trkpt>
      <trkpt lat="43.74615" lon="6.64659">
        <ele>1533</ele>
        <time>2017-11-19T11:04:56.000Z</time>
      </trkpt>
      <trkpt lat="43.74618" lon="6.64662">
        <ele>1523.7</ele>
      </trkpt>
      <trkpt lat="43.74618" lon="6.64671">
        <ele>1525.4</ele>
      </trkpt>
      <trkpt lat="43.74619" lon="6.64675">
        <ele>1525.9</ele>
      </trkpt>
      <trkpt lat="43.74621" lon="6.64678">
        <ele>1525.7</ele>
      </trkpt>
      <trkpt lat="43.74622" lon="6.64683">
        <ele>1538</ele>
        <time>2017-11-19T11:05:10.000Z</time>
      </trkpt>
      <trkpt lat="43.74623" lon="6.64688">
        <ele>1527</ele>
      </trkpt>
      <trkpt lat="43.74627" lon="6.64697">
        <ele>1527.3</ele>
      </trkpt>
      <trkpt lat="43.74629" lon="6.64702">
        <ele>1527.7</ele>
      </trkpt>
      <trkpt lat="43.74632" lon="6.6471">
        <ele>1536</ele>
        <time>2017-11-19T11:05:24.000Z</time>
      </trkpt>
      <trkpt lat="43.74638" lon="6.64724">
        <ele>1529.8</ele>
      </trkpt>
      <trkpt lat="43.7464" lon="6.64727">
        <ele>1530</ele>
      </trkpt>
      <trkpt lat="43.74642" lon="6.64731">
        <ele>1530.6</ele>
      </trkpt>
      <trkpt lat="43.74651" lon="6.64742">
        <ele>1544</ele>
        <time>2017-11-19T11:05:43.000Z</time>
      </trkpt>
      <trkpt lat="43.74661" lon="6.64755">
        <ele>1532.3</ele>
      </trkpt>
      <trkpt lat="43.74666" lon="6.64761">
        <ele>1538</ele>
        <time>2017-11-19T11:05:56.000Z</time>
      </trkpt>
      <trkpt lat="43.74671" lon="6.64768">
        <ele>1533.5</ele>
      </trkpt>
      <trkpt lat="43.74677" lon="6.64775">
        <ele>1533.8</ele>
      </trkpt>
      <trkpt lat="43.74685" lon="6.64787">
        <ele>1545</ele>
        <time>2017-11-19T11:06:13.000Z</time>
      </trkpt>
      <trkpt lat="43.74694" lon="6.64806">
        <ele>1536.2</ele>
      </trkpt>
      <trkpt lat="43.74697" lon="6.64815">
        <ele>1538</ele>
        <time>2017-11-19T11:06:28.000Z</time>
      </trkpt>
      <trkpt lat="43.747" lon="6.64818">
        <ele>1536.1</ele>
      </trkpt>
      <trkpt lat="43.74703" lon="6.64825">
        <ele>1536.3</ele>
      </trkpt>
      <trkpt lat="43.74705" lon="6.64829">
        <ele>1536.4</ele>
      </trkpt>
      <trkpt lat="43.74711" lon="6.64844">
        <ele>1537</ele>
        <time>2017-11-19T11:06:44.000Z</time>
      </trkpt>
      <trkpt lat="43.74712" lon="6.64849">
        <ele>1538.8</ele>
      </trkpt>
      <trkpt lat="43.74716" lon="6.6486">
        <ele>1540.2</ele>
      </trkpt>
      <trkpt lat="43.74723" lon="6.6487">
        <ele>1544</ele>
        <time>2017-11-19T11:06:59.000Z</time>
      </trkpt>
      <trkpt lat="43.74728" lon="6.64888">
        <ele>1542.1</ele>
      </trkpt>
      <trkpt lat="43.74735" lon="6.64902">
        <ele>1549</ele>
        <time>2017-11-19T11:07:16.000Z</time>
      </trkpt>
      <trkpt lat="43.74737" lon="6.64911">
        <ele>1543.7</ele>
      </trkpt>
      <trkpt lat="43.7474" lon="6.6492">
        <ele>1544.3</ele>
      </trkpt>
      <trkpt lat="43.74743" lon="6.64939">
        <ele>1547</ele>
        <time>2017-11-19T11:07:35.000Z</time>
      </trkpt>
      <trkpt lat="43.74749" lon="6.6496">
        <ele>1546.7</ele>
      </trkpt>
      <trkpt lat="43.74749" lon="6.64978">
        <ele>1551</ele>
        <time>2017-11-19T11:07:53.000Z</time>
      </trkpt>
      <trkpt lat="43.74751" lon="6.64986">
        <ele>1548.5</ele>
      </trkpt>
      <trkpt lat="43.7475" lon="6.64994">
        <ele>1549.6</ele>
      </trkpt>
      <trkpt lat="43.74752" lon="6.65003">
        <ele>1549.4</ele>
      </trkpt>
      <trkpt lat="43.74753" lon="6.65012">
        <ele>1557</ele>
        <time>2017-11-19T11:08:09.000Z</time>
      </trkpt>
      <trkpt lat="43.74753" lon="6.65016">
        <ele>1550.3</ele>
      </trkpt>
      <trkpt lat="43.74753" lon="6.6502">
        <ele>1550.8</ele>
      </trkpt>
      <trkpt lat="43.74752" lon="6.65024">
        <ele>1551.7</ele>
      </trkpt>
      <trkpt lat="43.74753" lon="6.65033">
        <ele>1552.4</ele>
      </trkpt>
      <trkpt lat="43.74754" lon="6.65036">
        <ele>1552.4</ele>
      </trkpt>
      <trkpt lat="43.74757" lon="6.65048">
        <ele>1562</ele>
        <time>2017-11-19T11:08:27.000Z</time>
      </trkpt>
      <trkpt lat="43.74761" lon="6.65056">
        <ele>1552.8</ele>
      </trkpt>
      <trkpt lat="43.74766" lon="6.65069">
        <ele>1554.4</ele>
      </trkpt>
      <trkpt lat="43.74777" lon="6.65086">
        <ele>1559</ele>
        <time>2017-11-19T11:08:48.000Z</time>
      </trkpt>
      <trkpt lat="43.7478" lon="6.65097">
        <ele>1557.2</ele>
      </trkpt>
      <trkpt lat="43.74786" lon="6.65103">
        <ele>1556.7</ele>
      </trkpt>
      <trkpt lat="43.74788" lon="6.65107">
        <ele>1557.1</ele>
      </trkpt>
      <trkpt lat="43.74792" lon="6.65114">
        <ele>1566</ele>
        <time>2017-11-19T11:09:05.000Z</time>
      </trkpt>
      <trkpt lat="43.74802" lon="6.65132">
        <ele>1560.1</ele>
      </trkpt>
      <trkpt lat="43.74808" lon="6.65138">
        <ele>1569</ele>
        <time>2017-11-19T11:09:20.000Z</time>
      </trkpt>
      <trkpt lat="43.74815" lon="6.65148">
        <ele>1560.8</ele>
      </trkpt>
      <trkpt lat="43.74821" lon="6.65158">
        <ele>1557</ele>
        <time>2017-11-19T11:09:33.000Z</time>
      </trkpt>
      <trkpt lat="43.74826" lon="6.65168">
        <ele>1562.7</ele>
      </trkpt>
      <trkpt lat="43.74834" lon="6.65188">
        <ele>1567</ele>
        <time>2017-11-19T11:09:49.000Z</time>
      </trkpt>
      <trkpt lat="43.74835" lon="6.652">
        <ele>1565.3</ele>
      </trkpt>
      <trkpt lat="43.74837" lon="6.65204">
        <ele>1565</ele>
      </trkpt>
      <trkpt lat="43.74839" lon="6.65213">
        <ele>1565.6</ele>
      </trkpt>
      <trkpt lat="43.7484" lon="6.65217">
        <ele>1576</ele>
        <time>2017-11-19T11:10:03.000Z</time>
      </trkpt>
      <trkpt lat="43.74842" lon="6.65226">
        <ele>1566.5</ele>
      </trkpt>
      <trkpt lat="43.74845" lon="6.65238">
        <ele>1567.9</ele>
      </trkpt>
      <trkpt lat="43.74854" lon="6.65263">
        <ele>1574</ele>
        <time>2017-11-19T11:10:25.000Z</time>
      </trkpt>
      <trkpt lat="43.74856" lon="6.65267">
        <ele>1569.3</ele>
      </trkpt>
      <trkpt lat="43.74858" lon="6.65275">
        <ele>1570.2</ele>
      </trkpt>
      <trkpt lat="43.74861" lon="6.65279">
        <ele>1569.4</ele>
      </trkpt>
      <trkpt lat="43.74862" lon="6.65283">
        <ele>1569.9</ele>
      </trkpt>
      <trkpt lat="43.74866" lon="6.65292">
        <ele>1580</ele>
        <time>2017-11-19T11:10:39.000Z</time>
      </trkpt>
      <trkpt lat="43.74869" lon="6.65302">
        <ele>1571.4</ele>
      </trkpt>
      <trkpt lat="43.74874" lon="6.65311">
        <ele>1571.3</ele>
      </trkpt>
      <trkpt lat="43.74878" lon="6.6532">
        <ele>1590</ele>
        <time>2017-11-19T11:10:51.000Z</time>
      </trkpt>
      <trkpt lat="43.74879" lon="6.65324">
        <ele>1572.5</ele>
      </trkpt>
      <trkpt lat="43.74886" lon="6.65335">
        <ele>1572.6</ele>
      </trkpt>
      <trkpt lat="43.74892" lon="6.65348">
        <ele>1579</ele>
        <time>2017-11-19T11:11:05.000Z</time>
      </trkpt>
      <trkpt lat="43.74893" lon="6.65351">
        <ele>1574.3</ele>
      </trkpt>
      <trkpt lat="43.749" lon="6.65359">
        <ele>1574.6</ele>
      </trkpt>
      <trkpt lat="43.74906" lon="6.65366">
        <ele>1574.9</ele>
      </trkpt>
      <trkpt lat="43.74912" lon="6.65376">
        <ele>1579</ele>
        <time>2017-11-19T11:11:23.000Z</time>
      </trkpt>
      <trkpt lat="43.74914" lon="6.65379">
        <ele>1575.7</ele>
      </trkpt>
      <trkpt lat="43.74918" lon="6.65386">
        <ele>1575.8</ele>
      </trkpt>
      <trkpt lat="43.74923" lon="6.65402">
        <ele>1586</ele>
        <time>2017-11-19T11:11:37.000Z</time>
      </trkpt>
      <trkpt lat="43.7493" lon="6.6542">
        <ele>1579.3</ele>
      </trkpt>
      <trkpt lat="43.74934" lon="6.65429">
        <ele>1589</ele>
        <time>2017-11-19T11:11:51.000Z</time>
      </trkpt>
      <trkpt lat="43.74936" lon="6.65432">
        <ele>1578.5</ele>
      </trkpt>
      <trkpt lat="43.74937" lon="6.65437">
        <ele>1578.9</ele>
      </trkpt>
      <trkpt lat="43.74937" lon="6.65445">
        <ele>1580.3</ele>
      </trkpt>
      <trkpt lat="43.74939" lon="6.65453">
        <ele>1580.6</ele>
      </trkpt>
      <trkpt lat="43.74941" lon="6.65458">
        <ele>1588</ele>
        <time>2017-11-19T11:12:05.000Z</time>
      </trkpt>
      <trkpt lat="43.74942" lon="6.65467">
        <ele>1581.4</ele>
      </trkpt>
      <trkpt lat="43.74943" lon="6.65472">
        <ele>1581.6</ele>
      </trkpt>
      <trkpt lat="43.74945" lon="6.6548">
        <ele>1582.7</ele>
      </trkpt>
      <trkpt lat="43.74946" lon="6.65484">
        <ele>1591</ele>
        <time>2017-11-19T11:12:18.000Z</time>
      </trkpt>
      <trkpt lat="43.74951" lon="6.65496">
        <ele>1584.2</ele>
      </trkpt>
      <trkpt lat="43.74953" lon="6.65501">
        <ele>1584.5</ele>
      </trkpt>
      <trkpt lat="43.74958" lon="6.65512">
        <ele>1592</ele>
        <time>2017-11-19T11:12:34.000Z</time>
      </trkpt>
      <trkpt lat="43.74961" lon="6.65524">
        <ele>1584.8</ele>
      </trkpt>
      <trkpt lat="43.74961" lon="6.65538">
        <ele>1586.6</ele>
      </trkpt>
      <trkpt lat="43.74964" lon="6.65567">
        <ele>1585</ele>
        <time>2017-11-19T11:12:58.000Z</time>
      </trkpt>
      <trkpt lat="43.74967" lon="6.65577">
        <ele>1587.9</ele>
      </trkpt>
      <trkpt lat="43.7497" lon="6.65586">
        <ele>1587.9</ele>
      </trkpt>
      <trkpt lat="43.7497" lon="6.6559">
        <ele>1588.3</ele>
      </trkpt>
      <trkpt lat="43.74971" lon="6.65595">
        <ele>1590</ele>
        <time>2017-11-19T11:13:10.000Z</time>
      </trkpt>
      <trkpt lat="43.74975" lon="6.65603">
        <ele>1588.3</ele>
      </trkpt>
      <trkpt lat="43.74975" lon="6.65614">
        <ele>1589.7</ele>
      </trkpt>
      <trkpt lat="43.74974" lon="6.65618">
        <ele>1590.7</ele>
      </trkpt>
      <trkpt lat="43.74973" lon="6.65622">
        <ele>1593</ele>
        <time>2017-11-19T11:13:22.000Z</time>
      </trkpt>
      <trkpt lat="43.7497" lon="6.65624">
        <ele>1593</ele>
      </trkpt>
      <trkpt lat="43.74966" lon="6.65624">
        <ele>1594.1</ele>
      </trkpt>
      <trkpt lat="43.74961" lon="6.65616">
        <ele>1594.1</ele>
      </trkpt>
      <trkpt lat="43.74959" lon="6.65614">
        <ele>1594.3</ele>
      </trkpt>
      <trkpt lat="43.74954" lon="6.65602">
        <ele>1596</ele>
        <time>2017-11-19T11:13:39.000Z</time>
      </trkpt>
      <trkpt lat="43.74951" lon="6.65587">
        <ele>1592.8</ele>
      </trkpt>
      <trkpt lat="43.74945" lon="6.65565">
        <ele>1592</ele>
        <time>2017-11-19T11:13:53.000Z</time>
      </trkpt>
      <trkpt lat="43.7494" lon="6.65553">
        <ele>1594.6</ele>
      </trkpt>
      <trkpt lat="43.74936" lon="6.65538">
        <ele>1599</ele>
        <time>2017-11-19T11:14:02.000Z</time>
      </trkpt>
      <trkpt lat="43.74934" lon="6.65534">
        <ele>1594.6</ele>
      </trkpt>
      <trkpt lat="43.7493" lon="6.65534">
        <ele>1595.5</ele>
      </trkpt>
      <trkpt lat="43.74927" lon="6.65532">
        <ele>1596</ele>
      </trkpt>
      <trkpt lat="43.74922" lon="6.65533">
        <ele>1597.1</ele>
      </trkpt>
      <trkpt lat="43.74919" lon="6.65537">
        <ele>1599</ele>
        <time>2017-11-19T11:14:14.000Z</time>
      </trkpt>
      <trkpt lat="43.74918" lon="6.65545">
        <ele>1598.4</ele>
      </trkpt>
      <trkpt lat="43.74918" lon="6.6555">
        <ele>1598.6</ele>
      </trkpt>
      <trkpt lat="43.74919" lon="6.65555">
        <ele>1598.6</ele>
      </trkpt>
      <trkpt lat="43.7492" lon="6.65566">
        <ele>1599</ele>
        <time>2017-11-19T11:14:27.000Z</time>
      </trkpt>
      <trkpt lat="43.74916" lon="6.65575">
        <ele>1599.8</ele>
      </trkpt>
      <trkpt lat="43.74912" lon="6.65578">
        <ele>1600.6</ele>
      </trkpt>
      <trkpt lat="43.74907" lon="6.65579">
        <ele>1601.5</ele>
      </trkpt>
      <trkpt lat="43.74903" lon="6.65577">
        <ele>1603</ele>
        <time>2017-11-19T11:14:37.000Z</time>
      </trkpt>
      <trkpt lat="43.74901" lon="6.65575">
        <ele>1602.2</ele>
      </trkpt>
      <trkpt lat="43.74894" lon="6.65565">
        <ele>1602.3</ele>
      </trkpt>
      <trkpt lat="43.74883" lon="6.65556">
        <ele>1603</ele>
        <time>2017-11-19T11:14:54.000Z</time>
      </trkpt>
      <trkpt lat="43.74873" lon="6.65552">
        <ele>1604.4</ele>
      </trkpt>
      <trkpt lat="43.74869" lon="6.65552">
        <ele>1604.9</ele>
      </trkpt>
      <trkpt lat="43.74863" lon="6.6555">
        <ele>1606</ele>
        <time>2017-11-19T11:15:07.000Z</time>
      </trkpt>
      <trkpt lat="43.7486" lon="6.65548">
        <ele>1606.1</ele>
      </trkpt>
      <trkpt lat="43.74857" lon="6.65548">
        <ele>1606.3</ele>
      </trkpt>
      <trkpt lat="43.74843" lon="6.65556">
        <ele>1609</ele>
        <time>2017-11-19T11:15:21.000Z</time>
      </trkpt>
      <trkpt lat="43.7484" lon="6.65559">
        <ele>1607.7</ele>
      </trkpt>
      <trkpt lat="43.74839" lon="6.65563">
        <ele>1608</ele>
      </trkpt>
      <trkpt lat="43.74835" lon="6.65574">
        <ele>1608.7</ele>
      </trkpt>
      <trkpt lat="43.74833" lon="6.65578">
        <ele>1608.9</ele>
      </trkpt>
      <trkpt lat="43.74829" lon="6.65585">
        <ele>1609</ele>
        <time>2017-11-19T11:15:38.000Z</time>
      </trkpt>
      <trkpt lat="43.74827" lon="6.65588">
        <ele>1610.4</ele>
      </trkpt>
      <trkpt lat="43.74825" lon="6.65591">
        <ele>1610.8</ele>
      </trkpt>
      <trkpt lat="43.74818" lon="6.65601">
        <ele>1612</ele>
      </trkpt>
      <trkpt lat="43.74814" lon="6.65611">
        <ele>1614</ele>
        <time>2017-11-19T11:15:55.000Z</time>
      </trkpt>
      <trkpt lat="43.74812" lon="6.65619">
        <ele>1613.1</ele>
      </trkpt>
      <trkpt lat="43.7481" lon="6.65623">
        <ele>1613.4</ele>
      </trkpt>
      <trkpt lat="43.74806" lon="6.65629">
        <ele>1613.7</ele>
      </trkpt>
      <trkpt lat="43.74803" lon="6.65625">
        <ele>1614</ele>
        <time>2017-11-19T11:18:41.000Z</time>
      </trkpt>
      <trkpt lat="43.74805" lon="6.65633">
        <ele>1613.9</ele>
      </trkpt>
      <trkpt lat="43.74806" lon="6.65638">
        <ele>1614</ele>
      </trkpt>
      <trkpt lat="43.74805" lon="6.65641">
        <ele>1614.2</ele>
      </trkpt>
      <trkpt lat="43.74805" lon="6.65647">
        <ele>1614.7</ele>
      </trkpt>
      <trkpt lat="43.74806" lon="6.65656">
        <ele>1619</ele>
        <time>2017-11-19T11:24:29.000Z</time>
      </trkpt>
      <trkpt lat="43.74806" lon="6.6566">
        <ele>1615.6</ele>
      </trkpt>
      <trkpt lat="43.74807" lon="6.65663">
        <ele>1616.1</ele>
      </trkpt>
      <trkpt lat="43.74807" lon="6.65669">
        <ele>1616.8</ele>
      </trkpt>
      <trkpt lat="43.7481" lon="6.65677">
        <ele>1618.9</ele>
      </trkpt>
      <trkpt lat="43.74811" lon="6.65682">
        <ele>1623</ele>
        <time>2017-11-19T11:24:44.000Z</time>
      </trkpt>
      <trkpt lat="43.74812" lon="6.65692">
        <ele>1621.6</ele>
      </trkpt>
      <trkpt lat="43.74814" lon="6.65698">
        <ele>1622.4</ele>
      </trkpt>
      <trkpt lat="43.74814" lon="6.65702">
        <ele>1622.8</ele>
      </trkpt>
      <trkpt lat="43.74814" lon="6.65706">
        <ele>1623.3</ele>
      </trkpt>
      <trkpt lat="43.74823" lon="6.65732">
        <ele>1627</ele>
        <time>2017-11-19T11:25:13.000Z</time>
      </trkpt>
      <trkpt lat="43.74824" lon="6.65736">
        <ele>1622.8</ele>
      </trkpt>
      <trkpt lat="43.74826" lon="6.65749">
        <ele>1621.6</ele>
      </trkpt>
      <trkpt lat="43.74826" lon="6.65759">
        <ele>1629</ele>
        <time>2017-11-19T11:25:28.000Z</time>
      </trkpt>
      <trkpt lat="43.74827" lon="6.65778">
        <ele>1622.3</ele>
      </trkpt>
      <trkpt lat="43.74827" lon="6.65787">
        <ele>1628</ele>
        <time>2017-11-19T11:25:43.000Z</time>
      </trkpt>
      <trkpt lat="43.74827" lon="6.65797">
        <ele>1624.3</ele>
      </trkpt>
      <trkpt lat="43.74825" lon="6.65806">
        <ele>1625.4</ele>
      </trkpt>
      <trkpt lat="43.74823" lon="6.65814">
        <ele>1629</ele>
        <time>2017-11-19T11:25:56.000Z</time>
      </trkpt>
      <trkpt lat="43.74824" lon="6.65818">
        <ele>1627.1</ele>
      </trkpt>
      <trkpt lat="43.74815" lon="6.65825">
        <ele>1628.5</ele>
      </trkpt>
      <trkpt lat="43.7481" lon="6.65831">
        <ele>1629.5</ele>
      </trkpt>
      <trkpt lat="43.74802" lon="6.65837">
        <ele>1631</ele>
        <time>2017-11-19T11:26:17.000Z</time>
      </trkpt>
      <trkpt lat="43.74796" lon="6.65839">
        <ele>1632</ele>
      </trkpt>
      <trkpt lat="43.74793" lon="6.6584">
        <ele>1632.5</ele>
      </trkpt>
      <trkpt lat="43.7479" lon="6.65842">
        <ele>1633.2</ele>
      </trkpt>
      <trkpt lat="43.74784" lon="6.65844">
        <ele>1634.2</ele>
      </trkpt>
      <trkpt lat="43.74781" lon="6.65844">
        <ele>1631</ele>
        <time>2017-11-19T11:26:34.000Z</time>
      </trkpt>
      <trkpt lat="43.74778" lon="6.65845">
        <ele>1634.9</ele>
      </trkpt>
      <trkpt lat="43.74764" lon="6.65842">
        <ele>1635.7</ele>
      </trkpt>
      <trkpt lat="43.74761" lon="6.65841">
        <ele>1631</ele>
        <time>2017-11-19T11:26:50.000Z</time>
      </trkpt>
      <trkpt lat="43.74755" lon="6.65841">
        <ele>1636.4</ele>
      </trkpt>
      <trkpt lat="43.74745" lon="6.65839">
        <ele>1637.1</ele>
      </trkpt>
      <trkpt lat="43.74741" lon="6.65839">
        <ele>1631</ele>
        <time>2017-11-19T11:27:05.000Z</time>
      </trkpt>
      <trkpt lat="43.74734" lon="6.65837">
        <ele>1638.2</ele>
      </trkpt>
      <trkpt lat="43.74727" lon="6.65839">
        <ele>1639.7</ele>
      </trkpt>
      <trkpt lat="43.74723" lon="6.65839">
        <ele>1640.3</ele>
      </trkpt>
      <trkpt lat="43.74716" lon="6.6584">
        <ele>1636</ele>
        <time>2017-11-19T11:27:25.000Z</time>
      </trkpt>
      <trkpt lat="43.74712" lon="6.65842">
        <ele>1641.2</ele>
      </trkpt>
      <trkpt lat="43.74706" lon="6.65846">
        <ele>1642.2</ele>
      </trkpt>
      <trkpt lat="43.74693" lon="6.65852">
        <ele>1643</ele>
        <time>2017-11-19T11:27:44.000Z</time>
      </trkpt>
      <trkpt lat="43.74683" lon="6.65851">
        <ele>1644.8</ele>
      </trkpt>
      <trkpt lat="43.74677" lon="6.65849">
        <ele>1645.1</ele>
      </trkpt>
      <trkpt lat="43.7467" lon="6.65849">
        <ele>1642</ele>
        <time>2017-11-19T11:28:03.000Z</time>
      </trkpt>
      <trkpt lat="43.74659" lon="6.65853">
        <ele>1647.7</ele>
      </trkpt>
      <trkpt lat="43.74656" lon="6.65853">
        <ele>1647.9</ele>
      </trkpt>
      <trkpt lat="43.74653" lon="6.65851">
        <ele>1647.6</ele>
      </trkpt>
      <trkpt lat="43.74651" lon="6.65852">
        <ele>1648</ele>
        <time>2017-11-19T11:28:25.000Z</time>
      </trkpt>
      <trkpt lat="43.74645" lon="6.65855">
        <ele>1649.1</ele>
      </trkpt>
      <trkpt lat="43.74637" lon="6.65857">
        <ele>1650.1</ele>
      </trkpt>
      <trkpt lat="43.7463" lon="6.65858">
        <ele>1646</ele>
        <time>2017-11-19T11:28:51.000Z</time>
      </trkpt>
      <trkpt lat="43.74621" lon="6.65857">
        <ele>1651.6</ele>
      </trkpt>
      <trkpt lat="43.74618" lon="6.65858">
        <ele>1652.2</ele>
      </trkpt>
      <trkpt lat="43.74614" lon="6.65858">
        <ele>1652.6</ele>
      </trkpt>
      <trkpt lat="43.74612" lon="6.65859">
        <ele>1653.2</ele>
      </trkpt>
      <trkpt lat="43.74608" lon="6.65859">
        <ele>1646</ele>
        <time>2017-11-19T11:29:20.000Z</time>
      </trkpt>
      <trkpt lat="43.74605" lon="6.65861">
        <ele>1653.5</ele>
      </trkpt>
      <trkpt lat="43.74599" lon="6.65864">
        <ele>1653.6</ele>
      </trkpt>
      <trkpt lat="43.74595" lon="6.65865">
        <ele>1653.5</ele>
      </trkpt>
      <trkpt lat="43.74592" lon="6.65867">
        <ele>1653.7</ele>
      </trkpt>
      <trkpt lat="43.74588" lon="6.65868">
        <ele>1652</ele>
        <time>2017-11-19T11:29:36.000Z</time>
      </trkpt>
      <trkpt lat="43.74575" lon="6.65878">
        <ele>1655</ele>
      </trkpt>
      <trkpt lat="43.74571" lon="6.65885">
        <ele>1656</ele>
        <time>2017-11-19T11:29:50.000Z</time>
      </trkpt>
      <trkpt lat="43.7457" lon="6.65893">
        <ele>1656.3</ele>
      </trkpt>
      <trkpt lat="43.74571" lon="6.65898">
        <ele>1656.8</ele>
      </trkpt>
      <trkpt lat="43.74573" lon="6.65901">
        <ele>1657.2</ele>
      </trkpt>
      <trkpt lat="43.74576" lon="6.65903">
        <ele>1657.7</ele>
      </trkpt>
      <trkpt lat="43.7458" lon="6.65904">
        <ele>1656</ele>
        <time>2017-11-19T11:30:02.000Z</time>
      </trkpt>
      <trkpt lat="43.74583" lon="6.65903">
        <ele>1658.5</ele>
      </trkpt>
      <trkpt lat="43.74587" lon="6.65899">
        <ele>1658.5</ele>
      </trkpt>
      <trkpt lat="43.74594" lon="6.65895">
        <ele>1658.6</ele>
      </trkpt>
      <trkpt lat="43.74605" lon="6.65891">
        <ele>1654</ele>
        <time>2017-11-19T11:30:16.000Z</time>
      </trkpt>
      <trkpt lat="43.74612" lon="6.65892">
        <ele>1659.6</ele>
      </trkpt>
      <trkpt lat="43.7462" lon="6.65891">
        <ele>1659.4</ele>
      </trkpt>
      <trkpt lat="43.74623" lon="6.65891">
        <ele>1659.4</ele>
      </trkpt>
      <trkpt lat="43.7463" lon="6.65894">
        <ele>1656</ele>
        <time>2017-11-19T11:30:30.000Z</time>
      </trkpt>
      <trkpt lat="43.74633" lon="6.65895">
        <ele>1660.3</ele>
      </trkpt>
      <trkpt lat="43.74637" lon="6.65896">
        <ele>1660.5</ele>
      </trkpt>
      <trkpt lat="43.7464" lon="6.65898">
        <ele>1660.9</ele>
      </trkpt>
      <trkpt lat="43.74649" lon="6.65906">
        <ele>1656</ele>
        <time>2017-11-19T11:30:42.000Z</time>
      </trkpt>
      <trkpt lat="43.7466" lon="6.65917">
        <ele>1662.8</ele>
      </trkpt>
      <trkpt lat="43.74669" lon="6.65933">
        <ele>1662</ele>
        <time>2017-11-19T11:30:58.000Z</time>
      </trkpt>
      <trkpt lat="43.74675" lon="6.65939">
        <ele>1665.7</ele>
      </trkpt>
      <trkpt lat="43.74678" lon="6.65941">
        <ele>1665.9</ele>
      </trkpt>
      <trkpt lat="43.74682" lon="6.65942">
        <ele>1666</ele>
      </trkpt>
      <trkpt lat="43.74692" lon="6.65948">
        <ele>1669</ele>
        <time>2017-11-19T11:31:12.000Z</time>
      </trkpt>
      <trkpt lat="43.74699" lon="6.65951">
        <ele>1666.4</ele>
      </trkpt>
      <trkpt lat="43.74702" lon="6.65955">
        <ele>1666.8</ele>
      </trkpt>
      <trkpt lat="43.74705" lon="6.65959">
        <ele>1667.3</ele>
      </trkpt>
      <trkpt lat="43.74706" lon="6.65964">
        <ele>1667.9</ele>
      </trkpt>
      <trkpt lat="43.74706" lon="6.65968">
        <ele>1675</ele>
        <time>2017-11-19T11:31:24.000Z</time>
      </trkpt>
      <trkpt lat="43.74703" lon="6.65973">
        <ele>1668.8</ele>
      </trkpt>
      <trkpt lat="43.747" lon="6.65977">
        <ele>1669.3</ele>
      </trkpt>
      <trkpt lat="43.74697" lon="6.6598">
        <ele>1669.6</ele>
      </trkpt>
      <trkpt lat="43.74693" lon="6.65981">
        <ele>1669.8</ele>
      </trkpt>
      <trkpt lat="43.7469" lon="6.6598">
        <ele>1676</ele>
        <time>2017-11-19T11:31:34.000Z</time>
      </trkpt>
      <trkpt lat="43.74668" lon="6.65975">
        <ele>1676</ele>
        <time>2017-11-19T11:31:49.000Z</time>
      </trkpt>
      <trkpt lat="43.74662" lon="6.65972">
        <ele>1672.5</ele>
      </trkpt>
      <trkpt lat="43.74653" lon="6.65966">
        <ele>1672.4</ele>
      </trkpt>
      <trkpt lat="43.7465" lon="6.65965">
        <ele>1672.5</ele>
      </trkpt>
      <trkpt lat="43.74646" lon="6.65962">
        <ele>1678</ele>
        <time>2017-11-19T11:32:05.000Z</time>
      </trkpt>
      <trkpt lat="43.74637" lon="6.65959">
        <ele>1672.5</ele>
      </trkpt>
      <trkpt lat="43.74631" lon="6.6596">
        <ele>1672.2</ele>
      </trkpt>
      <trkpt lat="43.74629" lon="6.65963">
        <ele>1672.6</ele>
      </trkpt>
      <trkpt lat="43.74627" lon="6.65967">
        <ele>1678</ele>
        <time>2017-11-19T11:32:19.000Z</time>
      </trkpt>
      <trkpt lat="43.74627" lon="6.65972">
        <ele>1674.1</ele>
      </trkpt>
      <trkpt lat="43.74628" lon="6.65977">
        <ele>1675.1</ele>
      </trkpt>
      <trkpt lat="43.74631" lon="6.65982">
        <ele>1676.2</ele>
      </trkpt>
      <trkpt lat="43.74638" lon="6.65989">
        <ele>1678</ele>
        <time>2017-11-19T11:32:29.000Z</time>
      </trkpt>
      <trkpt lat="43.74643" lon="6.65993">
        <ele>1678.4</ele>
      </trkpt>
      <trkpt lat="43.74647" lon="6.65994">
        <ele>1678.3</ele>
      </trkpt>
      <trkpt lat="43.7465" lon="6.65993">
        <ele>1677.8</ele>
      </trkpt>
      <trkpt lat="43.74653" lon="6.65994">
        <ele>1677.8</ele>
      </trkpt>
      <trkpt lat="43.74661" lon="6.66001">
        <ele>1682</ele>
        <time>2017-11-19T11:32:47.000Z</time>
      </trkpt>
      <trkpt lat="43.74672" lon="6.66012">
        <ele>1680.6</ele>
      </trkpt>
      <trkpt lat="43.74687" lon="6.66034">
        <ele>1689</ele>
        <time>2017-11-19T11:33:12.000Z</time>
      </trkpt>
      <trkpt lat="43.74704" lon="6.66042">
        <ele>1686.3</ele>
      </trkpt>
      <trkpt lat="43.7471" lon="6.66045">
        <ele>1690</ele>
        <time>2017-11-19T11:33:31.000Z</time>
      </trkpt>
      <trkpt lat="43.74715" lon="6.66049">
        <ele>1687.7</ele>
      </trkpt>
      <trkpt lat="43.74721" lon="6.66052">
        <ele>1688.2</ele>
      </trkpt>
      <trkpt lat="43.74732" lon="6.66059">
        <ele>1696</ele>
        <time>2017-11-19T11:33:47.000Z</time>
      </trkpt>
      <trkpt lat="43.74735" lon="6.66059">
        <ele>1690</ele>
      </trkpt>
      <trkpt lat="43.74739" lon="6.66061">
        <ele>1690.6</ele>
      </trkpt>
      <trkpt lat="43.74743" lon="6.66062">
        <ele>1690.9</ele>
      </trkpt>
      <trkpt lat="43.74746" lon="6.66064">
        <ele>1691.4</ele>
      </trkpt>
      <trkpt lat="43.74753" lon="6.66063">
        <ele>1693</ele>
        <time>2017-11-19T11:34:04.000Z</time>
      </trkpt>
      <trkpt lat="43.74763" lon="6.66065">
        <ele>1692</ele>
      </trkpt>
      <trkpt lat="43.74769" lon="6.66069">
        <ele>1693.2</ele>
      </trkpt>
      <trkpt lat="43.74771" lon="6.6607">
        <ele>1693.5</ele>
      </trkpt>
      <trkpt lat="43.74774" lon="6.66072">
        <ele>1697</ele>
        <time>2017-11-19T11:34:19.000Z</time>
      </trkpt>
      <trkpt lat="43.7478" lon="6.66074">
        <ele>1694.5</ele>
      </trkpt>
      <trkpt lat="43.74785" lon="6.66079">
        <ele>1695.7</ele>
      </trkpt>
      <trkpt lat="43.74788" lon="6.66081">
        <ele>1696.3</ele>
      </trkpt>
      <trkpt lat="43.74792" lon="6.66084">
        <ele>1697</ele>
        <time>2017-11-19T11:34:35.000Z</time>
      </trkpt>
      <trkpt lat="43.74795" lon="6.66087">
        <ele>1697.4</ele>
      </trkpt>
      <trkpt lat="43.74797" lon="6.66091">
        <ele>1697.8</ele>
      </trkpt>
      <trkpt lat="43.748" lon="6.66093">
        <ele>1697.9</ele>
      </trkpt>
      <trkpt lat="43.74801" lon="6.66097">
        <ele>1698.2</ele>
      </trkpt>
      <trkpt lat="43.74804" lon="6.66101">
        <ele>1698.4</ele>
      </trkpt>
      <trkpt lat="43.74806" lon="6.6611">
        <ele>1699</ele>
        <time>2017-11-19T11:34:53.000Z</time>
      </trkpt>
      <trkpt lat="43.74806" lon="6.66118">
        <ele>1700.5</ele>
      </trkpt>
      <trkpt lat="43.74802" lon="6.66131">
        <ele>1703.8</ele>
      </trkpt>
      <trkpt lat="43.74801" lon="6.6614">
        <ele>1703</ele>
        <time>2017-11-19T11:35:10.000Z</time>
      </trkpt>
      <trkpt lat="43.74799" lon="6.66145">
        <ele>1706.9</ele>
      </trkpt>
      <trkpt lat="43.74795" lon="6.66163">
        <ele>1709.9</ele>
      </trkpt>
      <trkpt lat="43.74794" lon="6.6618">
        <ele>1708</ele>
        <time>2017-11-19T11:35:29.000Z</time>
      </trkpt>
      <trkpt lat="43.74794" lon="6.66187">
        <ele>1706</ele>
      </trkpt>
      <trkpt lat="43.74794" lon="6.66193">
        <ele>1704.7</ele>
      </trkpt>
      <trkpt lat="43.74792" lon="6.66197">
        <ele>1704.1</ele>
      </trkpt>
      <trkpt lat="43.7479" lon="6.66199">
        <ele>1703.9</ele>
      </trkpt>
      <trkpt lat="43.74787" lon="6.66199">
        <ele>1704.1</ele>
      </trkpt>
      <trkpt lat="43.74781" lon="6.66201">
        <ele>1711</ele>
        <time>2017-11-19T11:36:06.000Z</time>
      </trkpt>
      <trkpt lat="43.74773" lon="6.66207">
        <ele>1703.1</ele>
      </trkpt>
      <trkpt lat="43.7477" lon="6.66208">
        <ele>1702.3</ele>
      </trkpt>
      <trkpt lat="43.74767" lon="6.66208">
        <ele>1701.7</ele>
      </trkpt>
      <trkpt lat="43.74763" lon="6.66202">
        <ele>1706</ele>
        <time>2017-11-19T11:37:03.000Z</time>
      </trkpt>
      <trkpt lat="43.7476" lon="6.662">
        <ele>1700.8</ele>
      </trkpt>
      <trkpt lat="43.74758" lon="6.66197">
        <ele>1700.5</ele>
      </trkpt>
      <trkpt lat="43.74753" lon="6.66193">
        <ele>1700.1</ele>
      </trkpt>
      <trkpt lat="43.74751" lon="6.66184">
        <ele>1702.2</ele>
      </trkpt>
      <trkpt lat="43.74752" lon="6.6618">
        <ele>1711</ele>
        <time>2017-11-19T11:37:47.000Z</time>
      </trkpt>
      <trkpt lat="43.74752" lon="6.66176">
        <ele>1704.6</ele>
      </trkpt>
      <trkpt lat="43.74754" lon="6.66173">
        <ele>1705.8</ele>
      </trkpt>
      <trkpt lat="43.74753" lon="6.66169">
        <ele>1706.8</ele>
      </trkpt>
      <trkpt lat="43.74754" lon="6.66165">
        <ele>1707.7</ele>
      </trkpt>
      <trkpt lat="43.74754" lon="6.66161">
        <ele>1708</ele>
      </trkpt>
      <trkpt lat="43.74755" lon="6.66152">
        <ele>1707</ele>
        <time>2017-11-19T11:38:34.000Z</time>
      </trkpt>
      <trkpt lat="43.74756" lon="6.66148">
        <ele>1709.2</ele>
      </trkpt>
      <trkpt lat="43.74758" lon="6.66151">
        <ele>1709</ele>
      </trkpt>
      <trkpt lat="43.74761" lon="6.66152">
        <ele>1709.1</ele>
      </trkpt>
      <trkpt lat="43.74761" lon="6.66157">
        <ele>1708.9</ele>
      </trkpt>
      <trkpt lat="43.74763" lon="6.6616">
        <ele>1709</ele>
      </trkpt>
      <trkpt lat="43.74764" lon="6.66163">
        <ele>1709.1</ele>
      </trkpt>
      <trkpt lat="43.74759" lon="6.66163">
        <ele>1711</ele>
        <time>2017-11-19T11:50:24.000Z</time>
      </trkpt>
      <trkpt lat="43.74755" lon="6.66176">
        <ele>1705.2</ele>
      </trkpt>
      <trkpt lat="43.74755" lon="6.6618">
        <ele>1704.1</ele>
      </trkpt>
      <trkpt lat="43.74754" lon="6.66184">
        <ele>1702.8</ele>
      </trkpt>
      <trkpt lat="43.74754" lon="6.66188">
        <ele>1711</ele>
        <time>2017-11-19T11:51:48.000Z</time>
      </trkpt>
      <trkpt lat="43.74756" lon="6.66193">
        <ele>1700.7</ele>
      </trkpt>
      <trkpt lat="43.74761" lon="6.66197">
        <ele>1701.2</ele>
      </trkpt>
      <trkpt lat="43.74762" lon="6.66201">
        <ele>1701.1</ele>
      </trkpt>
      <trkpt lat="43.74766" lon="6.66207">
        <ele>1701.6</ele>
      </trkpt>
      <trkpt lat="43.74769" lon="6.66208">
        <ele>1706</ele>
        <time>2017-11-19T11:53:14.000Z</time>
      </trkpt>
      <trkpt lat="43.74772" lon="6.66205">
        <ele>1703</ele>
      </trkpt>
      <trkpt lat="43.74775" lon="6.66203">
        <ele>1703.8</ele>
      </trkpt>
      <trkpt lat="43.74778" lon="6.66202">
        <ele>1704.4</ele>
      </trkpt>
      <trkpt lat="43.74782" lon="6.66203">
        <ele>1704</ele>
      </trkpt>
      <trkpt lat="43.7479" lon="6.66201">
        <ele>1711</ele>
        <time>2017-11-19T11:53:46.000Z</time>
      </trkpt>
      <trkpt lat="43.74792" lon="6.66196">
        <ele>1704.3</ele>
      </trkpt>
      <trkpt lat="43.74792" lon="6.66192">
        <ele>1705</ele>
      </trkpt>
      <trkpt lat="43.74791" lon="6.66188">
        <ele>1705.9</ele>
      </trkpt>
      <trkpt lat="43.7479" lon="6.66183">
        <ele>1707</ele>
      </trkpt>
      <trkpt lat="43.74792" lon="6.66172">
        <ele>1708</ele>
        <time>2017-11-19T11:54:00.000Z</time>
      </trkpt>
      <trkpt lat="43.74794" lon="6.66164">
        <ele>1710.1</ele>
      </trkpt>
      <trkpt lat="43.74796" lon="6.6616">
        <ele>1709.4</ele>
      </trkpt>
      <trkpt lat="43.74796" lon="6.66155">
        <ele>1708.7</ele>
      </trkpt>
      <trkpt lat="43.74798" lon="6.6615">
        <ele>1707.8</ele>
      </trkpt>
      <trkpt lat="43.74802" lon="6.66139">
        <ele>1703</ele>
        <time>2017-11-19T11:54:13.000Z</time>
      </trkpt>
      <trkpt lat="43.74804" lon="6.66122">
        <ele>1701.5</ele>
      </trkpt>
      <trkpt lat="43.74807" lon="6.66114">
        <ele>1699.6</ele>
      </trkpt>
      <trkpt lat="43.74808" lon="6.66097">
        <ele>1697</ele>
        <time>2017-11-19T11:54:24.000Z</time>
      </trkpt>
      <trkpt lat="43.74807" lon="6.66093">
        <ele>1697.4</ele>
      </trkpt>
      <trkpt lat="43.74805" lon="6.6609">
        <ele>1697.5</ele>
      </trkpt>
      <trkpt lat="43.7479" lon="6.6608">
        <ele>1697</ele>
        <time>2017-11-19T11:54:33.000Z</time>
      </trkpt>
      <trkpt lat="43.74782" lon="6.66074">
        <ele>1694.4</ele>
      </trkpt>
      <trkpt lat="43.74769" lon="6.66068">
        <ele>1693</ele>
        <time>2017-11-19T11:54:38.000Z</time>
      </trkpt>
      <trkpt lat="43.7476" lon="6.66065">
        <ele>1692</ele>
      </trkpt>
      <trkpt lat="43.74741" lon="6.66062">
        <ele>1693</ele>
        <time>2017-11-19T11:54:44.000Z</time>
      </trkpt>
      <trkpt lat="43.74735" lon="6.6606">
        <ele>1690.3</ele>
      </trkpt>
      <trkpt lat="43.7473" lon="6.66057">
        <ele>1689.4</ele>
      </trkpt>
      <trkpt lat="43.74697" lon="6.66036">
        <ele>1690</ele>
        <time>2017-11-19T11:54:52.000Z</time>
      </trkpt>
      <trkpt lat="43.74686" lon="6.66028">
        <ele>1683.3</ele>
      </trkpt>
      <trkpt lat="43.7468" lon="6.66023">
        <ele>1689</ele>
        <time>2017-11-19T11:54:55.000Z</time>
      </trkpt>
      <trkpt lat="43.7466" lon="6.66001">
        <ele>1682</ele>
        <time>2017-11-19T11:54:59.000Z</time>
      </trkpt>
      <trkpt lat="43.74655" lon="6.65997">
        <ele>1678.2</ele>
      </trkpt>
      <trkpt lat="43.74638" lon="6.65989">
        <ele>1678</ele>
        <time>2017-11-19T11:55:03.000Z</time>
      </trkpt>
      <trkpt lat="43.74631" lon="6.65983">
        <ele>1676.4</ele>
      </trkpt>
      <trkpt lat="43.74625" lon="6.6598">
        <ele>1675.4</ele>
      </trkpt>
      <trkpt lat="43.74622" lon="6.65978">
        <ele>1674.8</ele>
      </trkpt>
      <trkpt lat="43.74619" lon="6.65974">
        <ele>1678</ele>
        <time>2017-11-19T11:55:39.000Z</time>
      </trkpt>
      <trkpt lat="43.74609" lon="6.65973">
        <ele>1672.8</ele>
      </trkpt>
      <trkpt lat="43.74601" lon="6.65974">
        <ele>1671.5</ele>
      </trkpt>
      <trkpt lat="43.74597" lon="6.65973">
        <ele>1672</ele>
        <time>2017-11-19T11:55:52.000Z</time>
      </trkpt>
      <trkpt lat="43.74593" lon="6.65971">
        <ele>1669.5</ele>
      </trkpt>
      <trkpt lat="43.7459" lon="6.65969">
        <ele>1668.7</ele>
      </trkpt>
      <trkpt lat="43.74587" lon="6.65964">
        <ele>1667.4</ele>
      </trkpt>
      <trkpt lat="43.74588" lon="6.65956">
        <ele>1666.4</ele>
      </trkpt>
      <trkpt lat="43.7459" lon="6.65947">
        <ele>1667</ele>
        <time>2017-11-19T11:56:01.000Z</time>
      </trkpt>
      <trkpt lat="43.7459" lon="6.65943">
        <ele>1664.8</ele>
      </trkpt>
      <trkpt lat="43.74588" lon="6.65936">
        <ele>1663.5</ele>
      </trkpt>
      <trkpt lat="43.74578" lon="6.65923">
        <ele>1664</ele>
        <time>2017-11-19T11:56:08.000Z</time>
      </trkpt>
      <trkpt lat="43.74572" lon="6.65917">
        <ele>1658.4</ele>
      </trkpt>
      <trkpt lat="43.74568" lon="6.65911">
        <ele>1657.4</ele>
      </trkpt>
      <trkpt lat="43.74565" lon="6.65904">
        <ele>1655</ele>
        <time>2017-11-19T11:56:15.000Z</time>
      </trkpt>
      <trkpt lat="43.74564" lon="6.65897">
        <ele>1656.1</ele>
      </trkpt>
      <trkpt lat="43.74564" lon="6.65891">
        <ele>1655.7</ele>
      </trkpt>
      <trkpt lat="43.74561" lon="6.65885">
        <ele>1655.3</ele>
      </trkpt>
      <trkpt lat="43.74558" lon="6.65881">
        <ele>1655.1</ele>
      </trkpt>
      <trkpt lat="43.74554" lon="6.65881">
        <ele>1655</ele>
        <time>2017-11-19T11:56:25.000Z</time>
      </trkpt>
      <trkpt lat="43.7455" lon="6.65884">
        <ele>1652.8</ele>
      </trkpt>
      <trkpt lat="43.74548" lon="6.65887">
        <ele>1652</ele>
      </trkpt>
      <trkpt lat="43.7455" lon="6.65884">
        <ele>1652.8</ele>
      </trkpt>
      <trkpt lat="43.7456" lon="6.65877">
        <ele>1654</ele>
        <time>2017-11-19T11:58:02.000Z</time>
      </trkpt>
      <trkpt lat="43.74561" lon="6.65874">
        <ele>1654.9</ele>
      </trkpt>
      <trkpt lat="43.74564" lon="6.65871">
        <ele>1654.6</ele>
      </trkpt>
      <trkpt lat="43.74565" lon="6.65875">
        <ele>1654.8</ele>
      </trkpt>
      <trkpt lat="43.74569" lon="6.65876">
        <ele>1654.8</ele>
      </trkpt>
      <trkpt lat="43.74571" lon="6.65879">
        <ele>1655.1</ele>
      </trkpt>
      <trkpt lat="43.74573" lon="6.65881">
        <ele>1655.4</ele>
      </trkpt>
      <trkpt lat="43.74602" lon="6.65861">
        <ele>1646</ele>
        <time>2017-11-19T11:58:43.000Z</time>
      </trkpt>
      <trkpt lat="43.74608" lon="6.65859">
        <ele>1653</ele>
      </trkpt>
      <trkpt lat="43.74613" lon="6.65858">
        <ele>1652.7</ele>
      </trkpt>
      <trkpt lat="43.74633" lon="6.65855">
        <ele>1648</ele>
        <time>2017-11-19T11:58:49.000Z</time>
      </trkpt>
      <trkpt lat="43.74638" lon="6.65855">
        <ele>1649.5</ele>
      </trkpt>
      <trkpt lat="43.74646" lon="6.65854">
        <ele>1648.8</ele>
      </trkpt>
      <trkpt lat="43.74649" lon="6.65851">
        <ele>1647.9</ele>
      </trkpt>
      <trkpt lat="43.74646" lon="6.65842">
        <ele>1642</ele>
        <time>2017-11-19T11:59:02.000Z</time>
      </trkpt>
      <trkpt lat="43.74641" lon="6.65841">
        <ele>1645.8</ele>
      </trkpt>
      <trkpt lat="43.74637" lon="6.65839">
        <ele>1645.5</ele>
      </trkpt>
      <trkpt lat="43.7462" lon="6.65837">
        <ele>1644</ele>
        <time>2017-11-19T11:59:15.000Z</time>
      </trkpt>
      <trkpt lat="43.74594" lon="6.65829">
        <ele>1648</ele>
        <time>2017-11-19T11:59:23.000Z</time>
      </trkpt>
      <trkpt lat="43.74578" lon="6.65823">
        <ele>1641.8</ele>
      </trkpt>
      <trkpt lat="43.74566" lon="6.65817">
        <ele>1649</ele>
        <time>2017-11-19T11:59:30.000Z</time>
      </trkpt>
      <trkpt lat="43.74546" lon="6.65804">
        <ele>1646</ele>
        <time>2017-11-19T11:59:35.000Z</time>
      </trkpt>
      <trkpt lat="43.74542" lon="6.658">
        <ele>1637.5</ele>
      </trkpt>
      <trkpt lat="43.7453" lon="6.65784">
        <ele>1646</ele>
        <time>2017-11-19T11:59:40.000Z</time>
      </trkpt>
      <trkpt lat="43.74524" lon="6.65774">
        <ele>1634.1</ele>
      </trkpt>
      <trkpt lat="43.74512" lon="6.65755">
        <ele>1640</ele>
        <time>2017-11-19T11:59:46.000Z</time>
      </trkpt>
      <trkpt lat="43.74506" lon="6.65743">
        <ele>1630.2</ele>
      </trkpt>
      <trkpt lat="43.74501" lon="6.65732">
        <ele>1640</ele>
        <time>2017-11-19T11:59:50.000Z</time>
      </trkpt>
      <trkpt lat="43.74494" lon="6.6572">
        <ele>1628</ele>
      </trkpt>
      <trkpt lat="43.74478" lon="6.65702">
        <ele>1632</ele>
        <time>2017-11-19T11:59:56.000Z</time>
      </trkpt>
      <trkpt lat="43.74457" lon="6.65681">
        <ele>1624</ele>
        <time>2017-11-19T12:00:02.000Z</time>
      </trkpt>
      <trkpt lat="43.74451" lon="6.65677">
        <ele>1623.1</ele>
      </trkpt>
      <trkpt lat="43.74445" lon="6.65672">
        <ele>1622.5</ele>
      </trkpt>
      <trkpt lat="43.74441" lon="6.65664">
        <ele>1624</ele>
        <time>2017-11-19T12:00:08.000Z</time>
      </trkpt>
      <trkpt lat="43.74427" lon="6.65642">
        <ele>1625</ele>
        <time>2017-11-19T12:00:14.000Z</time>
      </trkpt>
      <trkpt lat="43.74422" lon="6.65635">
        <ele>1619.8</ele>
      </trkpt>
      <trkpt lat="43.74418" lon="6.65626">
        <ele>1619.9</ele>
      </trkpt>
      <trkpt lat="43.74413" lon="6.65616">
        <ele>1631</ele>
        <time>2017-11-19T12:00:20.000Z</time>
      </trkpt>
      <trkpt lat="43.74399" lon="6.65599">
        <ele>1616.4</ele>
      </trkpt>
      <trkpt lat="43.74388" lon="6.65578">
        <ele>1622</ele>
        <time>2017-11-19T12:00:28.000Z</time>
      </trkpt>
      <trkpt lat="43.74386" lon="6.65571">
        <ele>1613.8</ele>
      </trkpt>
      <trkpt lat="43.74384" lon="6.65565">
        <ele>1613.3</ele>
      </trkpt>
      <trkpt lat="43.74381" lon="6.65552">
        <ele>1624</ele>
        <time>2017-11-19T12:00:32.000Z</time>
      </trkpt>
      <trkpt lat="43.74377" lon="6.65539">
        <ele>1612.6</ele>
      </trkpt>
      <trkpt lat="43.74367" lon="6.65514">
        <ele>1610</ele>
        <time>2017-11-19T12:00:38.000Z</time>
      </trkpt>
      <trkpt lat="43.74364" lon="6.65508">
        <ele>1609</ele>
      </trkpt>
      <trkpt lat="43.74362" lon="6.655">
        <ele>1608.5</ele>
      </trkpt>
      <trkpt lat="43.74357" lon="6.65487">
        <ele>1611</ele>
        <time>2017-11-19T12:00:42.000Z</time>
      </trkpt>
      <trkpt lat="43.74354" lon="6.65472">
        <ele>1606.9</ele>
      </trkpt>
      <trkpt lat="43.74352" lon="6.65464">
        <ele>1606.1</ele>
      </trkpt>
      <trkpt lat="43.74347" lon="6.65422">
        <ele>1597</ele>
        <time>2017-11-19T12:00:50.000Z</time>
      </trkpt>
      <trkpt lat="43.74347" lon="6.65414">
        <ele>1606.5</ele>
      </trkpt>
      <trkpt lat="43.74344" lon="6.65391">
        <ele>1598</ele>
        <time>2017-11-19T12:00:54.000Z</time>
      </trkpt>
      <trkpt lat="43.74342" lon="6.65377">
        <ele>1605.8</ele>
      </trkpt>
      <trkpt lat="43.74342" lon="6.65369">
        <ele>1606.1</ele>
      </trkpt>
      <trkpt lat="43.74339" lon="6.65347">
        <ele>1603</ele>
        <time>2017-11-19T12:01:00.000Z</time>
      </trkpt>
      <trkpt lat="43.74338" lon="6.65342">
        <ele>1604.6</ele>
      </trkpt>
      <trkpt lat="43.74335" lon="6.65337">
        <ele>1602.9</ele>
      </trkpt>
      <trkpt lat="43.74332" lon="6.65335">
        <ele>1601.5</ele>
      </trkpt>
      <trkpt lat="43.74327" lon="6.65337">
        <ele>1599.4</ele>
      </trkpt>
      <trkpt lat="43.74324" lon="6.65344">
        <ele>1603</ele>
        <time>2017-11-19T12:01:07.000Z</time>
      </trkpt>
      <trkpt lat="43.74324" lon="6.65349">
        <ele>1597.5</ele>
      </trkpt>
      <trkpt lat="43.74326" lon="6.65357">
        <ele>1598.2</ele>
      </trkpt>
      <trkpt lat="43.74326" lon="6.65376">
        <ele>1602</ele>
        <time>2017-11-19T12:01:13.000Z</time>
      </trkpt>
      <trkpt lat="43.74325" lon="6.65389">
        <ele>1595.9</ele>
      </trkpt>
      <trkpt lat="43.74325" lon="6.65404">
        <ele>1598</ele>
        <time>2017-11-19T12:01:17.000Z</time>
      </trkpt>
      <trkpt lat="43.74324" lon="6.65451">
        <ele>1595</ele>
        <time>2017-11-19T12:01:23.000Z</time>
      </trkpt>
      <trkpt lat="43.74325" lon="6.65467">
        <ele>1590.3</ele>
      </trkpt>
      <trkpt lat="43.74323" lon="6.65528">
        <ele>1588</ele>
        <time>2017-11-19T12:01:33.000Z</time>
      </trkpt>
      <trkpt lat="43.74324" lon="6.65537">
        <ele>1583.7</ele>
      </trkpt>
      <trkpt lat="43.74323" lon="6.6556">
        <ele>1587</ele>
        <time>2017-11-19T12:01:37.000Z</time>
      </trkpt>
      <trkpt lat="43.74325" lon="6.65591">
        <ele>1583</ele>
        <time>2017-11-19T12:01:41.000Z</time>
      </trkpt>
      <trkpt lat="43.74329" lon="6.65618">
        <ele>1576</ele>
        <time>2017-11-19T12:01:44.000Z</time>
      </trkpt>
      <trkpt lat="43.74338" lon="6.65651">
        <ele>1575</ele>
        <time>2017-11-19T12:01:48.000Z</time>
      </trkpt>
      <trkpt lat="43.74341" lon="6.65669">
        <ele>1571.8</ele>
      </trkpt>
      <trkpt lat="43.74346" lon="6.65686">
        <ele>1571</ele>
        <time>2017-11-19T12:01:52.000Z</time>
      </trkpt>
      <trkpt lat="43.74347" lon="6.65695">
        <ele>1571.3</ele>
      </trkpt>
      <trkpt lat="43.74352" lon="6.65715">
        <ele>1571</ele>
        <time>2017-11-19T12:01:55.000Z</time>
      </trkpt>
      <trkpt lat="43.74362" lon="6.65769">
        <ele>1565</ele>
        <time>2017-11-19T12:02:00.000Z</time>
      </trkpt>
      <trkpt lat="43.74366" lon="6.65792">
        <ele>1564.8</ele>
      </trkpt>
      <trkpt lat="43.74366" lon="6.65815">
        <ele>1565</ele>
        <time>2017-11-19T12:02:04.000Z</time>
      </trkpt>
      <trkpt lat="43.74366" lon="6.65826">
        <ele>1562.2</ele>
      </trkpt>
      <trkpt lat="43.74362" lon="6.65859">
        <ele>1563</ele>
        <time>2017-11-19T12:02:08.000Z</time>
      </trkpt>
      <trkpt lat="43.74361" lon="6.6587">
        <ele>1558.3</ele>
      </trkpt>
      <trkpt lat="43.74359" lon="6.65881">
        <ele>1557.1</ele>
      </trkpt>
      <trkpt lat="43.74358" lon="6.65892">
        <ele>1563</ele>
        <time>2017-11-19T12:02:11.000Z</time>
      </trkpt>
      <trkpt lat="43.74351" lon="6.65925">
        <ele>1562</ele>
        <time>2017-11-19T12:02:14.000Z</time>
      </trkpt>
      <trkpt lat="43.74347" lon="6.65947">
        <ele>1551.8</ele>
      </trkpt>
      <trkpt lat="43.74347" lon="6.65997">
        <ele>1548</ele>
        <time>2017-11-19T12:02:21.000Z</time>
      </trkpt>
      <trkpt lat="43.74346" lon="6.66024">
        <ele>1545.9</ele>
      </trkpt>
      <trkpt lat="43.74348" lon="6.66066">
        <ele>1541</ele>
        <time>2017-11-19T12:02:29.000Z</time>
      </trkpt>
      <trkpt lat="43.7435" lon="6.66081">
        <ele>1541.1</ele>
      </trkpt>
      <trkpt lat="43.74352" lon="6.66099">
        <ele>1547</ele>
        <time>2017-11-19T12:02:33.000Z</time>
      </trkpt>
      <trkpt lat="43.7436" lon="6.66136">
        <ele>1544</ele>
        <time>2017-11-19T12:02:37.000Z</time>
      </trkpt>
      <trkpt lat="43.74363" lon="6.66146">
        <ele>1535.5</ele>
      </trkpt>
      <trkpt lat="43.74366" lon="6.66156">
        <ele>1534.8</ele>
      </trkpt>
      <trkpt lat="43.74371" lon="6.66166">
        <ele>1540</ele>
        <time>2017-11-19T12:02:40.000Z</time>
      </trkpt>
      <trkpt lat="43.74383" lon="6.66206">
        <ele>1542</ele>
        <time>2017-11-19T12:02:44.000Z</time>
      </trkpt>
      <trkpt lat="43.74385" lon="6.66216">
        <ele>1529.9</ele>
      </trkpt>
      <trkpt lat="43.74394" lon="6.66259">
        <ele>1532</ele>
        <time>2017-11-19T12:02:49.000Z</time>
      </trkpt>
      <trkpt lat="43.74395" lon="6.6627">
        <ele>1523.9</ele>
      </trkpt>
      <trkpt lat="43.74396" lon="6.66281">
        <ele>1522.5</ele>
      </trkpt>
      <trkpt lat="43.74404" lon="6.66314">
        <ele>1519</ele>
        <time>2017-11-19T12:02:54.000Z</time>
      </trkpt>
      <trkpt lat="43.74414" lon="6.66348">
        <ele>1527</ele>
      </trkpt>
      <trkpt lat="43.74425" lon="6.66387">
        <ele>1516</ele>
        <time>2017-11-19T12:03:01.000Z</time>
      </trkpt>
      <trkpt lat="43.74432" lon="6.66408">
        <ele>1509.1</ele>
      </trkpt>
      <trkpt lat="43.74435" lon="6.66418">
        <ele>1508</ele>
        <time>2017-11-19T12:03:04.000Z</time>
      </trkpt>
      <trkpt lat="43.74449" lon="6.66457">
        <ele>1510</ele>
        <time>2017-11-19T12:03:08.000Z</time>
      </trkpt>
      <trkpt lat="43.74453" lon="6.66466">
        <ele>1504.7</ele>
      </trkpt>
      <trkpt lat="43.74461" lon="6.66485">
        <ele>1510</ele>
        <time>2017-11-19T12:03:11.000Z</time>
      </trkpt>
      <trkpt lat="43.74473" lon="6.66512">
        <ele>1508</ele>
        <time>2017-11-19T12:03:14.000Z</time>
      </trkpt>
      <trkpt lat="43.74483" lon="6.66539">
        <ele>1504</ele>
        <time>2017-11-19T12:03:17.000Z</time>
      </trkpt>
      <trkpt lat="43.74495" lon="6.66562">
        <ele>1508</ele>
        <time>2017-11-19T12:03:20.000Z</time>
      </trkpt>
      <trkpt lat="43.74506" lon="6.66585">
        <ele>1502</ele>
        <time>2017-11-19T12:03:23.000Z</time>
      </trkpt>
      <trkpt lat="43.74513" lon="6.66601">
        <ele>1495.7</ele>
      </trkpt>
      <trkpt lat="43.74517" lon="6.66607">
        <ele>1495.8</ele>
      </trkpt>
      <trkpt lat="43.74521" lon="6.6662">
        <ele>1504</ele>
        <time>2017-11-19T12:03:28.000Z</time>
      </trkpt>
      <trkpt lat="43.74528" lon="6.66638">
        <ele>1494.2</ele>
      </trkpt>
      <trkpt lat="43.74535" lon="6.66658">
        <ele>1497</ele>
        <time>2017-11-19T12:03:34.000Z</time>
      </trkpt>
      <trkpt lat="43.74539" lon="6.66672">
        <ele>1493.2</ele>
      </trkpt>
      <trkpt lat="43.7454" lon="6.6668">
        <ele>1492.8</ele>
      </trkpt>
      <trkpt lat="43.74539" lon="6.66688">
        <ele>1491</ele>
        <time>2017-11-19T12:03:38.000Z</time>
      </trkpt>
      <trkpt lat="43.74537" lon="6.66695">
        <ele>1491</ele>
      </trkpt>
      <trkpt lat="43.74535" lon="6.667">
        <ele>1490.8</ele>
      </trkpt>
      <trkpt lat="43.74533" lon="6.66704">
        <ele>1490.5</ele>
      </trkpt>
      <trkpt lat="43.7453" lon="6.66706">
        <ele>1489.9</ele>
      </trkpt>
      <trkpt lat="43.74524" lon="6.66708">
        <ele>1487</ele>
        <time>2017-11-19T12:03:45.000Z</time>
      </trkpt>
      <trkpt lat="43.74522" lon="6.66705">
        <ele>1488.4</ele>
      </trkpt>
      <trkpt lat="43.74514" lon="6.66689">
        <ele>1486.2</ele>
      </trkpt>
      <trkpt lat="43.74513" lon="6.66685">
        <ele>1484</ele>
        <time>2017-11-19T12:05:36.000Z</time>
      </trkpt>
      <trkpt lat="43.74512" lon="6.66675">
        <ele>1484.9</ele>
      </trkpt>
      <trkpt lat="43.74506" lon="6.66664">
        <ele>1482.4</ele>
      </trkpt>
      <trkpt lat="43.74498" lon="6.66646">
        <ele>1490</ele>
        <time>2017-11-19T12:05:55.000Z</time>
      </trkpt>
      <trkpt lat="43.74487" lon="6.66629">
        <ele>1479.9</ele>
      </trkpt>
      <trkpt lat="43.74475" lon="6.66616">
        <ele>1485</ele>
        <time>2017-11-19T12:06:03.000Z</time>
      </trkpt>
      <trkpt lat="43.74473" lon="6.66611">
        <ele>1477.3</ele>
      </trkpt>
      <trkpt lat="43.74469" lon="6.66607">
        <ele>1477.1</ele>
      </trkpt>
      <trkpt lat="43.74464" lon="6.66604">
        <ele>1476.4</ele>
      </trkpt>
      <trkpt lat="43.74456" lon="6.66599">
        <ele>1484</ele>
        <time>2017-11-19T12:06:08.000Z</time>
      </trkpt>
      <trkpt lat="43.74432" lon="6.6659">
        <ele>1475</ele>
        <time>2017-11-19T12:06:14.000Z</time>
      </trkpt>
      <trkpt lat="43.74414" lon="6.66584">
        <ele>1467.1</ele>
      </trkpt>
      <trkpt lat="43.74393" lon="6.66574">
        <ele>1463</ele>
        <time>2017-11-19T12:06:22.000Z</time>
      </trkpt>
      <trkpt lat="43.74383" lon="6.66567">
        <ele>1461.8</ele>
      </trkpt>
      <trkpt lat="43.74374" lon="6.66559">
        <ele>1455</ele>
        <time>2017-11-19T12:06:26.000Z</time>
      </trkpt>
      <trkpt lat="43.7437" lon="6.66557">
        <ele>1460.2</ele>
      </trkpt>
      <trkpt lat="43.74367" lon="6.66553">
        <ele>1460.2</ele>
      </trkpt>
      <trkpt lat="43.74353" lon="6.66544">
        <ele>1461</ele>
        <time>2017-11-19T12:06:31.000Z</time>
      </trkpt>
      <trkpt lat="43.7435" lon="6.6654">
        <ele>1457.4</ele>
      </trkpt>
      <trkpt lat="43.74333" lon="6.66525">
        <ele>1457</ele>
        <time>2017-11-19T12:06:36.000Z</time>
      </trkpt>
      <trkpt lat="43.74321" lon="6.66512">
        <ele>1453</ele>
      </trkpt>
      <trkpt lat="43.74315" lon="6.66504">
        <ele>1447</ele>
        <time>2017-11-19T12:06:41.000Z</time>
      </trkpt>
      <trkpt lat="43.743" lon="6.6649">
        <ele>1450.6</ele>
      </trkpt>
      <trkpt lat="43.74292" lon="6.66485">
        <ele>1444</ele>
        <time>2017-11-19T12:06:47.000Z</time>
      </trkpt>
      <trkpt lat="43.74289" lon="6.66483">
        <ele>1448.8</ele>
      </trkpt>
      <trkpt lat="43.74284" lon="6.66483">
        <ele>1447.3</ele>
      </trkpt>
      <trkpt lat="43.74281" lon="6.66484">
        <ele>1446.2</ele>
      </trkpt>
      <trkpt lat="43.74279" lon="6.66487">
        <ele>1445.2</ele>
      </trkpt>
      <trkpt lat="43.74277" lon="6.66492">
        <ele>1444</ele>
      </trkpt>
      <trkpt lat="43.74276" lon="6.66498">
        <ele>1437</ele>
        <time>2017-11-19T12:06:53.000Z</time>
      </trkpt>
      <trkpt lat="43.74276" lon="6.66506">
        <ele>1441.7</ele>
      </trkpt>
      <trkpt lat="43.74277" lon="6.66513">
        <ele>1440.9</ele>
      </trkpt>
      <trkpt lat="43.74279" lon="6.66521">
        <ele>1440.3</ele>
      </trkpt>
      <trkpt lat="43.74284" lon="6.66538">
        <ele>1435</ele>
        <time>2017-11-19T12:06:58.000Z</time>
      </trkpt>
      <trkpt lat="43.74289" lon="6.66554">
        <ele>1437.1</ele>
      </trkpt>
      <trkpt lat="43.7429" lon="6.66569">
        <ele>1436</ele>
        <time>2017-11-19T12:07:02.000Z</time>
      </trkpt>
      <trkpt lat="43.74293" lon="6.66583">
        <ele>1433.9</ele>
      </trkpt>
      <trkpt lat="43.74295" lon="6.6659">
        <ele>1433.3</ele>
      </trkpt>
      <trkpt lat="43.74297" lon="6.66594">
        <ele>1433</ele>
        <time>2017-11-19T12:07:06.000Z</time>
      </trkpt>
      <trkpt lat="43.743" lon="6.66609">
        <ele>1431.3</ele>
      </trkpt>
      <trkpt lat="43.743" lon="6.66617">
        <ele>1431</ele>
      </trkpt>
      <trkpt lat="43.74299" lon="6.66626">
        <ele>1432</ele>
        <time>2017-11-19T12:07:10.000Z</time>
      </trkpt>
      <trkpt lat="43.74295" lon="6.6664">
        <ele>1429.7</ele>
      </trkpt>
      <trkpt lat="43.74295" lon="6.66645">
        <ele>1429.9</ele>
      </trkpt>
      <trkpt lat="43.74293" lon="6.66649">
        <ele>1429.5</ele>
      </trkpt>
      <trkpt lat="43.74289" lon="6.66655">
        <ele>1430</ele>
        <time>2017-11-19T12:07:16.000Z</time>
      </trkpt>
      <trkpt lat="43.74286" lon="6.66656">
        <ele>1428</ele>
      </trkpt>
      <trkpt lat="43.74279" lon="6.66656">
        <ele>1426.3</ele>
      </trkpt>
      <trkpt lat="43.74275" lon="6.66654">
        <ele>1425.4</ele>
      </trkpt>
      <trkpt lat="43.74271" lon="6.66647">
        <ele>1430</ele>
        <time>2017-11-19T12:07:38.000Z</time>
      </trkpt>
      <trkpt lat="43.7426" lon="6.66641">
        <ele>1422.8</ele>
      </trkpt>
      <trkpt lat="43.74255" lon="6.66641">
        <ele>1421.8</ele>
      </trkpt>
      <trkpt lat="43.74253" lon="6.66645">
        <ele>1426</ele>
        <time>2017-11-19T12:07:46.000Z</time>
      </trkpt>
      <trkpt lat="43.74252" lon="6.66649">
        <ele>1421</ele>
      </trkpt>
      <trkpt lat="43.74251" lon="6.66655">
        <ele>1420.6</ele>
      </trkpt>
      <trkpt lat="43.74251" lon="6.66658">
        <ele>1420.5</ele>
      </trkpt>
      <trkpt lat="43.74249" lon="6.66666">
        <ele>1419.9</ele>
      </trkpt>
      <trkpt lat="43.74246" lon="6.6667">
        <ele>1422</ele>
        <time>2017-11-19T12:07:53.000Z</time>
      </trkpt>
      <trkpt lat="43.7424" lon="6.66677">
        <ele>1418.9</ele>
      </trkpt>
      <trkpt lat="43.74235" lon="6.66688">
        <ele>1417.9</ele>
      </trkpt>
      <trkpt lat="43.74232" lon="6.66692">
        <ele>1412</ele>
        <time>2017-11-19T12:07:59.000Z</time>
      </trkpt>
      <trkpt lat="43.74228" lon="6.66695">
        <ele>1416.2</ele>
      </trkpt>
      <trkpt lat="43.74225" lon="6.66697">
        <ele>1415.4</ele>
      </trkpt>
      <trkpt lat="43.74222" lon="6.66697">
        <ele>1414.8</ele>
      </trkpt>
      <trkpt lat="43.7422" lon="6.66701">
        <ele>1414.3</ele>
      </trkpt>
      <trkpt lat="43.74217" lon="6.66718">
        <ele>1407</ele>
        <time>2017-11-19T12:08:11.000Z</time>
      </trkpt>
      <trkpt lat="43.74213" lon="6.66728">
        <ele>1411.2</ele>
      </trkpt>
      <trkpt lat="43.74209" lon="6.66741">
        <ele>1409.2</ele>
      </trkpt>
      <trkpt lat="43.74208" lon="6.66747">
        <ele>1401</ele>
        <time>2017-11-19T12:08:28.000Z</time>
      </trkpt>
      <trkpt lat="43.74205" lon="6.66763">
        <ele>1406.8</ele>
      </trkpt>
      <trkpt lat="43.742" lon="6.66788">
        <ele>1400</ele>
        <time>2017-11-19T12:08:33.000Z</time>
      </trkpt>
      <trkpt lat="43.74199" lon="6.66796">
        <ele>1404.6</ele>
      </trkpt>
      <trkpt lat="43.74195" lon="6.66811">
        <ele>1403.8</ele>
      </trkpt>
      <trkpt lat="43.74194" lon="6.66819">
        <ele>1403</ele>
        <time>2017-11-19T12:08:37.000Z</time>
      </trkpt>
      <trkpt lat="43.74192" lon="6.66825">
        <ele>1403.2</ele>
      </trkpt>
      <trkpt lat="43.74188" lon="6.6685">
        <ele>1409</ele>
        <time>2017-11-19T12:08:42.000Z</time>
      </trkpt>
      <trkpt lat="43.74189" lon="6.66863">
        <ele>1401.7</ele>
      </trkpt>
      <trkpt lat="43.7419" lon="6.66869">
        <ele>1401.6</ele>
      </trkpt>
      <trkpt lat="43.74192" lon="6.66892">
        <ele>1408</ele>
        <time>2017-11-19T12:08:49.000Z</time>
      </trkpt>
      <trkpt lat="43.74192" lon="6.66897">
        <ele>1401.3</ele>
      </trkpt>
      <trkpt lat="43.7419" lon="6.66907">
        <ele>1401.5</ele>
      </trkpt>
      <trkpt lat="43.7419" lon="6.66913">
        <ele>1401.7</ele>
      </trkpt>
      <trkpt lat="43.74193" lon="6.66918">
        <ele>1409</ele>
        <time>2017-11-19T12:08:57.000Z</time>
      </trkpt>
      <trkpt lat="43.74195" lon="6.66928">
        <ele>1402</ele>
      </trkpt>
      <trkpt lat="43.74193" lon="6.66936">
        <ele>1402</ele>
      </trkpt>
      <trkpt lat="43.74195" lon="6.6694">
        <ele>1402.1</ele>
      </trkpt>
      <trkpt lat="43.74198" lon="6.66948">
        <ele>1409</ele>
        <time>2017-11-19T12:09:11.000Z</time>
      </trkpt>
      <trkpt lat="43.74198" lon="6.66952">
        <ele>1402.9</ele>
      </trkpt>
      <trkpt lat="43.74198" lon="6.6696">
        <ele>1403.4</ele>
      </trkpt>
      <trkpt lat="43.742" lon="6.66965">
        <ele>1403.9</ele>
      </trkpt>
      <trkpt lat="43.74203" lon="6.66966">
        <ele>1404.2</ele>
      </trkpt>
      <trkpt lat="43.74213" lon="6.66965">
        <ele>1412</ele>
        <time>2017-11-19T12:09:40.000Z</time>
      </trkpt>
      <trkpt lat="43.74221" lon="6.66961">
        <ele>1405.5</ele>
      </trkpt>
      <trkpt lat="43.74223" lon="6.66963">
        <ele>1405.8</ele>
      </trkpt>
      <trkpt lat="43.74224" lon="6.66967">
        <ele>1406.2</ele>
      </trkpt>
      <trkpt lat="43.74228" lon="6.66974">
        <ele>1412</ele>
        <time>2017-11-19T12:10:05.000Z</time>
      </trkpt>
      <trkpt lat="43.74232" lon="6.66985">
        <ele>1410.5</ele>
      </trkpt>
      <trkpt lat="43.74232" lon="6.66994">
        <ele>1412.3</ele>
      </trkpt>
      <trkpt lat="43.74233" lon="6.66997">
        <ele>1413</ele>
      </trkpt>
      <trkpt lat="43.74236" lon="6.66998">
        <ele>1415</ele>
        <time>2017-11-19T12:10:38.000Z</time>
      </trkpt>
      <trkpt lat="43.74239" lon="6.67">
        <ele>1414.4</ele>
      </trkpt>
      <trkpt lat="43.74241" lon="6.67003">
        <ele>1415.1</ele>
      </trkpt>
      <trkpt lat="43.74241" lon="6.67011">
        <ele>1416.1</ele>
      </trkpt>
      <trkpt lat="43.74242" lon="6.67019">
        <ele>1417.2</ele>
      </trkpt>
      <trkpt lat="43.74245" lon="6.67021">
        <ele>1418</ele>
        <time>2017-11-19T12:11:22.000Z</time>
      </trkpt>
      <trkpt lat="43.74246" lon="6.67025">
        <ele>1417.9</ele>
      </trkpt>
      <trkpt lat="43.7425" lon="6.67032">
        <ele>1418.5</ele>
      </trkpt>
      <trkpt lat="43.74256" lon="6.67037">
        <ele>1420.2</ele>
      </trkpt>
      <trkpt lat="43.74256" lon="6.67042">
        <ele>1420.6</ele>
      </trkpt>
      <trkpt lat="43.74257" lon="6.6705">
        <ele>1422</ele>
        <time>2017-11-19T12:12:10.000Z</time>
      </trkpt>
      <trkpt lat="43.7426" lon="6.67058">
        <ele>1422.3</ele>
      </trkpt>
      <trkpt lat="43.74266" lon="6.67068">
        <ele>1423.6</ele>
      </trkpt>
      <trkpt lat="43.74268" lon="6.67071">
        <ele>1424.1</ele>
      </trkpt>
      <trkpt lat="43.74269" lon="6.67075">
        <ele>1424</ele>
        <time>2017-11-19T12:12:42.000Z</time>
      </trkpt>
      <trkpt lat="43.74271" lon="6.67083">
        <ele>1425.2</ele>
      </trkpt>
      <trkpt lat="43.74273" lon="6.67086">
        <ele>1425.5</ele>
      </trkpt>
      <trkpt lat="43.74276" lon="6.67088">
        <ele>1425.8</ele>
      </trkpt>
      <trkpt lat="43.74275" lon="6.67092">
        <ele>1425.8</ele>
      </trkpt>
      <trkpt lat="43.7427" lon="6.67102">
        <ele>1427</ele>
        <time>2017-11-19T12:13:15.000Z</time>
      </trkpt>
      <trkpt lat="43.74265" lon="6.67106">
        <ele>1425.4</ele>
      </trkpt>
      <trkpt lat="43.74262" lon="6.6711">
        <ele>1425.4</ele>
      </trkpt>
      <trkpt lat="43.74257" lon="6.67114">
        <ele>1424.9</ele>
      </trkpt>
      <trkpt lat="43.74255" lon="6.67117">
        <ele>1424.5</ele>
      </trkpt>
      <trkpt lat="43.74252" lon="6.6712">
        <ele>1425</ele>
        <time>2017-11-19T12:13:43.000Z</time>
      </trkpt>
      <trkpt lat="43.7425" lon="6.67124">
        <ele>1423.6</ele>
      </trkpt>
      <trkpt lat="43.74252" lon="6.67128">
        <ele>1423.2</ele>
      </trkpt>
      <trkpt lat="43.74251" lon="6.67131">
        <ele>1422.8</ele>
      </trkpt>
      <trkpt lat="43.74247" lon="6.67138">
        <ele>1422.2</ele>
      </trkpt>
      <trkpt lat="43.74244" lon="6.67147">
        <ele>1426</ele>
        <time>2017-11-19T12:14:19.000Z</time>
      </trkpt>
      <trkpt lat="43.74243" lon="6.67152">
        <ele>1421.4</ele>
      </trkpt>
      <trkpt lat="43.7424" lon="6.67155">
        <ele>1421.4</ele>
      </trkpt>
      <trkpt lat="43.74238" lon="6.67159">
        <ele>1421.3</ele>
      </trkpt>
      <trkpt lat="43.74235" lon="6.67171">
        <ele>1428</ele>
        <time>2017-11-19T12:14:34.000Z</time>
      </trkpt>
      <trkpt lat="43.74237" lon="6.67177">
        <ele>1421.3</ele>
      </trkpt>
      <trkpt lat="43.74239" lon="6.6718">
        <ele>1421.4</ele>
      </trkpt>
      <trkpt lat="43.74239" lon="6.67184">
        <ele>1421.5</ele>
      </trkpt>
      <trkpt lat="43.74239" lon="6.6719">
        <ele>1421.8</ele>
      </trkpt>
      <trkpt lat="43.74241" lon="6.67195">
        <ele>1422.1</ele>
      </trkpt>
      <trkpt lat="43.7424" lon="6.67199">
        <ele>1430</ele>
        <time>2017-11-19T12:14:51.000Z</time>
      </trkpt>
      <trkpt lat="43.74238" lon="6.67202">
        <ele>1422.8</ele>
      </trkpt>
      <trkpt lat="43.7424" lon="6.67205">
        <ele>1423.1</ele>
      </trkpt>
      <trkpt lat="43.7424" lon="6.67214">
        <ele>1424.1</ele>
      </trkpt>
      <trkpt lat="43.74239" lon="6.67218">
        <ele>1424.5</ele>
      </trkpt>
      <trkpt lat="43.74236" lon="6.67221">
        <ele>1424.9</ele>
      </trkpt>
      <trkpt lat="43.74236" lon="6.67229">
        <ele>1431</ele>
        <time>2017-11-19T12:15:21.000Z</time>
      </trkpt>
      <trkpt lat="43.74235" lon="6.67232">
        <ele>1425.9</ele>
      </trkpt>
      <trkpt lat="43.74235" lon="6.67237">
        <ele>1426.3</ele>
      </trkpt>
      <trkpt lat="43.74233" lon="6.67241">
        <ele>1426.6</ele>
      </trkpt>
      <trkpt lat="43.74232" lon="6.67246">
        <ele>1427</ele>
      </trkpt>
      <trkpt lat="43.74232" lon="6.67249">
        <ele>1427.3</ele>
      </trkpt>
      <trkpt lat="43.74231" lon="6.67253">
        <ele>1427.6</ele>
      </trkpt>
      <trkpt lat="43.74228" lon="6.67256">
        <ele>1433</ele>
        <time>2017-11-19T12:15:44.000Z</time>
      </trkpt>
      <trkpt lat="43.74228" lon="6.6726">
        <ele>1428.3</ele>
      </trkpt>
      <trkpt lat="43.74228" lon="6.67266">
        <ele>1428.9</ele>
      </trkpt>
      <trkpt lat="43.7423" lon="6.67269">
        <ele>1429.3</ele>
      </trkpt>
      <trkpt lat="43.74231" lon="6.67272">
        <ele>1429.7</ele>
      </trkpt>
      <trkpt lat="43.74231" lon="6.67281">
        <ele>1433</ele>
        <time>2017-11-19T12:16:06.000Z</time>
      </trkpt>
      <trkpt lat="43.74232" lon="6.67284">
        <ele>1431</ele>
      </trkpt>
      <trkpt lat="43.74232" lon="6.67289">
        <ele>1431.6</ele>
      </trkpt>
      <trkpt lat="43.74231" lon="6.67293">
        <ele>1432</ele>
      </trkpt>
      <trkpt lat="43.74233" lon="6.67297">
        <ele>1432.5</ele>
      </trkpt>
      <trkpt lat="43.74233" lon="6.67301">
        <ele>1432.9</ele>
      </trkpt>
      <trkpt lat="43.74234" lon="6.67305">
        <ele>1433.4</ele>
      </trkpt>
      <trkpt lat="43.74236" lon="6.67306">
        <ele>1435</ele>
        <time>2017-11-19T12:17:01.000Z</time>
      </trkpt>
      <trkpt lat="43.74233" lon="6.67306">
        <ele>1433.4</ele>
      </trkpt>
      <trkpt lat="43.74227" lon="6.67304">
        <ele>1433</ele>
      </trkpt>
      <trkpt lat="43.74223" lon="6.67304">
        <ele>1432.9</ele>
      </trkpt>
      <trkpt lat="43.74221" lon="6.67306">
        <ele>1433</ele>
      </trkpt>
      <trkpt lat="43.74225" lon="6.67308">
        <ele>1435</ele>
        <time>2017-11-19T12:58:38.000Z</time>
      </trkpt>
      <trkpt lat="43.74231" lon="6.67308">
        <ele>1433.6</ele>
      </trkpt>
      <trkpt lat="43.74234" lon="6.6731">
        <ele>1434</ele>
      </trkpt>
      <trkpt lat="43.74236" lon="6.67311">
        <ele>1434.2</ele>
      </trkpt>
      <trkpt lat="43.74237" lon="6.67316">
        <ele>1434.9</ele>
      </trkpt>
      <trkpt lat="43.7424" lon="6.67317">
        <ele>1435.1</ele>
      </trkpt>
      <trkpt lat="43.74244" lon="6.67316">
        <ele>1436</ele>
        <time>2017-11-19T13:00:29.000Z</time>
      </trkpt>
      <trkpt lat="43.74249" lon="6.67314">
        <ele>1435.2</ele>
      </trkpt>
      <trkpt lat="43.74257" lon="6.67314">
        <ele>1435.2</ele>
      </trkpt>
      <trkpt lat="43.74266" lon="6.67317">
        <ele>1436</ele>
        <time>2017-11-19T13:00:50.000Z</time>
      </trkpt>
      <trkpt lat="43.74267" lon="6.67321">
        <ele>1436.2</ele>
      </trkpt>
      <trkpt lat="43.74271" lon="6.67326">
        <ele>1436.9</ele>
      </trkpt>
      <trkpt lat="43.74272" lon="6.6733">
        <ele>1437.5</ele>
      </trkpt>
      <trkpt lat="43.74273" lon="6.67334">
        <ele>1438.2</ele>
      </trkpt>
      <trkpt lat="43.74276" lon="6.67334">
        <ele>1438.2</ele>
      </trkpt>
      <trkpt lat="43.74283" lon="6.67334">
        <ele>1443</ele>
        <time>2017-11-19T13:01:51.000Z</time>
      </trkpt>
      <trkpt lat="43.74285" lon="6.67337">
        <ele>1439.8</ele>
      </trkpt>
      <trkpt lat="43.7429" lon="6.6734">
        <ele>1441</ele>
      </trkpt>
      <trkpt lat="43.74297" lon="6.67348">
        <ele>1443.6</ele>
      </trkpt>
      <trkpt lat="43.74297" lon="6.67352">
        <ele>1446</ele>
        <time>2017-11-19T13:02:51.000Z</time>
      </trkpt>
      <trkpt lat="43.74299" lon="6.67355">
        <ele>1445.3</ele>
      </trkpt>
      <trkpt lat="43.74302" lon="6.67357">
        <ele>1445.9</ele>
      </trkpt>
      <trkpt lat="43.74303" lon="6.6736">
        <ele>1446.7</ele>
      </trkpt>
      <trkpt lat="43.74306" lon="6.6736">
        <ele>1446.8</ele>
      </trkpt>
      <trkpt lat="43.74309" lon="6.67358">
        <ele>1446.6</ele>
      </trkpt>
      <trkpt lat="43.74315" lon="6.67359">
        <ele>1448</ele>
        <time>2017-11-19T13:03:28.000Z</time>
      </trkpt>
      <trkpt lat="43.74318" lon="6.67361">
        <ele>1447.9</ele>
      </trkpt>
      <trkpt lat="43.74321" lon="6.67362">
        <ele>1448.2</ele>
      </trkpt>
      <trkpt lat="43.74323" lon="6.67365">
        <ele>1448.4</ele>
      </trkpt>
      <trkpt lat="43.74326" lon="6.67367">
        <ele>1448.6</ele>
      </trkpt>
      <trkpt lat="43.74329" lon="6.67368">
        <ele>1448.7</ele>
      </trkpt>
      <trkpt lat="43.74338" lon="6.67364">
        <ele>1452</ele>
        <time>2017-11-19T13:04:23.000Z</time>
      </trkpt>
      <trkpt lat="43.74343" lon="6.67366">
        <ele>1446.6</ele>
      </trkpt>
      <trkpt lat="43.74348" lon="6.67361">
        <ele>1445.8</ele>
      </trkpt>
      <trkpt lat="43.74352" lon="6.67358">
        <ele>1445.2</ele>
      </trkpt>
      <trkpt lat="43.74357" lon="6.67353">
        <ele>1443</ele>
        <time>2017-11-19T13:07:54.000Z</time>
      </trkpt>
      <trkpt lat="43.74361" lon="6.67351">
        <ele>1444.1</ele>
      </trkpt>
      <trkpt lat="43.74367" lon="6.67347">
        <ele>1442.9</ele>
      </trkpt>
      <trkpt lat="43.74369" lon="6.67349">
        <ele>1442.2</ele>
      </trkpt>
      <trkpt lat="43.74373" lon="6.6735">
        <ele>1440.9</ele>
      </trkpt>
      <trkpt lat="43.74376" lon="6.6735">
        <ele>1443</ele>
        <time>2017-11-19T13:08:18.000Z</time>
      </trkpt>
      <trkpt lat="43.74383" lon="6.67347">
        <ele>1438.6</ele>
      </trkpt>
      <trkpt lat="43.74386" lon="6.67345">
        <ele>1438.1</ele>
      </trkpt>
      <trkpt lat="43.74388" lon="6.67342">
        <ele>1438</ele>
      </trkpt>
      <trkpt lat="43.74391" lon="6.67341">
        <ele>1437.3</ele>
      </trkpt>
      <trkpt lat="43.74395" lon="6.67339">
        <ele>1443</ele>
        <time>2017-11-19T13:08:50.000Z</time>
      </trkpt>
      <trkpt lat="43.74402" lon="6.67346">
        <ele>1433.2</ele>
      </trkpt>
      <trkpt lat="43.74414" lon="6.67342">
        <ele>1433</ele>
        <time>2017-11-19T13:10:15.000Z</time>
      </trkpt>
      <trkpt lat="43.74417" lon="6.6734">
        <ele>1429.7</ele>
      </trkpt>
      <trkpt lat="43.7442" lon="6.67338">
        <ele>1429.1</ele>
      </trkpt>
      <trkpt lat="43.74423" lon="6.67338">
        <ele>1428.2</ele>
      </trkpt>
      <trkpt lat="43.74426" lon="6.67339">
        <ele>1427.1</ele>
      </trkpt>
      <trkpt lat="43.74429" lon="6.67337">
        <ele>1426.5</ele>
      </trkpt>
      <trkpt lat="43.74435" lon="6.67338">
        <ele>1433</ele>
        <time>2017-11-19T13:10:41.000Z</time>
      </trkpt>
      <trkpt lat="43.74442" lon="6.67346">
        <ele>1421.3</ele>
      </trkpt>
      <trkpt lat="43.74446" lon="6.67349">
        <ele>1419.9</ele>
      </trkpt>
      <trkpt lat="43.7445" lon="6.67352">
        <ele>1418.4</ele>
      </trkpt>
      <trkpt lat="43.74455" lon="6.67358">
        <ele>1422</ele>
        <time>2017-11-19T13:10:54.000Z</time>
      </trkpt>
      <trkpt lat="43.74456" lon="6.67361">
        <ele>1415.7</ele>
      </trkpt>
      <trkpt lat="43.74459" lon="6.67366">
        <ele>1414.2</ele>
      </trkpt>
      <trkpt lat="43.74462" lon="6.67368">
        <ele>1413.1</ele>
      </trkpt>
      <trkpt lat="43.74465" lon="6.67367">
        <ele>1412.4</ele>
      </trkpt>
      <trkpt lat="43.74467" lon="6.67366">
        <ele>1411.9</ele>
      </trkpt>
      <trkpt lat="43.74474" lon="6.67358">
        <ele>1413</ele>
        <time>2017-11-19T13:11:05.000Z</time>
      </trkpt>
      <trkpt lat="43.74477" lon="6.67358">
        <ele>1410.2</ele>
      </trkpt>
      <trkpt lat="43.74485" lon="6.6735">
        <ele>1409.2</ele>
      </trkpt>
      <trkpt lat="43.74493" lon="6.67343">
        <ele>1408</ele>
        <time>2017-11-19T13:11:32.000Z</time>
      </trkpt>
      <trkpt lat="43.74502" lon="6.67336">
        <ele>1406.4</ele>
      </trkpt>
      <trkpt lat="43.74507" lon="6.67337">
        <ele>1405.6</ele>
      </trkpt>
      <trkpt lat="43.74512" lon="6.67337">
        <ele>1408</ele>
        <time>2017-11-19T13:11:42.000Z</time>
      </trkpt>
      <trkpt lat="43.74516" lon="6.67339">
        <ele>1404</ele>
      </trkpt>
      <trkpt lat="43.74518" lon="6.67343">
        <ele>1403.1</ele>
      </trkpt>
      <trkpt lat="43.74522" lon="6.67349">
        <ele>1401.7</ele>
      </trkpt>
      <trkpt lat="43.74528" lon="6.67354">
        <ele>1401</ele>
        <time>2017-11-19T13:11:50.000Z</time>
      </trkpt>
      <trkpt lat="43.74532" lon="6.67356">
        <ele>1399.9</ele>
      </trkpt>
      <trkpt lat="43.74535" lon="6.6736">
        <ele>1399.4</ele>
      </trkpt>
      <trkpt lat="43.74535" lon="6.67367">
        <ele>1398.8</ele>
      </trkpt>
      <trkpt lat="43.7453" lon="6.67377">
        <ele>1401</ele>
        <time>2017-11-19T13:11:57.000Z</time>
      </trkpt>
      <trkpt lat="43.7453" lon="6.67381">
        <ele>1397.6</ele>
      </trkpt>
      <trkpt lat="43.74527" lon="6.67395">
        <ele>1396.9</ele>
      </trkpt>
      <trkpt lat="43.74526" lon="6.67402">
        <ele>1396.7</ele>
      </trkpt>
      <trkpt lat="43.74522" lon="6.67411">
        <ele>1401</ele>
        <time>2017-11-19T13:12:04.000Z</time>
      </trkpt>
      <trkpt lat="43.74522" lon="6.67416">
        <ele>1396.2</ele>
      </trkpt>
      <trkpt lat="43.74517" lon="6.67432">
        <ele>1395.3</ele>
      </trkpt>
      <trkpt lat="43.74515" lon="6.67436">
        <ele>1395.1</ele>
      </trkpt>
      <trkpt lat="43.74514" lon="6.6744">
        <ele>1398</ele>
        <time>2017-11-19T13:12:10.000Z</time>
      </trkpt>
      <trkpt lat="43.74512" lon="6.67444">
        <ele>1394.6</ele>
      </trkpt>
      <trkpt lat="43.74511" lon="6.67452">
        <ele>1393.5</ele>
      </trkpt>
      <trkpt lat="43.74512" lon="6.67456">
        <ele>1392.9</ele>
      </trkpt>
      <trkpt lat="43.74512" lon="6.67463">
        <ele>1391.9</ele>
      </trkpt>
      <trkpt lat="43.74513" lon="6.67472">
        <ele>1394</ele>
        <time>2017-11-19T13:12:19.000Z</time>
      </trkpt>
      <trkpt lat="43.74516" lon="6.67475">
        <ele>1389.8</ele>
      </trkpt>
      <trkpt lat="43.74516" lon="6.67487">
        <ele>1387.1</ele>
      </trkpt>
      <trkpt lat="43.74521" lon="6.67497">
        <ele>1386</ele>
        <time>2017-11-19T13:12:41.000Z</time>
      </trkpt>
      <trkpt lat="43.74523" lon="6.67509">
        <ele>1381.2</ele>
      </trkpt>
      <trkpt lat="43.74526" lon="6.67512">
        <ele>1380.1</ele>
      </trkpt>
      <trkpt lat="43.74527" lon="6.67516">
        <ele>1379.2</ele>
      </trkpt>
      <trkpt lat="43.74524" lon="6.67524">
        <ele>1386</ele>
        <time>2017-11-19T13:13:45.000Z</time>
      </trkpt>
      <trkpt lat="43.74526" lon="6.67529">
        <ele>1377</ele>
      </trkpt>
      <trkpt lat="43.74526" lon="6.67532">
        <ele>1376.5</ele>
      </trkpt>
      <trkpt lat="43.74533" lon="6.67542">
        <ele>1375.3</ele>
      </trkpt>
      <trkpt lat="43.74534" lon="6.67554">
        <ele>1382</ele>
        <time>2017-11-19T13:14:11.000Z</time>
      </trkpt>
      <trkpt lat="43.74536" lon="6.67559">
        <ele>1372.5</ele>
      </trkpt>
      <trkpt lat="43.74537" lon="6.67564">
        <ele>1371.6</ele>
      </trkpt>
      <trkpt lat="43.74538" lon="6.67578">
        <ele>1368.9</ele>
      </trkpt>
      <trkpt lat="43.74536" lon="6.67581">
        <ele>1378</ele>
        <time>2017-11-19T13:14:29.000Z</time>
      </trkpt>
      <trkpt lat="43.74533" lon="6.67589">
        <ele>1366.3</ele>
      </trkpt>
      <trkpt lat="43.74528" lon="6.67594">
        <ele>1364.9</ele>
      </trkpt>
      <trkpt lat="43.74526" lon="6.67599">
        <ele>1364.3</ele>
      </trkpt>
      <trkpt lat="43.74523" lon="6.67604">
        <ele>1370</ele>
        <time>2017-11-19T13:14:38.000Z</time>
      </trkpt>
      <trkpt lat="43.74517" lon="6.67607">
        <ele>1362.9</ele>
      </trkpt>
      <trkpt lat="43.74512" lon="6.67608">
        <ele>1362.5</ele>
      </trkpt>
      <trkpt lat="43.74511" lon="6.67613">
        <ele>1361.5</ele>
      </trkpt>
      <trkpt lat="43.7451" lon="6.67628">
        <ele>1373</ele>
        <time>2017-11-19T13:14:48.000Z</time>
      </trkpt>
      <trkpt lat="43.74508" lon="6.67637">
        <ele>1357.2</ele>
      </trkpt>
      <trkpt lat="43.74504" lon="6.67645">
        <ele>1355.8</ele>
      </trkpt>
      <trkpt lat="43.745" lon="6.67648">
        <ele>1355</ele>
      </trkpt>
      <trkpt lat="43.74498" lon="6.67653">
        <ele>1366</ele>
        <time>2017-11-19T13:14:55.000Z</time>
      </trkpt>
      <trkpt lat="43.74495" lon="6.67655">
        <ele>1354.1</ele>
      </trkpt>
      <trkpt lat="43.74491" lon="6.67663">
        <ele>1352.9</ele>
      </trkpt>
      <trkpt lat="43.74487" lon="6.67675">
        <ele>1357</ele>
        <time>2017-11-19T13:16:46.000Z</time>
      </trkpt>
      <trkpt lat="43.74478" lon="6.67698">
        <ele>1347</ele>
      </trkpt>
      <trkpt lat="43.74476" lon="6.67702">
        <ele>1350</ele>
        <time>2017-11-19T13:16:52.000Z</time>
      </trkpt>
      <trkpt lat="43.74473" lon="6.67705">
        <ele>1345.9</ele>
      </trkpt>
      <trkpt lat="43.74468" lon="6.6771">
        <ele>1345.3</ele>
      </trkpt>
      <trkpt lat="43.74461" lon="6.6772">
        <ele>1348</ele>
        <time>2017-11-19T13:16:59.000Z</time>
      </trkpt>
      <trkpt lat="43.74459" lon="6.67724">
        <ele>1343.3</ele>
      </trkpt>
      <trkpt lat="43.74458" lon="6.67732">
        <ele>1342.4</ele>
      </trkpt>
      <trkpt lat="43.74457" lon="6.67737">
        <ele>1341.8</ele>
      </trkpt>
      <trkpt lat="43.74452" lon="6.67748">
        <ele>1348</ele>
        <time>2017-11-19T13:17:04.000Z</time>
      </trkpt>
      <trkpt lat="43.74447" lon="6.67757">
        <ele>1338.2</ele>
      </trkpt>
      <trkpt lat="43.74443" lon="6.67765">
        <ele>1336.9</ele>
      </trkpt>
      <trkpt lat="43.7444" lon="6.67773">
        <ele>1354</ele>
        <time>2017-11-19T13:17:10.000Z</time>
      </trkpt>
      <trkpt lat="43.74436" lon="6.67777">
        <ele>1335.4</ele>
      </trkpt>
      <trkpt lat="43.74435" lon="6.67789">
        <ele>1333.2</ele>
      </trkpt>
      <trkpt lat="43.74432" lon="6.67797">
        <ele>1354</ele>
        <time>2017-11-19T13:17:17.000Z</time>
      </trkpt>
      <trkpt lat="43.74429" lon="6.67799">
        <ele>1331.8</ele>
      </trkpt>
      <trkpt lat="43.74431" lon="6.67803">
        <ele>1330.9</ele>
      </trkpt>
      <trkpt lat="43.7443" lon="6.67815">
        <ele>1328.3</ele>
      </trkpt>
      <trkpt lat="43.74431" lon="6.6782">
        <ele>1327.1</ele>
      </trkpt>
      <trkpt lat="43.74431" lon="6.67824">
        <ele>1327</ele>
        <time>2017-11-19T13:17:26.000Z</time>
      </trkpt>
      <trkpt lat="43.74431" lon="6.67828">
        <ele>1325.2</ele>
      </trkpt>
      <trkpt lat="43.74429" lon="6.67831">
        <ele>1324.7</ele>
      </trkpt>
      <trkpt lat="43.74428" lon="6.67836">
        <ele>1323.6</ele>
      </trkpt>
      <trkpt lat="43.74425" lon="6.67849">
        <ele>1327</ele>
        <time>2017-11-19T13:17:47.000Z</time>
      </trkpt>
      <trkpt lat="43.7442" lon="6.67856">
        <ele>1318.6</ele>
      </trkpt>
      <trkpt lat="43.74417" lon="6.6786">
        <ele>1317.3</ele>
      </trkpt>
      <trkpt lat="43.74413" lon="6.67863">
        <ele>1316.6</ele>
      </trkpt>
      <trkpt lat="43.74408" lon="6.67869">
        <ele>1333</ele>
        <time>2017-11-19T13:18:13.000Z</time>
      </trkpt>
      <trkpt lat="43.74403" lon="6.67872">
        <ele>1314.6</ele>
      </trkpt>
      <trkpt lat="43.74401" lon="6.67875">
        <ele>1314</ele>
      </trkpt>
      <trkpt lat="43.744" lon="6.6788">
        <ele>1312.6</ele>
      </trkpt>
      <trkpt lat="43.74399" lon="6.67891">
        <ele>1321</ele>
        <time>2017-11-19T13:18:22.000Z</time>
      </trkpt>
      <trkpt lat="43.74401" lon="6.67898">
        <ele>1307.9</ele>
      </trkpt>
      <trkpt lat="43.74399" lon="6.67904">
        <ele>1307.1</ele>
      </trkpt>
      <trkpt lat="43.744" lon="6.67909">
        <ele>1305.8</ele>
      </trkpt>
      <trkpt lat="43.744" lon="6.67914">
        <ele>1304.8</ele>
      </trkpt>
      <trkpt lat="43.74397" lon="6.67919">
        <ele>1307</ele>
        <time>2017-11-19T13:18:30.000Z</time>
      </trkpt>
      <trkpt lat="43.74393" lon="6.67927">
        <ele>1303.9</ele>
      </trkpt>
      <trkpt lat="43.7439" lon="6.67936">
        <ele>1302.6</ele>
      </trkpt>
      <trkpt lat="43.74387" lon="6.67941">
        <ele>1302.1</ele>
      </trkpt>
      <trkpt lat="43.74384" lon="6.67942">
        <ele>1294</ele>
        <time>2017-11-19T13:18:37.000Z</time>
      </trkpt>
      <trkpt lat="43.74379" lon="6.67951">
        <ele>1301.6</ele>
      </trkpt>
      <trkpt lat="43.74378" lon="6.67961">
        <ele>1299.5</ele>
      </trkpt>
      <trkpt lat="43.74375" lon="6.67963">
        <ele>1299.7</ele>
      </trkpt>
      <trkpt lat="43.74373" lon="6.67978">
        <ele>1297</ele>
        <time>2017-11-19T13:21:31.000Z</time>
      </trkpt>
      <trkpt lat="43.74372" lon="6.67982">
        <ele>1295.6</ele>
      </trkpt>
      <trkpt lat="43.74373" lon="6.67986">
        <ele>1294.4</ele>
      </trkpt>
      <trkpt lat="43.74371" lon="6.6799">
        <ele>1293.7</ele>
      </trkpt>
      <trkpt lat="43.74366" lon="6.68005">
        <ele>1294</ele>
        <time>2017-11-19T13:21:54.000Z</time>
      </trkpt>
      <trkpt lat="43.74363" lon="6.68011">
        <ele>1289.8</ele>
      </trkpt>
      <trkpt lat="43.74361" lon="6.6802">
        <ele>1288</ele>
      </trkpt>
      <trkpt lat="43.74359" lon="6.68026">
        <ele>1286.9</ele>
      </trkpt>
      <trkpt lat="43.74357" lon="6.68035">
        <ele>1290</ele>
        <time>2017-11-19T13:22:08.000Z</time>
      </trkpt>
      <trkpt lat="43.74357" lon="6.68039">
        <ele>1283.7</ele>
      </trkpt>
      <trkpt lat="43.74351" lon="6.68046">
        <ele>1283.2</ele>
      </trkpt>
      <trkpt lat="43.74349" lon="6.68056">
        <ele>1280.9</ele>
      </trkpt>
      <trkpt lat="43.74346" lon="6.68063">
        <ele>1293</ele>
        <time>2017-11-19T13:22:25.000Z</time>
      </trkpt>
      <trkpt lat="43.74345" lon="6.6807">
        <ele>1278.2</ele>
      </trkpt>
      <trkpt lat="43.74341" lon="6.68075">
        <ele>1278</ele>
      </trkpt>
      <trkpt lat="43.74339" lon="6.68078">
        <ele>1277.8</ele>
      </trkpt>
      <trkpt lat="43.74337" lon="6.68082">
        <ele>1277.3</ele>
      </trkpt>
      <trkpt lat="43.74337" lon="6.68087">
        <ele>1285</ele>
        <time>2017-11-19T13:22:32.000Z</time>
      </trkpt>
      <trkpt lat="43.74335" lon="6.68091">
        <ele>1275.6</ele>
      </trkpt>
      <trkpt lat="43.74332" lon="6.68096">
        <ele>1275.3</ele>
      </trkpt>
      <trkpt lat="43.74332" lon="6.68101">
        <ele>1274</ele>
      </trkpt>
      <trkpt lat="43.74328" lon="6.68104">
        <ele>1274.7</ele>
      </trkpt>
      <trkpt lat="43.74326" lon="6.6811">
        <ele>1276</ele>
        <time>2017-11-19T13:22:40.000Z</time>
      </trkpt>
      <trkpt lat="43.74323" lon="6.68125">
        <ele>1271.2</ele>
      </trkpt>
      <trkpt lat="43.74318" lon="6.68138">
        <ele>1278</ele>
        <time>2017-11-19T13:22:55.000Z</time>
      </trkpt>
      <trkpt lat="43.74318" lon="6.68143">
        <ele>1268.3</ele>
      </trkpt>
      <trkpt lat="43.74314" lon="6.68152">
        <ele>1266.9</ele>
      </trkpt>
      <trkpt lat="43.74315" lon="6.68157">
        <ele>1265</ele>
      </trkpt>
      <trkpt lat="43.74312" lon="6.68169">
        <ele>1271</ele>
        <time>2017-11-19T13:23:10.000Z</time>
      </trkpt>
      <trkpt lat="43.74309" lon="6.68171">
        <ele>1262.9</ele>
      </trkpt>
      <trkpt lat="43.74308" lon="6.68174">
        <ele>1262.6</ele>
      </trkpt>
      <trkpt lat="43.74306" lon="6.6818">
        <ele>1262</ele>
      </trkpt>
      <trkpt lat="43.74301" lon="6.68185">
        <ele>1262.4</ele>
      </trkpt>
      <trkpt lat="43.74298" lon="6.68186">
        <ele>1283</ele>
        <time>2017-11-19T13:23:17.000Z</time>
      </trkpt>
      <trkpt lat="43.74292" lon="6.68198">
        <ele>1261.6</ele>
      </trkpt>
      <trkpt lat="43.74287" lon="6.68212">
        <ele>1274</ele>
        <time>2017-11-19T13:23:25.000Z</time>
      </trkpt>
      <trkpt lat="43.74285" lon="6.68221">
        <ele>1258.7</ele>
      </trkpt>
      <trkpt lat="43.74283" lon="6.68224">
        <ele>1258.8</ele>
      </trkpt>
      <trkpt lat="43.74282" lon="6.68235">
        <ele>1257.2</ele>
      </trkpt>
      <trkpt lat="43.74282" lon="6.6824">
        <ele>1274</ele>
        <time>2017-11-19T13:23:33.000Z</time>
      </trkpt>
      <trkpt lat="43.74278" lon="6.68252">
        <ele>1255.5</ele>
      </trkpt>
      <trkpt lat="43.74279" lon="6.68256">
        <ele>1254.3</ele>
      </trkpt>
      <trkpt lat="43.74278" lon="6.68262">
        <ele>1253.3</ele>
      </trkpt>
      <trkpt lat="43.74276" lon="6.68268">
        <ele>1273</ele>
        <time>2017-11-19T13:23:42.000Z</time>
      </trkpt>
      <trkpt lat="43.74274" lon="6.68271">
        <ele>1252.7</ele>
      </trkpt>
      <trkpt lat="43.74275" lon="6.68275">
        <ele>1251.5</ele>
      </trkpt>
      <trkpt lat="43.74274" lon="6.68281">
        <ele>1250.4</ele>
      </trkpt>
      <trkpt lat="43.74272" lon="6.68285">
        <ele>1250.1</ele>
      </trkpt>
      <trkpt lat="43.74272" lon="6.68289">
        <ele>1249</ele>
      </trkpt>
      <trkpt lat="43.74266" lon="6.68303">
        <ele>1269</ele>
        <time>2017-11-19T13:23:52.000Z</time>
      </trkpt>
      <trkpt lat="43.74266" lon="6.68308">
        <ele>1246.2</ele>
      </trkpt>
      <trkpt lat="43.74263" lon="6.6831">
        <ele>1246.7</ele>
      </trkpt>
      <trkpt lat="43.7426" lon="6.68316">
        <ele>1246.1</ele>
      </trkpt>
      <trkpt lat="43.74257" lon="6.6833">
        <ele>1259</ele>
        <time>2017-11-19T13:24:01.000Z</time>
      </trkpt>
      <trkpt lat="43.74255" lon="6.68334">
        <ele>1243.2</ele>
      </trkpt>
      <trkpt lat="43.74252" lon="6.68342">
        <ele>1241.5</ele>
      </trkpt>
      <trkpt lat="43.74247" lon="6.68346">
        <ele>1241.8</ele>
      </trkpt>
      <trkpt lat="43.74249" lon="6.68358">
        <ele>1250</ele>
        <time>2017-11-19T13:24:12.000Z</time>
      </trkpt>
      <trkpt lat="43.74249" lon="6.6837">
        <ele>1233.5</ele>
      </trkpt>
      <trkpt lat="43.74247" lon="6.68374">
        <ele>1232.8</ele>
      </trkpt>
      <trkpt lat="43.74241" lon="6.6838">
        <ele>1250</ele>
        <time>2017-11-19T13:24:18.000Z</time>
      </trkpt>
      <trkpt lat="43.74236" lon="6.6838">
        <ele>1234.8</ele>
      </trkpt>
      <trkpt lat="43.74232" lon="6.68386">
        <ele>1234.3</ele>
      </trkpt>
      <trkpt lat="43.74233" lon="6.68391">
        <ele>1232.6</ele>
      </trkpt>
      <trkpt lat="43.74231" lon="6.684">
        <ele>1257</ele>
        <time>2017-11-19T13:24:28.000Z</time>
      </trkpt>
      <trkpt lat="43.74224" lon="6.6841">
        <ele>1231</ele>
      </trkpt>
      <trkpt lat="43.74223" lon="6.68414">
        <ele>1230.4</ele>
      </trkpt>
      <trkpt lat="43.7422" lon="6.6842">
        <ele>1230.2</ele>
      </trkpt>
      <trkpt lat="43.74217" lon="6.6842">
        <ele>1244</ele>
        <time>2017-11-19T13:24:36.000Z</time>
      </trkpt>
      <trkpt lat="43.74217" lon="6.68426">
        <ele>1230</ele>
      </trkpt>
      <trkpt lat="43.74215" lon="6.68429">
        <ele>1230</ele>
      </trkpt>
      <trkpt lat="43.74215" lon="6.68433">
        <ele>1228.8</ele>
      </trkpt>
      <trkpt lat="43.74214" lon="6.68437">
        <ele>1227.9</ele>
      </trkpt>
      <trkpt lat="43.74215" lon="6.68441">
        <ele>1226.4</ele>
      </trkpt>
      <trkpt lat="43.74214" lon="6.68445">
        <ele>1225.5</ele>
      </trkpt>
      <trkpt lat="43.74214" lon="6.68449">
        <ele>1233</ele>
        <time>2017-11-19T13:24:53.000Z</time>
      </trkpt>
      <trkpt lat="43.74217" lon="6.68453">
        <ele>1221.8</ele>
      </trkpt>
      <trkpt lat="43.7422" lon="6.6845">
        <ele>1221.9</ele>
      </trkpt>
      <trkpt lat="43.74225" lon="6.68448">
        <ele>1220.9</ele>
      </trkpt>
      <trkpt lat="43.7423" lon="6.68443">
        <ele>1220.6</ele>
      </trkpt>
      <trkpt lat="43.74234" lon="6.68438">
        <ele>1244</ele>
        <time>2017-11-19T13:26:33.000Z</time>
      </trkpt>
      <trkpt lat="43.74245" lon="6.6843">
        <ele>1218.4</ele>
      </trkpt>
      <trkpt lat="43.74248" lon="6.68429">
        <ele>1217.6</ele>
      </trkpt>
      <trkpt lat="43.74252" lon="6.6843">
        <ele>1233</ele>
        <time>2017-11-19T13:26:45.000Z</time>
      </trkpt>
      <trkpt lat="43.74258" lon="6.68427">
        <ele>1214.4</ele>
      </trkpt>
      <trkpt lat="43.74277" lon="6.68423">
        <ele>1222</ele>
        <time>2017-11-19T13:26:55.000Z</time>
      </trkpt>
      <trkpt lat="43.74278" lon="6.6842">
        <ele>1209</ele>
      </trkpt>
      <trkpt lat="43.74285" lon="6.68414">
        <ele>1208.4</ele>
      </trkpt>
      <trkpt lat="43.74299" lon="6.68409">
        <ele>1234</ele>
        <time>2017-11-19T13:27:18.000Z</time>
      </trkpt>
      <trkpt lat="43.74302" lon="6.68406">
        <ele>1204.9</ele>
      </trkpt>
      <trkpt lat="43.74305" lon="6.68405">
        <ele>1204.1</ele>
      </trkpt>
      <trkpt lat="43.74307" lon="6.68408">
        <ele>1203.6</ele>
      </trkpt>
      <trkpt lat="43.74305" lon="6.68409">
        <ele>1203.1</ele>
      </trkpt>
      <trkpt lat="43.74305" lon="6.68416">
        <ele>1201.3</ele>
      </trkpt>
      <trkpt lat="43.74308" lon="6.68421">
        <ele>1212</ele>
        <time>2017-11-19T13:27:35.000Z</time>
      </trkpt>
      <trkpt lat="43.74308" lon="6.68426">
        <ele>1201.7</ele>
      </trkpt>
      <trkpt lat="43.74306" lon="6.68431">
        <ele>1200.7</ele>
      </trkpt>
      <trkpt lat="43.74305" lon="6.68438">
        <ele>1200.3</ele>
      </trkpt>
      <trkpt lat="43.74305" lon="6.68447">
        <ele>1206</ele>
        <time>2017-11-19T13:27:43.000Z</time>
      </trkpt>
      <trkpt lat="43.74306" lon="6.68453">
        <ele>1200.2</ele>
      </trkpt>
      <trkpt lat="43.743" lon="6.68459">
        <ele>1199.5</ele>
      </trkpt>
      <trkpt lat="43.74298" lon="6.68464">
        <ele>1198.8</ele>
      </trkpt>
      <trkpt lat="43.74294" lon="6.68467">
        <ele>1210</ele>
        <time>2017-11-19T13:27:50.000Z</time>
      </trkpt>
      <trkpt lat="43.74287" lon="6.68478">
        <ele>1194</ele>
      </trkpt>
      <trkpt lat="43.74279" lon="6.68487">
        <ele>1210</ele>
        <time>2017-11-19T13:27:54.000Z</time>
      </trkpt>
      <trkpt lat="43.74276" lon="6.68491">
        <ele>1187.7</ele>
      </trkpt>
      <trkpt lat="43.74275" lon="6.68495">
        <ele>1186.9</ele>
      </trkpt>
      <trkpt lat="43.74271" lon="6.68504">
        <ele>1186.1</ele>
      </trkpt>
      <trkpt lat="43.74268" lon="6.68506">
        <ele>1186.9</ele>
      </trkpt>
      <trkpt lat="43.7426" lon="6.68516">
        <ele>1207</ele>
        <time>2017-11-19T13:28:02.000Z</time>
      </trkpt>
      <trkpt lat="43.74257" lon="6.68518">
        <ele>1188.2</ele>
      </trkpt>
      <trkpt lat="43.74255" lon="6.68521">
        <ele>1188.1</ele>
      </trkpt>
      <trkpt lat="43.74254" lon="6.68525">
        <ele>1187.3</ele>
      </trkpt>
      <trkpt lat="43.74251" lon="6.68527">
        <ele>1187.9</ele>
      </trkpt>
      <trkpt lat="43.7425" lon="6.6853">
        <ele>1187.1</ele>
      </trkpt>
      <trkpt lat="43.74248" lon="6.68534">
        <ele>1186</ele>
      </trkpt>
      <trkpt lat="43.74247" lon="6.68539">
        <ele>1200</ele>
        <time>2017-11-19T13:28:40.000Z</time>
      </trkpt>
      <trkpt lat="43.74245" lon="6.68542">
        <ele>1183.6</ele>
      </trkpt>
      <trkpt lat="43.74239" lon="6.68547">
        <ele>1183.2</ele>
      </trkpt>
      <trkpt lat="43.74238" lon="6.68553">
        <ele>1181</ele>
      </trkpt>
      <trkpt lat="43.74234" lon="6.68559">
        <ele>1193</ele>
        <time>2017-11-19T13:28:57.000Z</time>
      </trkpt>
      <trkpt lat="43.74231" lon="6.68563">
        <ele>1178.4</ele>
      </trkpt>
      <trkpt lat="43.74223" lon="6.68565">
        <ele>1179.4</ele>
      </trkpt>
      <trkpt lat="43.74211" lon="6.68566">
        <ele>1193</ele>
        <time>2017-11-19T13:29:04.000Z</time>
      </trkpt>
      <trkpt lat="43.74205" lon="6.68568">
        <ele>1179.4</ele>
      </trkpt>
      <trkpt lat="43.74197" lon="6.6857">
        <ele>1179.1</ele>
      </trkpt>
      <trkpt lat="43.74192" lon="6.68568">
        <ele>1179.5</ele>
      </trkpt>
      <trkpt lat="43.74189" lon="6.68568">
        <ele>1192</ele>
      </trkpt>
      <trkpt lat="43.74186" lon="6.68568">
        <ele>1178.1</ele>
      </trkpt>
      <trkpt lat="43.74175" lon="6.68561">
        <ele>1178.1</ele>
      </trkpt>
      <trkpt lat="43.74169" lon="6.6856">
        <ele>1192</ele>
        <time>2017-11-19T13:30:36.000Z</time>
      </trkpt>
      <trkpt lat="43.74162" lon="6.68556">
        <ele>1176.5</ele>
      </trkpt>
      <trkpt lat="43.74154" lon="6.68553">
        <ele>1175.6</ele>
      </trkpt>
      <trkpt lat="43.74151" lon="6.68552">
        <ele>1175.2</ele>
      </trkpt>
      <trkpt lat="43.74143" lon="6.68549">
        <ele>1195</ele>
        <time>2017-11-19T13:31:53.000Z</time>
      </trkpt>
      <trkpt lat="43.74134" lon="6.68548">
        <ele>1172.6</ele>
      </trkpt>
      <trkpt lat="43.74131" lon="6.68548">
        <ele>1172</ele>
      </trkpt>
      <trkpt lat="43.74129" lon="6.68549">
        <ele>1171.2</ele>
      </trkpt>
      <trkpt lat="43.74125" lon="6.68549">
        <ele>1170.5</ele>
      </trkpt>
      <trkpt lat="43.74117" lon="6.68547">
        <ele>1185</ele>
        <time>2017-11-19T13:32:05.000Z</time>
      </trkpt>
      <trkpt lat="43.74108" lon="6.68546">
        <ele>1168.3</ele>
      </trkpt>
      <trkpt lat="43.741" lon="6.68546">
        <ele>1166.1</ele>
      </trkpt>
      <trkpt lat="43.74093" lon="6.68543">
        <ele>1182</ele>
        <time>2017-11-19T13:32:16.000Z</time>
      </trkpt>
      <trkpt lat="43.74085" lon="6.68543">
        <ele>1163</ele>
      </trkpt>
      <trkpt lat="43.7408" lon="6.68543">
        <ele>1161.9</ele>
      </trkpt>
      <trkpt lat="43.74066" lon="6.68549">
        <ele>1177</ele>
        <time>2017-11-19T13:32:28.000Z</time>
      </trkpt>
      <trkpt lat="43.74053" lon="6.68561">
        <ele>1152.3</ele>
      </trkpt>
      <trkpt lat="43.7405" lon="6.68566">
        <ele>1166</ele>
        <time>2017-11-19T13:32:36.000Z</time>
      </trkpt>
      <trkpt lat="43.74048" lon="6.68573">
        <ele>1150.5</ele>
      </trkpt>
      <trkpt lat="43.74043" lon="6.68577">
        <ele>1150.1</ele>
      </trkpt>
      <trkpt lat="43.74041" lon="6.68582">
        <ele>1149.3</ele>
      </trkpt>
      <trkpt lat="43.74031" lon="6.68596">
        <ele>1160</ele>
        <time>2017-11-19T13:32:43.000Z</time>
      </trkpt>
      <trkpt lat="43.74031" lon="6.68601">
        <ele>1146.1</ele>
      </trkpt>
      <trkpt lat="43.74028" lon="6.68606">
        <ele>1145.1</ele>
      </trkpt>
      <trkpt lat="43.74026" lon="6.68608">
        <ele>1144.8</ele>
      </trkpt>
      <trkpt lat="43.74022" lon="6.6861">
        <ele>1144.7</ele>
      </trkpt>
      <trkpt lat="43.74016" lon="6.68615">
        <ele>1157</ele>
        <time>2017-11-19T13:32:49.000Z</time>
      </trkpt>
      <trkpt lat="43.74012" lon="6.68616">
        <ele>1143.6</ele>
      </trkpt>
      <trkpt lat="43.7401" lon="6.6862">
        <ele>1142.5</ele>
      </trkpt>
      <trkpt lat="43.73996" lon="6.6863">
        <ele>1157</ele>
        <time>2017-11-19T13:32:55.000Z</time>
      </trkpt>
      <trkpt lat="43.73993" lon="6.68634">
        <ele>1139.3</ele>
      </trkpt>
      <trkpt lat="43.7399" lon="6.68641">
        <ele>1137.4</ele>
      </trkpt>
      <trkpt lat="43.73986" lon="6.68644">
        <ele>1136.9</ele>
      </trkpt>
      <trkpt lat="43.7398" lon="6.68649">
        <ele>1148</ele>
        <time>2017-11-19T13:33:01.000Z</time>
      </trkpt>
      <trkpt lat="43.73977" lon="6.68651">
        <ele>1135.6</ele>
      </trkpt>
      <trkpt lat="43.73972" lon="6.68654">
        <ele>1135.1</ele>
      </trkpt>
      <trkpt lat="43.73969" lon="6.68658">
        <ele>1134.3</ele>
      </trkpt>
      <trkpt lat="43.73967" lon="6.68661">
        <ele>1133.6</ele>
      </trkpt>
      <trkpt lat="43.73964" lon="6.68666">
        <ele>1140</ele>
        <time>2017-11-19T13:33:07.000Z</time>
      </trkpt>
      <trkpt lat="43.73961" lon="6.68668">
        <ele>1132.2</ele>
      </trkpt>
      <trkpt lat="43.73957" lon="6.68668">
        <ele>1132.8</ele>
      </trkpt>
      <trkpt lat="43.73952" lon="6.68673">
        <ele>1131.9</ele>
      </trkpt>
      <trkpt lat="43.73945" lon="6.68678">
        <ele>1139</ele>
        <time>2017-11-19T13:33:13.000Z</time>
      </trkpt>
      <trkpt lat="43.73941" lon="6.68686">
        <ele>1129.1</ele>
      </trkpt>
      <trkpt lat="43.73938" lon="6.68689">
        <ele>1128.4</ele>
      </trkpt>
      <trkpt lat="43.73935" lon="6.68695">
        <ele>1126.9</ele>
      </trkpt>
      <trkpt lat="43.73932" lon="6.68708">
        <ele>1137</ele>
        <time>2017-11-19T13:33:22.000Z</time>
      </trkpt>
      <trkpt lat="43.73929" lon="6.68712">
        <ele>1122.6</ele>
      </trkpt>
      <trkpt lat="43.73923" lon="6.68717">
        <ele>1121.8</ele>
      </trkpt>
      <trkpt lat="43.73919" lon="6.68724">
        <ele>1120.2</ele>
      </trkpt>
      <trkpt lat="43.73914" lon="6.68729">
        <ele>1135</ele>
        <time>2017-11-19T13:33:30.000Z</time>
      </trkpt>
      <trkpt lat="43.739" lon="6.68746">
        <ele>1112.4</ele>
      </trkpt>
      <trkpt lat="43.73899" lon="6.68751">
        <ele>1129</ele>
        <time>2017-11-19T13:33:38.000Z</time>
      </trkpt>
      <trkpt lat="43.73897" lon="6.68761">
        <ele>1109.5</ele>
      </trkpt>
      <trkpt lat="43.73894" lon="6.68774">
        <ele>1108</ele>
      </trkpt>
      <trkpt lat="43.73893" lon="6.6878">
        <ele>1122</ele>
        <time>2017-11-19T13:33:45.000Z</time>
      </trkpt>
      <trkpt lat="43.73892" lon="6.68783">
        <ele>1107.2</ele>
      </trkpt>
      <trkpt lat="43.7389" lon="6.68794">
        <ele>1106.2</ele>
      </trkpt>
      <trkpt lat="43.73888" lon="6.68799">
        <ele>1105.5</ele>
      </trkpt>
      <trkpt lat="43.73882" lon="6.68807">
        <ele>1114</ele>
        <time>2017-11-19T13:34:11.000Z</time>
      </trkpt>
      <trkpt lat="43.7388" lon="6.68812">
        <ele>1102.9</ele>
      </trkpt>
      <trkpt lat="43.73879" lon="6.68817">
        <ele>1102.2</ele>
      </trkpt>
      <trkpt lat="43.73877" lon="6.6882">
        <ele>1101.6</ele>
      </trkpt>
      <trkpt lat="43.73874" lon="6.68825">
        <ele>1100.5</ele>
      </trkpt>
      <trkpt lat="43.73863" lon="6.68834">
        <ele>1099</ele>
        <time>2017-11-19T13:34:23.000Z</time>
      </trkpt>
      <trkpt lat="43.73859" lon="6.68837">
        <ele>1096.1</ele>
      </trkpt>
      <trkpt lat="43.73846" lon="6.68843">
        <ele>1091.6</ele>
      </trkpt>
      <trkpt lat="43.73844" lon="6.68847">
        <ele>1093</ele>
        <time>2017-11-19T13:34:34.000Z</time>
      </trkpt>
      <trkpt lat="43.73842" lon="6.68852">
        <ele>1089.2</ele>
      </trkpt>
      <trkpt lat="43.7384" lon="6.68855">
        <ele>1088.2</ele>
      </trkpt>
      <trkpt lat="43.73839" lon="6.68858">
        <ele>1087.4</ele>
      </trkpt>
      <trkpt lat="43.73839" lon="6.68867">
        <ele>1086</ele>
      </trkpt>
      <trkpt lat="43.73837" lon="6.68872">
        <ele>1090</ele>
        <time>2017-11-19T13:34:57.000Z</time>
      </trkpt>
      <trkpt lat="43.73838" lon="6.68883">
        <ele>1082.7</ele>
      </trkpt>
      <trkpt lat="43.73836" lon="6.68888">
        <ele>1081.1</ele>
      </trkpt>
      <trkpt lat="43.7383" lon="6.68889">
        <ele>1080.1</ele>
      </trkpt>
      <trkpt lat="43.73828" lon="6.68891">
        <ele>1088</ele>
        <time>2017-11-19T13:35:06.000Z</time>
      </trkpt>
      <trkpt lat="43.73812" lon="6.68893">
        <ele>1080.2</ele>
      </trkpt>
      <trkpt lat="43.738" lon="6.68898">
        <ele>1089</ele>
        <time>2017-11-19T13:35:25.000Z</time>
      </trkpt>
      <trkpt lat="43.73797" lon="6.689">
        <ele>1079.7</ele>
      </trkpt>
      <trkpt lat="43.73794" lon="6.689">
        <ele>1079.6</ele>
      </trkpt>
      <trkpt lat="43.73788" lon="6.68903">
        <ele>1079.2</ele>
      </trkpt>
      <trkpt lat="43.73785" lon="6.689">
        <ele>1079.5</ele>
      </trkpt>
      <trkpt lat="43.7378" lon="6.68896">
        <ele>1089</ele>
        <time>2017-11-19T13:35:43.000Z</time>
      </trkpt>
      <trkpt lat="43.73774" lon="6.6889">
        <ele>1080.1</ele>
      </trkpt>
      <trkpt lat="43.73771" lon="6.68882">
        <ele>1080.4</ele>
      </trkpt>
      <trkpt lat="43.73768" lon="6.68879">
        <ele>1080.2</ele>
      </trkpt>
      <trkpt lat="43.73765" lon="6.6887">
        <ele>1086</ele>
        <time>2017-11-19T13:36:02.000Z</time>
      </trkpt>
      <trkpt lat="43.73762" lon="6.68867">
        <ele>1080.6</ele>
      </trkpt>
      <trkpt lat="43.73757" lon="6.68856">
        <ele>1081.3</ele>
      </trkpt>
      <trkpt lat="43.73757" lon="6.68851">
        <ele>1081.8</ele>
      </trkpt>
      <trkpt lat="43.73751" lon="6.68839">
        <ele>1094</ele>
        <time>2017-11-19T13:36:18.000Z</time>
      </trkpt>
      <trkpt lat="43.73748" lon="6.68835">
        <ele>1082.6</ele>
      </trkpt>
      <trkpt lat="43.73748" lon="6.6883">
        <ele>1083</ele>
      </trkpt>
      <trkpt lat="43.73746" lon="6.68827">
        <ele>1083.1</ele>
      </trkpt>
      <trkpt lat="43.73744" lon="6.68819">
        <ele>1083.5</ele>
      </trkpt>
      <trkpt lat="43.73738" lon="6.68805">
        <ele>1090</ele>
        <time>2017-11-19T13:36:33.000Z</time>
      </trkpt>
      <trkpt lat="43.73738" lon="6.68801">
        <ele>1084.6</ele>
      </trkpt>
      <trkpt lat="43.73736" lon="6.68797">
        <ele>1084.8</ele>
      </trkpt>
      <trkpt lat="43.73733" lon="6.68786">
        <ele>1085.5</ele>
      </trkpt>
      <trkpt lat="43.73729" lon="6.68777">
        <ele>1094</ele>
        <time>2017-11-19T13:36:44.000Z</time>
      </trkpt>
      <trkpt lat="43.73729" lon="6.68771">
        <ele>1086.4</ele>
      </trkpt>
      <trkpt lat="43.73726" lon="6.68765">
        <ele>1086.7</ele>
      </trkpt>
      <trkpt lat="43.73725" lon="6.6876">
        <ele>1087.2</ele>
      </trkpt>
      <trkpt lat="43.73723" lon="6.68755">
        <ele>1087.5</ele>
      </trkpt>
      <trkpt lat="43.73717" lon="6.68741">
        <ele>1095</ele>
        <time>2017-11-19T13:36:59.000Z</time>
      </trkpt>
      <trkpt lat="43.73712" lon="6.68733">
        <ele>1089.2</ele>
      </trkpt>
      <trkpt lat="43.73704" lon="6.68724">
        <ele>1089.5</ele>
      </trkpt>
      <trkpt lat="43.73698" lon="6.68726">
        <ele>1088</ele>
        <time>2017-11-19T13:37:11.000Z</time>
      </trkpt>
      <trkpt lat="43.73694" lon="6.68725">
        <ele>1088.7</ele>
      </trkpt>
      <trkpt lat="43.7369" lon="6.68722">
        <ele>1088.1</ele>
      </trkpt>
      <trkpt lat="43.73688" lon="6.68719">
        <ele>1087.8</ele>
      </trkpt>
      <trkpt lat="43.73685" lon="6.68717">
        <ele>1087.3</ele>
      </trkpt>
      <trkpt lat="43.73683" lon="6.68714">
        <ele>1087.1</ele>
      </trkpt>
      <trkpt lat="43.73681" lon="6.6871">
        <ele>1089</ele>
        <time>2017-11-19T13:37:22.000Z</time>
      </trkpt>
      <trkpt lat="43.73678" lon="6.68705">
        <ele>1086.8</ele>
      </trkpt>
      <trkpt lat="43.73669" lon="6.68693">
        <ele>1086.5</ele>
      </trkpt>
      <trkpt lat="43.73663" lon="6.68684">
        <ele>1093</ele>
        <time>2017-11-19T13:37:31.000Z</time>
      </trkpt>
      <trkpt lat="43.73661" lon="6.68682">
        <ele>1086.8</ele>
      </trkpt>
      <trkpt lat="43.73659" lon="6.6868">
        <ele>1086.9</ele>
      </trkpt>
      <trkpt lat="43.73648" lon="6.68677">
        <ele>1086.5</ele>
      </trkpt>
      <trkpt lat="43.73639" lon="6.68676">
        <ele>1092</ele>
        <time>2017-11-19T13:37:40.000Z</time>
      </trkpt>
      <trkpt lat="43.73635" lon="6.68673">
        <ele>1086.8</ele>
      </trkpt>
      <trkpt lat="43.7363" lon="6.68674">
        <ele>1086.9</ele>
      </trkpt>
      <trkpt lat="43.73615" lon="6.68672">
        <ele>1089</ele>
        <time>2017-11-19T13:37:51.000Z</time>
      </trkpt>
      <trkpt lat="43.73609" lon="6.68668">
        <ele>1088.7</ele>
      </trkpt>
      <trkpt lat="43.73604" lon="6.68661">
        <ele>1089.4</ele>
      </trkpt>
      <trkpt lat="43.73602" lon="6.68656">
        <ele>1090</ele>
      </trkpt>
      <trkpt lat="43.73596" lon="6.68647">
        <ele>1093</ele>
        <time>2017-11-19T13:38:05.000Z</time>
      </trkpt>
      <trkpt lat="43.73595" lon="6.68643">
        <ele>1091.1</ele>
      </trkpt>
      <trkpt lat="43.73586" lon="6.68628">
        <ele>1092.7</ele>
      </trkpt>
      <trkpt lat="43.73583" lon="6.68623">
        <ele>1096</ele>
        <time>2017-11-19T13:38:15.000Z</time>
      </trkpt>
      <trkpt lat="43.73578" lon="6.68612">
        <ele>1094.3</ele>
      </trkpt>
      <trkpt lat="43.73575" lon="6.68607">
        <ele>1094.4</ele>
      </trkpt>
      <trkpt lat="43.73568" lon="6.68592">
        <ele>1092</ele>
        <time>2017-11-19T13:38:27.000Z</time>
      </trkpt>
      <trkpt lat="43.73564" lon="6.68586">
        <ele>1093.6</ele>
      </trkpt>
      <trkpt lat="43.73556" lon="6.68567">
        <ele>1093</ele>
        <time>2017-11-19T13:38:34.000Z</time>
      </trkpt>
      <trkpt lat="43.73545" lon="6.68547">
        <ele>1090.1</ele>
      </trkpt>
      <trkpt lat="43.73535" lon="6.68521">
        <ele>1092</ele>
        <time>2017-11-19T13:38:45.000Z</time>
      </trkpt>
      <trkpt lat="43.73525" lon="6.68501">
        <ele>1089.5</ele>
      </trkpt>
      <trkpt lat="43.73517" lon="6.68486">
        <ele>1088</ele>
        <time>2017-11-19T13:38:54.000Z</time>
      </trkpt>
      <trkpt lat="43.73505" lon="6.6847">
        <ele>1089.9</ele>
      </trkpt>
      <trkpt lat="43.735" lon="6.68465">
        <ele>1088</ele>
        <time>2017-11-19T13:39:01.000Z</time>
      </trkpt>
      <trkpt lat="43.73498" lon="6.68463">
        <ele>1088.2</ele>
      </trkpt>
      <trkpt lat="43.73494" lon="6.68462">
        <ele>1088</ele>
      </trkpt>
      <trkpt lat="43.73491" lon="6.68459">
        <ele>1088</ele>
      </trkpt>
      <trkpt lat="43.73484" lon="6.68456">
        <ele>1087.8</ele>
      </trkpt>
      <trkpt lat="43.73474" lon="6.68454">
        <ele>1085</ele>
        <time>2017-11-19T13:39:09.000Z</time>
      </trkpt>
      <trkpt lat="43.73471" lon="6.68455">
        <ele>1087.2</ele>
      </trkpt>
      <trkpt lat="43.73468" lon="6.68454">
        <ele>1087.2</ele>
      </trkpt>
      <trkpt lat="43.73465" lon="6.68455">
        <ele>1087.1</ele>
      </trkpt>
      <trkpt lat="43.73452" lon="6.68461">
        <ele>1082</ele>
        <time>2017-11-19T13:39:16.000Z</time>
      </trkpt>
      <trkpt lat="43.73449" lon="6.68466">
        <ele>1086.3</ele>
      </trkpt>
      <trkpt lat="43.73446" lon="6.68469">
        <ele>1086.1</ele>
      </trkpt>
      <trkpt lat="43.73442" lon="6.6847">
        <ele>1086</ele>
      </trkpt>
      <trkpt lat="43.73438" lon="6.68475">
        <ele>1085.7</ele>
      </trkpt>
      <trkpt lat="43.73423" lon="6.68491">
        <ele>1080</ele>
        <time>2017-11-19T13:39:27.000Z</time>
      </trkpt>
      <trkpt lat="43.73416" lon="6.685">
        <ele>1084</ele>
      </trkpt>
      <trkpt lat="43.73413" lon="6.68502">
        <ele>1083.8</ele>
      </trkpt>
      <trkpt lat="43.73409" lon="6.68509">
        <ele>1083.5</ele>
      </trkpt>
      <trkpt lat="43.73406" lon="6.68511">
        <ele>1080</ele>
        <time>2017-11-19T13:39:34.000Z</time>
      </trkpt>
      <trkpt lat="43.73399" lon="6.68521">
        <ele>1083.1</ele>
      </trkpt>
      <trkpt lat="43.73393" lon="6.68524">
        <ele>1083</ele>
      </trkpt>
      <trkpt lat="43.7339" lon="6.68525">
        <ele>1079</ele>
        <time>2017-11-19T13:39:40.000Z</time>
      </trkpt>
      <trkpt lat="43.73388" lon="6.68529">
        <ele>1083</ele>
      </trkpt>
      <trkpt lat="43.7338" lon="6.6854">
        <ele>1082.8</ele>
      </trkpt>
      <trkpt lat="43.73372" lon="6.68548">
        <ele>1082</ele>
        <time>2017-11-19T13:39:49.000Z</time>
      </trkpt>
      <trkpt lat="43.73371" lon="6.68553">
        <ele>1082.8</ele>
      </trkpt>
      <trkpt lat="43.73367" lon="6.68558">
        <ele>1083</ele>
      </trkpt>
      <trkpt lat="43.73365" lon="6.68561">
        <ele>1083.1</ele>
      </trkpt>
      <trkpt lat="43.73356" lon="6.68567">
        <ele>1077</ele>
        <time>2017-11-19T13:39:58.000Z</time>
      </trkpt>
      <trkpt lat="43.73352" lon="6.68571">
        <ele>1084.6</ele>
      </trkpt>
      <trkpt lat="43.73348" lon="6.68574">
        <ele>1085</ele>
      </trkpt>
      <trkpt lat="43.73342" lon="6.68581">
        <ele>1085.1</ele>
      </trkpt>
      <trkpt lat="43.73333" lon="6.68591">
        <ele>1077</ele>
        <time>2017-11-19T13:40:10.000Z</time>
      </trkpt>
      <trkpt lat="43.7333" lon="6.68595">
        <ele>1085.4</ele>
      </trkpt>
      <trkpt lat="43.73317" lon="6.68606">
        <ele>1086.1</ele>
      </trkpt>
      <trkpt lat="43.73302" lon="6.68623">
        <ele>1084</ele>
        <time>2017-11-19T13:40:26.000Z</time>
      </trkpt>
      <trkpt lat="43.73298" lon="6.68626">
        <ele>1086.2</ele>
      </trkpt>
      <trkpt lat="43.73294" lon="6.6863">
        <ele>1086.4</ele>
      </trkpt>
      <trkpt lat="43.73288" lon="6.6864">
        <ele>1086.1</ele>
      </trkpt>
      <trkpt lat="43.73283" lon="6.68646">
        <ele>1083</ele>
        <time>2017-11-19T13:40:37.000Z</time>
      </trkpt>
      <trkpt lat="43.73273" lon="6.68659">
        <ele>1087.8</ele>
      </trkpt>
      <trkpt lat="43.73267" lon="6.68665">
        <ele>1080</ele>
        <time>2017-11-19T13:40:45.000Z</time>
      </trkpt>
      <trkpt lat="43.7326" lon="6.68673">
        <ele>1089.2</ele>
      </trkpt>
      <trkpt lat="43.73251" lon="6.68673">
        <ele>1090.1</ele>
      </trkpt>
      <trkpt lat="43.73239" lon="6.68669">
        <ele>1085</ele>
        <time>2017-11-19T13:40:58.000Z</time>
      </trkpt>
      <trkpt lat="43.73224" lon="6.68666">
        <ele>1089.1</ele>
      </trkpt>
      <trkpt lat="43.73217" lon="6.68666">
        <ele>1085</ele>
        <time>2017-11-19T13:41:05.000Z</time>
      </trkpt>
      <trkpt lat="43.7321" lon="6.68663">
        <ele>1087.5</ele>
      </trkpt>
      <trkpt lat="43.73206" lon="6.68661">
        <ele>1087</ele>
      </trkpt>
      <trkpt lat="43.73192" lon="6.68645">
        <ele>1089</ele>
        <time>2017-11-19T13:41:12.000Z</time>
      </trkpt>
      <trkpt lat="43.73181" lon="6.68633">
        <ele>1085.1</ele>
      </trkpt>
      <trkpt lat="43.73172" lon="6.68625">
        <ele>1088</ele>
        <time>2017-11-19T13:41:17.000Z</time>
      </trkpt>
      <trkpt lat="43.73169" lon="6.68621">
        <ele>1084.5</ele>
      </trkpt>
      <trkpt lat="43.73164" lon="6.68616">
        <ele>1084.1</ele>
      </trkpt>
      <trkpt lat="43.73152" lon="6.68602">
        <ele>1089</ele>
        <time>2017-11-19T13:41:23.000Z</time>
      </trkpt>
      <trkpt lat="43.73141" lon="6.68595">
        <ele>1083.2</ele>
      </trkpt>
      <trkpt lat="43.73137" lon="6.68594">
        <ele>1082.8</ele>
      </trkpt>
      <trkpt lat="43.73128" lon="6.68588">
        <ele>1093</ele>
        <time>2017-11-19T13:41:30.000Z</time>
      </trkpt>
      <trkpt lat="43.73126" lon="6.68586">
        <ele>1083.3</ele>
      </trkpt>
      <trkpt lat="43.7312" lon="6.68582">
        <ele>1083.4</ele>
      </trkpt>
      <trkpt lat="43.73113" lon="6.68579">
        <ele>1083.4</ele>
      </trkpt>
      <trkpt lat="43.73108" lon="6.68578">
        <ele>1093</ele>
        <time>2017-11-19T13:41:37.000Z</time>
      </trkpt>
      <trkpt lat="43.73098" lon="6.68574">
        <ele>1083.5</ele>
      </trkpt>
      <trkpt lat="43.73093" lon="6.6857">
        <ele>1083.6</ele>
      </trkpt>
      <trkpt lat="43.73087" lon="6.68566">
        <ele>1091</ele>
        <time>2017-11-19T13:41:44.000Z</time>
      </trkpt>
      <trkpt lat="43.7308" lon="6.6856">
        <ele>1083.8</ele>
      </trkpt>
      <trkpt lat="43.73077" lon="6.68559">
        <ele>1083.9</ele>
      </trkpt>
      <trkpt lat="43.73068" lon="6.68554">
        <ele>1093</ele>
        <time>2017-11-19T13:41:51.000Z</time>
      </trkpt>
      <trkpt lat="43.73062" lon="6.68552">
        <ele>1084.3</ele>
      </trkpt>
      <trkpt lat="43.73048" lon="6.68544">
        <ele>1092</ele>
        <time>2017-11-19T13:41:58.000Z</time>
      </trkpt>
      <trkpt lat="43.73039" lon="6.68535">
        <ele>1085</ele>
      </trkpt>
      <trkpt lat="43.73025" lon="6.68513">
        <ele>1092</ele>
        <time>2017-11-19T13:42:09.000Z</time>
      </trkpt>
      <trkpt lat="43.73024" lon="6.6851">
        <ele>1085.3</ele>
      </trkpt>
      <trkpt lat="43.73015" lon="6.68499">
        <ele>1083.5</ele>
      </trkpt>
      <trkpt lat="43.73005" lon="6.68485">
        <ele>1089</ele>
        <time>2017-11-19T13:42:16.000Z</time>
      </trkpt>
      <trkpt lat="43.72996" lon="6.68476">
        <ele>1081.3</ele>
      </trkpt>
      <trkpt lat="43.72991" lon="6.68473">
        <ele>1081.3</ele>
      </trkpt>
      <trkpt lat="43.72986" lon="6.68469">
        <ele>1080</ele>
        <time>2017-11-19T13:42:20.000Z</time>
      </trkpt>
      <trkpt lat="43.72981" lon="6.68466">
        <ele>1082</ele>
      </trkpt>
      <trkpt lat="43.72969" lon="6.68463">
        <ele>1081.7</ele>
      </trkpt>
      <trkpt lat="43.72965" lon="6.6846">
        <ele>1080</ele>
        <time>2017-11-19T13:42:24.000Z</time>
      </trkpt>
      <trkpt lat="43.72961" lon="6.68461">
        <ele>1082.1</ele>
      </trkpt>
      <trkpt lat="43.72955" lon="6.68458">
        <ele>1082.5</ele>
      </trkpt>
      <trkpt lat="43.72948" lon="6.68457">
        <ele>1082.7</ele>
      </trkpt>
      <trkpt lat="43.72944" lon="6.68459">
        <ele>1081</ele>
        <time>2017-11-19T13:42:30.000Z</time>
      </trkpt>
      <trkpt lat="43.72927" lon="6.68452">
        <ele>1081.9</ele>
      </trkpt>
      <trkpt lat="43.72915" lon="6.6845">
        <ele>1080</ele>
        <time>2017-11-19T13:42:38.000Z</time>
      </trkpt>
      <trkpt lat="43.72911" lon="6.68451">
        <ele>1080.6</ele>
      </trkpt>
      <trkpt lat="43.72891" lon="6.68446">
        <ele>1079</ele>
        <time>2017-11-19T13:42:44.000Z</time>
      </trkpt>
      <trkpt lat="43.72887" lon="6.68445">
        <ele>1078.7</ele>
      </trkpt>
      <trkpt lat="43.72878" lon="6.68441">
        <ele>1078.3</ele>
      </trkpt>
      <trkpt lat="43.72874" lon="6.68438">
        <ele>1078.2</ele>
      </trkpt>
      <trkpt lat="43.7287" lon="6.68436">
        <ele>1075</ele>
        <time>2017-11-19T13:42:49.000Z</time>
      </trkpt>
      <trkpt lat="43.72863" lon="6.6843">
        <ele>1077.8</ele>
      </trkpt>
      <trkpt lat="43.72856" lon="6.68423">
        <ele>1077.6</ele>
      </trkpt>
      <trkpt lat="43.72853" lon="6.6842">
        <ele>1075</ele>
        <time>2017-11-19T13:42:54.000Z</time>
      </trkpt>
      <trkpt lat="43.72839" lon="6.68417">
        <ele>1075.8</ele>
      </trkpt>
      <trkpt lat="43.72834" lon="6.68415">
        <ele>1075.3</ele>
      </trkpt>
      <trkpt lat="43.72822" lon="6.68415">
        <ele>1068</ele>
        <time>2017-11-19T13:43:00.000Z</time>
      </trkpt>
      <trkpt lat="43.72804" lon="6.68419">
        <ele>1072.7</ele>
      </trkpt>
      <trkpt lat="43.72787" lon="6.68424">
        <ele>1057</ele>
        <time>2017-11-19T13:43:06.000Z</time>
      </trkpt>
      <trkpt lat="43.72776" lon="6.68427">
        <ele>1070.7</ele>
      </trkpt>
      <trkpt lat="43.7277" lon="6.68427">
        <ele>1070.2</ele>
      </trkpt>
      <trkpt lat="43.72759" lon="6.68425">
        <ele>1061</ele>
        <time>2017-11-19T13:43:11.000Z</time>
      </trkpt>
      <trkpt lat="43.72749" lon="6.6842">
        <ele>1069.4</ele>
      </trkpt>
      <trkpt lat="43.72744" lon="6.68417">
        <ele>1069.5</ele>
      </trkpt>
      <trkpt lat="43.72739" lon="6.68415">
        <ele>1064</ele>
        <time>2017-11-19T13:43:15.000Z</time>
      </trkpt>
      <trkpt lat="43.72729" lon="6.6841">
        <ele>1069.3</ele>
      </trkpt>
      <trkpt lat="43.72695" lon="6.68397">
        <ele>1070</ele>
        <time>2017-11-19T13:43:25.000Z</time>
      </trkpt>
      <trkpt lat="43.72678" lon="6.68389">
        <ele>1067.8</ele>
      </trkpt>
      <trkpt lat="43.72655" lon="6.68381">
        <ele>1061</ele>
        <time>2017-11-19T13:43:34.000Z</time>
      </trkpt>
      <trkpt lat="43.72646" lon="6.68377">
        <ele>1066.5</ele>
      </trkpt>
      <trkpt lat="43.72641" lon="6.68376">
        <ele>1066.1</ele>
      </trkpt>
      <trkpt lat="43.72626" lon="6.68374">
        <ele>1060</ele>
        <time>2017-11-19T13:43:40.000Z</time>
      </trkpt>
      <trkpt lat="43.72606" lon="6.68375">
        <ele>1060</ele>
        <time>2017-11-19T13:43:44.000Z</time>
      </trkpt>
      <trkpt lat="43.72587" lon="6.68372">
        <ele>1058</ele>
        <time>2017-11-19T13:43:48.000Z</time>
      </trkpt>
      <trkpt lat="43.72576" lon="6.6837">
        <ele>1062.7</ele>
      </trkpt>
      <trkpt lat="43.72566" lon="6.68369">
        <ele>1059</ele>
        <time>2017-11-19T13:43:52.000Z</time>
      </trkpt>
      <trkpt lat="43.72555" lon="6.68366">
        <ele>1062.3</ele>
      </trkpt>
      <trkpt lat="43.72545" lon="6.68365">
        <ele>1064</ele>
        <time>2017-11-19T13:43:56.000Z</time>
      </trkpt>
      <trkpt lat="43.72523" lon="6.68362">
        <ele>1064</ele>
        <time>2017-11-19T13:44:01.000Z</time>
      </trkpt>
      <trkpt lat="43.72519" lon="6.68364">
        <ele>1062.3</ele>
      </trkpt>
      <trkpt lat="43.72515" lon="6.68364">
        <ele>1062.1</ele>
      </trkpt>
      <trkpt lat="43.72507" lon="6.68362">
        <ele>1062.1</ele>
      </trkpt>
      <trkpt lat="43.72486" lon="6.6836">
        <ele>1058</ele>
        <time>2017-11-19T13:44:10.000Z</time>
      </trkpt>
      <trkpt lat="43.72477" lon="6.68357">
        <ele>1060.1</ele>
      </trkpt>
      <trkpt lat="43.72459" lon="6.68351">
        <ele>1057</ele>
        <time>2017-11-19T13:44:16.000Z</time>
      </trkpt>
      <trkpt lat="43.72443" lon="6.68338">
        <ele>1058.5</ele>
      </trkpt>
      <trkpt lat="43.72431" lon="6.68324">
        <ele>1057</ele>
        <time>2017-11-19T13:44:26.000Z</time>
      </trkpt>
      <trkpt lat="43.7242" lon="6.68314">
        <ele>1056.3</ele>
      </trkpt>
      <trkpt lat="43.72397" lon="6.683">
        <ele>1057</ele>
        <time>2017-11-19T13:44:35.000Z</time>
      </trkpt>
      <trkpt lat="43.72381" lon="6.68289">
        <ele>1051.3</ele>
      </trkpt>
      <trkpt lat="43.72374" lon="6.68285">
        <ele>1058</ele>
        <time>2017-11-19T13:44:41.000Z</time>
      </trkpt>
      <trkpt lat="43.72369" lon="6.68281">
        <ele>1049.4</ele>
      </trkpt>
      <trkpt lat="43.72358" lon="6.68274">
        <ele>1047.8</ele>
      </trkpt>
      <trkpt lat="43.72352" lon="6.68268">
        <ele>1056</ele>
        <time>2017-11-19T13:44:47.000Z</time>
      </trkpt>
      <trkpt lat="43.72334" lon="6.68258">
        <ele>1045.8</ele>
      </trkpt>
      <trkpt lat="43.72325" lon="6.68251">
        <ele>1054</ele>
        <time>2017-11-19T13:44:53.000Z</time>
      </trkpt>
      <trkpt lat="43.7231" lon="6.68242">
        <ele>1044.4</ele>
      </trkpt>
      <trkpt lat="43.72307" lon="6.68238">
        <ele>1049</ele>
        <time>2017-11-19T13:44:57.000Z</time>
      </trkpt>
      <trkpt lat="43.72298" lon="6.68233">
        <ele>1043.6</ele>
      </trkpt>
      <trkpt lat="43.72294" lon="6.6823">
        <ele>1043.3</ele>
      </trkpt>
      <trkpt lat="43.72289" lon="6.68228">
        <ele>1042.9</ele>
      </trkpt>
      <trkpt lat="43.72277" lon="6.68221">
        <ele>1037</ele>
        <time>2017-11-19T13:45:04.000Z</time>
      </trkpt>
      <trkpt lat="43.72264" lon="6.68218">
        <ele>1041.2</ele>
      </trkpt>
      <trkpt lat="43.72255" lon="6.68219">
        <ele>1030</ele>
        <time>2017-11-19T13:45:09.000Z</time>
      </trkpt>
      <trkpt lat="43.72251" lon="6.6822">
        <ele>1040.2</ele>
      </trkpt>
      <trkpt lat="43.72244" lon="6.68223">
        <ele>1039.3</ele>
      </trkpt>
      <trkpt lat="43.7224" lon="6.68225">
        <ele>1038.8</ele>
      </trkpt>
      <trkpt lat="43.72234" lon="6.68231">
        <ele>1028</ele>
        <time>2017-11-19T13:45:15.000Z</time>
      </trkpt>
      <trkpt lat="43.72227" lon="6.68238">
        <ele>1036.9</ele>
      </trkpt>
      <trkpt lat="43.72225" lon="6.68241">
        <ele>1036.6</ele>
      </trkpt>
      <trkpt lat="43.72218" lon="6.6826">
        <ele>1027</ele>
        <time>2017-11-19T13:45:22.000Z</time>
      </trkpt>
      <trkpt lat="43.72215" lon="6.68268">
        <ele>1034.6</ele>
      </trkpt>
      <trkpt lat="43.72213" lon="6.68277">
        <ele>1034</ele>
      </trkpt>
      <trkpt lat="43.72209" lon="6.68283">
        <ele>1033.2</ele>
      </trkpt>
      <trkpt lat="43.72207" lon="6.6829">
        <ele>1025</ele>
        <time>2017-11-19T13:45:30.000Z</time>
      </trkpt>
      <trkpt lat="43.72207" lon="6.68294">
        <ele>1032.2</ele>
      </trkpt>
      <trkpt lat="43.72206" lon="6.68298">
        <ele>1031.8</ele>
      </trkpt>
      <trkpt lat="43.72205" lon="6.68302">
        <ele>1031.4</ele>
      </trkpt>
      <trkpt lat="43.72202" lon="6.68305">
        <ele>1030.9</ele>
      </trkpt>
      <trkpt lat="43.72196" lon="6.68306">
        <ele>1030.1</ele>
      </trkpt>
      <trkpt lat="43.7219" lon="6.68306">
        <ele>1025</ele>
        <time>2017-11-19T13:45:38.000Z</time>
      </trkpt>
      <trkpt lat="43.72169" lon="6.68297">
        <ele>1024</ele>
        <time>2017-11-19T13:45:45.000Z</time>
      </trkpt>
      <trkpt lat="43.72166" lon="6.68296">
        <ele>1027.6</ele>
      </trkpt>
      <trkpt lat="43.72158" lon="6.68295">
        <ele>1027.1</ele>
      </trkpt>
      <trkpt lat="43.72154" lon="6.68296">
        <ele>1026.8</ele>
      </trkpt>
      <trkpt lat="43.72151" lon="6.68298">
        <ele>1026.4</ele>
      </trkpt>
      <trkpt lat="43.72148" lon="6.68301">
        <ele>1022</ele>
        <time>2017-11-19T13:45:51.000Z</time>
      </trkpt>
      <trkpt lat="43.72142" lon="6.6831">
        <ele>1025.1</ele>
      </trkpt>
      <trkpt lat="43.72134" lon="6.6833">
        <ele>1024</ele>
        <time>2017-11-19T13:45:58.000Z</time>
      </trkpt>
      <trkpt lat="43.72132" lon="6.68333">
        <ele>1023.3</ele>
      </trkpt>
      <trkpt lat="43.72124" lon="6.68337">
        <ele>1022.4</ele>
      </trkpt>
      <trkpt lat="43.72121" lon="6.68337">
        <ele>1022.1</ele>
      </trkpt>
      <trkpt lat="43.72108" lon="6.68335">
        <ele>1021</ele>
        <time>2017-11-19T13:46:05.000Z</time>
      </trkpt>
      <trkpt lat="43.721" lon="6.68332">
        <ele>1020.2</ele>
      </trkpt>
      <trkpt lat="43.72091" lon="6.68326">
        <ele>1019.8</ele>
      </trkpt>
      <trkpt lat="43.72076" lon="6.68316">
        <ele>1020</ele>
        <time>2017-11-19T13:46:13.000Z</time>
      </trkpt>
      <trkpt lat="43.72067" lon="6.68307">
        <ele>1018.2</ele>
      </trkpt>
      <trkpt lat="43.72055" lon="6.68299">
        <ele>1022</ele>
        <time>2017-11-19T13:46:19.000Z</time>
      </trkpt>
      <trkpt lat="43.72053" lon="6.68296">
        <ele>1017.5</ele>
      </trkpt>
      <trkpt lat="43.72044" lon="6.68291">
        <ele>1017</ele>
      </trkpt>
      <trkpt lat="43.72037" lon="6.68284">
        <ele>1020</ele>
        <time>2017-11-19T13:46:24.000Z</time>
      </trkpt>
      <trkpt lat="43.7202" lon="6.68271">
        <ele>1020</ele>
        <time>2017-11-19T13:46:29.000Z</time>
      </trkpt>
      <trkpt lat="43.72017" lon="6.68267">
        <ele>1016.2</ele>
      </trkpt>
      <trkpt lat="43.72014" lon="6.68264">
        <ele>1016.2</ele>
      </trkpt>
      <trkpt lat="43.72004" lon="6.68257">
        <ele>1016</ele>
      </trkpt>
      <trkpt lat="43.71996" lon="6.68253">
        <ele>1016</ele>
        <time>2017-11-19T13:46:36.000Z</time>
      </trkpt>
      <trkpt lat="43.71992" lon="6.68253">
        <ele>1015.6</ele>
      </trkpt>
      <trkpt lat="43.71972" lon="6.68248">
        <ele>1016</ele>
        <time>2017-11-19T13:46:42.000Z</time>
      </trkpt>
      <trkpt lat="43.71959" lon="6.68242">
        <ele>1014.3</ele>
      </trkpt>
      <trkpt lat="43.71939" lon="6.68236">
        <ele>1017</ele>
        <time>2017-11-19T13:46:50.000Z</time>
      </trkpt>
      <trkpt lat="43.71931" lon="6.68232">
        <ele>1013.2</ele>
      </trkpt>
      <trkpt lat="43.71922" lon="6.68222">
        <ele>1017</ele>
        <time>2017-11-19T13:46:55.000Z</time>
      </trkpt>
      <trkpt lat="43.71918" lon="6.68219">
        <ele>1013.2</ele>
      </trkpt>
      <trkpt lat="43.71909" lon="6.68209">
        <ele>1012.9</ele>
      </trkpt>
      <trkpt lat="43.71877" lon="6.68182">
        <ele>1018</ele>
        <time>2017-11-19T13:47:08.000Z</time>
      </trkpt>
      <trkpt lat="43.71864" lon="6.68168">
        <ele>1011.2</ele>
      </trkpt>
      <trkpt lat="43.71853" lon="6.6816">
        <ele>1018</ele>
        <time>2017-11-19T13:47:15.000Z</time>
      </trkpt>
      <trkpt lat="43.71838" lon="6.68148">
        <ele>1009.8</ele>
      </trkpt>
      <trkpt lat="43.71835" lon="6.68145">
        <ele>1019</ele>
        <time>2017-11-19T13:47:20.000Z</time>
      </trkpt>
      <trkpt lat="43.71827" lon="6.6814">
        <ele>1009.5</ele>
      </trkpt>
      <trkpt lat="43.71819" lon="6.68134">
        <ele>1009.1</ele>
      </trkpt>
      <trkpt lat="43.71813" lon="6.68126">
        <ele>1015</ele>
        <time>2017-11-19T13:47:26.000Z</time>
      </trkpt>
      <trkpt lat="43.71802" lon="6.68117">
        <ele>1008.5</ele>
      </trkpt>
      <trkpt lat="43.71796" lon="6.68111">
        <ele>1008</ele>
        <time>2017-11-19T13:47:31.000Z</time>
      </trkpt>
      <trkpt lat="43.71787" lon="6.68105">
        <ele>1007.9</ele>
      </trkpt>
      <trkpt lat="43.71784" lon="6.68103">
        <ele>1007.7</ele>
      </trkpt>
      <trkpt lat="43.71777" lon="6.68096">
        <ele>1008</ele>
        <time>2017-11-19T13:47:36.000Z</time>
      </trkpt>
      <trkpt lat="43.7177" lon="6.68092">
        <ele>1006.9</ele>
      </trkpt>
      <trkpt lat="43.71763" lon="6.68089">
        <ele>1006.3</ele>
      </trkpt>
      <trkpt lat="43.71751" lon="6.68088">
        <ele>1003</ele>
        <time>2017-11-19T13:47:44.000Z</time>
      </trkpt>
      <trkpt lat="43.71748" lon="6.6809">
        <ele>1004.9</ele>
      </trkpt>
      <trkpt lat="43.71746" lon="6.68093">
        <ele>1004.9</ele>
      </trkpt>
      <trkpt lat="43.71745" lon="6.68097">
        <ele>1004.8</ele>
      </trkpt>
      <trkpt lat="43.71745" lon="6.68103">
        <ele>1004.8</ele>
      </trkpt>
      <trkpt lat="43.71749" lon="6.68109">
        <ele>1003</ele>
        <time>2017-11-19T13:48:02.000Z</time>
      </trkpt>
      <trkpt lat="43.7175" lon="6.68114">
        <ele>1005</ele>
      </trkpt>
      <trkpt lat="43.71753" lon="6.6813">
        <ele>1005.1</ele>
      </trkpt>
      <trkpt lat="43.71757" lon="6.68139">
        <ele>1003</ele>
        <time>2017-11-19T13:48:47.000Z</time>
      </trkpt>
      <trkpt lat="43.71758" lon="6.68143">
        <ele>1005.1</ele>
      </trkpt>
      <trkpt lat="43.71759" lon="6.68156">
        <ele>1004.7</ele>
      </trkpt>
      <trkpt lat="43.71759" lon="6.68161">
        <ele>1004.5</ele>
      </trkpt>
      <trkpt lat="43.71761" lon="6.68169">
        <ele>1003</ele>
        <time>2017-11-19T13:48:54.000Z</time>
      </trkpt>
      <trkpt lat="43.71763" lon="6.68186">
        <ele>1004.8</ele>
      </trkpt>
      <trkpt lat="43.71763" lon="6.6819">
        <ele>1004.9</ele>
      </trkpt>
      <trkpt lat="43.71765" lon="6.68206">
        <ele>1005</ele>
        <time>2017-11-19T13:49:03.000Z</time>
      </trkpt>
      <trkpt lat="43.71767" lon="6.68211">
        <ele>1004.4</ele>
      </trkpt>
      <trkpt lat="43.71766" lon="6.68216">
        <ele>1004.2</ele>
      </trkpt>
      <trkpt lat="43.71769" lon="6.68223">
        <ele>1004</ele>
      </trkpt>
      <trkpt lat="43.71772" lon="6.68231">
        <ele>1003.7</ele>
      </trkpt>
      <trkpt lat="43.71777" lon="6.68239">
        <ele>1011</ele>
        <time>2017-11-19T13:49:11.000Z</time>
      </trkpt>
      <trkpt lat="43.71783" lon="6.68248">
        <ele>1003.3</ele>
      </trkpt>
      <trkpt lat="43.7179" lon="6.68256">
        <ele>1003.2</ele>
      </trkpt>
      <trkpt lat="43.71793" lon="6.68261">
        <ele>1006</ele>
        <time>2017-11-19T13:49:16.000Z</time>
      </trkpt>
      <trkpt lat="43.71802" lon="6.68283">
        <ele>1002.7</ele>
      </trkpt>
      <trkpt lat="43.71804" lon="6.68294">
        <ele>1008</ele>
        <time>2017-11-19T13:49:22.000Z</time>
      </trkpt>
      <trkpt lat="43.71805" lon="6.68307">
        <ele>1002.1</ele>
      </trkpt>
      <trkpt lat="43.71803" lon="6.68319">
        <ele>1002.5</ele>
      </trkpt>
      <trkpt lat="43.71799" lon="6.68329">
        <ele>1006</ele>
        <time>2017-11-19T13:49:28.000Z</time>
      </trkpt>
      <trkpt lat="43.71796" lon="6.68336">
        <ele>1003.2</ele>
      </trkpt>
      <trkpt lat="43.71794" lon="6.68347">
        <ele>1003.8</ele>
      </trkpt>
      <trkpt lat="43.71792" lon="6.68356">
        <ele>1007</ele>
        <time>2017-11-19T13:49:33.000Z</time>
      </trkpt>
      <trkpt lat="43.71791" lon="6.68365">
        <ele>1004.6</ele>
      </trkpt>
      <trkpt lat="43.71785" lon="6.68377">
        <ele>1004.8</ele>
      </trkpt>
      <trkpt lat="43.71785" lon="6.68382">
        <ele>1008</ele>
        <time>2017-11-19T13:49:39.000Z</time>
      </trkpt>
      <trkpt lat="43.71786" lon="6.68393">
        <ele>1005.3</ele>
      </trkpt>
      <trkpt lat="43.71787" lon="6.68398">
        <ele>1005.3</ele>
      </trkpt>
      <trkpt lat="43.7179" lon="6.68401">
        <ele>1005.4</ele>
      </trkpt>
      <trkpt lat="43.71793" lon="6.68404">
        <ele>1005.5</ele>
      </trkpt>
      <trkpt lat="43.71802" lon="6.6841">
        <ele>1011</ele>
        <time>2017-11-19T13:49:47.000Z</time>
      </trkpt>
      <trkpt lat="43.71807" lon="6.68415">
        <ele>1006.1</ele>
      </trkpt>
      <trkpt lat="43.71809" lon="6.68419">
        <ele>1006.2</ele>
      </trkpt>
      <trkpt lat="43.71812" lon="6.68422">
        <ele>1006.4</ele>
      </trkpt>
      <trkpt lat="43.71814" lon="6.68429">
        <ele>1006.7</ele>
      </trkpt>
      <trkpt lat="43.71816" lon="6.68435">
        <ele>1011</ele>
        <time>2017-11-19T13:49:55.000Z</time>
      </trkpt>
      <trkpt lat="43.71816" lon="6.68442">
        <ele>1007.3</ele>
      </trkpt>
      <trkpt lat="43.71816" lon="6.68455">
        <ele>1007.4</ele>
      </trkpt>
      <trkpt lat="43.71815" lon="6.68465">
        <ele>1008</ele>
        <time>2017-11-19T13:50:02.000Z</time>
      </trkpt>
      <trkpt lat="43.71816" lon="6.68469">
        <ele>1007.4</ele>
      </trkpt>
      <trkpt lat="43.7182" lon="6.68482">
        <ele>1007.5</ele>
      </trkpt>
      <trkpt lat="43.71824" lon="6.68489">
        <ele>1012</ele>
        <time>2017-11-19T13:50:08.000Z</time>
      </trkpt>
      <trkpt lat="43.71824" lon="6.68494">
        <ele>1007.7</ele>
      </trkpt>
      <trkpt lat="43.71829" lon="6.68507">
        <ele>1007.8</ele>
      </trkpt>
      <trkpt lat="43.71831" lon="6.68515">
        <ele>1011</ele>
        <time>2017-11-19T13:50:14.000Z</time>
      </trkpt>
      <trkpt lat="43.71832" lon="6.68524">
        <ele>1008</ele>
      </trkpt>
      <trkpt lat="43.71838" lon="6.68547">
        <ele>1010</ele>
        <time>2017-11-19T13:50:21.000Z</time>
      </trkpt>
      <trkpt lat="43.71838" lon="6.68552">
        <ele>1008.2</ele>
      </trkpt>
      <trkpt lat="43.7184" lon="6.68557">
        <ele>1008.2</ele>
      </trkpt>
      <trkpt lat="43.71841" lon="6.68561">
        <ele>1008.1</ele>
      </trkpt>
      <trkpt lat="43.71844" lon="6.68587">
        <ele>1010</ele>
        <time>2017-11-19T13:50:29.000Z</time>
      </trkpt>
      <trkpt lat="43.71845" lon="6.68596">
        <ele>1007.8</ele>
      </trkpt>
      <trkpt lat="43.71846" lon="6.68606">
        <ele>1007.9</ele>
      </trkpt>
      <trkpt lat="43.71845" lon="6.68609">
        <ele>1007.8</ele>
      </trkpt>
      <trkpt lat="43.71845" lon="6.6862">
        <ele>1012</ele>
        <time>2017-11-19T13:50:36.000Z</time>
      </trkpt>
      <trkpt lat="43.71847" lon="6.68625">
        <ele>1008.2</ele>
      </trkpt>
      <trkpt lat="43.71847" lon="6.68629">
        <ele>1008.3</ele>
      </trkpt>
      <trkpt lat="43.71846" lon="6.68653">
        <ele>1013</ele>
        <time>2017-11-19T13:50:43.000Z</time>
      </trkpt>
      <trkpt lat="43.71843" lon="6.68666">
        <ele>1009.3</ele>
      </trkpt>
      <trkpt lat="43.71844" lon="6.68671">
        <ele>1009.5</ele>
      </trkpt>
      <trkpt lat="43.71844" lon="6.68682">
        <ele>1009</ele>
        <time>2017-11-19T13:50:49.000Z</time>
      </trkpt>
      <trkpt lat="43.71842" lon="6.68686">
        <ele>1009.8</ele>
      </trkpt>
      <trkpt lat="43.71841" lon="6.6869">
        <ele>1009.9</ele>
      </trkpt>
      <trkpt lat="43.71832" lon="6.68719">
        <ele>1007</ele>
        <time>2017-11-19T13:50:58.000Z</time>
      </trkpt>
      <trkpt lat="43.71832" lon="6.68724">
        <ele>1010.1</ele>
      </trkpt>
      <trkpt lat="43.71828" lon="6.68733">
        <ele>1010.2</ele>
      </trkpt>
      <trkpt lat="43.71817" lon="6.68747">
        <ele>1008</ele>
        <time>2017-11-19T13:51:05.000Z</time>
      </trkpt>
      <trkpt lat="43.71809" lon="6.68752">
        <ele>1009.3</ele>
      </trkpt>
      <trkpt lat="43.718" lon="6.68752">
        <ele>1008.9</ele>
      </trkpt>
      <trkpt lat="43.71795" lon="6.68752">
        <ele>1005</ele>
        <time>2017-11-19T13:51:10.000Z</time>
      </trkpt>
      <trkpt lat="43.71787" lon="6.68748">
        <ele>1008.4</ele>
      </trkpt>
      <trkpt lat="43.71774" lon="6.68743">
        <ele>1005</ele>
        <time>2017-11-19T13:51:15.000Z</time>
      </trkpt>
      <trkpt lat="43.71766" lon="6.68743">
        <ele>1008</ele>
      </trkpt>
      <trkpt lat="43.71754" lon="6.6874">
        <ele>1004</ele>
        <time>2017-11-19T13:51:20.000Z</time>
      </trkpt>
      <trkpt lat="43.71747" lon="6.68737">
        <ele>1007.9</ele>
      </trkpt>
      <trkpt lat="43.71744" lon="6.68735">
        <ele>1007.9</ele>
      </trkpt>
      <trkpt lat="43.71735" lon="6.6873">
        <ele>1007</ele>
        <time>2017-11-19T13:51:25.000Z</time>
      </trkpt>
      <trkpt lat="43.71723" lon="6.68723">
        <ele>1007.1</ele>
      </trkpt>
      <trkpt lat="43.71711" lon="6.68718">
        <ele>1007</ele>
        <time>2017-11-19T13:51:31.000Z</time>
      </trkpt>
      <trkpt lat="43.71707" lon="6.68717">
        <ele>1006.3</ele>
      </trkpt>
      <trkpt lat="43.71698" lon="6.68719">
        <ele>1006</ele>
      </trkpt>
      <trkpt lat="43.71692" lon="6.68723">
        <ele>1008</ele>
        <time>2017-11-19T13:51:36.000Z</time>
      </trkpt>
      <trkpt lat="43.71687" lon="6.68728">
        <ele>1006.4</ele>
      </trkpt>
      <trkpt lat="43.71682" lon="6.68738">
        <ele>1006.9</ele>
      </trkpt>
      <trkpt lat="43.71679" lon="6.6874">
        <ele>1006.9</ele>
      </trkpt>
      <trkpt lat="43.71674" lon="6.68748">
        <ele>1009</ele>
        <time>2017-11-19T13:51:44.000Z</time>
      </trkpt>
      <trkpt lat="43.71669" lon="6.68764">
        <ele>1007.5</ele>
      </trkpt>
      <trkpt lat="43.71664" lon="6.68773">
        <ele>1010</ele>
        <time>2017-11-19T13:51:49.000Z</time>
      </trkpt>
      <trkpt lat="43.71663" lon="6.68778">
        <ele>1007.9</ele>
      </trkpt>
      <trkpt lat="43.71658" lon="6.68787">
        <ele>1007.8</ele>
      </trkpt>
      <trkpt lat="43.7165" lon="6.68802">
        <ele>1010</ele>
        <time>2017-11-19T13:51:55.000Z</time>
      </trkpt>
      <trkpt lat="43.71646" lon="6.6881">
        <ele>1008</ele>
      </trkpt>
      <trkpt lat="43.71633" lon="6.68835">
        <ele>1011</ele>
        <time>2017-11-19T13:52:03.000Z</time>
      </trkpt>
      <trkpt lat="43.71631" lon="6.68839">
        <ele>1007.9</ele>
      </trkpt>
      <trkpt lat="43.71625" lon="6.68858">
        <ele>1007.9</ele>
      </trkpt>
      <trkpt lat="43.71623" lon="6.68865">
        <ele>1010</ele>
        <time>2017-11-19T13:52:09.000Z</time>
      </trkpt>
      <trkpt lat="43.71622" lon="6.6887">
        <ele>1007.8</ele>
      </trkpt>
      <trkpt lat="43.71622" lon="6.68875">
        <ele>1007.8</ele>
      </trkpt>
      <trkpt lat="43.7162" lon="6.6888">
        <ele>1007.6</ele>
      </trkpt>
      <trkpt lat="43.71621" lon="6.68885">
        <ele>1007.7</ele>
      </trkpt>
      <trkpt lat="43.71621" lon="6.6889">
        <ele>1007.7</ele>
      </trkpt>
      <trkpt lat="43.7162" lon="6.68896">
        <ele>1009</ele>
        <time>2017-11-19T13:52:15.000Z</time>
      </trkpt>
      <trkpt lat="43.71623" lon="6.68914">
        <ele>1007.9</ele>
      </trkpt>
      <trkpt lat="43.71621" lon="6.68925">
        <ele>1009</ele>
        <time>2017-11-19T13:52:21.000Z</time>
      </trkpt>
      <trkpt lat="43.71619" lon="6.68935">
        <ele>1007.4</ele>
      </trkpt>
      <trkpt lat="43.71611" lon="6.68955">
        <ele>1010</ele>
        <time>2017-11-19T13:52:27.000Z</time>
      </trkpt>
      <trkpt lat="43.71611" lon="6.68959">
        <ele>1007</ele>
      </trkpt>
      <trkpt lat="43.71611" lon="6.68964">
        <ele>1007</ele>
      </trkpt>
      <trkpt lat="43.71608" lon="6.68974">
        <ele>1007.1</ele>
      </trkpt>
      <trkpt lat="43.71606" lon="6.68983">
        <ele>1010</ele>
        <time>2017-11-19T13:52:33.000Z</time>
      </trkpt>
      <trkpt lat="43.71602" lon="6.69001">
        <ele>1007.4</ele>
      </trkpt>
      <trkpt lat="43.71601" lon="6.69011">
        <ele>1011</ele>
        <time>2017-11-19T13:52:38.000Z</time>
      </trkpt>
      <trkpt lat="43.71598" lon="6.69022">
        <ele>1007.9</ele>
      </trkpt>
      <trkpt lat="43.71591" lon="6.69048">
        <ele>1010</ele>
        <time>2017-11-19T13:52:45.000Z</time>
      </trkpt>
      <trkpt lat="43.71589" lon="6.69064">
        <ele>1008.2</ele>
      </trkpt>
      <trkpt lat="43.71587" lon="6.6907">
        <ele>1008.5</ele>
      </trkpt>
      <trkpt lat="43.71581" lon="6.69089">
        <ele>1010</ele>
        <time>2017-11-19T13:52:53.000Z</time>
      </trkpt>
      <trkpt lat="43.71575" lon="6.69112">
        <ele>1009.3</ele>
      </trkpt>
      <trkpt lat="43.71573" lon="6.69126">
        <ele>1011</ele>
        <time>2017-11-19T13:53:01.000Z</time>
      </trkpt>
      <trkpt lat="43.71567" lon="6.69143">
        <ele>1009.3</ele>
      </trkpt>
      <trkpt lat="43.71565" lon="6.69153">
        <ele>1012</ele>
        <time>2017-11-19T13:53:07.000Z</time>
      </trkpt>
      <trkpt lat="43.71562" lon="6.69157">
        <ele>1008.7</ele>
      </trkpt>
      <trkpt lat="43.7156" lon="6.69162">
        <ele>1008.5</ele>
      </trkpt>
      <trkpt lat="43.71556" lon="6.69172">
        <ele>1008</ele>
      </trkpt>
      <trkpt lat="43.71554" lon="6.69175">
        <ele>1008</ele>
      </trkpt>
      <trkpt lat="43.71539" lon="6.69189">
        <ele>1012</ele>
        <time>2017-11-19T13:53:17.000Z</time>
      </trkpt>
      <trkpt lat="43.71529" lon="6.69196">
        <ele>1009</ele>
      </trkpt>
      <trkpt lat="43.71526" lon="6.69199">
        <ele>1009.1</ele>
      </trkpt>
      <trkpt lat="43.71514" lon="6.6922">
        <ele>1008</ele>
        <time>2017-11-19T13:53:26.000Z</time>
      </trkpt>
      <trkpt lat="43.71507" lon="6.69234">
        <ele>1009.1</ele>
      </trkpt>
      <trkpt lat="43.715" lon="6.69245">
        <ele>1009</ele>
        <time>2017-11-19T13:53:32.000Z</time>
      </trkpt>
      <trkpt lat="43.71493" lon="6.69256">
        <ele>1008.9</ele>
      </trkpt>
      <trkpt lat="43.71489" lon="6.69266">
        <ele>1008.8</ele>
      </trkpt>
      <trkpt lat="43.71486" lon="6.69269">
        <ele>1007</ele>
        <time>2017-11-19T13:53:39.000Z</time>
      </trkpt>
      <trkpt lat="43.71476" lon="6.69275">
        <ele>1008.2</ele>
      </trkpt>
      <trkpt lat="43.71471" lon="6.69279">
        <ele>1008</ele>
      </trkpt>
      <trkpt lat="43.71465" lon="6.69285">
        <ele>1006</ele>
        <time>2017-11-19T13:53:44.000Z</time>
      </trkpt>
      <trkpt lat="43.71462" lon="6.6929">
        <ele>1007.8</ele>
      </trkpt>
      <trkpt lat="43.71449" lon="6.69298">
        <ele>1005</ele>
        <time>2017-11-19T13:53:50.000Z</time>
      </trkpt>
      <trkpt lat="43.71445" lon="6.69301">
        <ele>1007.2</ele>
      </trkpt>
      <trkpt lat="43.7144" lon="6.69308">
        <ele>1006.6</ele>
      </trkpt>
      <trkpt lat="43.71433" lon="6.69315">
        <ele>1006</ele>
        <time>2017-11-19T13:53:54.000Z</time>
      </trkpt>
      <trkpt lat="43.71426" lon="6.69319">
        <ele>1005.2</ele>
      </trkpt>
      <trkpt lat="43.71422" lon="6.6932">
        <ele>1004.9</ele>
      </trkpt>
      <trkpt lat="43.71399" lon="6.69322">
        <ele>1006</ele>
        <time>2017-11-19T13:54:03.000Z</time>
      </trkpt>
      <trkpt lat="43.71395" lon="6.69321">
        <ele>1003.7</ele>
      </trkpt>
      <trkpt lat="43.71392" lon="6.69323">
        <ele>1003.5</ele>
      </trkpt>
      <trkpt lat="43.71382" lon="6.69323">
        <ele>1002.7</ele>
      </trkpt>
      <trkpt lat="43.71377" lon="6.69322">
        <ele>1005</ele>
        <time>2017-11-19T13:54:08.000Z</time>
      </trkpt>
      <trkpt lat="43.71372" lon="6.69322">
        <ele>1001.8</ele>
      </trkpt>
      <trkpt lat="43.71368" lon="6.69321">
        <ele>1001.5</ele>
      </trkpt>
      <trkpt lat="43.71356" lon="6.6932">
        <ele>1005</ele>
        <time>2017-11-19T13:54:12.000Z</time>
      </trkpt>
      <trkpt lat="43.71351" lon="6.69321">
        <ele>1000.4</ele>
      </trkpt>
      <trkpt lat="43.71343" lon="6.69327">
        <ele>999.7</ele>
      </trkpt>
      <trkpt lat="43.71335" lon="6.69337">
        <ele>1005</ele>
        <time>2017-11-19T13:54:17.000Z</time>
      </trkpt>
      <trkpt lat="43.7133" lon="6.69346">
        <ele>999.6</ele>
      </trkpt>
      <trkpt lat="43.71323" lon="6.69362">
        <ele>1005</ele>
        <time>2017-11-19T13:54:22.000Z</time>
      </trkpt>
      <trkpt lat="43.71317" lon="6.69378">
        <ele>1001.1</ele>
      </trkpt>
      <trkpt lat="43.71313" lon="6.69391">
        <ele>1004</ele>
        <time>2017-11-19T13:54:29.000Z</time>
      </trkpt>
      <trkpt lat="43.71311" lon="6.69395">
        <ele>1001.4</ele>
      </trkpt>
      <trkpt lat="43.71308" lon="6.69404">
        <ele>1001.6</ele>
      </trkpt>
      <trkpt lat="43.71306" lon="6.69413">
        <ele>1001.9</ele>
      </trkpt>
      <trkpt lat="43.71304" lon="6.69428">
        <ele>1003</ele>
        <time>2017-11-19T13:54:37.000Z</time>
      </trkpt>
      <trkpt lat="43.71298" lon="6.69451">
        <ele>1003</ele>
      </trkpt>
      <trkpt lat="43.71296" lon="6.69455">
        <ele>1005</ele>
        <time>2017-11-19T13:54:43.000Z</time>
      </trkpt>
      <trkpt lat="43.71291" lon="6.69463">
        <ele>1003</ele>
      </trkpt>
      <trkpt lat="43.71288" lon="6.69465">
        <ele>1003</ele>
      </trkpt>
      <trkpt lat="43.71276" lon="6.69473">
        <ele>1006</ele>
        <time>2017-11-19T13:54:50.000Z</time>
      </trkpt>
      <trkpt lat="43.71271" lon="6.69478">
        <ele>1003</ele>
      </trkpt>
      <trkpt lat="43.71267" lon="6.69484">
        <ele>1003</ele>
      </trkpt>
      <trkpt lat="43.71262" lon="6.69491">
        <ele>1003</ele>
      </trkpt>
      <trkpt lat="43.71257" lon="6.69499">
        <ele>1005</ele>
        <time>2017-11-19T13:54:58.000Z</time>
      </trkpt>
      <trkpt lat="43.71252" lon="6.69513">
        <ele>1002.6</ele>
      </trkpt>
      <trkpt lat="43.71249" lon="6.69528">
        <ele>1002</ele>
        <time>2017-11-19T13:55:04.000Z</time>
      </trkpt>
      <trkpt lat="43.71248" lon="6.69533">
        <ele>1001.9</ele>
      </trkpt>
      <trkpt lat="43.71246" lon="6.69538">
        <ele>1001.9</ele>
      </trkpt>
      <trkpt lat="43.71244" lon="6.69543">
        <ele>1001.8</ele>
      </trkpt>
      <trkpt lat="43.71242" lon="6.69553">
        <ele>1000</ele>
        <time>2017-11-19T13:55:09.000Z</time>
      </trkpt>
      <trkpt lat="43.71239" lon="6.6957">
        <ele>1001.6</ele>
      </trkpt>
      <trkpt lat="43.71236" lon="6.69575">
        <ele>1001.5</ele>
      </trkpt>
      <trkpt lat="43.71234" lon="6.69579">
        <ele>995</ele>
        <time>2017-11-19T13:55:14.000Z</time>
      </trkpt>
      <trkpt lat="43.7123" lon="6.69581">
        <ele>1001.3</ele>
      </trkpt>
      <trkpt lat="43.71222" lon="6.69581">
        <ele>1001</ele>
      </trkpt>
      <trkpt lat="43.71213" lon="6.6958">
        <ele>995</ele>
        <time>2017-11-19T13:55:19.000Z</time>
      </trkpt>
      <trkpt lat="43.71199" lon="6.69576">
        <ele>1000.2</ele>
      </trkpt>
      <trkpt lat="43.71186" lon="6.69574">
        <ele>998</ele>
        <time>2017-11-19T13:55:25.000Z</time>
      </trkpt>
      <trkpt lat="43.71174" lon="6.69576">
        <ele>999.5</ele>
      </trkpt>
      <trkpt lat="43.71169" lon="6.69578">
        <ele>999.3</ele>
      </trkpt>
      <trkpt lat="43.71156" lon="6.69578">
        <ele>1000</ele>
        <time>2017-11-19T13:55:32.000Z</time>
      </trkpt>
      <trkpt lat="43.71135" lon="6.69581">
        <ele>1000</ele>
        <time>2017-11-19T13:55:37.000Z</time>
      </trkpt>
      <trkpt lat="43.71111" lon="6.69581">
        <ele>1000</ele>
        <time>2017-11-19T13:55:42.000Z</time>
      </trkpt>
      <trkpt lat="43.71102" lon="6.69579">
        <ele>997.4</ele>
      </trkpt>
      <trkpt lat="43.71098" lon="6.69577">
        <ele>997.3</ele>
      </trkpt>
      <trkpt lat="43.7108" lon="6.69564">
        <ele>1001</ele>
        <time>2017-11-19T13:55:49.000Z</time>
      </trkpt>
      <trkpt lat="43.71072" lon="6.69559">
        <ele>997.4</ele>
      </trkpt>
      <trkpt lat="43.71064" lon="6.69555">
        <ele>997.3</ele>
      </trkpt>
      <trkpt lat="43.71053" lon="6.69548">
        <ele>999</ele>
        <time>2017-11-19T13:55:56.000Z</time>
      </trkpt>
      <trkpt lat="43.71045" lon="6.69543">
        <ele>996.7</ele>
      </trkpt>
      <trkpt lat="43.71037" lon="6.6954">
        <ele>996.2</ele>
      </trkpt>
      <trkpt lat="43.71028" lon="6.6954">
        <ele>998</ele>
        <time>2017-11-19T13:56:02.000Z</time>
      </trkpt>
      <trkpt lat="43.71024" lon="6.69541">
        <ele>995.4</ele>
      </trkpt>
      <trkpt lat="43.71014" lon="6.6954">
        <ele>995.1</ele>
      </trkpt>
      <trkpt lat="43.71011" lon="6.69542">
        <ele>994.9</ele>
      </trkpt>
      <trkpt lat="43.71011" lon="6.69546">
        <ele>996</ele>
        <time>2017-11-19T13:59:17.000Z</time>
      </trkpt>
      <trkpt lat="43.71011" lon="6.69552">
        <ele>994.5</ele>
      </trkpt>
      <trkpt lat="43.7101" lon="6.69569">
        <ele>994.4</ele>
      </trkpt>
      <trkpt lat="43.71008" lon="6.69577">
        <ele>997</ele>
        <time>2017-11-19T13:59:25.000Z</time>
      </trkpt>
      <trkpt lat="43.71006" lon="6.69584">
        <ele>994.2</ele>
      </trkpt>
      <trkpt lat="43.71004" lon="6.69588">
        <ele>994.1</ele>
      </trkpt>
      <trkpt lat="43.71" lon="6.69592">
        <ele>994</ele>
      </trkpt>
      <trkpt lat="43.70989" lon="6.69599">
        <ele>998</ele>
        <time>2017-11-19T13:59:34.000Z</time>
      </trkpt>
      <trkpt lat="43.70985" lon="6.69603">
        <ele>993.8</ele>
      </trkpt>
      <trkpt lat="43.70977" lon="6.69618">
        <ele>994</ele>
      </trkpt>
      <trkpt lat="43.70967" lon="6.69642">
        <ele>997</ele>
        <time>2017-11-19T13:59:47.000Z</time>
      </trkpt>
      <trkpt lat="43.70965" lon="6.6965">
        <ele>993.3</ele>
      </trkpt>
      <trkpt lat="43.70961" lon="6.69659">
        <ele>992.9</ele>
      </trkpt>
      <trkpt lat="43.70958" lon="6.69672">
        <ele>994</ele>
        <time>2017-11-19T13:59:54.000Z</time>
      </trkpt>
      <trkpt lat="43.70955" lon="6.69687">
        <ele>992.4</ele>
      </trkpt>
      <trkpt lat="43.70954" lon="6.69692">
        <ele>992.3</ele>
      </trkpt>
      <trkpt lat="43.70954" lon="6.69697">
        <ele>992.3</ele>
      </trkpt>
      <trkpt lat="43.70953" lon="6.69711">
        <ele>990</ele>
        <time>2017-11-19T14:00:02.000Z</time>
      </trkpt>
      <trkpt lat="43.70949" lon="6.69735">
        <ele>992.2</ele>
      </trkpt>
      <trkpt lat="43.70948" lon="6.69741">
        <ele>990</ele>
        <time>2017-11-19T14:00:08.000Z</time>
      </trkpt>
      <trkpt lat="43.70948" lon="6.6977">
        <ele>991</ele>
        <time>2017-11-19T14:00:14.000Z</time>
      </trkpt>
      <trkpt lat="43.70943" lon="6.698">
        <ele>994</ele>
        <time>2017-11-19T14:00:21.000Z</time>
      </trkpt>
      <trkpt lat="43.70941" lon="6.69807">
        <ele>992</ele>
      </trkpt>
      <trkpt lat="43.70939" lon="6.69818">
        <ele>992.4</ele>
      </trkpt>
      <trkpt lat="43.70939" lon="6.69836">
        <ele>992</ele>
        <time>2017-11-19T14:00:33.000Z</time>
      </trkpt>
      <trkpt lat="43.7094" lon="6.69841">
        <ele>993.1</ele>
      </trkpt>
      <trkpt lat="43.70946" lon="6.69847">
        <ele>993.5</ele>
      </trkpt>
      <trkpt lat="43.70948" lon="6.6985">
        <ele>993.6</ele>
      </trkpt>
      <trkpt lat="43.70949" lon="6.69867">
        <ele>992</ele>
        <time>2017-11-19T14:00:48.000Z</time>
      </trkpt>
      <trkpt lat="43.70953" lon="6.69882">
        <ele>994.5</ele>
      </trkpt>
      <trkpt lat="43.70953" lon="6.69886">
        <ele>994.6</ele>
      </trkpt>
      <trkpt lat="43.70956" lon="6.699">
        <ele>992</ele>
        <time>2017-11-19T14:01:00.000Z</time>
      </trkpt>
      <trkpt lat="43.70959" lon="6.69915">
        <ele>995</ele>
      </trkpt>
      <trkpt lat="43.7096" lon="6.69921">
        <ele>995</ele>
      </trkpt>
      <trkpt lat="43.7096" lon="6.69928">
        <ele>992</ele>
        <time>2017-11-19T14:01:09.000Z</time>
      </trkpt>
      <trkpt lat="43.70957" lon="6.69945">
        <ele>994.4</ele>
      </trkpt>
      <trkpt lat="43.70957" lon="6.69956">
        <ele>992</ele>
        <time>2017-11-19T14:01:19.000Z</time>
      </trkpt>
      <trkpt lat="43.70958" lon="6.6996">
        <ele>994.2</ele>
      </trkpt>
      <trkpt lat="43.70959" lon="6.69971">
        <ele>994</ele>
      </trkpt>
      <trkpt lat="43.70961" lon="6.69975">
        <ele>993.9</ele>
      </trkpt>
      <trkpt lat="43.70977" lon="6.69999">
        <ele>987</ele>
        <time>2017-11-19T14:01:39.000Z</time>
      </trkpt>
      <trkpt lat="43.70984" lon="6.70004">
        <ele>992.6</ele>
      </trkpt>
      <trkpt lat="43.70988" lon="6.70015">
        <ele>991.7</ele>
      </trkpt>
      <trkpt lat="43.70991" lon="6.70018">
        <ele>991</ele>
        <time>2017-11-19T14:01:49.000Z</time>
      </trkpt>
      <trkpt lat="43.70995" lon="6.70024">
        <ele>991.1</ele>
      </trkpt>
      <trkpt lat="43.70997" lon="6.7004">
        <ele>989.1</ele>
      </trkpt>
      <trkpt lat="43.71001" lon="6.70054">
        <ele>978</ele>
        <time>2017-11-19T14:01:58.000Z</time>
      </trkpt>
      <trkpt lat="43.71004" lon="6.70061">
        <ele>986.8</ele>
      </trkpt>
      <trkpt lat="43.71006" lon="6.70068">
        <ele>986.2</ele>
      </trkpt>
      <trkpt lat="43.71007" lon="6.70079">
        <ele>976</ele>
        <time>2017-11-19T14:02:05.000Z</time>
      </trkpt>
      <trkpt lat="43.71008" lon="6.70096">
        <ele>982.1</ele>
      </trkpt>
      <trkpt lat="43.71009" lon="6.70108">
        <ele>972</ele>
        <time>2017-11-19T14:02:12.000Z</time>
      </trkpt>
      <trkpt lat="43.71012" lon="6.70116">
        <ele>979.6</ele>
      </trkpt>
      <trkpt lat="43.71016" lon="6.70129">
        <ele>978.4</ele>
      </trkpt>
      <trkpt lat="43.71017" lon="6.70143">
        <ele>969</ele>
        <time>2017-11-19T14:02:22.000Z</time>
      </trkpt>
      <trkpt lat="43.71018" lon="6.70147">
        <ele>975.3</ele>
      </trkpt>
      <trkpt lat="43.71034" lon="6.70174">
        <ele>966</ele>
        <time>2017-11-19T14:02:32.000Z</time>
      </trkpt>
      <trkpt lat="43.71037" lon="6.70176">
        <ele>972.3</ele>
      </trkpt>
      <trkpt lat="43.71049" lon="6.70193">
        <ele>963</ele>
        <time>2017-11-19T14:02:39.000Z</time>
      </trkpt>
      <trkpt lat="43.71057" lon="6.70201">
        <ele>966.8</ele>
      </trkpt>
      <trkpt lat="43.71069" lon="6.7021">
        <ele>967</ele>
        <time>2017-11-19T14:02:46.000Z</time>
      </trkpt>
      <trkpt lat="43.71075" lon="6.70214">
        <ele>964.6</ele>
      </trkpt>
      <trkpt lat="43.71086" lon="6.70223">
        <ele>963</ele>
      </trkpt>
      <trkpt lat="43.71093" lon="6.70231">
        <ele>971</ele>
        <time>2017-11-19T14:02:55.000Z</time>
      </trkpt>
      <trkpt lat="43.71107" lon="6.70242">
        <ele>959.1</ele>
      </trkpt>
      <trkpt lat="43.71109" lon="6.70245">
        <ele>966</ele>
        <time>2017-11-19T14:03:01.000Z</time>
      </trkpt>
      <trkpt lat="43.71117" lon="6.70252">
        <ele>956.7</ele>
      </trkpt>
      <trkpt lat="43.71128" lon="6.70259">
        <ele>966</ele>
        <time>2017-11-19T14:03:07.000Z</time>
      </trkpt>
      <trkpt lat="43.71136" lon="6.70262">
        <ele>954.9</ele>
      </trkpt>
      <trkpt lat="43.7114" lon="6.70263">
        <ele>954.8</ele>
      </trkpt>
      <trkpt lat="43.71157" lon="6.70272">
        <ele>957</ele>
        <time>2017-11-19T14:03:15.000Z</time>
      </trkpt>
      <trkpt lat="43.71163" lon="6.70274">
        <ele>952.2</ele>
      </trkpt>
      <trkpt lat="43.71172" lon="6.7028">
        <ele>949.9</ele>
      </trkpt>
      <trkpt lat="43.71175" lon="6.7028">
        <ele>949.8</ele>
      </trkpt>
      <trkpt lat="43.7118" lon="6.70284">
        <ele>962</ele>
        <time>2017-11-19T14:03:23.000Z</time>
      </trkpt>
      <trkpt lat="43.71183" lon="6.70285">
        <ele>947.7</ele>
      </trkpt>
      <trkpt lat="43.71189" lon="6.70288">
        <ele>946.4</ele>
      </trkpt>
      <trkpt lat="43.71195" lon="6.70288">
        <ele>946.3</ele>
      </trkpt>
      <trkpt lat="43.71209" lon="6.70294">
        <ele>958</ele>
        <time>2017-11-19T14:03:32.000Z</time>
      </trkpt>
      <trkpt lat="43.71222" lon="6.70299">
        <ele>941.4</ele>
      </trkpt>
      <trkpt lat="43.71231" lon="6.703">
        <ele>940</ele>
        <time>2017-11-19T14:03:39.000Z</time>
      </trkpt>
      <trkpt lat="43.71237" lon="6.703">
        <ele>939.8</ele>
      </trkpt>
      <trkpt lat="43.71252" lon="6.70302">
        <ele>931</ele>
        <time>2017-11-19T14:03:46.000Z</time>
      </trkpt>
      <trkpt lat="43.71269" lon="6.70306">
        <ele>934.1</ele>
      </trkpt>
      <trkpt lat="43.71272" lon="6.70308">
        <ele>932</ele>
        <time>2017-11-19T14:03:52.000Z</time>
      </trkpt>
      <trkpt lat="43.71279" lon="6.70306">
        <ele>932.7</ele>
      </trkpt>
      <trkpt lat="43.71282" lon="6.70305">
        <ele>932.6</ele>
      </trkpt>
      <trkpt lat="43.71289" lon="6.70304">
        <ele>931.9</ele>
      </trkpt>
      <trkpt lat="43.71293" lon="6.70302">
        <ele>932</ele>
        <time>2017-11-19T14:03:58.000Z</time>
      </trkpt>
      <trkpt lat="43.713" lon="6.703">
        <ele>931.6</ele>
      </trkpt>
      <trkpt lat="43.71303" lon="6.703">
        <ele>931.2</ele>
      </trkpt>
      <trkpt lat="43.71318" lon="6.70298">
        <ele>938</ele>
        <time>2017-11-19T14:04:05.000Z</time>
      </trkpt>
      <trkpt lat="43.71332" lon="6.70292">
        <ele>928.6</ele>
      </trkpt>
      <trkpt lat="43.71343" lon="6.70289">
        <ele>930</ele>
        <time>2017-11-19T14:04:13.000Z</time>
      </trkpt>
      <trkpt lat="43.71345" lon="6.70297">
        <ele>923.7</ele>
      </trkpt>
      <trkpt lat="43.71345" lon="6.70301">
        <ele>922.5</ele>
      </trkpt>
      <trkpt lat="43.7134" lon="6.70311">
        <ele>920.5</ele>
      </trkpt>
      <trkpt lat="43.71335" lon="6.70315">
        <ele>921</ele>
        <time>2017-11-19T14:04:39.000Z</time>
      </trkpt>
      <trkpt lat="43.71331" lon="6.70321">
        <ele>918.9</ele>
      </trkpt>
      <trkpt lat="43.71326" lon="6.70327">
        <ele>917.8</ele>
      </trkpt>
      <trkpt lat="43.71313" lon="6.70337">
        <ele>917</ele>
        <time>2017-11-19T14:04:48.000Z</time>
      </trkpt>
      <trkpt lat="43.71306" lon="6.70341">
        <ele>917.2</ele>
      </trkpt>
      <trkpt lat="43.71301" lon="6.70346">
        <ele>915.9</ele>
      </trkpt>
      <trkpt lat="43.71315" lon="6.70349">
        <ele>917</ele>
        <time>2017-11-19T14:05:16.000Z</time>
      </trkpt>
      <trkpt lat="43.71324" lon="6.70346">
        <ele>912.4</ele>
      </trkpt>
      <trkpt lat="43.71327" lon="6.70346">
        <ele>911.9</ele>
      </trkpt>
      <trkpt lat="43.71321" lon="6.70356">
        <ele>905</ele>
        <time>2017-11-19T14:06:01.000Z</time>
      </trkpt>
      <trkpt lat="43.71318" lon="6.70368">
        <ele>906.2</ele>
      </trkpt>
      <trkpt lat="43.7131" lon="6.70378">
        <ele>905</ele>
        <time>2017-11-19T14:06:10.000Z</time>
      </trkpt>
      <trkpt lat="43.71309" lon="6.70384">
        <ele>900.8</ele>
      </trkpt>
      <trkpt lat="43.71308" lon="6.70388">
        <ele>899.3</ele>
      </trkpt>
      <trkpt lat="43.71303" lon="6.7039">
        <ele>898.4</ele>
      </trkpt>
      <trkpt lat="43.71299" lon="6.70399">
        <ele>893</ele>
        <time>2017-11-19T14:06:20.000Z</time>
      </trkpt>
      <trkpt lat="43.71294" lon="6.70401">
        <ele>893.9</ele>
      </trkpt>
      <trkpt lat="43.71289" lon="6.70401">
        <ele>893.4</ele>
      </trkpt>
      <trkpt lat="43.71286" lon="6.70403">
        <ele>892.3</ele>
      </trkpt>
      <trkpt lat="43.71282" lon="6.70403">
        <ele>891.9</ele>
      </trkpt>
      <trkpt lat="43.71279" lon="6.70401">
        <ele>893</ele>
        <time>2017-11-19T14:06:33.000Z</time>
      </trkpt>
      <trkpt lat="43.71275" lon="6.70403">
        <ele>891.4</ele>
      </trkpt>
      <trkpt lat="43.71267" lon="6.70409">
        <ele>888.9</ele>
      </trkpt>
      <trkpt lat="43.71266" lon="6.70413">
        <ele>887.1</ele>
      </trkpt>
      <trkpt lat="43.7126" lon="6.70419">
        <ele>887</ele>
        <time>2017-11-19T14:06:44.000Z</time>
      </trkpt>
      <trkpt lat="43.71254" lon="6.70425">
        <ele>882.4</ele>
      </trkpt>
      <trkpt lat="43.71245" lon="6.70439">
        <ele>887</ele>
        <time>2017-11-19T14:06:53.000Z</time>
      </trkpt>
      <trkpt lat="43.71238" lon="6.70442">
        <ele>877.2</ele>
      </trkpt>
      <trkpt lat="43.71234" lon="6.70446">
        <ele>876.1</ele>
      </trkpt>
      <trkpt lat="43.71222" lon="6.70457">
        <ele>880</ele>
        <time>2017-11-19T14:07:05.000Z</time>
      </trkpt>
      <trkpt lat="43.7122" lon="6.7046">
        <ele>872.4</ele>
      </trkpt>
      <trkpt lat="43.71217" lon="6.70461">
        <ele>872</ele>
      </trkpt>
      <trkpt lat="43.71214" lon="6.70465">
        <ele>870.7</ele>
      </trkpt>
      <trkpt lat="43.71212" lon="6.70468">
        <ele>869.8</ele>
      </trkpt>
      <trkpt lat="43.71206" lon="6.70472">
        <ele>871</ele>
        <time>2017-11-19T14:07:13.000Z</time>
      </trkpt>
      <trkpt lat="43.712" lon="6.70475">
        <ele>867.1</ele>
      </trkpt>
      <trkpt lat="43.71183" lon="6.70474">
        <ele>874</ele>
        <time>2017-11-19T14:07:22.000Z</time>
      </trkpt>
      <trkpt lat="43.7118" lon="6.70476">
        <ele>864.5</ele>
      </trkpt>
      <trkpt lat="43.7118" lon="6.7048">
        <ele>863</ele>
      </trkpt>
      <trkpt lat="43.71181" lon="6.70484">
        <ele>861.6</ele>
      </trkpt>
      <trkpt lat="43.71178" lon="6.70487">
        <ele>860.1</ele>
      </trkpt>
      <trkpt lat="43.71174" lon="6.70485">
        <ele>860.3</ele>
      </trkpt>
      <trkpt lat="43.71169" lon="6.70483">
        <ele>874</ele>
        <time>2017-11-19T14:07:35.000Z</time>
      </trkpt>
      <trkpt lat="43.71161" lon="6.70482">
        <ele>859.5</ele>
      </trkpt>
      <trkpt lat="43.7115" lon="6.70484">
        <ele>856.8</ele>
      </trkpt>
      <trkpt lat="43.71142" lon="6.70487">
        <ele>869</ele>
        <time>2017-11-19T14:07:47.000Z</time>
      </trkpt>
      <trkpt lat="43.71135" lon="6.70488">
        <ele>852.5</ele>
      </trkpt>
      <trkpt lat="43.71132" lon="6.70489">
        <ele>851.6</ele>
      </trkpt>
      <trkpt lat="43.7113" lon="6.70494">
        <ele>849.3</ele>
      </trkpt>
      <trkpt lat="43.71133" lon="6.70494">
        <ele>849.9</ele>
      </trkpt>
      <trkpt lat="43.71147" lon="6.70515">
        <ele>857</ele>
        <time>2017-11-19T14:08:26.000Z</time>
      </trkpt>
      <trkpt lat="43.71149" lon="6.7052">
        <ele>845.5</ele>
      </trkpt>
      <trkpt lat="43.71148" lon="6.70524">
        <ele>844.3</ele>
      </trkpt>
      <trkpt lat="43.71133" lon="6.70525">
        <ele>851</ele>
        <time>2017-11-19T14:08:36.000Z</time>
      </trkpt>
      <trkpt lat="43.7113" lon="6.70526">
        <ele>841.1</ele>
      </trkpt>
      <trkpt lat="43.71127" lon="6.70528">
        <ele>840.3</ele>
      </trkpt>
      <trkpt lat="43.71121" lon="6.70526">
        <ele>839.8</ele>
      </trkpt>
      <trkpt lat="43.71114" lon="6.70532">
        <ele>846</ele>
        <time>2017-11-19T14:09:54.000Z</time>
      </trkpt>
      <trkpt lat="43.71111" lon="6.70528">
        <ele>838</ele>
      </trkpt>
      <trkpt lat="43.71102" lon="6.70528">
        <ele>837</ele>
      </trkpt>
      <trkpt lat="43.71093" lon="6.70525">
        <ele>839</ele>
        <time>2017-11-19T14:11:06.000Z</time>
      </trkpt>
      <trkpt lat="43.71089" lon="6.70525">
        <ele>835.8</ele>
      </trkpt>
      <trkpt lat="43.71085" lon="6.70523">
        <ele>835.4</ele>
      </trkpt>
      <trkpt lat="43.71081" lon="6.7052">
        <ele>835.2</ele>
      </trkpt>
      <trkpt lat="43.71065" lon="6.70517">
        <ele>838</ele>
        <time>2017-11-19T14:11:13.000Z</time>
      </trkpt>
      <trkpt lat="43.71062" lon="6.70518">
        <ele>834.3</ele>
      </trkpt>
      <trkpt lat="43.71054" lon="6.70521">
        <ele>834</ele>
      </trkpt>
      <trkpt lat="43.71048" lon="6.70524">
        <ele>834</ele>
      </trkpt>
      <trkpt lat="43.71045" lon="6.70528">
        <ele>836</ele>
        <time>2017-11-19T14:11:21.000Z</time>
      </trkpt>
      <trkpt lat="43.71041" lon="6.70529">
        <ele>834.2</ele>
      </trkpt>
      <trkpt lat="43.71032" lon="6.70531">
        <ele>834.9</ele>
      </trkpt>
      <trkpt lat="43.71028" lon="6.70528">
        <ele>834.1</ele>
      </trkpt>
      <trkpt lat="43.71024" lon="6.70528">
        <ele>836</ele>
        <time>2017-11-19T14:11:31.000Z</time>
      </trkpt>
      <trkpt lat="43.71013" lon="6.70527">
        <ele>833.5</ele>
      </trkpt>
      <trkpt lat="43.71005" lon="6.70529">
        <ele>833.5</ele>
      </trkpt>
      <trkpt lat="43.70994" lon="6.70532">
        <ele>843</ele>
        <time>2017-11-19T14:11:42.000Z</time>
      </trkpt>
      <trkpt lat="43.70972" lon="6.70536">
        <ele>844</ele>
        <time>2017-11-19T14:11:48.000Z</time>
      </trkpt>
      <trkpt lat="43.70964" lon="6.70536">
        <ele>833</ele>
      </trkpt>
      <trkpt lat="43.70948" lon="6.7054">
        <ele>843</ele>
        <time>2017-11-19T14:11:54.000Z</time>
      </trkpt>
      <trkpt lat="43.70945" lon="6.70542">
        <ele>836</ele>
      </trkpt>
      <trkpt lat="43.7094" lon="6.70543">
        <ele>835.6</ele>
      </trkpt>
      <trkpt lat="43.70933" lon="6.70546">
        <ele>835.1</ele>
      </trkpt>
      <trkpt lat="43.70929" lon="6.70547">
        <ele>832</ele>
        <time>2017-11-19T14:11:59.000Z</time>
      </trkpt>
      <trkpt lat="43.70921" lon="6.70553">
        <ele>833.7</ele>
      </trkpt>
      <trkpt lat="43.70905" lon="6.70562">
        <ele>823</ele>
        <time>2017-11-19T14:12:05.000Z</time>
      </trkpt>
      <trkpt lat="43.70901" lon="6.70565">
        <ele>834.5</ele>
      </trkpt>
      <trkpt lat="43.70886" lon="6.70575">
        <ele>824</ele>
        <time>2017-11-19T14:12:10.000Z</time>
      </trkpt>
      <trkpt lat="43.70875" lon="6.70584">
        <ele>832.7</ele>
      </trkpt>
      <trkpt lat="43.70872" lon="6.70588">
        <ele>833.3</ele>
      </trkpt>
      <trkpt lat="43.70865" lon="6.70595">
        <ele>821</ele>
        <time>2017-11-19T14:12:16.000Z</time>
      </trkpt>
      <trkpt lat="43.70858" lon="6.70602">
        <ele>833.3</ele>
      </trkpt>
      <trkpt lat="43.70854" lon="6.70605">
        <ele>833.2</ele>
      </trkpt>
      <trkpt lat="43.70851" lon="6.70609">
        <ele>833.3</ele>
      </trkpt>
      <trkpt lat="43.70846" lon="6.70611">
        <ele>827</ele>
        <time>2017-11-19T14:12:21.000Z</time>
      </trkpt>
      <trkpt lat="43.70837" lon="6.70616">
        <ele>832.7</ele>
      </trkpt>
      <trkpt lat="43.70834" lon="6.70619">
        <ele>832.8</ele>
      </trkpt>
      <trkpt lat="43.70819" lon="6.7063">
        <ele>829</ele>
        <time>2017-11-19T14:12:28.000Z</time>
      </trkpt>
      <trkpt lat="43.70806" lon="6.70638">
        <ele>832.9</ele>
      </trkpt>
      <trkpt lat="43.70797" lon="6.70641">
        <ele>827</ele>
        <time>2017-11-19T14:12:33.000Z</time>
      </trkpt>
      <trkpt lat="43.70794" lon="6.70644">
        <ele>832.4</ele>
      </trkpt>
      <trkpt lat="43.70784" lon="6.70648">
        <ele>831.9</ele>
      </trkpt>
      <trkpt lat="43.7078" lon="6.70652">
        <ele>832.6</ele>
      </trkpt>
      <trkpt lat="43.70776" lon="6.70654">
        <ele>827</ele>
        <time>2017-11-19T14:12:38.000Z</time>
      </trkpt>
      <trkpt lat="43.70771" lon="6.70656">
        <ele>833.5</ele>
      </trkpt>
      <trkpt lat="43.7075" lon="6.70658">
        <ele>829</ele>
        <time>2017-11-19T14:12:44.000Z</time>
      </trkpt>
      <trkpt lat="43.70746" lon="6.7066">
        <ele>834.3</ele>
      </trkpt>
      <trkpt lat="43.70736" lon="6.7066">
        <ele>834.1</ele>
      </trkpt>
      <trkpt lat="43.70732" lon="6.70661">
        <ele>834.3</ele>
      </trkpt>
      <trkpt lat="43.70724" lon="6.70662">
        <ele>835</ele>
        <time>2017-11-19T14:12:50.000Z</time>
      </trkpt>
      <trkpt lat="43.7072" lon="6.70664">
        <ele>834.9</ele>
      </trkpt>
      <trkpt lat="43.70715" lon="6.70665">
        <ele>834.7</ele>
      </trkpt>
      <trkpt lat="43.70707" lon="6.70668">
        <ele>834.5</ele>
      </trkpt>
      <trkpt lat="43.7069" lon="6.70677">
        <ele>834</ele>
        <time>2017-11-19T14:12:58.000Z</time>
      </trkpt>
      <trkpt lat="43.70685" lon="6.70679">
        <ele>834.6</ele>
      </trkpt>
      <trkpt lat="43.7067" lon="6.70681">
        <ele>832</ele>
        <time>2017-11-19T14:13:02.000Z</time>
      </trkpt>
      <trkpt lat="43.70652" lon="6.70678">
        <ele>834.4</ele>
      </trkpt>
      <trkpt lat="43.70648" lon="6.70679">
        <ele>833</ele>
        <time>2017-11-19T14:13:07.000Z</time>
      </trkpt>
      <trkpt lat="43.70639" lon="6.70674">
        <ele>834.1</ele>
      </trkpt>
      <trkpt lat="43.70621" lon="6.7067">
        <ele>834</ele>
        <time>2017-11-19T14:13:13.000Z</time>
      </trkpt>
      <trkpt lat="43.70612" lon="6.70666">
        <ele>834.8</ele>
      </trkpt>
      <trkpt lat="43.70603" lon="6.70665">
        <ele>835.5</ele>
      </trkpt>
      <trkpt lat="43.70594" lon="6.70662">
        <ele>840</ele>
        <time>2017-11-19T14:13:19.000Z</time>
      </trkpt>
      <trkpt lat="43.70591" lon="6.70659">
        <ele>835.4</ele>
      </trkpt>
      <trkpt lat="43.70587" lon="6.70658">
        <ele>835.5</ele>
      </trkpt>
      <trkpt lat="43.70582" lon="6.7066">
        <ele>836.5</ele>
      </trkpt>
      <trkpt lat="43.70578" lon="6.70658">
        <ele>836.6</ele>
      </trkpt>
      <trkpt lat="43.70568" lon="6.70654">
        <ele>841</ele>
        <time>2017-11-19T14:13:25.000Z</time>
      </trkpt>
      <trkpt lat="43.70565" lon="6.70651">
        <ele>837.1</ele>
      </trkpt>
      <trkpt lat="43.70548" lon="6.7064">
        <ele>853</ele>
        <time>2017-11-19T14:13:31.000Z</time>
      </trkpt>
      <trkpt lat="43.70545" lon="6.70636">
        <ele>838</ele>
      </trkpt>
      <trkpt lat="43.70543" lon="6.70632">
        <ele>837.6</ele>
      </trkpt>
      <trkpt lat="43.70534" lon="6.70627">
        <ele>838.5</ele>
      </trkpt>
      <trkpt lat="43.70527" lon="6.70622">
        <ele>842</ele>
        <time>2017-11-19T14:13:37.000Z</time>
      </trkpt>
      <trkpt lat="43.70525" lon="6.70616">
        <ele>837.8</ele>
      </trkpt>
      <trkpt lat="43.70521" lon="6.70611">
        <ele>837.4</ele>
      </trkpt>
      <trkpt lat="43.70518" lon="6.70607">
        <ele>837</ele>
      </trkpt>
      <trkpt lat="43.70509" lon="6.70602">
        <ele>851</ele>
        <time>2017-11-19T14:13:42.000Z</time>
      </trkpt>
      <trkpt lat="43.70507" lon="6.70599">
        <ele>837.3</ele>
      </trkpt>
      <trkpt lat="43.70503" lon="6.70596">
        <ele>837.5</ele>
      </trkpt>
      <trkpt lat="43.70498" lon="6.7059">
        <ele>837.1</ele>
      </trkpt>
      <trkpt lat="43.70494" lon="6.70585">
        <ele>847</ele>
        <time>2017-11-19T14:13:47.000Z</time>
      </trkpt>
      <trkpt lat="43.7049" lon="6.70581">
        <ele>837</ele>
      </trkpt>
      <trkpt lat="43.70483" lon="6.70581">
        <ele>838.7</ele>
      </trkpt>
      <trkpt lat="43.70474" lon="6.70572">
        <ele>850</ele>
        <time>2017-11-19T14:13:51.000Z</time>
      </trkpt>
      <trkpt lat="43.70468" lon="6.70561">
        <ele>836.9</ele>
      </trkpt>
      <trkpt lat="43.70463" lon="6.70558">
        <ele>837.5</ele>
      </trkpt>
      <trkpt lat="43.70459" lon="6.70553">
        <ele>847</ele>
        <time>2017-11-19T14:13:55.000Z</time>
      </trkpt>
      <trkpt lat="43.70439" lon="6.70543">
        <ele>847</ele>
        <time>2017-11-19T14:13:59.000Z</time>
      </trkpt>
      <trkpt lat="43.70435" lon="6.70539">
        <ele>838.5</ele>
      </trkpt>
      <trkpt lat="43.70426" lon="6.70533">
        <ele>838.2</ele>
      </trkpt>
      <trkpt lat="43.70415" lon="6.70521">
        <ele>847</ele>
        <time>2017-11-19T14:14:05.000Z</time>
      </trkpt>
      <trkpt lat="43.70413" lon="6.70514">
        <ele>836.7</ele>
      </trkpt>
      <trkpt lat="43.70408" lon="6.7051">
        <ele>838</ele>
      </trkpt>
      <trkpt lat="43.70405" lon="6.70503">
        <ele>837.7</ele>
      </trkpt>
      <trkpt lat="43.70402" lon="6.70498">
        <ele>846</ele>
        <time>2017-11-19T14:14:09.000Z</time>
      </trkpt>
      <trkpt lat="43.70401" lon="6.70492">
        <ele>837</ele>
      </trkpt>
      <trkpt lat="43.70396" lon="6.7048">
        <ele>836.6</ele>
      </trkpt>
      <trkpt lat="43.70394" lon="6.70473">
        <ele>842</ele>
        <time>2017-11-19T14:14:13.000Z</time>
      </trkpt>
      <trkpt lat="43.70393" lon="6.70445">
        <ele>837</ele>
        <time>2017-11-19T14:14:17.000Z</time>
      </trkpt>
      <trkpt lat="43.70388" lon="6.70433">
        <ele>834.2</ele>
      </trkpt>
      <trkpt lat="43.70386" lon="6.70427">
        <ele>833.6</ele>
      </trkpt>
      <trkpt lat="43.70378" lon="6.70419">
        <ele>842</ele>
        <time>2017-11-19T14:14:22.000Z</time>
      </trkpt>
      <trkpt lat="43.70372" lon="6.70417">
        <ele>834.7</ele>
      </trkpt>
      <trkpt lat="43.70368" lon="6.70414">
        <ele>834.5</ele>
      </trkpt>
      <trkpt lat="43.70363" lon="6.70412">
        <ele>834.9</ele>
      </trkpt>
      <trkpt lat="43.70353" lon="6.70411">
        <ele>842</ele>
        <time>2017-11-19T14:14:27.000Z</time>
      </trkpt>
      <trkpt lat="43.70343" lon="6.70411">
        <ele>836</ele>
      </trkpt>
      <trkpt lat="43.70329" lon="6.70408">
        <ele>841</ele>
        <time>2017-11-19T14:14:32.000Z</time>
      </trkpt>
      <trkpt lat="43.70318" lon="6.70405">
        <ele>836.5</ele>
      </trkpt>
      <trkpt lat="43.70313" lon="6.70404">
        <ele>836.7</ele>
      </trkpt>
      <trkpt lat="43.70305" lon="6.70401">
        <ele>850</ele>
        <time>2017-11-19T14:14:37.000Z</time>
      </trkpt>
      <trkpt lat="43.70296" lon="6.70395">
        <ele>837.2</ele>
      </trkpt>
      <trkpt lat="43.7029" lon="6.70392">
        <ele>837.6</ele>
      </trkpt>
      <trkpt lat="43.70285" lon="6.70389">
        <ele>851</ele>
        <time>2017-11-19T14:14:41.000Z</time>
      </trkpt>
      <trkpt lat="43.7028" lon="6.70383">
        <ele>836.6</ele>
      </trkpt>
      <trkpt lat="43.70275" lon="6.70379">
        <ele>836.9</ele>
      </trkpt>
      <trkpt lat="43.7027" lon="6.70377">
        <ele>838.1</ele>
      </trkpt>
      <trkpt lat="43.70247" lon="6.70355">
        <ele>850</ele>
        <time>2017-11-19T14:14:48.000Z</time>
      </trkpt>
      <trkpt lat="43.70241" lon="6.70349">
        <ele>838.4</ele>
      </trkpt>
      <trkpt lat="43.70218" lon="6.7032">
        <ele>839</ele>
        <time>2017-11-19T14:14:54.000Z</time>
      </trkpt>
      <trkpt lat="43.70214" lon="6.70314">
        <ele>834.6</ele>
      </trkpt>
      <trkpt lat="43.70209" lon="6.70309">
        <ele>834.5</ele>
      </trkpt>
      <trkpt lat="43.70205" lon="6.70304">
        <ele>834</ele>
      </trkpt>
      <trkpt lat="43.70191" lon="6.7029">
        <ele>835</ele>
        <time>2017-11-19T14:15:00.000Z</time>
      </trkpt>
      <trkpt lat="43.70186" lon="6.70287">
        <ele>834.8</ele>
      </trkpt>
      <trkpt lat="43.70183" lon="6.7028">
        <ele>833.4</ele>
      </trkpt>
      <trkpt lat="43.70174" lon="6.70272">
        <ele>840</ele>
        <time>2017-11-19T14:15:04.000Z</time>
      </trkpt>
      <trkpt lat="43.70169" lon="6.70268">
        <ele>834.9</ele>
      </trkpt>
      <trkpt lat="43.70166" lon="6.70264">
        <ele>834.6</ele>
      </trkpt>
      <trkpt lat="43.70163" lon="6.70261">
        <ele>833.9</ele>
      </trkpt>
      <trkpt lat="43.70158" lon="6.70259">
        <ele>833.6</ele>
      </trkpt>
      <trkpt lat="43.70145" lon="6.70255">
        <ele>834</ele>
        <time>2017-11-19T14:15:11.000Z</time>
      </trkpt>
      <trkpt lat="43.70141" lon="6.70256">
        <ele>834.3</ele>
      </trkpt>
      <trkpt lat="43.70133" lon="6.70256">
        <ele>834.1</ele>
      </trkpt>
      <trkpt lat="43.7011" lon="6.70266">
        <ele>833</ele>
        <time>2017-11-19T14:15:20.000Z</time>
      </trkpt>
      <trkpt lat="43.701" lon="6.70273">
        <ele>835.9</ele>
      </trkpt>
      <trkpt lat="43.70092" lon="6.70277">
        <ele>841</ele>
        <time>2017-11-19T14:15:25.000Z</time>
      </trkpt>
      <trkpt lat="43.70078" lon="6.70286">
        <ele>836.9</ele>
      </trkpt>
      <trkpt lat="43.70067" lon="6.70296">
        <ele>838</ele>
        <time>2017-11-19T14:15:32.000Z</time>
      </trkpt>
      <trkpt lat="43.70053" lon="6.7031">
        <ele>837.8</ele>
      </trkpt>
      <trkpt lat="43.70046" lon="6.70315">
        <ele>840</ele>
        <time>2017-11-19T14:15:38.000Z</time>
      </trkpt>
      <trkpt lat="43.70035" lon="6.70324">
        <ele>837.8</ele>
      </trkpt>
      <trkpt lat="43.70032" lon="6.70328">
        <ele>838.3</ele>
      </trkpt>
      <trkpt lat="43.70023" lon="6.70337">
        <ele>846</ele>
        <time>2017-11-19T14:15:45.000Z</time>
      </trkpt>
      <trkpt lat="43.70009" lon="6.70346">
        <ele>840.3</ele>
      </trkpt>
      <trkpt lat="43.70005" lon="6.70348">
        <ele>840.3</ele>
      </trkpt>
      <trkpt lat="43.69992" lon="6.70353">
        <ele>843</ele>
        <time>2017-11-19T14:15:54.000Z</time>
      </trkpt>
      <trkpt lat="43.69984" lon="6.70354">
        <ele>841.7</ele>
      </trkpt>
      <trkpt lat="43.69975" lon="6.70354">
        <ele>841.9</ele>
      </trkpt>
      <trkpt lat="43.69968" lon="6.70353">
        <ele>842</ele>
        <time>2017-11-19T14:16:01.000Z</time>
      </trkpt>
      <trkpt lat="43.69964" lon="6.70353">
        <ele>841.8</ele>
      </trkpt>
      <trkpt lat="43.69961" lon="6.70351">
        <ele>841.2</ele>
      </trkpt>
      <trkpt lat="43.69955" lon="6.70349">
        <ele>840.8</ele>
      </trkpt>
      <trkpt lat="43.69948" lon="6.70349">
        <ele>835</ele>
        <time>2017-11-19T14:16:07.000Z</time>
      </trkpt>
      <trkpt lat="43.69938" lon="6.70349">
        <ele>841.1</ele>
      </trkpt>
      <trkpt lat="43.69932" lon="6.70352">
        <ele>841.3</ele>
      </trkpt>
      <trkpt lat="43.69927" lon="6.70357">
        <ele>840</ele>
        <time>2017-11-19T14:16:14.000Z</time>
      </trkpt>
      <trkpt lat="43.69919" lon="6.7037">
        <ele>842</ele>
      </trkpt>
      <trkpt lat="43.69913" lon="6.70384">
        <ele>845</ele>
        <time>2017-11-19T14:16:20.000Z</time>
      </trkpt>
      <trkpt lat="43.69903" lon="6.70402">
        <ele>841.7</ele>
      </trkpt>
      <trkpt lat="43.69897" lon="6.70417">
        <ele>843</ele>
        <time>2017-11-19T14:16:27.000Z</time>
      </trkpt>
      <trkpt lat="43.69892" lon="6.70427">
        <ele>841.3</ele>
      </trkpt>
      <trkpt lat="43.69885" lon="6.70454">
        <ele>846</ele>
        <time>2017-11-19T14:16:34.000Z</time>
      </trkpt>
      <trkpt lat="43.69879" lon="6.70482">
        <ele>844</ele>
        <time>2017-11-19T14:16:39.000Z</time>
      </trkpt>
      <trkpt lat="43.69878" lon="6.70487">
        <ele>842</ele>
      </trkpt>
      <trkpt lat="43.69877" lon="6.70499">
        <ele>842.3</ele>
      </trkpt>
      <trkpt lat="43.69876" lon="6.70511">
        <ele>842</ele>
        <time>2017-11-19T14:16:44.000Z</time>
      </trkpt>
      <trkpt lat="43.69875" lon="6.70523">
        <ele>842.4</ele>
      </trkpt>
      <trkpt lat="43.69871" lon="6.70553">
        <ele>843</ele>
        <time>2017-11-19T14:16:51.000Z</time>
      </trkpt>
      <trkpt lat="43.69866" lon="6.7057">
        <ele>842</ele>
      </trkpt>
      <trkpt lat="43.69859" lon="6.7058">
        <ele>846</ele>
        <time>2017-11-19T14:16:56.000Z</time>
      </trkpt>
      <trkpt lat="43.69856" lon="6.70584">
        <ele>841.9</ele>
      </trkpt>
      <trkpt lat="43.69852" lon="6.70587">
        <ele>842.2</ele>
      </trkpt>
      <trkpt lat="43.69834" lon="6.70597">
        <ele>842</ele>
        <time>2017-11-19T14:17:02.000Z</time>
      </trkpt>
      <trkpt lat="43.69815" lon="6.70605">
        <ele>842.2</ele>
      </trkpt>
      <trkpt lat="43.69801" lon="6.7061">
        <ele>847</ele>
        <time>2017-11-19T14:17:09.000Z</time>
      </trkpt>
      <trkpt lat="43.69796" lon="6.70614">
        <ele>842</ele>
      </trkpt>
      <trkpt lat="43.69791" lon="6.70615">
        <ele>842</ele>
      </trkpt>
      <trkpt lat="43.69777" lon="6.70621">
        <ele>843</ele>
        <time>2017-11-19T14:17:14.000Z</time>
      </trkpt>
      <trkpt lat="43.69759" lon="6.70629">
        <ele>842.3</ele>
      </trkpt>
      <trkpt lat="43.6975" lon="6.70633">
        <ele>839</ele>
        <time>2017-11-19T14:17:20.000Z</time>
      </trkpt>
      <trkpt lat="43.69741" lon="6.70638">
        <ele>841.9</ele>
      </trkpt>
      <trkpt lat="43.6973" lon="6.70651">
        <ele>837</ele>
        <time>2017-11-19T14:17:25.000Z</time>
      </trkpt>
      <trkpt lat="43.69717" lon="6.7067">
        <ele>842</ele>
      </trkpt>
      <trkpt lat="43.69699" lon="6.70686">
        <ele>839</ele>
        <time>2017-11-19T14:17:33.000Z</time>
      </trkpt>
      <trkpt lat="43.69691" lon="6.70691">
        <ele>841.8</ele>
      </trkpt>
      <trkpt lat="43.69687" lon="6.70693">
        <ele>841.9</ele>
      </trkpt>
      <trkpt lat="43.69678" lon="6.70694">
        <ele>839</ele>
        <time>2017-11-19T14:17:38.000Z</time>
      </trkpt>
      <trkpt lat="43.69665" lon="6.70698">
        <ele>842.3</ele>
      </trkpt>
      <trkpt lat="43.69643" lon="6.70709">
        <ele>836</ele>
        <time>2017-11-19T14:17:46.000Z</time>
      </trkpt>
      <trkpt lat="43.69638" lon="6.70712">
        <ele>841.9</ele>
      </trkpt>
      <trkpt lat="43.69633" lon="6.70713">
        <ele>842</ele>
      </trkpt>
      <trkpt lat="43.69622" lon="6.70713">
        <ele>840</ele>
        <time>2017-11-19T14:17:50.000Z</time>
      </trkpt>
      <trkpt lat="43.69597" lon="6.70712">
        <ele>840</ele>
        <time>2017-11-19T14:17:55.000Z</time>
      </trkpt>
      <trkpt lat="43.69567" lon="6.70715">
        <ele>839</ele>
        <time>2017-11-19T14:18:01.000Z</time>
      </trkpt>
      <trkpt lat="43.69552" lon="6.70715">
        <ele>842</ele>
      </trkpt>
      <trkpt lat="43.69548" lon="6.70716">
        <ele>842.1</ele>
      </trkpt>
      <trkpt lat="43.69538" lon="6.70715">
        <ele>842</ele>
        <time>2017-11-19T14:18:07.000Z</time>
      </trkpt>
      <trkpt lat="43.69523" lon="6.70716">
        <ele>842</ele>
      </trkpt>
      <trkpt lat="43.69518" lon="6.70717">
        <ele>840</ele>
        <time>2017-11-19T14:18:11.000Z</time>
      </trkpt>
      <trkpt lat="43.69513" lon="6.70719">
        <ele>842.1</ele>
      </trkpt>
      <trkpt lat="43.69498" lon="6.70721">
        <ele>840</ele>
        <time>2017-11-19T14:18:15.000Z</time>
      </trkpt>
      <trkpt lat="43.69484" lon="6.70725">
        <ele>842.3</ele>
      </trkpt>
      <trkpt lat="43.69465" lon="6.70728">
        <ele>841</ele>
        <time>2017-11-19T14:18:22.000Z</time>
      </trkpt>
      <trkpt lat="43.69447" lon="6.70728">
        <ele>841.7</ele>
      </trkpt>
      <trkpt lat="43.69442" lon="6.7073">
        <ele>841</ele>
        <time>2017-11-19T14:18:27.000Z</time>
      </trkpt>
      <trkpt lat="43.69433" lon="6.70729">
        <ele>841.7</ele>
      </trkpt>
      <trkpt lat="43.69428" lon="6.70731">
        <ele>841.9</ele>
      </trkpt>
      <trkpt lat="43.69423" lon="6.70731">
        <ele>841.9</ele>
      </trkpt>
      <trkpt lat="43.6941" lon="6.70735">
        <ele>831</ele>
        <time>2017-11-19T14:18:34.000Z</time>
      </trkpt>
      <trkpt lat="43.69401" lon="6.70738">
        <ele>841.9</ele>
      </trkpt>
      <trkpt lat="43.69388" lon="6.70744">
        <ele>838</ele>
        <time>2017-11-19T14:18:39.000Z</time>
      </trkpt>
      <trkpt lat="43.6938" lon="6.70751">
        <ele>842.1</ele>
      </trkpt>
      <trkpt lat="43.69369" lon="6.70762">
        <ele>832</ele>
        <time>2017-11-19T14:18:44.000Z</time>
      </trkpt>
      <trkpt lat="43.6936" lon="6.70775">
        <ele>842.6</ele>
      </trkpt>
      <trkpt lat="43.69351" lon="6.70789">
        <ele>837</ele>
        <time>2017-11-19T14:18:50.000Z</time>
      </trkpt>
      <trkpt lat="43.69338" lon="6.70808">
        <ele>842.9</ele>
      </trkpt>
      <trkpt lat="43.69325" lon="6.70823">
        <ele>840</ele>
        <time>2017-11-19T14:18:58.000Z</time>
      </trkpt>
      <trkpt lat="43.69313" lon="6.70833">
        <ele>843.5</ele>
      </trkpt>
      <trkpt lat="43.6929" lon="6.70848">
        <ele>843</ele>
        <time>2017-11-19T14:19:07.000Z</time>
      </trkpt>
      <trkpt lat="43.6927" lon="6.70859">
        <ele>845</ele>
        <time>2017-11-19T14:19:12.000Z</time>
      </trkpt>
      <trkpt lat="43.69258" lon="6.70867">
        <ele>844.2</ele>
      </trkpt>
      <trkpt lat="43.69234" lon="6.70875">
        <ele>854</ele>
        <time>2017-11-19T14:19:20.000Z</time>
      </trkpt>
      <trkpt lat="43.6923" lon="6.70876">
        <ele>844.6</ele>
      </trkpt>
      <trkpt lat="43.69221" lon="6.70876">
        <ele>844.7</ele>
      </trkpt>
      <trkpt lat="43.69212" lon="6.70873">
        <ele>854</ele>
        <time>2017-11-19T14:19:25.000Z</time>
      </trkpt>
      <trkpt lat="43.69207" lon="6.70871">
        <ele>845.4</ele>
      </trkpt>
      <trkpt lat="43.692" lon="6.70864">
        <ele>845</ele>
      </trkpt>
      <trkpt lat="43.6919" lon="6.70852">
        <ele>858</ele>
        <time>2017-11-19T14:19:31.000Z</time>
      </trkpt>
      <trkpt lat="43.69183" lon="6.70842">
        <ele>845.4</ele>
      </trkpt>
      <trkpt lat="43.69166" lon="6.7081">
        <ele>853</ele>
        <time>2017-11-19T14:19:39.000Z</time>
      </trkpt>
      <trkpt lat="43.69147" lon="6.7078">
        <ele>852</ele>
        <time>2017-11-19T14:19:45.000Z</time>
      </trkpt>
      <trkpt lat="43.6914" lon="6.70769">
        <ele>843.9</ele>
      </trkpt>
      <trkpt lat="43.69132" lon="6.70761">
        <ele>847</ele>
        <time>2017-11-19T14:19:49.000Z</time>
      </trkpt>
      <trkpt lat="43.69123" lon="6.70754">
        <ele>843.6</ele>
      </trkpt>
      <trkpt lat="43.69118" lon="6.70752">
        <ele>843.7</ele>
      </trkpt>
      <trkpt lat="43.69113" lon="6.7075">
        <ele>850</ele>
        <time>2017-11-19T14:19:53.000Z</time>
      </trkpt>
      <trkpt lat="43.69108" lon="6.70747">
        <ele>844</ele>
      </trkpt>
      <trkpt lat="43.69104" lon="6.70744">
        <ele>844.1</ele>
      </trkpt>
      <trkpt lat="43.69099" lon="6.70741">
        <ele>844.2</ele>
      </trkpt>
      <trkpt lat="43.69095" lon="6.70738">
        <ele>849</ele>
        <time>2017-11-19T14:19:57.000Z</time>
      </trkpt>
      <trkpt lat="43.69071" lon="6.70725">
        <ele>849</ele>
        <time>2017-11-19T14:20:02.000Z</time>
      </trkpt>
      <trkpt lat="43.69056" lon="6.70718">
        <ele>843.8</ele>
      </trkpt>
      <trkpt lat="43.69046" lon="6.70716">
        <ele>849</ele>
        <time>2017-11-19T14:20:07.000Z</time>
      </trkpt>
      <trkpt lat="43.69035" lon="6.70716">
        <ele>843.9</ele>
      </trkpt>
      <trkpt lat="43.69019" lon="6.7072">
        <ele>850</ele>
        <time>2017-11-19T14:20:12.000Z</time>
      </trkpt>
      <trkpt lat="43.68999" lon="6.70728">
        <ele>850</ele>
        <time>2017-11-19T14:20:16.000Z</time>
      </trkpt>
      <trkpt lat="43.68984" lon="6.70736">
        <ele>843.4</ele>
      </trkpt>
      <trkpt lat="43.68974" lon="6.70743">
        <ele>850</ele>
        <time>2017-11-19T14:20:21.000Z</time>
      </trkpt>
      <trkpt lat="43.68964" lon="6.70754">
        <ele>842.4</ele>
      </trkpt>
      <trkpt lat="43.6896" lon="6.70759">
        <ele>842.1</ele>
      </trkpt>
      <trkpt lat="43.68957" lon="6.70766">
        <ele>846</ele>
        <time>2017-11-19T14:20:25.000Z</time>
      </trkpt>
      <trkpt lat="43.68955" lon="6.70773">
        <ele>841.8</ele>
      </trkpt>
      <trkpt lat="43.68953" lon="6.7078">
        <ele>841.5</ele>
      </trkpt>
      <trkpt lat="43.68951" lon="6.70788">
        <ele>841.1</ele>
      </trkpt>
      <trkpt lat="43.68951" lon="6.70796">
        <ele>843</ele>
        <time>2017-11-19T14:20:29.000Z</time>
      </trkpt>
      <trkpt lat="43.68953" lon="6.70811">
        <ele>840.1</ele>
      </trkpt>
      <trkpt lat="43.68955" lon="6.7082">
        <ele>839.6</ele>
      </trkpt>
      <trkpt lat="43.68961" lon="6.70834">
        <ele>847</ele>
        <time>2017-11-19T14:20:34.000Z</time>
      </trkpt>
      <trkpt lat="43.68969" lon="6.70846">
        <ele>839.4</ele>
      </trkpt>
      <trkpt lat="43.68977" lon="6.70857">
        <ele>844</ele>
        <time>2017-11-19T14:20:38.000Z</time>
      </trkpt>
      <trkpt lat="43.68989" lon="6.70872">
        <ele>838.5</ele>
      </trkpt>
      <trkpt lat="43.68999" lon="6.70881">
        <ele>849</ele>
        <time>2017-11-19T14:20:43.000Z</time>
      </trkpt>
      <trkpt lat="43.69003" lon="6.70886">
        <ele>839.7</ele>
      </trkpt>
      <trkpt lat="43.69011" lon="6.70898">
        <ele>837.8</ele>
      </trkpt>
      <trkpt lat="43.69025" lon="6.70914">
        <ele>850</ele>
        <time>2017-11-19T14:20:49.000Z</time>
      </trkpt>
      <trkpt lat="43.6903" lon="6.70919">
        <ele>837.7</ele>
      </trkpt>
      <trkpt lat="43.69039" lon="6.7093">
        <ele>836.1</ele>
      </trkpt>
      <trkpt lat="43.69049" lon="6.70939">
        <ele>850</ele>
        <time>2017-11-19T14:20:54.000Z</time>
      </trkpt>
      <trkpt lat="43.69059" lon="6.7095">
        <ele>835.9</ele>
      </trkpt>
      <trkpt lat="43.69065" lon="6.70955">
        <ele>835.9</ele>
      </trkpt>
      <trkpt lat="43.6907" lon="6.70961">
        <ele>845</ele>
        <time>2017-11-19T14:20:58.000Z</time>
      </trkpt>
      <trkpt lat="43.69075" lon="6.70966">
        <ele>834.8</ele>
      </trkpt>
      <trkpt lat="43.69086" lon="6.70977">
        <ele>849</ele>
        <time>2017-11-19T14:21:01.000Z</time>
      </trkpt>
      <trkpt lat="43.69116" lon="6.71006">
        <ele>849</ele>
        <time>2017-11-19T14:21:06.000Z</time>
      </trkpt>
      <trkpt lat="43.69121" lon="6.71013">
        <ele>832.8</ele>
      </trkpt>
      <trkpt lat="43.69133" lon="6.71026">
        <ele>848</ele>
        <time>2017-11-19T14:21:09.000Z</time>
      </trkpt>
      <trkpt lat="43.6915" lon="6.71046">
        <ele>848</ele>
        <time>2017-11-19T14:21:12.000Z</time>
      </trkpt>
      <trkpt lat="43.69157" lon="6.71052">
        <ele>830.3</ele>
      </trkpt>
      <trkpt lat="43.69174" lon="6.71072">
        <ele>835</ele>
        <time>2017-11-19T14:21:16.000Z</time>
      </trkpt>
      <trkpt lat="43.69179" lon="6.7108">
        <ele>832.3</ele>
      </trkpt>
      <trkpt lat="43.69184" lon="6.71089">
        <ele>832.5</ele>
      </trkpt>
      <trkpt lat="43.69189" lon="6.71098">
        <ele>835</ele>
        <time>2017-11-19T14:21:19.000Z</time>
      </trkpt>
      <trkpt lat="43.69201" lon="6.71128">
        <ele>839</ele>
        <time>2017-11-19T14:21:22.000Z</time>
      </trkpt>
      <trkpt lat="43.69207" lon="6.71138">
        <ele>831</ele>
      </trkpt>
      <trkpt lat="43.69212" lon="6.71148">
        <ele>829.7</ele>
      </trkpt>
      <trkpt lat="43.6922" lon="6.71158">
        <ele>849</ele>
        <time>2017-11-19T14:21:25.000Z</time>
      </trkpt>
      <trkpt lat="43.69234" lon="6.71173">
        <ele>825.7</ele>
      </trkpt>
      <trkpt lat="43.69241" lon="6.71182">
        <ele>855</ele>
        <time>2017-11-19T14:21:28.000Z</time>
      </trkpt>
      <trkpt lat="43.6925" lon="6.71187">
        <ele>824.9</ele>
      </trkpt>
      <trkpt lat="43.69259" lon="6.71194">
        <ele>842</ele>
      </trkpt>
      <trkpt lat="43.69282" lon="6.71219">
        <ele>831</ele>
        <time>2017-11-19T14:21:33.000Z</time>
      </trkpt>
      <trkpt lat="43.69296" lon="6.71233">
        <ele>821.9</ele>
      </trkpt>
      <trkpt lat="43.69314" lon="6.71252">
        <ele>820</ele>
        <time>2017-11-19T14:21:38.000Z</time>
      </trkpt>
      <trkpt lat="43.69321" lon="6.71264">
        <ele>820</ele>
      </trkpt>
      <trkpt lat="43.69326" lon="6.71275">
        <ele>825</ele>
        <time>2017-11-19T14:21:42.000Z</time>
      </trkpt>
      <trkpt lat="43.69328" lon="6.71277">
        <ele>818.4</ele>
      </trkpt>
      <trkpt lat="43.69329" lon="6.7128">
        <ele>818.2</ele>
      </trkpt>
      <trkpt lat="43.69332" lon="6.71289">
        <ele>818</ele>
      </trkpt>
      <trkpt lat="43.69334" lon="6.71298">
        <ele>817.7</ele>
      </trkpt>
      <trkpt lat="43.69335" lon="6.71308">
        <ele>823</ele>
        <time>2017-11-19T14:22:05.000Z</time>
      </trkpt>
      <trkpt lat="43.6934" lon="6.71333">
        <ele>815.7</ele>
      </trkpt>
      <trkpt lat="43.6934" lon="6.71348">
        <ele>823</ele>
        <time>2017-11-19T14:22:11.000Z</time>
      </trkpt>
      <trkpt lat="43.69344" lon="6.71364">
        <ele>814</ele>
      </trkpt>
      <trkpt lat="43.69352" lon="6.71387">
        <ele>824</ele>
        <time>2017-11-19T14:22:16.000Z</time>
      </trkpt>
      <trkpt lat="43.69356" lon="6.71393">
        <ele>812.8</ele>
      </trkpt>
      <trkpt lat="43.69366" lon="6.71404">
        <ele>812.6</ele>
      </trkpt>
      <trkpt lat="43.69371" lon="6.71408">
        <ele>824</ele>
        <time>2017-11-19T14:22:20.000Z</time>
      </trkpt>
      <trkpt lat="43.69396" lon="6.71432">
        <ele>817</ele>
        <time>2017-11-19T14:22:25.000Z</time>
      </trkpt>
      <trkpt lat="43.69402" lon="6.71437">
        <ele>812.3</ele>
      </trkpt>
      <trkpt lat="43.69407" lon="6.71442">
        <ele>811.2</ele>
      </trkpt>
      <trkpt lat="43.6941" lon="6.71447">
        <ele>810.3</ele>
      </trkpt>
      <trkpt lat="43.69412" lon="6.71453">
        <ele>816</ele>
        <time>2017-11-19T14:22:29.000Z</time>
      </trkpt>
      <trkpt lat="43.69415" lon="6.71463">
        <ele>809.5</ele>
      </trkpt>
      <trkpt lat="43.69415" lon="6.71467">
        <ele>809.2</ele>
      </trkpt>
      <trkpt lat="43.69415" lon="6.71473">
        <ele>808.8</ele>
      </trkpt>
      <trkpt lat="43.69415" lon="6.71478">
        <ele>809</ele>
      </trkpt>
      <trkpt lat="43.69412" lon="6.71483">
        <ele>817</ele>
        <time>2017-11-19T14:22:35.000Z</time>
      </trkpt>
      <trkpt lat="43.69404" lon="6.71492">
        <ele>808.9</ele>
      </trkpt>
      <trkpt lat="43.694" lon="6.71496">
        <ele>809</ele>
      </trkpt>
      <trkpt lat="43.69394" lon="6.71496">
        <ele>819</ele>
        <time>2017-11-19T14:22:39.000Z</time>
      </trkpt>
      <trkpt lat="43.69374" lon="6.71496">
        <ele>821</ele>
        <time>2017-11-19T14:22:42.000Z</time>
      </trkpt>
      <trkpt lat="43.69368" lon="6.71493">
        <ele>808.2</ele>
      </trkpt>
      <trkpt lat="43.69354" lon="6.71489">
        <ele>816</ele>
        <time>2017-11-19T14:22:45.000Z</time>
      </trkpt>
      <trkpt lat="43.6934" lon="6.71481">
        <ele>806.9</ele>
      </trkpt>
      <trkpt lat="43.69335" lon="6.7148">
        <ele>811</ele>
        <time>2017-11-19T14:22:48.000Z</time>
      </trkpt>
      <trkpt lat="43.6933" lon="6.71477">
        <ele>805</ele>
      </trkpt>
      <trkpt lat="43.69325" lon="6.71476">
        <ele>804.6</ele>
      </trkpt>
      <trkpt lat="43.69318" lon="6.71472">
        <ele>802.5</ele>
      </trkpt>
      <trkpt lat="43.69311" lon="6.71471">
        <ele>807</ele>
        <time>2017-11-19T14:22:54.000Z</time>
      </trkpt>
      <trkpt lat="43.69307" lon="6.71468">
        <ele>802.2</ele>
      </trkpt>
      <trkpt lat="43.69303" lon="6.71468">
        <ele>802.6</ele>
      </trkpt>
      <trkpt lat="43.69294" lon="6.71463">
        <ele>802.7</ele>
      </trkpt>
      <trkpt lat="43.69276" lon="6.7146">
        <ele>808</ele>
        <time>2017-11-19T14:23:02.000Z</time>
      </trkpt>
      <trkpt lat="43.69267" lon="6.71456">
        <ele>802.6</ele>
      </trkpt>
      <trkpt lat="43.69261" lon="6.71455">
        <ele>802.5</ele>
      </trkpt>
      <trkpt lat="43.69244" lon="6.71456">
        <ele>807</ele>
        <time>2017-11-19T14:23:13.000Z</time>
      </trkpt>
      <trkpt lat="43.69239" lon="6.71459">
        <ele>805.3</ele>
      </trkpt>
      <trkpt lat="43.69238" lon="6.71462">
        <ele>805.7</ele>
      </trkpt>
      <trkpt lat="43.69232" lon="6.71473">
        <ele>805.9</ele>
      </trkpt>
      <trkpt lat="43.69231" lon="6.71478">
        <ele>808</ele>
        <time>2017-11-19T14:23:20.000Z</time>
      </trkpt>
      <trkpt lat="43.6923" lon="6.71482">
        <ele>804</ele>
      </trkpt>
      <trkpt lat="43.6923" lon="6.71486">
        <ele>803.3</ele>
      </trkpt>
      <trkpt lat="43.69232" lon="6.71495">
        <ele>802</ele>
      </trkpt>
      <trkpt lat="43.69235" lon="6.715">
        <ele>801.8</ele>
      </trkpt>
      <trkpt lat="43.69241" lon="6.71508">
        <ele>806</ele>
        <time>2017-11-19T14:23:31.000Z</time>
      </trkpt>
      <trkpt lat="43.6924" lon="6.71514">
        <ele>801.3</ele>
      </trkpt>
      <trkpt lat="43.69236" lon="6.71517">
        <ele>800.1</ele>
      </trkpt>
      <trkpt lat="43.69229" lon="6.71523">
        <ele>798</ele>
      </trkpt>
      <trkpt lat="43.69223" lon="6.71526">
        <ele>799</ele>
        <time>2017-11-19T14:23:39.000Z</time>
      </trkpt>
      <trkpt lat="43.69219" lon="6.7153">
        <ele>795.1</ele>
      </trkpt>
      <trkpt lat="43.69218" lon="6.71535">
        <ele>794.7</ele>
      </trkpt>
      <trkpt lat="43.69217" lon="6.71541">
        <ele>794.4</ele>
      </trkpt>
      <trkpt lat="43.69217" lon="6.71545">
        <ele>794.4</ele>
      </trkpt>
      <trkpt lat="43.69214" lon="6.71555">
        <ele>796</ele>
        <time>2017-11-19T14:23:48.000Z</time>
      </trkpt>
      <trkpt lat="43.6921" lon="6.71562">
        <ele>792.7</ele>
      </trkpt>
      <trkpt lat="43.69209" lon="6.71565">
        <ele>792.7</ele>
      </trkpt>
      <trkpt lat="43.69202" lon="6.71574">
        <ele>791.4</ele>
      </trkpt>
      <trkpt lat="43.69194" lon="6.71581">
        <ele>788</ele>
        <time>2017-11-19T14:23:55.000Z</time>
      </trkpt>
      <trkpt lat="43.69182" lon="6.71588">
        <ele>787.5</ele>
      </trkpt>
      <trkpt lat="43.69175" lon="6.71591">
        <ele>781</ele>
        <time>2017-11-19T14:24:01.000Z</time>
      </trkpt>
      <trkpt lat="43.69173" lon="6.71594">
        <ele>786.4</ele>
      </trkpt>
      <trkpt lat="43.69164" lon="6.71599">
        <ele>785</ele>
      </trkpt>
      <trkpt lat="43.69159" lon="6.71604">
        <ele>784.5</ele>
      </trkpt>
      <trkpt lat="43.69154" lon="6.71605">
        <ele>783</ele>
        <time>2017-11-19T14:24:08.000Z</time>
      </trkpt>
      <trkpt lat="43.69152" lon="6.716">
        <ele>781.1</ele>
      </trkpt>
      <trkpt lat="43.69156" lon="6.71593">
        <ele>780.8</ele>
      </trkpt>
      <trkpt lat="43.69157" lon="6.71588">
        <ele>780</ele>
      </trkpt>
      <trkpt lat="43.69159" lon="6.71585">
        <ele>779.9</ele>
      </trkpt>
      <trkpt lat="43.69161" lon="6.71582">
        <ele>781</ele>
        <time>2017-11-19T14:24:17.000Z</time>
      </trkpt>
      <trkpt lat="43.69162" lon="6.71576">
        <ele>779.5</ele>
      </trkpt>
      <trkpt lat="43.69159" lon="6.71573">
        <ele>778.2</ele>
      </trkpt>
      <trkpt lat="43.69148" lon="6.71581">
        <ele>780</ele>
        <time>2017-11-19T14:24:26.000Z</time>
      </trkpt>
      <trkpt lat="43.69143" lon="6.71583">
        <ele>774.3</ele>
      </trkpt>
      <trkpt lat="43.69135" lon="6.71589">
        <ele>773.1</ele>
      </trkpt>
      <trkpt lat="43.69131" lon="6.71591">
        <ele>772.3</ele>
      </trkpt>
      <trkpt lat="43.6913" lon="6.71594">
        <ele>776</ele>
        <time>2017-11-19T14:24:37.000Z</time>
      </trkpt>
      <trkpt lat="43.69125" lon="6.71596">
        <ele>771.5</ele>
      </trkpt>
      <trkpt lat="43.69117" lon="6.71602">
        <ele>770.2</ele>
      </trkpt>
      <trkpt lat="43.6911" lon="6.71608">
        <ele>777</ele>
        <time>2017-11-19T14:24:46.000Z</time>
      </trkpt>
      <trkpt lat="43.69105" lon="6.71609">
        <ele>767.6</ele>
      </trkpt>
      <trkpt lat="43.69099" lon="6.71615">
        <ele>767</ele>
      </trkpt>
      <trkpt lat="43.69097" lon="6.71617">
        <ele>766.8</ele>
      </trkpt>
      <trkpt lat="43.69094" lon="6.7162">
        <ele>766.5</ele>
      </trkpt>
      <trkpt lat="43.69087" lon="6.71625">
        <ele>769</ele>
        <time>2017-11-19T14:24:56.000Z</time>
      </trkpt>
      <trkpt lat="43.69077" lon="6.71639">
        <ele>764.3</ele>
      </trkpt>
      <trkpt lat="43.69069" lon="6.71646">
        <ele>761</ele>
        <time>2017-11-19T14:25:06.000Z</time>
      </trkpt>
      <trkpt lat="43.69063" lon="6.71654">
        <ele>761.2</ele>
      </trkpt>
      <trkpt lat="43.69055" lon="6.71661">
        <ele>758.7</ele>
      </trkpt>
      <trkpt lat="43.69053" lon="6.71664">
        <ele>763</ele>
        <time>2017-11-19T14:25:13.000Z</time>
      </trkpt>
      <trkpt lat="43.69048" lon="6.71669">
        <ele>757.3</ele>
      </trkpt>
      <trkpt lat="43.69043" lon="6.71671">
        <ele>755.6</ele>
      </trkpt>
      <trkpt lat="43.69041" lon="6.71673">
        <ele>755.2</ele>
      </trkpt>
      <trkpt lat="43.69039" lon="6.71676">
        <ele>755</ele>
      </trkpt>
      <trkpt lat="43.69035" lon="6.7168">
        <ele>753</ele>
        <time>2017-11-19T14:25:21.000Z</time>
      </trkpt>
      <trkpt lat="43.69029" lon="6.71689">
        <ele>753.4</ele>
      </trkpt>
      <trkpt lat="43.69024" lon="6.71693">
        <ele>752.1</ele>
      </trkpt>
      <trkpt lat="43.69022" lon="6.71696">
        <ele>751.9</ele>
      </trkpt>
      <trkpt lat="43.69019" lon="6.71702">
        <ele>744</ele>
        <time>2017-11-19T14:25:30.000Z</time>
      </trkpt>
      <trkpt lat="43.69017" lon="6.71707">
        <ele>752.2</ele>
      </trkpt>
      <trkpt lat="43.69014" lon="6.71711">
        <ele>751.9</ele>
      </trkpt>
      <trkpt lat="43.6901" lon="6.71712">
        <ele>750.5</ele>
      </trkpt>
      <trkpt lat="43.69006" lon="6.71716">
        <ele>749.9</ele>
      </trkpt>
      <trkpt lat="43.68999" lon="6.71718">
        <ele>748</ele>
        <time>2017-11-19T14:26:38.000Z</time>
      </trkpt>
      <trkpt lat="43.68992" lon="6.71725">
        <ele>746.3</ele>
      </trkpt>
      <trkpt lat="43.68985" lon="6.7173">
        <ele>744.6</ele>
      </trkpt>
      <trkpt lat="43.68979" lon="6.71737">
        <ele>735</ele>
        <time>2017-11-19T14:26:47.000Z</time>
      </trkpt>
      <trkpt lat="43.68969" lon="6.71742">
        <ele>741.5</ele>
      </trkpt>
      <trkpt lat="43.68963" lon="6.71747">
        <ele>740.8</ele>
      </trkpt>
      <trkpt lat="43.68955" lon="6.71753">
        <ele>729</ele>
        <time>2017-11-19T14:26:56.000Z</time>
      </trkpt>
      <trkpt lat="43.68942" lon="6.71758">
        <ele>736.8</ele>
      </trkpt>
      <trkpt lat="43.68939" lon="6.7176">
        <ele>736.5</ele>
      </trkpt>
      <trkpt lat="43.68931" lon="6.71762">
        <ele>716</ele>
        <time>2017-11-19T14:27:02.000Z</time>
      </trkpt>
      <trkpt lat="43.68917" lon="6.71771">
        <ele>732.9</ele>
      </trkpt>
      <trkpt lat="43.689" lon="6.7178">
        <ele>711</ele>
        <time>2017-11-19T14:27:13.000Z</time>
      </trkpt>
      <trkpt lat="43.68896" lon="6.71783">
        <ele>729</ele>
      </trkpt>
      <trkpt lat="43.68894" lon="6.71787">
        <ele>729.3</ele>
      </trkpt>
      <trkpt lat="43.68883" lon="6.71798">
        <ele>711</ele>
        <time>2017-11-19T14:27:53.000Z</time>
      </trkpt>
      <trkpt lat="43.68876" lon="6.71803">
        <ele>725.4</ele>
      </trkpt>
      <trkpt lat="43.68876" lon="6.71808">
        <ele>726.5</ele>
      </trkpt>
      <trkpt lat="43.68866" lon="6.71823">
        <ele>715</ele>
        <time>2017-11-19T14:28:02.000Z</time>
      </trkpt>
      <trkpt lat="43.68863" lon="6.71824">
        <ele>723.9</ele>
      </trkpt>
      <trkpt lat="43.68861" lon="6.71827">
        <ele>723.6</ele>
      </trkpt>
      <trkpt lat="43.68858" lon="6.71832">
        <ele>723.3</ele>
      </trkpt>
      <trkpt lat="43.68856" lon="6.71834">
        <ele>722.7</ele>
      </trkpt>
      <trkpt lat="43.68853" lon="6.71839">
        <ele>722.3</ele>
      </trkpt>
      <trkpt lat="43.68849" lon="6.71843">
        <ele>705</ele>
        <time>2017-11-19T14:28:11.000Z</time>
      </trkpt>
      <trkpt lat="43.68839" lon="6.71853">
        <ele>718.8</ele>
      </trkpt>
      <trkpt lat="43.68836" lon="6.71859">
        <ele>718.7</ele>
      </trkpt>
      <trkpt lat="43.68825" lon="6.71873">
        <ele>711</ele>
        <time>2017-11-19T14:28:22.000Z</time>
      </trkpt>
      <trkpt lat="43.68815" lon="6.71884">
        <ele>714.6</ele>
      </trkpt>
      <trkpt lat="43.68803" lon="6.719">
        <ele>707</ele>
        <time>2017-11-19T14:28:33.000Z</time>
      </trkpt>
      <trkpt lat="43.68798" lon="6.71904">
        <ele>712</ele>
      </trkpt>
      <trkpt lat="43.68794" lon="6.7191">
        <ele>711.6</ele>
      </trkpt>
      <trkpt lat="43.68787" lon="6.71918">
        <ele>705</ele>
        <time>2017-11-19T14:28:41.000Z</time>
      </trkpt>
      <trkpt lat="43.68782" lon="6.71921">
        <ele>709.1</ele>
      </trkpt>
      <trkpt lat="43.68776" lon="6.71928">
        <ele>708.1</ele>
      </trkpt>
      <trkpt lat="43.6877" lon="6.7194">
        <ele>700</ele>
        <time>2017-11-19T14:28:50.000Z</time>
      </trkpt>
      <trkpt lat="43.68768" lon="6.71945">
        <ele>707.9</ele>
      </trkpt>
      <trkpt lat="43.68759" lon="6.71957">
        <ele>705.7</ele>
      </trkpt>
      <trkpt lat="43.68757" lon="6.71962">
        <ele>703</ele>
        <time>2017-11-19T14:28:57.000Z</time>
      </trkpt>
      <trkpt lat="43.68748" lon="6.71978">
        <ele>703.4</ele>
      </trkpt>
      <trkpt lat="43.68745" lon="6.71985">
        <ele>703</ele>
        <time>2017-11-19T14:29:05.000Z</time>
      </trkpt>
      <trkpt lat="43.68743" lon="6.71999">
        <ele>701.7</ele>
      </trkpt>
      <trkpt lat="43.68741" lon="6.72011">
        <ele>700.3</ele>
      </trkpt>
      <trkpt lat="43.6874" lon="6.72015">
        <ele>705</ele>
        <time>2017-11-19T14:29:15.000Z</time>
      </trkpt>
      <trkpt lat="43.68739" lon="6.72019">
        <ele>699.1</ele>
      </trkpt>
      <trkpt lat="43.68735" lon="6.72018">
        <ele>697.8</ele>
      </trkpt>
      <trkpt lat="43.68732" lon="6.72015">
        <ele>697.1</ele>
      </trkpt>
      <trkpt lat="43.68729" lon="6.72009">
        <ele>696.5</ele>
      </trkpt>
      <trkpt lat="43.68726" lon="6.71996">
        <ele>691</ele>
        <time>2017-11-19T14:29:29.000Z</time>
      </trkpt>
      <trkpt lat="43.68725" lon="6.71986">
        <ele>695.9</ele>
      </trkpt>
      <trkpt lat="43.68722" lon="6.71976">
        <ele>694.9</ele>
      </trkpt>
      <trkpt lat="43.68721" lon="6.71972">
        <ele>694.6</ele>
      </trkpt>
      <trkpt lat="43.68725" lon="6.7195">
        <ele>688</ele>
        <time>2017-11-19T14:29:52.000Z</time>
      </trkpt>
      <trkpt lat="43.68725" lon="6.71939">
        <ele>693.5</ele>
      </trkpt>
      <trkpt lat="43.68723" lon="6.71937">
        <ele>692.4</ele>
      </trkpt>
      <trkpt lat="43.68718" lon="6.71943">
        <ele>692.4</ele>
      </trkpt>
      <trkpt lat="43.68717" lon="6.71947">
        <ele>688</ele>
        <time>2017-11-19T14:30:24.000Z</time>
      </trkpt>
      <trkpt lat="43.68714" lon="6.71949">
        <ele>691.7</ele>
      </trkpt>
      <trkpt lat="43.68711" lon="6.71954">
        <ele>691</ele>
      </trkpt>
      <trkpt lat="43.6871" lon="6.71957">
        <ele>690.7</ele>
      </trkpt>
      <trkpt lat="43.68704" lon="6.71965">
        <ele>689</ele>
      </trkpt>
      <trkpt lat="43.687" lon="6.71976">
        <ele>684</ele>
        <time>2017-11-19T14:30:37.000Z</time>
      </trkpt>
      <trkpt lat="43.68699" lon="6.71992">
        <ele>686.9</ele>
      </trkpt>
      <trkpt lat="43.68696" lon="6.72002">
        <ele>685.5</ele>
      </trkpt>
      <trkpt lat="43.68694" lon="6.72">
        <ele>685</ele>
        <time>2017-11-19T14:30:47.000Z</time>
      </trkpt>
      <trkpt lat="43.68691" lon="6.71995">
        <ele>684</ele>
      </trkpt>
      <trkpt lat="43.6869" lon="6.7199">
        <ele>683.8</ele>
      </trkpt>
      <trkpt lat="43.68686" lon="6.71983">
        <ele>682.8</ele>
      </trkpt>
      <trkpt lat="43.68686" lon="6.71978">
        <ele>683</ele>
      </trkpt>
      <trkpt lat="43.68683" lon="6.7197">
        <ele>677</ele>
        <time>2017-11-19T14:30:55.000Z</time>
      </trkpt>
      <trkpt lat="43.68683" lon="6.71961">
        <ele>682.3</ele>
      </trkpt>
      <trkpt lat="43.6868" lon="6.71959">
        <ele>681.3</ele>
      </trkpt>
      <trkpt lat="43.68678" lon="6.71973">
        <ele>677</ele>
        <time>2017-11-19T14:31:08.000Z</time>
      </trkpt>
      <trkpt lat="43.68675" lon="6.71975">
        <ele>679.5</ele>
      </trkpt>
      <trkpt lat="43.68675" lon="6.71968">
        <ele>679.7</ele>
      </trkpt>
      <trkpt lat="43.68673" lon="6.71963">
        <ele>679.1</ele>
      </trkpt>
      <trkpt lat="43.68668" lon="6.71954">
        <ele>675</ele>
        <time>2017-11-19T14:31:17.000Z</time>
      </trkpt>
      <trkpt lat="43.68669" lon="6.71938">
        <ele>676.8</ele>
      </trkpt>
      <trkpt lat="43.68667" lon="6.71935">
        <ele>675.7</ele>
      </trkpt>
      <trkpt lat="43.68664" lon="6.71934">
        <ele>674.7</ele>
      </trkpt>
      <trkpt lat="43.68661" lon="6.71936">
        <ele>672</ele>
        <time>2017-11-19T14:31:29.000Z</time>
      </trkpt>
      <trkpt lat="43.68659" lon="6.71939">
        <ele>673.9</ele>
      </trkpt>
      <trkpt lat="43.68658" lon="6.71944">
        <ele>674.1</ele>
      </trkpt>
      <trkpt lat="43.68655" lon="6.71942">
        <ele>673</ele>
      </trkpt>
      <trkpt lat="43.68656" lon="6.71936">
        <ele>672.7</ele>
      </trkpt>
      <trkpt lat="43.68655" lon="6.71932">
        <ele>672</ele>
      </trkpt>
      <trkpt lat="43.68656" lon="6.71924">
        <ele>664</ele>
        <time>2017-11-19T14:31:54.000Z</time>
      </trkpt>
      <trkpt lat="43.68659" lon="6.71915">
        <ele>670.9</ele>
      </trkpt>
      <trkpt lat="43.68662" lon="6.7191">
        <ele>670.1</ele>
      </trkpt>
      <trkpt lat="43.68662" lon="6.71905">
        <ele>668.7</ele>
      </trkpt>
      <trkpt lat="43.6866" lon="6.71904">
        <ele>668</ele>
      </trkpt>
      <trkpt lat="43.68657" lon="6.71905">
        <ele>657</ele>
        <time>2017-11-19T14:32:21.000Z</time>
      </trkpt>
      <trkpt lat="43.68649" lon="6.71909">
        <ele>667.2</ele>
      </trkpt>
      <trkpt lat="43.68641" lon="6.71916">
        <ele>667.3</ele>
      </trkpt>
      <trkpt lat="43.68634" lon="6.71919">
        <ele>664</ele>
        <time>2017-11-19T14:32:30.000Z</time>
      </trkpt>
      <trkpt lat="43.68629" lon="6.71923">
        <ele>665.1</ele>
      </trkpt>
      <trkpt lat="43.68618" lon="6.71926">
        <ele>662.8</ele>
      </trkpt>
      <trkpt lat="43.68615" lon="6.71928">
        <ele>661</ele>
        <time>2017-11-19T14:32:37.000Z</time>
      </trkpt>
      <trkpt lat="43.68605" lon="6.7193">
        <ele>660.6</ele>
      </trkpt>
      <trkpt lat="43.68601" lon="6.7193">
        <ele>660</ele>
      </trkpt>
      <trkpt lat="43.68585" lon="6.7193">
        <ele>658</ele>
        <time>2017-11-19T14:32:50.000Z</time>
      </trkpt>
      <trkpt lat="43.68579" lon="6.71931">
        <ele>656.9</ele>
      </trkpt>
      <trkpt lat="43.68573" lon="6.71933">
        <ele>655.9</ele>
      </trkpt>
      <trkpt lat="43.6857" lon="6.71932">
        <ele>655.5</ele>
      </trkpt>
      <trkpt lat="43.68563" lon="6.71933">
        <ele>653</ele>
        <time>2017-11-19T14:32:57.000Z</time>
      </trkpt>
      <trkpt lat="43.68553" lon="6.7193">
        <ele>653.2</ele>
      </trkpt>
      <trkpt lat="43.6855" lon="6.7193">
        <ele>652.7</ele>
      </trkpt>
      <trkpt lat="43.68544" lon="6.71928">
        <ele>651.9</ele>
      </trkpt>
      <trkpt lat="43.68537" lon="6.71925">
        <ele>648</ele>
        <time>2017-11-19T14:33:05.000Z</time>
      </trkpt>
      <trkpt lat="43.68527" lon="6.71925">
        <ele>649.6</ele>
      </trkpt>
      <trkpt lat="43.68514" lon="6.71918">
        <ele>647</ele>
        <time>2017-11-19T14:33:12.000Z</time>
      </trkpt>
      <trkpt lat="43.68507" lon="6.71916">
        <ele>647</ele>
      </trkpt>
      <trkpt lat="43.68504" lon="6.71915">
        <ele>646.6</ele>
      </trkpt>
      <trkpt lat="43.68501" lon="6.71913">
        <ele>646.1</ele>
      </trkpt>
      <trkpt lat="43.68488" lon="6.71911">
        <ele>642</ele>
        <time>2017-11-19T14:33:20.000Z</time>
      </trkpt>
      <trkpt lat="43.68485" lon="6.71912">
        <ele>643.7</ele>
      </trkpt>
      <trkpt lat="43.68482" lon="6.71912">
        <ele>643.2</ele>
      </trkpt>
      <trkpt lat="43.68476" lon="6.7191">
        <ele>642.5</ele>
      </trkpt>
      <trkpt lat="43.68469" lon="6.7191">
        <ele>641.6</ele>
      </trkpt>
      <trkpt lat="43.68457" lon="6.71909">
        <ele>640</ele>
        <time>2017-11-19T14:33:29.000Z</time>
      </trkpt>
      <trkpt lat="43.68436" lon="6.71903">
        <ele>638</ele>
        <time>2017-11-19T14:33:34.000Z</time>
      </trkpt>
      <trkpt lat="43.6842" lon="6.71901">
        <ele>637.6</ele>
      </trkpt>
      <trkpt lat="43.68405" lon="6.71903">
        <ele>640</ele>
        <time>2017-11-19T14:33:43.000Z</time>
      </trkpt>
      <trkpt lat="43.68401" lon="6.71906">
        <ele>635.4</ele>
      </trkpt>
      <trkpt lat="43.6839" lon="6.71909">
        <ele>634.2</ele>
      </trkpt>
      <trkpt lat="43.68387" lon="6.71911">
        <ele>635</ele>
        <time>2017-11-19T14:33:50.000Z</time>
      </trkpt>
      <trkpt lat="43.68376" lon="6.71916">
        <ele>632.2</ele>
      </trkpt>
      <trkpt lat="43.68372" lon="6.71918">
        <ele>631.4</ele>
      </trkpt>
      <trkpt lat="43.68369" lon="6.7192">
        <ele>630.7</ele>
      </trkpt>
      <trkpt lat="43.6836" lon="6.71924">
        <ele>636</ele>
        <time>2017-11-19T14:34:00.000Z</time>
      </trkpt>
      <trkpt lat="43.68356" lon="6.71924">
        <ele>628.6</ele>
      </trkpt>
      <trkpt lat="43.6835" lon="6.71926">
        <ele>627.3</ele>
      </trkpt>
      <trkpt lat="43.68352" lon="6.71929">
        <ele>626.8</ele>
      </trkpt>
      <trkpt lat="43.68356" lon="6.71933">
        <ele>626.2</ele>
      </trkpt>
      <trkpt lat="43.68365" lon="6.71937">
        <ele>636</ele>
        <time>2017-11-19T14:34:11.000Z</time>
      </trkpt>
      <trkpt lat="43.68372" lon="6.71937">
        <ele>626.1</ele>
      </trkpt>
      <trkpt lat="43.68377" lon="6.71939">
        <ele>625.6</ele>
      </trkpt>
      <trkpt lat="43.68379" lon="6.71943">
        <ele>624.4</ele>
      </trkpt>
      <trkpt lat="43.6839" lon="6.71949">
        <ele>633</ele>
        <time>2017-11-19T14:34:19.000Z</time>
      </trkpt>
      <trkpt lat="43.68392" lon="6.71954">
        <ele>621.9</ele>
      </trkpt>
      <trkpt lat="43.6839" lon="6.71957">
        <ele>621</ele>
      </trkpt>
      <trkpt lat="43.68385" lon="6.71959">
        <ele>620.2</ele>
      </trkpt>
      <trkpt lat="43.68372" lon="6.71962">
        <ele>624</ele>
        <time>2017-11-19T14:34:28.000Z</time>
      </trkpt>
      <trkpt lat="43.68364" lon="6.71963">
        <ele>618.1</ele>
      </trkpt>
      <trkpt lat="43.68356" lon="6.71962">
        <ele>617.8</ele>
      </trkpt>
      <trkpt lat="43.68352" lon="6.71962">
        <ele>624</ele>
        <time>2017-11-19T14:34:33.000Z</time>
      </trkpt>
      <trkpt lat="43.68337" lon="6.71967">
        <ele>614.6</ele>
      </trkpt>
      <trkpt lat="43.68329" lon="6.71965">
        <ele>625</ele>
        <time>2017-11-19T14:34:39.000Z</time>
      </trkpt>
      <trkpt lat="43.68326" lon="6.71965">
        <ele>613.8</ele>
      </trkpt>
      <trkpt lat="43.68321" lon="6.71966">
        <ele>612.8</ele>
      </trkpt>
      <trkpt lat="43.68314" lon="6.71966">
        <ele>611.8</ele>
      </trkpt>
      <trkpt lat="43.6831" lon="6.71968">
        <ele>620</ele>
        <time>2017-11-19T14:34:44.000Z</time>
      </trkpt>
      <trkpt lat="43.68303" lon="6.71967">
        <ele>610</ele>
      </trkpt>
      <trkpt lat="43.68297" lon="6.71967">
        <ele>609.1</ele>
      </trkpt>
      <trkpt lat="43.68285" lon="6.71969">
        <ele>610</ele>
        <time>2017-11-19T14:34:50.000Z</time>
      </trkpt>
      <trkpt lat="43.6828" lon="6.71968">
        <ele>606.5</ele>
      </trkpt>
      <trkpt lat="43.68276" lon="6.71968">
        <ele>606</ele>
      </trkpt>
      <trkpt lat="43.68272" lon="6.71971">
        <ele>604.5</ele>
      </trkpt>
      <trkpt lat="43.68253" lon="6.71973">
        <ele>602</ele>
        <time>2017-11-19T14:34:58.000Z</time>
      </trkpt>
      <trkpt lat="43.68245" lon="6.71975">
        <ele>599.9</ele>
      </trkpt>
      <trkpt lat="43.68241" lon="6.71974">
        <ele>599.9</ele>
      </trkpt>
      <trkpt lat="43.68233" lon="6.71975">
        <ele>601</ele>
        <time>2017-11-19T14:35:03.000Z</time>
      </trkpt>
      <trkpt lat="43.68228" lon="6.71976">
        <ele>598.4</ele>
      </trkpt>
      <trkpt lat="43.68208" lon="6.71973">
        <ele>598</ele>
        <time>2017-11-19T14:35:08.000Z</time>
      </trkpt>
      <trkpt lat="43.68199" lon="6.71971">
        <ele>595.9</ele>
      </trkpt>
      <trkpt lat="43.68194" lon="6.7197">
        <ele>595.4</ele>
      </trkpt>
      <trkpt lat="43.68181" lon="6.71966">
        <ele>596</ele>
        <time>2017-11-19T14:35:14.000Z</time>
      </trkpt>
      <trkpt lat="43.68172" lon="6.71967">
        <ele>593.6</ele>
      </trkpt>
      <trkpt lat="43.68167" lon="6.71968">
        <ele>592.8</ele>
      </trkpt>
      <trkpt lat="43.68158" lon="6.71968">
        <ele>596</ele>
        <time>2017-11-19T14:35:19.000Z</time>
      </trkpt>
      <trkpt lat="43.68148" lon="6.71965">
        <ele>590.1</ele>
      </trkpt>
      <trkpt lat="43.68145" lon="6.71964">
        <ele>589.8</ele>
      </trkpt>
      <trkpt lat="43.68138" lon="6.7196">
        <ele>596</ele>
        <time>2017-11-19T14:35:25.000Z</time>
      </trkpt>
      <trkpt lat="43.68134" lon="6.71959">
        <ele>588.7</ele>
      </trkpt>
      <trkpt lat="43.68127" lon="6.71957">
        <ele>587.4</ele>
      </trkpt>
      <trkpt lat="43.68123" lon="6.71958">
        <ele>586.3</ele>
      </trkpt>
      <trkpt lat="43.6812" lon="6.71959">
        <ele>585.5</ele>
      </trkpt>
      <trkpt lat="43.68109" lon="6.71966">
        <ele>589</ele>
        <time>2017-11-19T14:35:33.000Z</time>
      </trkpt>
      <trkpt lat="43.68101" lon="6.71968">
        <ele>580.7</ele>
      </trkpt>
      <trkpt lat="43.68094" lon="6.71972">
        <ele>578.9</ele>
      </trkpt>
      <trkpt lat="43.68084" lon="6.71974">
        <ele>584</ele>
        <time>2017-11-19T14:35:39.000Z</time>
      </trkpt>
      <trkpt lat="43.68075" lon="6.71978">
        <ele>575.9</ele>
      </trkpt>
      <trkpt lat="43.68071" lon="6.71978">
        <ele>575.5</ele>
      </trkpt>
      <trkpt lat="43.6805" lon="6.71985">
        <ele>580</ele>
        <time>2017-11-19T14:35:46.000Z</time>
      </trkpt>
      <trkpt lat="43.68037" lon="6.71992">
        <ele>573.7</ele>
      </trkpt>
      <trkpt lat="43.68034" lon="6.71995">
        <ele>573.8</ele>
      </trkpt>
      <trkpt lat="43.68027" lon="6.71998">
        <ele>576</ele>
        <time>2017-11-19T14:35:52.000Z</time>
      </trkpt>
      <trkpt lat="43.68024" lon="6.72002">
        <ele>572.8</ele>
      </trkpt>
      <trkpt lat="43.68022" lon="6.72007">
        <ele>573.1</ele>
      </trkpt>
      <trkpt lat="43.6802" lon="6.72011">
        <ele>573.3</ele>
      </trkpt>
      <trkpt lat="43.6802" lon="6.72011">
        <ele>573.3</ele>
      </trkpt>
      <trkpt lat="43.67968" lon="6.72027">
        <ele>574</ele>
      </trkpt>
      <trkpt lat="43.67944" lon="6.7201">
        <ele>571</ele>
      </trkpt>
      <trkpt lat="43.67919" lon="6.71993">
        <ele>574</ele>
      </trkpt>
      <trkpt lat="43.67889" lon="6.71959">
        <ele>557</ele>
      </trkpt>
      <trkpt lat="43.67854" lon="6.71936">
        <ele>553</ele>
      </trkpt>
      <trkpt lat="43.67854" lon="6.71936">
        <ele>558.7</ele>
      </trkpt>
      <trkpt lat="43.67831" lon="6.719">
        <ele>541</ele>
      </trkpt>
      <trkpt lat="43.67831" lon="6.719">
        <ele>552.1</ele>
      </trkpt>
      <trkpt lat="43.67792" lon="6.71897">
        <ele>535</ele>
      </trkpt>
      <trkpt lat="43.67764" lon="6.71908">
        <ele>524</ele>
      </trkpt>
      <trkpt lat="43.67737" lon="6.71931">
        <ele>524</ele>
      </trkpt>
      <trkpt lat="43.67717" lon="6.71939">
        <ele>524</ele>
      </trkpt>
      <trkpt lat="43.67684" lon="6.71942">
        <ele>520</ele>
      </trkpt>
      <trkpt lat="43.67661" lon="6.71948">
        <ele>520</ele>
      </trkpt>
      <trkpt lat="43.67692" lon="6.71905">
        <ele>506</ele>
      </trkpt>
      <trkpt lat="43.67725" lon="6.71891">
        <ele>513</ele>
      </trkpt>
      <trkpt lat="43.67743" lon="6.71871">
        <ele>516</ele>
      </trkpt>
      <trkpt lat="43.67762" lon="6.71849">
        <ele>505</ele>
      </trkpt>
      <trkpt lat="43.67762" lon="6.71849">
        <ele>518.4</ele>
      </trkpt>
      <trkpt lat="43.67786" lon="6.71809">
        <ele>506</ele>
      </trkpt>
      <trkpt lat="43.67809" lon="6.71795">
        <ele>500</ele>
      </trkpt>
      <trkpt lat="43.67809" lon="6.71795">
        <ele>515.5</ele>
      </trkpt>
      <trkpt lat="43.67809" lon="6.71795">
        <ele>515.5</ele>
      </trkpt>
      <trkpt lat="43.67796" lon="6.71761">
        <ele>492</ele>
      </trkpt>
      <trkpt lat="43.67776" lon="6.71785">
        <ele>498</ele>
      </trkpt>
      <trkpt lat="43.67751" lon="6.71815">
        <ele>494</ele>
      </trkpt>
      <trkpt lat="43.67725" lon="6.71846">
        <ele>490</ele>
      </trkpt>
      <trkpt lat="43.6769" lon="6.71866">
        <ele>495</ele>
      </trkpt>
      <trkpt lat="43.67657" lon="6.7188">
        <ele>492</ele>
      </trkpt>
      <trkpt lat="43.67625" lon="6.71897">
        <ele>494</ele>
      </trkpt>
      <trkpt lat="43.67582" lon="6.71911">
        <ele>498</ele>
      </trkpt>
      <trkpt lat="43.67553" lon="6.71897">
        <ele>487</ele>
      </trkpt>
      <trkpt lat="43.67582" lon="6.71911">
        <ele>498</ele>
      </trkpt>
      <trkpt lat="43.67606" lon="6.71871">
        <ele>493</ele>
      </trkpt>
      <trkpt lat="43.67649" lon="6.71846">
        <ele>489</ele>
      </trkpt>
      <trkpt lat="43.6769" lon="6.71829">
        <ele>486</ele>
      </trkpt>
      <trkpt lat="43.67688" lon="6.71792">
        <ele>488</ele>
      </trkpt>
      <trkpt lat="43.67651" lon="6.71804">
        <ele>492</ele>
      </trkpt>
      <trkpt lat="43.6761" lon="6.71816">
        <ele>499</ele>
      </trkpt>
      <trkpt lat="43.67581" lon="6.71808">
        <ele>502</ele>
      </trkpt>
      <trkpt lat="43.67541" lon="6.71793">
        <ele>519</ele>
      </trkpt>
      <trkpt lat="43.67505" lon="6.71823">
        <ele>501</ele>
      </trkpt>
      <trkpt lat="43.67483" lon="6.71864">
        <ele>507</ele>
      </trkpt>
      <trkpt lat="43.67465" lon="6.71919">
        <ele>489</ele>
      </trkpt>
      <trkpt lat="43.6744" lon="6.71967">
        <ele>489</ele>
      </trkpt>
      <trkpt lat="43.67412" lon="6.7199">
        <ele>478</ele>
      </trkpt>
      <trkpt lat="43.67385" lon="6.72029">
        <ele>479</ele>
      </trkpt>
      <trkpt lat="43.67362" lon="6.7204">
        <ele>490</ele>
      </trkpt>
      <trkpt lat="43.67339" lon="6.7205">
        <ele>490</ele>
      </trkpt>
      <trkpt lat="43.67299" lon="6.72072">
        <ele>507</ele>
      </trkpt>
      <trkpt lat="43.67273" lon="6.72072">
        <ele>507</ele>
      </trkpt>
      <trkpt lat="43.67246" lon="6.72072">
        <ele>509</ele>
      </trkpt>
      <trkpt lat="43.67221" lon="6.72064">
        <ele>521</ele>
      </trkpt>
      <trkpt lat="43.67195" lon="6.72055">
        <ele>502</ele>
      </trkpt>
      <trkpt lat="43.67148" lon="6.72052">
        <ele>506</ele>
      </trkpt>
      <trkpt lat="43.67103" lon="6.72078">
        <ele>496</ele>
      </trkpt>
      <trkpt lat="43.67072" lon="6.72065">
        <ele>526</ele>
      </trkpt>
      <trkpt lat="43.67051" lon="6.72043">
        <ele>536</ele>
      </trkpt>
      <trkpt lat="43.67027" lon="6.72016">
        <ele>532</ele>
      </trkpt>
      <trkpt lat="43.67013" lon="6.71986">
        <ele>530</ele>
      </trkpt>
      <trkpt lat="43.66997" lon="6.71954">
        <ele>534</ele>
      </trkpt>
      <trkpt lat="43.66983" lon="6.71926">
        <ele>532</ele>
      </trkpt>
      <trkpt lat="43.66968" lon="6.71896">
        <ele>537</ele>
      </trkpt>
      <trkpt lat="43.66956" lon="6.71861">
        <ele>534</ele>
      </trkpt>
      <trkpt lat="43.6694" lon="6.71816">
        <ele>548</ele>
      </trkpt>
      <trkpt lat="43.66907" lon="6.71776">
        <ele>552</ele>
      </trkpt>
      <trkpt lat="43.66885" lon="6.71758">
        <ele>557</ele>
      </trkpt>
      <trkpt lat="43.66859" lon="6.71737">
        <ele>559</ele>
      </trkpt>
      <trkpt lat="43.66821" lon="6.71722">
        <ele>555</ele>
      </trkpt>
      <trkpt lat="43.66785" lon="6.71694">
        <ele>556</ele>
      </trkpt>
      <trkpt lat="43.66759" lon="6.71689">
        <ele>553</ele>
      </trkpt>
      <trkpt lat="43.66731" lon="6.71683">
        <ele>552</ele>
      </trkpt>
      <trkpt lat="43.66684" lon="6.71664">
        <ele>553</ele>
      </trkpt>
      <trkpt lat="43.6666" lon="6.71652">
        <ele>551</ele>
      </trkpt>
      <trkpt lat="43.66634" lon="6.71638">
        <ele>554</ele>
      </trkpt>
      <trkpt lat="43.66589" lon="6.71615">
        <ele>555</ele>
      </trkpt>
      <trkpt lat="43.66544" lon="6.71591">
        <ele>556</ele>
      </trkpt>
      <trkpt lat="43.66512" lon="6.71567">
        <ele>553</ele>
      </trkpt>
      <trkpt lat="43.66467" lon="6.71552">
        <ele>556</ele>
      </trkpt>
      <trkpt lat="43.66439" lon="6.71548">
        <ele>556</ele>
      </trkpt>
      <trkpt lat="43.66403" lon="6.71542">
        <ele>549</ele>
      </trkpt>
      <trkpt lat="43.66358" lon="6.7154">
        <ele>546</ele>
      </trkpt>
      <trkpt lat="43.66313" lon="6.71527">
        <ele>542</ele>
      </trkpt>
      <trkpt lat="43.66265" lon="6.71518">
        <ele>553</ele>
      </trkpt>
      <trkpt lat="43.66243" lon="6.71502">
        <ele>553</ele>
      </trkpt>
      <trkpt lat="43.66221" lon="6.71486">
        <ele>550</ele>
      </trkpt>
      <trkpt lat="43.66184" lon="6.7145">
        <ele>557</ele>
      </trkpt>
      <trkpt lat="43.6615" lon="6.71411">
        <ele>558</ele>
      </trkpt>
      <trkpt lat="43.66114" lon="6.71368">
        <ele>561</ele>
      </trkpt>
      <trkpt lat="43.66085" lon="6.71325">
        <ele>575</ele>
      </trkpt>
      <trkpt lat="43.66063" lon="6.71307">
        <ele>580</ele>
      </trkpt>
      <trkpt lat="43.66038" lon="6.71286">
        <ele>578</ele>
      </trkpt>
      <trkpt lat="43.65993" lon="6.71265">
        <ele>579</ele>
      </trkpt>
      <trkpt lat="43.65947" lon="6.71256">
        <ele>583</ele>
      </trkpt>
      <trkpt lat="43.65936" lon="6.71218">
        <ele>579</ele>
      </trkpt>
      <trkpt lat="43.65919" lon="6.71183">
        <ele>575</ele>
      </trkpt>
      <trkpt lat="43.65889" lon="6.71207">
        <ele>568</ele>
      </trkpt>
      <trkpt lat="43.65872" lon="6.71228">
        <ele>565</ele>
      </trkpt>
      <trkpt lat="43.6583" lon="6.71263">
        <ele>571</ele>
      </trkpt>
      <trkpt lat="43.65801" lon="6.71289">
        <ele>569</ele>
      </trkpt>
      <trkpt lat="43.65779" lon="6.71325">
        <ele>566</ele>
      </trkpt>
      <trkpt lat="43.65757" lon="6.71355">
        <ele>557</ele>
      </trkpt>
      <trkpt lat="43.65731" lon="6.71389">
        <ele>552</ele>
      </trkpt>
      <trkpt lat="43.65703" lon="6.71417">
        <ele>556</ele>
      </trkpt>
      <trkpt lat="43.65673" lon="6.71379">
        <ele>553</ele>
      </trkpt>
      <trkpt lat="43.65651" lon="6.71361">
        <ele>552</ele>
      </trkpt>
      <trkpt lat="43.65625" lon="6.71342">
        <ele>548</ele>
      </trkpt>
      <trkpt lat="43.656" lon="6.71295">
        <ele>544</ele>
      </trkpt>
      <trkpt lat="43.65584" lon="6.71268">
        <ele>542</ele>
      </trkpt>
      <trkpt lat="43.65565" lon="6.71237">
        <ele>539</ele>
      </trkpt>
      <trkpt lat="43.65548" lon="6.71198">
        <ele>538</ele>
      </trkpt>
      <trkpt lat="43.65523" lon="6.71147">
        <ele>535</ele>
      </trkpt>
      <trkpt lat="43.65504" lon="6.71104">
        <ele>534</ele>
      </trkpt>
      <trkpt lat="43.65485" lon="6.71061">
        <ele>524</ele>
      </trkpt>
      <trkpt lat="43.65462" lon="6.71031">
        <ele>522</ele>
      </trkpt>
      <trkpt lat="43.65436" lon="6.70975">
        <ele>522</ele>
      </trkpt>
      <trkpt lat="43.65416" lon="6.70939">
        <ele>518</ele>
      </trkpt>
      <trkpt lat="43.65368" lon="6.70932">
        <ele>512</ele>
      </trkpt>
      <trkpt lat="43.65343" lon="6.7093">
        <ele>507</ele>
      </trkpt>
      <trkpt lat="43.65315" lon="6.70924">
        <ele>505</ele>
      </trkpt>
      <trkpt lat="43.65285" lon="6.70922">
        <ele>501</ele>
      </trkpt>
      <trkpt lat="43.65243" lon="6.709">
        <ele>496</ele>
      </trkpt>
      <trkpt lat="43.65215" lon="6.70855">
        <ele>496</ele>
      </trkpt>
      <trkpt lat="43.65198" lon="6.70849">
        <ele>486.1</ele>
      </trkpt>
      <trkpt lat="43.6518" lon="6.70862">
        <ele>489</ele>
      </trkpt>
      <trkpt lat="43.65163" lon="6.7087">
        <ele>482.4</ele>
      </trkpt>
      <trkpt lat="43.65173" lon="6.7093">
        <ele>482</ele>
      </trkpt>
      <trkpt lat="43.6518" lon="6.70988">
        <ele>481</ele>
      </trkpt>
      <trkpt lat="43.65194" lon="6.71048">
        <ele>489</ele>
      </trkpt>
      <trkpt lat="43.65207" lon="6.71087">
        <ele>486</ele>
      </trkpt>
      <trkpt lat="43.65177" lon="6.71063">
        <ele>481</ele>
      </trkpt>
      <trkpt lat="43.65157" lon="6.71044">
        <ele>478</ele>
      </trkpt>
      <trkpt lat="43.65144" lon="6.71073">
        <ele>475</ele>
      </trkpt>
      <trkpt lat="43.65131" lon="6.71104">
        <ele>473</ele>
      </trkpt>
      <trkpt lat="43.65107" lon="6.71086">
        <ele>472</ele>
      </trkpt>
      <trkpt lat="43.6508" lon="6.71065">
        <ele>468</ele>
      </trkpt>
      <trkpt lat="43.65031" lon="6.71061">
        <ele>458</ele>
      </trkpt>
      <trkpt lat="43.64997" lon="6.71046">
        <ele>459</ele>
      </trkpt>
      <trkpt lat="43.64958" lon="6.71025">
        <ele>454</ele>
      </trkpt>
      <trkpt lat="43.64935" lon="6.71039">
        <ele>455</ele>
      </trkpt>
      <trkpt lat="43.64909" lon="6.71055">
        <ele>459</ele>
      </trkpt>
      <trkpt lat="43.6487" lon="6.71078">
        <ele>457</ele>
      </trkpt>
      <trkpt lat="43.64834" lon="6.71083">
        <ele>452</ele>
      </trkpt>
      <trkpt lat="43.64814" lon="6.7106">
        <ele>443</ele>
      </trkpt>
      <trkpt lat="43.64791" lon="6.71033">
        <ele>443</ele>
      </trkpt>
      <trkpt lat="43.64753" lon="6.71055">
        <ele>438</ele>
      </trkpt>
      <trkpt lat="43.64729" lon="6.71062">
        <ele>433</ele>
      </trkpt>
      <trkpt lat="43.64702" lon="6.7107">
        <ele>436</ele>
      </trkpt>
      <trkpt lat="43.64674" lon="6.71079">
        <ele>435</ele>
      </trkpt>
      <trkpt lat="43.64631" lon="6.71093">
        <ele>434</ele>
      </trkpt>
      <trkpt lat="43.64605" lon="6.71101">
        <ele>430</ele>
      </trkpt>
      <trkpt lat="43.64573" lon="6.71111">
        <ele>428</ele>
      </trkpt>
      <trkpt lat="43.64568" lon="6.71145">
        <ele>429</ele>
      </trkpt>
      <trkpt lat="43.64562" lon="6.71183">
        <ele>429</ele>
      </trkpt>
      <trkpt lat="43.64546" lon="6.71212">
        <ele>423</ele>
      </trkpt>
      <trkpt lat="43.64527" lon="6.71246">
        <ele>421</ele>
      </trkpt>
      <trkpt lat="43.64505" lon="6.71268">
        <ele>421</ele>
      </trkpt>
      <trkpt lat="43.64477" lon="6.71295">
        <ele>417</ele>
      </trkpt>
      <trkpt lat="43.64438" lon="6.71327">
        <ele>413</ele>
      </trkpt>
      <trkpt lat="43.64395" lon="6.71355">
        <ele>410</ele>
      </trkpt>
      <trkpt lat="43.64358" lon="6.71381">
        <ele>410</ele>
      </trkpt>
      <trkpt lat="43.64336" lon="6.71432">
        <ele>409</ele>
      </trkpt>
      <trkpt lat="43.64321" lon="6.71466">
        <ele>404</ele>
      </trkpt>
      <trkpt lat="43.643" lon="6.71512">
        <ele>401</ele>
      </trkpt>
      <trkpt lat="43.64333" lon="6.71552">
        <ele>406</ele>
      </trkpt>
      <trkpt lat="43.64375" lon="6.71587">
        <ele>402</ele>
      </trkpt>
      <trkpt lat="43.64397" lon="6.71607">
        <ele>405</ele>
      </trkpt>
      <trkpt lat="43.64424" lon="6.71632">
        <ele>409</ele>
      </trkpt>
      <trkpt lat="43.64452" lon="6.71671">
        <ele>419</ele>
      </trkpt>
      <trkpt lat="43.64458" lon="6.71704">
        <ele>418</ele>
      </trkpt>
      <trkpt lat="43.64463" lon="6.71739">
        <ele>414</ele>
      </trkpt>
      <trkpt lat="43.64489" lon="6.71756">
        <ele>408</ele>
      </trkpt>
      <trkpt lat="43.64519" lon="6.71755">
        <ele>404</ele>
      </trkpt>
      <trkpt lat="43.64564" lon="6.71754">
        <ele>399</ele>
      </trkpt>
      <trkpt lat="43.64557" lon="6.71792">
        <ele>400</ele>
      </trkpt>
      <trkpt lat="43.64549" lon="6.71842">
        <ele>396</ele>
      </trkpt>
      <trkpt lat="43.64539" lon="6.71876">
        <ele>398</ele>
      </trkpt>
      <trkpt lat="43.64527" lon="6.71917">
        <ele>400</ele>
      </trkpt>
      <trkpt lat="43.64518" lon="6.7195">
        <ele>399</ele>
      </trkpt>
      <trkpt lat="43.6451" lon="6.71984">
        <ele>399</ele>
      </trkpt>
      <trkpt lat="43.64511" lon="6.72021">
        <ele>399</ele>
      </trkpt>
      <trkpt lat="43.64513" lon="6.7207">
        <ele>398</ele>
      </trkpt>
      <trkpt lat="43.64521" lon="6.72104">
        <ele>392</ele>
      </trkpt>
      <trkpt lat="43.6453" lon="6.72143">
        <ele>392</ele>
      </trkpt>
      <trkpt lat="43.64535" lon="6.72176">
        <ele>392</ele>
      </trkpt>
      <trkpt lat="43.64539" lon="6.72209">
        <ele>392</ele>
      </trkpt>
      <trkpt lat="43.64528" lon="6.7224">
        <ele>394</ele>
      </trkpt>
      <trkpt lat="43.64516" lon="6.72273">
        <ele>394</ele>
      </trkpt>
      <trkpt lat="43.64516" lon="6.72309">
        <ele>394</ele>
      </trkpt>
      <trkpt lat="43.64516" lon="6.72346">
        <ele>396</ele>
      </trkpt>
      <trkpt lat="43.64516" lon="6.72383">
        <ele>401</ele>
      </trkpt>
      <trkpt lat="43.64516" lon="6.72426">
        <ele>399</ele>
      </trkpt>
      <trkpt lat="43.64516" lon="6.72462">
        <ele>393</ele>
      </trkpt>
      <trkpt lat="43.64497" lon="6.72511">
        <ele>391</ele>
      </trkpt>
      <trkpt lat="43.64463" lon="6.72541">
        <ele>391</ele>
      </trkpt>
      <trkpt lat="43.64418" lon="6.72559">
        <ele>394</ele>
      </trkpt>
      <trkpt lat="43.64378" lon="6.72569">
        <ele>390</ele>
      </trkpt>
      <trkpt lat="43.64348" lon="6.72582">
        <ele>394</ele>
      </trkpt>
      <trkpt lat="43.64303" lon="6.72591">
        <ele>395</ele>
      </trkpt>
      <trkpt lat="43.64266" lon="6.72614">
        <ele>402</ele>
      </trkpt>
      <trkpt lat="43.64219" lon="6.72614">
        <ele>399</ele>
      </trkpt>
      <trkpt lat="43.64174" lon="6.72614">
        <ele>393</ele>
      </trkpt>
      <trkpt lat="43.64128" lon="6.72614">
        <ele>396</ele>
      </trkpt>
      <trkpt lat="43.64101" lon="6.72614">
        <ele>396</ele>
      </trkpt>
      <trkpt lat="43.6407" lon="6.72614">
        <ele>397</ele>
      </trkpt>
      <trkpt lat="43.64024" lon="6.72629">
        <ele>388</ele>
      </trkpt>
      <trkpt lat="43.64" lon="6.7264">
        <ele>388</ele>
      </trkpt>
      <trkpt lat="43.63977" lon="6.72651">
        <ele>382</ele>
      </trkpt>
      <trkpt lat="43.63954" lon="6.72665">
        <ele>387</ele>
      </trkpt>
      <trkpt lat="43.63927" lon="6.72681">
        <ele>378</ele>
      </trkpt>
      <trkpt lat="43.63919" lon="6.72713">
        <ele>386</ele>
      </trkpt>
      <trkpt lat="43.6391" lon="6.72745">
        <ele>389</ele>
      </trkpt>
      <trkpt lat="43.63907" lon="6.72803">
        <ele>388</ele>
      </trkpt>
      <trkpt lat="43.63907" lon="6.72863">
        <ele>389</ele>
      </trkpt>
      <trkpt lat="43.63909" lon="6.72897">
        <ele>387</ele>
      </trkpt>
      <trkpt lat="43.63912" lon="6.72932">
        <ele>388</ele>
      </trkpt>
      <trkpt lat="43.63907" lon="6.72967">
        <ele>385</ele>
      </trkpt>
      <trkpt lat="43.63903" lon="6.73007">
        <ele>385</ele>
      </trkpt>
      <trkpt lat="43.63898" lon="6.73044">
        <ele>385</ele>
      </trkpt>
      <trkpt lat="43.63893" lon="6.73089">
        <ele>387</ele>
      </trkpt>
      <trkpt lat="43.63885" lon="6.73124">
        <ele>388</ele>
      </trkpt>
      <trkpt lat="43.63876" lon="6.73166">
        <ele>389</ele>
      </trkpt>
      <trkpt lat="43.63872" lon="6.73203">
        <ele>390</ele>
      </trkpt>
      <trkpt lat="43.63867" lon="6.73249">
        <ele>391</ele>
      </trkpt>
      <trkpt lat="43.6387" lon="6.73287">
        <ele>393</ele>
      </trkpt>
      <trkpt lat="43.63873" lon="6.73333">
        <ele>391</ele>
      </trkpt>
      <trkpt lat="43.63862" lon="6.73366">
        <ele>391</ele>
      </trkpt>
      <trkpt lat="43.63848" lon="6.73404">
        <ele>387</ele>
      </trkpt>
      <trkpt lat="43.63844" lon="6.73438">
        <ele>385</ele>
      </trkpt>
      <trkpt lat="43.6384" lon="6.73475">
        <ele>385</ele>
      </trkpt>
      <trkpt lat="43.63837" lon="6.73541">
        <ele>381</ele>
      </trkpt>
      <trkpt lat="43.6382" lon="6.73597">
        <ele>377</ele>
      </trkpt>
      <trkpt lat="43.6383" lon="6.73629">
        <ele>374</ele>
      </trkpt>
      <trkpt lat="43.6384" lon="6.73661">
        <ele>376</ele>
      </trkpt>
      <trkpt lat="43.63857" lon="6.73719">
        <ele>382</ele>
      </trkpt>
      <trkpt lat="43.63865" lon="6.73779">
        <ele>381</ele>
      </trkpt>
      <trkpt lat="43.63876" lon="6.73837">
        <ele>384</ele>
      </trkpt>
      <trkpt lat="43.63893" lon="6.73882">
        <ele>389</ele>
      </trkpt>
      <trkpt lat="43.6393" lon="6.73902">
        <ele>389</ele>
      </trkpt>
      <trkpt lat="43.63972" lon="6.73897">
        <ele>390</ele>
      </trkpt>
      <trkpt lat="43.64017" lon="6.73876">
        <ele>389</ele>
      </trkpt>
      <trkpt lat="43.64041" lon="6.73889">
        <ele>386</ele>
      </trkpt>
      <trkpt lat="43.64059" lon="6.73912">
        <ele>384</ele>
      </trkpt>
      <trkpt lat="43.64078" lon="6.73936">
        <ele>385</ele>
      </trkpt>
      <trkpt lat="43.64123" lon="6.73962">
        <ele>390</ele>
      </trkpt>
      <trkpt lat="43.64138" lon="6.73991">
        <ele>394</ele>
      </trkpt>
      <trkpt lat="43.64154" lon="6.74022">
        <ele>393</ele>
      </trkpt>
      <trkpt lat="43.64179" lon="6.74078">
        <ele>395</ele>
      </trkpt>
      <trkpt lat="43.64186" lon="6.74114">
        <ele>395</ele>
      </trkpt>
      <trkpt lat="43.64194" lon="6.74161">
        <ele>398</ele>
      </trkpt>
      <trkpt lat="43.64201" lon="6.74217">
        <ele>397</ele>
      </trkpt>
      <trkpt lat="43.64227" lon="6.74251">
        <ele>394</ele>
      </trkpt>
      <trkpt lat="43.64247" lon="6.74273">
        <ele>394</ele>
      </trkpt>
      <trkpt lat="43.64269" lon="6.74297">
        <ele>394</ele>
      </trkpt>
      <trkpt lat="43.64296" lon="6.74303">
        <ele>398</ele>
      </trkpt>
      <trkpt lat="43.64333" lon="6.74312">
        <ele>402</ele>
      </trkpt>
      <trkpt lat="43.64358" lon="6.74318">
        <ele>405</ele>
      </trkpt>
      <trkpt lat="43.64385" lon="6.74325">
        <ele>410</ele>
      </trkpt>
      <trkpt lat="43.6441" lon="6.74339">
        <ele>410</ele>
      </trkpt>
      <trkpt lat="43.64438" lon="6.74357">
        <ele>415</ele>
      </trkpt>
      <trkpt lat="43.64483" lon="6.7438">
        <ele>417</ele>
      </trkpt>
      <trkpt lat="43.64514" lon="6.74393">
        <ele>413</ele>
      </trkpt>
      <trkpt lat="43.6448" lon="6.74423">
        <ele>414</ele>
      </trkpt>
      <trkpt lat="43.64449" lon="6.74447">
        <ele>409</ele>
      </trkpt>
      <trkpt lat="43.64412" lon="6.74458">
        <ele>411</ele>
      </trkpt>
      <trkpt lat="43.64379" lon="6.74479">
        <ele>402</ele>
      </trkpt>
      <trkpt lat="43.64348" lon="6.745">
        <ele>397</ele>
      </trkpt>
      <trkpt lat="43.64319" lon="6.74505">
        <ele>402</ele>
      </trkpt>
      <trkpt lat="43.64275" lon="6.74509">
        <ele>403</ele>
      </trkpt>
      <trkpt lat="43.64253" lon="6.7452">
        <ele>401</ele>
      </trkpt>
      <trkpt lat="43.64265" lon="6.74551">
        <ele>401</ele>
      </trkpt>
      <trkpt lat="43.64278" lon="6.74586">
        <ele>405</ele>
      </trkpt>
      <trkpt lat="43.64294" lon="6.74615">
        <ele>405</ele>
      </trkpt>
      <trkpt lat="43.64312" lon="6.74649">
        <ele>407</ele>
      </trkpt>
      <trkpt lat="43.64327" lon="6.74679">
        <ele>407</ele>
      </trkpt>
      <trkpt lat="43.64344" lon="6.74715">
        <ele>409</ele>
      </trkpt>
      <trkpt lat="43.64365" lon="6.74773">
        <ele>409</ele>
      </trkpt>
      <trkpt lat="43.6438" lon="6.74801">
        <ele>409</ele>
      </trkpt>
      <trkpt lat="43.64395" lon="6.74829">
        <ele>410</ele>
      </trkpt>
      <trkpt lat="43.6441" lon="6.7487">
        <ele>405</ele>
      </trkpt>
      <trkpt lat="43.64375" lon="6.74893">
        <ele>405</ele>
      </trkpt>
      <trkpt lat="43.64336" lon="6.7491">
        <ele>404</ele>
      </trkpt>
      <trkpt lat="43.64294" lon="6.74938">
        <ele>407</ele>
      </trkpt>
      <trkpt lat="43.6426" lon="6.74957">
        <ele>406</ele>
      </trkpt>
      <trkpt lat="43.64235" lon="6.74981">
        <ele>402</ele>
      </trkpt>
      <trkpt lat="43.64198" lon="6.75009">
        <ele>400</ele>
      </trkpt>
      <trkpt lat="43.64177" lon="6.75029">
        <ele>399</ele>
      </trkpt>
      <trkpt lat="43.64156" lon="6.7505">
        <ele>395</ele>
      </trkpt>
      <trkpt lat="43.6414" lon="6.7509">
        <ele>392</ele>
      </trkpt>
      <trkpt lat="43.64154" lon="6.7514">
        <ele>392</ele>
      </trkpt>
      <trkpt lat="43.64176" lon="6.75194">
        <ele>396</ele>
      </trkpt>
      <trkpt lat="43.64182" lon="6.7523">
        <ele>398</ele>
      </trkpt>
      <trkpt lat="43.64153" lon="6.75269">
        <ele>402</ele>
      </trkpt>
      <trkpt lat="43.64118" lon="6.75294">
        <ele>405</ele>
      </trkpt>
      <trkpt lat="43.64075" lon="6.75322">
        <ele>409</ele>
      </trkpt>
      <trkpt lat="43.64035" lon="6.75352">
        <ele>411</ele>
      </trkpt>
      <trkpt lat="43.64008" lon="6.75385">
        <ele>411</ele>
      </trkpt>
      <trkpt lat="43.63997" lon="6.7542">
        <ele>410</ele>
      </trkpt>
      <trkpt lat="43.63983" lon="6.75466">
        <ele>410</ele>
      </trkpt>
      <trkpt lat="43.63958" lon="6.75471">
        <ele>409</ele>
      </trkpt>
      <trkpt lat="43.6393" lon="6.75477">
        <ele>412</ele>
      </trkpt>
      <trkpt lat="43.63885" lon="6.75481">
        <ele>418</ele>
      </trkpt>
      <trkpt lat="43.63861" lon="6.75472">
        <ele>419</ele>
      </trkpt>
      <trkpt lat="43.63833" lon="6.75455">
        <ele>421</ele>
      </trkpt>
      <trkpt lat="43.63809" lon="6.75427">
        <ele>415</ele>
      </trkpt>
      <trkpt lat="43.63844" lon="6.75387">
        <ele>419</ele>
      </trkpt>
      <trkpt lat="43.63857" lon="6.75322">
        <ele>417</ele>
      </trkpt>
      <trkpt lat="43.63892" lon="6.75314">
        <ele>414</ele>
      </trkpt>
      <trkpt lat="43.63918" lon="6.75305">
        <ele>409</ele>
      </trkpt>
    </trkseg>
  </trk>
</gpx>